<?xml version="1.0" encoding="utf-8"?>
<gpx xmlns:xsi="http://www.w3.org/2001/XMLSchema-instance" xmlns:xsd="http://www.w3.org/2001/XMLSchema" version="1.1" creator="Shapelink.com" xmlns="http://www.topografix.com/GPX/1/1" xmlns:gpxtpx="http://www.garmin.com/xmlschemas/TrackPointExtension/v1">
  <metadata>
    <name>Ciclismo 21.79 km, 2015-05-13</name>
    <desc></desc>
    <author><name>Henrik Amren</name></author> 
    <time>2015-05-13T18:13:47Z</time>
  </metadata>
  <trk>
    <name>Ciclismo 21.79 km, 2015-05-13</name>
    <trkseg>
      <trkpt lat="37.390196" lon="-122.123454">
        <ele>42.6</ele>
        <time>2015-05-13T18:13:47Z</time>
      </trkpt>
      <trkpt lat="37.390174" lon="-122.123427">
        <ele>42.6</ele>
        <time>2015-05-13T18:13:48Z</time>
      </trkpt>
      <trkpt lat="37.390144" lon="-122.123445">
        <ele>42.7</ele>
        <time>2015-05-13T18:13:54Z</time>
      </trkpt>
      <trkpt lat="37.390111" lon="-122.123439">
        <ele>42.7</ele>
        <time>2015-05-13T18:13:56Z</time>
      </trkpt>
      <trkpt lat="37.390083" lon="-122.123412">
        <ele>42.6</ele>
        <time>2015-05-13T18:13:58Z</time>
      </trkpt>
      <trkpt lat="37.390074" lon="-122.123349">
        <ele>42.5</ele>
        <time>2015-05-13T18:14:00Z</time>
      </trkpt>
      <trkpt lat="37.390074" lon="-122.12331">
        <ele>42.4</ele>
        <time>2015-05-13T18:14:01Z</time>
      </trkpt>
      <trkpt lat="37.390075" lon="-122.123265">
        <ele>42.4</ele>
        <time>2015-05-13T18:14:02Z</time>
      </trkpt>
      <trkpt lat="37.390074" lon="-122.12322">
        <ele>42.3</ele>
        <time>2015-05-13T18:14:03Z</time>
      </trkpt>
      <trkpt lat="37.390076" lon="-122.123176">
        <ele>42.1</ele>
        <time>2015-05-13T18:14:04Z</time>
      </trkpt>
      <trkpt lat="37.390082" lon="-122.123125">
        <ele>42.1</ele>
        <time>2015-05-13T18:14:05Z</time>
      </trkpt>
      <trkpt lat="37.390091" lon="-122.123064">
        <ele>42.1</ele>
        <time>2015-05-13T18:14:06Z</time>
      </trkpt>
      <trkpt lat="37.390119" lon="-122.122973">
        <ele>41.9</ele>
        <time>2015-05-13T18:14:07Z</time>
      </trkpt>
      <trkpt lat="37.39014" lon="-122.12291">
        <ele>41.9</ele>
        <time>2015-05-13T18:14:08Z</time>
      </trkpt>
      <trkpt lat="37.390161" lon="-122.122851">
        <ele>41.8</ele>
        <time>2015-05-13T18:14:09Z</time>
      </trkpt>
      <trkpt lat="37.390187" lon="-122.122765">
        <ele>41.9</ele>
        <time>2015-05-13T18:14:10Z</time>
      </trkpt>
      <trkpt lat="37.390212" lon="-122.122703">
        <ele>41.6</ele>
        <time>2015-05-13T18:14:11Z</time>
      </trkpt>
      <trkpt lat="37.390244" lon="-122.122613">
        <ele>41.4</ele>
        <time>2015-05-13T18:14:12Z</time>
      </trkpt>
      <trkpt lat="37.390249" lon="-122.122541">
        <ele>41.2</ele>
        <time>2015-05-13T18:14:13Z</time>
      </trkpt>
      <trkpt lat="37.390291" lon="-122.122476">
        <ele>41.1</ele>
        <time>2015-05-13T18:14:14Z</time>
      </trkpt>
      <trkpt lat="37.390328" lon="-122.122418">
        <ele>41</ele>
        <time>2015-05-13T18:14:15Z</time>
      </trkpt>
      <trkpt lat="37.390369" lon="-122.122355">
        <ele>40.9</ele>
        <time>2015-05-13T18:14:16Z</time>
      </trkpt>
      <trkpt lat="37.390403" lon="-122.122299">
        <ele>40.8</ele>
        <time>2015-05-13T18:14:17Z</time>
      </trkpt>
      <trkpt lat="37.390429" lon="-122.122249">
        <ele>40.7</ele>
        <time>2015-05-13T18:14:18Z</time>
      </trkpt>
      <trkpt lat="37.390437" lon="-122.122216">
        <ele>40.6</ele>
        <time>2015-05-13T18:14:19Z</time>
      </trkpt>
      <trkpt lat="37.390447" lon="-122.12207">
        <ele>40.3</ele>
        <time>2015-05-13T18:14:20Z</time>
      </trkpt>
      <trkpt lat="37.390452" lon="-122.121988">
        <ele>40.2</ele>
        <time>2015-05-13T18:14:21Z</time>
      </trkpt>
      <trkpt lat="37.390457" lon="-122.121901">
        <ele>40.1</ele>
        <time>2015-05-13T18:14:22Z</time>
      </trkpt>
      <trkpt lat="37.390462" lon="-122.121811">
        <ele>40.2</ele>
        <time>2015-05-13T18:14:23Z</time>
      </trkpt>
      <trkpt lat="37.390472" lon="-122.121484">
        <ele>40.1</ele>
        <time>2015-05-13T18:14:27Z</time>
      </trkpt>
      <trkpt lat="37.390474" lon="-122.121404">
        <ele>40.2</ele>
        <time>2015-05-13T18:14:28Z</time>
      </trkpt>
      <trkpt lat="37.390476" lon="-122.121328">
        <ele>40.2</ele>
        <time>2015-05-13T18:14:29Z</time>
      </trkpt>
      <trkpt lat="37.390478" lon="-122.121259">
        <ele>40.2</ele>
        <time>2015-05-13T18:14:30Z</time>
      </trkpt>
      <trkpt lat="37.39048" lon="-122.121181">
        <ele>40.2</ele>
        <time>2015-05-13T18:14:31Z</time>
      </trkpt>
      <trkpt lat="37.390483" lon="-122.121104">
        <ele>40.2</ele>
        <time>2015-05-13T18:14:32Z</time>
      </trkpt>
      <trkpt lat="37.390484" lon="-122.121043">
        <ele>40.2</ele>
        <time>2015-05-13T18:14:33Z</time>
      </trkpt>
      <trkpt lat="37.390486" lon="-122.120974">
        <ele>40.1</ele>
        <time>2015-05-13T18:14:34Z</time>
      </trkpt>
      <trkpt lat="37.390488" lon="-122.120918">
        <ele>40.1</ele>
        <time>2015-05-13T18:14:35Z</time>
      </trkpt>
      <trkpt lat="37.390489" lon="-122.120881">
        <ele>40.1</ele>
        <time>2015-05-13T18:14:36Z</time>
      </trkpt>
      <trkpt lat="37.390437" lon="-122.120788">
        <ele>40.2</ele>
        <time>2015-05-13T18:14:37Z</time>
      </trkpt>
      <trkpt lat="37.390393" lon="-122.120788">
        <ele>40.3</ele>
        <time>2015-05-13T18:14:38Z</time>
      </trkpt>
      <trkpt lat="37.390347" lon="-122.120788">
        <ele>40.3</ele>
        <time>2015-05-13T18:14:39Z</time>
      </trkpt>
      <trkpt lat="37.390296" lon="-122.120788">
        <ele>40.4</ele>
        <time>2015-05-13T18:14:40Z</time>
      </trkpt>
      <trkpt lat="37.390225" lon="-122.120788">
        <ele>40.5</ele>
        <time>2015-05-13T18:14:41Z</time>
      </trkpt>
      <trkpt lat="37.390191" lon="-122.120788">
        <ele>40.6</ele>
        <time>2015-05-13T18:14:42Z</time>
      </trkpt>
      <trkpt lat="37.390138" lon="-122.120788">
        <ele>40.7</ele>
        <time>2015-05-13T18:14:43Z</time>
      </trkpt>
      <trkpt lat="37.390086" lon="-122.120788">
        <ele>40.7</ele>
        <time>2015-05-13T18:14:44Z</time>
      </trkpt>
      <trkpt lat="37.390035" lon="-122.120788">
        <ele>40.8</ele>
        <time>2015-05-13T18:14:45Z</time>
      </trkpt>
      <trkpt lat="37.389977" lon="-122.120788">
        <ele>40.8</ele>
        <time>2015-05-13T18:14:46Z</time>
      </trkpt>
      <trkpt lat="37.389923" lon="-122.120788">
        <ele>40.9</ele>
        <time>2015-05-13T18:14:47Z</time>
      </trkpt>
      <trkpt lat="37.389868" lon="-122.120788">
        <ele>41</ele>
        <time>2015-05-13T18:14:49Z</time>
      </trkpt>
      <trkpt lat="37.389756" lon="-122.120788">
        <ele>41</ele>
        <time>2015-05-13T18:14:50Z</time>
      </trkpt>
      <trkpt lat="37.389702" lon="-122.120788">
        <ele>41</ele>
        <time>2015-05-13T18:14:51Z</time>
      </trkpt>
      <trkpt lat="37.389645" lon="-122.120788">
        <ele>41.1</ele>
        <time>2015-05-13T18:14:52Z</time>
      </trkpt>
      <trkpt lat="37.389588" lon="-122.120788">
        <ele>41.2</ele>
        <time>2015-05-13T18:14:53Z</time>
      </trkpt>
      <trkpt lat="37.389531" lon="-122.120788">
        <ele>41.2</ele>
        <time>2015-05-13T18:14:54Z</time>
      </trkpt>
      <trkpt lat="37.389481" lon="-122.120788">
        <ele>41.3</ele>
        <time>2015-05-13T18:14:55Z</time>
      </trkpt>
      <trkpt lat="37.389424" lon="-122.120788">
        <ele>41.4</ele>
        <time>2015-05-13T18:14:56Z</time>
      </trkpt>
      <trkpt lat="37.389385" lon="-122.120788">
        <ele>41.4</ele>
        <time>2015-05-13T18:14:57Z</time>
      </trkpt>
      <trkpt lat="37.38914" lon="-122.120792">
        <ele>41.7</ele>
        <time>2015-05-13T18:15:01Z</time>
      </trkpt>
      <trkpt lat="37.389083" lon="-122.120793">
        <ele>41.7</ele>
        <time>2015-05-13T18:15:02Z</time>
      </trkpt>
      <trkpt lat="37.389028" lon="-122.120793">
        <ele>41.7</ele>
        <time>2015-05-13T18:15:03Z</time>
      </trkpt>
      <trkpt lat="37.388971" lon="-122.120794">
        <ele>41.8</ele>
        <time>2015-05-13T18:15:04Z</time>
      </trkpt>
      <trkpt lat="37.388916" lon="-122.120795">
        <ele>41.9</ele>
        <time>2015-05-13T18:15:05Z</time>
      </trkpt>
      <trkpt lat="37.388864" lon="-122.120796">
        <ele>41.9</ele>
        <time>2015-05-13T18:15:06Z</time>
      </trkpt>
      <trkpt lat="37.388811" lon="-122.120796">
        <ele>42</ele>
        <time>2015-05-13T18:15:07Z</time>
      </trkpt>
      <trkpt lat="37.388753" lon="-122.120797">
        <ele>42</ele>
        <time>2015-05-13T18:15:08Z</time>
      </trkpt>
      <trkpt lat="37.388702" lon="-122.120798">
        <ele>42.1</ele>
        <time>2015-05-13T18:15:09Z</time>
      </trkpt>
      <trkpt lat="37.388645" lon="-122.120798">
        <ele>42.2</ele>
        <time>2015-05-13T18:15:10Z</time>
      </trkpt>
      <trkpt lat="37.388598" lon="-122.120799">
        <ele>42.2</ele>
        <time>2015-05-13T18:15:11Z</time>
      </trkpt>
      <trkpt lat="37.388565" lon="-122.120799">
        <ele>42.3</ele>
        <time>2015-05-13T18:15:12Z</time>
      </trkpt>
      <trkpt lat="37.388324" lon="-122.120799">
        <ele>42.4</ele>
        <time>2015-05-13T18:15:16Z</time>
      </trkpt>
      <trkpt lat="37.388271" lon="-122.120799">
        <ele>42.5</ele>
        <time>2015-05-13T18:15:17Z</time>
      </trkpt>
      <trkpt lat="37.388206" lon="-122.120799">
        <ele>42.6</ele>
        <time>2015-05-13T18:15:18Z</time>
      </trkpt>
      <trkpt lat="37.388157" lon="-122.120799">
        <ele>42.7</ele>
        <time>2015-05-13T18:15:20Z</time>
      </trkpt>
      <trkpt lat="37.388057" lon="-122.120799">
        <ele>42.8</ele>
        <time>2015-05-13T18:15:21Z</time>
      </trkpt>
      <trkpt lat="37.388002" lon="-122.120799">
        <ele>42.9</ele>
        <time>2015-05-13T18:15:22Z</time>
      </trkpt>
      <trkpt lat="37.387946" lon="-122.120799">
        <ele>42.9</ele>
        <time>2015-05-13T18:15:23Z</time>
      </trkpt>
      <trkpt lat="37.38782" lon="-122.1208">
        <ele>43.1</ele>
        <time>2015-05-13T18:15:25Z</time>
      </trkpt>
      <trkpt lat="37.387727" lon="-122.120801">
        <ele>43.3</ele>
        <time>2015-05-13T18:15:27Z</time>
      </trkpt>
      <trkpt lat="37.387698" lon="-122.120802">
        <ele>43.3</ele>
        <time>2015-05-13T18:15:28Z</time>
      </trkpt>
      <trkpt lat="37.387614" lon="-122.120803">
        <ele>43.4</ele>
        <time>2015-05-13T18:15:29Z</time>
      </trkpt>
      <trkpt lat="37.387564" lon="-122.120803">
        <ele>43.4</ele>
        <time>2015-05-13T18:15:30Z</time>
      </trkpt>
      <trkpt lat="37.387507" lon="-122.120804">
        <ele>43.5</ele>
        <time>2015-05-13T18:15:31Z</time>
      </trkpt>
      <trkpt lat="37.387459" lon="-122.120804">
        <ele>43.5</ele>
        <time>2015-05-13T18:15:32Z</time>
      </trkpt>
      <trkpt lat="37.387409" lon="-122.120805">
        <ele>43.6</ele>
        <time>2015-05-13T18:15:34Z</time>
      </trkpt>
      <trkpt lat="37.387351" lon="-122.120805">
        <ele>43.7</ele>
        <time>2015-05-13T18:15:35Z</time>
      </trkpt>
      <trkpt lat="37.387302" lon="-122.120805">
        <ele>43.8</ele>
        <time>2015-05-13T18:15:36Z</time>
      </trkpt>
      <trkpt lat="37.387188" lon="-122.120806">
        <ele>43.9</ele>
        <time>2015-05-13T18:15:37Z</time>
      </trkpt>
      <trkpt lat="37.387138" lon="-122.120806">
        <ele>43.9</ele>
        <time>2015-05-13T18:15:39Z</time>
      </trkpt>
      <trkpt lat="37.387086" lon="-122.120807">
        <ele>43.9</ele>
        <time>2015-05-13T18:15:40Z</time>
      </trkpt>
      <trkpt lat="37.38698" lon="-122.120808">
        <ele>44</ele>
        <time>2015-05-13T18:15:41Z</time>
      </trkpt>
      <trkpt lat="37.386931" lon="-122.120808">
        <ele>44</ele>
        <time>2015-05-13T18:15:42Z</time>
      </trkpt>
      <trkpt lat="37.38688" lon="-122.120808">
        <ele>44</ele>
        <time>2015-05-13T18:15:43Z</time>
      </trkpt>
      <trkpt lat="37.386657" lon="-122.120808">
        <ele>44.3</ele>
        <time>2015-05-13T18:15:47Z</time>
      </trkpt>
      <trkpt lat="37.386599" lon="-122.120808">
        <ele>44.4</ele>
        <time>2015-05-13T18:15:48Z</time>
      </trkpt>
      <trkpt lat="37.386553" lon="-122.120808">
        <ele>44.5</ele>
        <time>2015-05-13T18:15:49Z</time>
      </trkpt>
      <trkpt lat="37.386498" lon="-122.120808">
        <ele>44.6</ele>
        <time>2015-05-13T18:15:50Z</time>
      </trkpt>
      <trkpt lat="37.386445" lon="-122.120808">
        <ele>44.6</ele>
        <time>2015-05-13T18:15:51Z</time>
      </trkpt>
      <trkpt lat="37.386394" lon="-122.120807">
        <ele>44.7</ele>
        <time>2015-05-13T18:15:52Z</time>
      </trkpt>
      <trkpt lat="37.386343" lon="-122.120807">
        <ele>44.8</ele>
        <time>2015-05-13T18:15:53Z</time>
      </trkpt>
      <trkpt lat="37.386295" lon="-122.120807">
        <ele>44.9</ele>
        <time>2015-05-13T18:15:54Z</time>
      </trkpt>
      <trkpt lat="37.386242" lon="-122.120807">
        <ele>45</ele>
        <time>2015-05-13T18:15:55Z</time>
      </trkpt>
      <trkpt lat="37.386188" lon="-122.120808">
        <ele>45.1</ele>
        <time>2015-05-13T18:15:56Z</time>
      </trkpt>
      <trkpt lat="37.386114" lon="-122.12081">
        <ele>45.2</ele>
        <time>2015-05-13T18:15:57Z</time>
      </trkpt>
      <trkpt lat="37.385893" lon="-122.12081">
        <ele>45.6</ele>
        <time>2015-05-13T18:16:02Z</time>
      </trkpt>
      <trkpt lat="37.385622" lon="-122.120805">
        <ele>46.1</ele>
        <time>2015-05-13T18:16:07Z</time>
      </trkpt>
      <trkpt lat="37.38557" lon="-122.120804">
        <ele>46.2</ele>
        <time>2015-05-13T18:16:08Z</time>
      </trkpt>
      <trkpt lat="37.385521" lon="-122.120804">
        <ele>46.4</ele>
        <time>2015-05-13T18:16:09Z</time>
      </trkpt>
      <trkpt lat="37.385471" lon="-122.120803">
        <ele>46.5</ele>
        <time>2015-05-13T18:16:11Z</time>
      </trkpt>
      <trkpt lat="37.385419" lon="-122.120802">
        <ele>46.6</ele>
        <time>2015-05-13T18:16:12Z</time>
      </trkpt>
      <trkpt lat="37.385313" lon="-122.1208">
        <ele>46.9</ele>
        <time>2015-05-13T18:16:13Z</time>
      </trkpt>
      <trkpt lat="37.385262" lon="-122.120799">
        <ele>47</ele>
        <time>2015-05-13T18:16:14Z</time>
      </trkpt>
      <trkpt lat="37.385031" lon="-122.120798">
        <ele>47.7</ele>
        <time>2015-05-13T18:16:19Z</time>
      </trkpt>
      <trkpt lat="37.384986" lon="-122.120798">
        <ele>47.9</ele>
        <time>2015-05-13T18:16:20Z</time>
      </trkpt>
      <trkpt lat="37.384939" lon="-122.120798">
        <ele>48.1</ele>
        <time>2015-05-13T18:16:21Z</time>
      </trkpt>
      <trkpt lat="37.384743" lon="-122.120798">
        <ele>48.5</ele>
        <time>2015-05-13T18:16:26Z</time>
      </trkpt>
      <trkpt lat="37.384641" lon="-122.120798">
        <ele>48.8</ele>
        <time>2015-05-13T18:16:27Z</time>
      </trkpt>
      <trkpt lat="37.384593" lon="-122.120798">
        <ele>48.9</ele>
        <time>2015-05-13T18:16:28Z</time>
      </trkpt>
      <trkpt lat="37.384564" lon="-122.120798">
        <ele>49</ele>
        <time>2015-05-13T18:16:29Z</time>
      </trkpt>
      <trkpt lat="37.384351" lon="-122.120797">
        <ele>49.7</ele>
        <time>2015-05-13T18:16:33Z</time>
      </trkpt>
      <trkpt lat="37.384303" lon="-122.120797">
        <ele>49.8</ele>
        <time>2015-05-13T18:16:34Z</time>
      </trkpt>
      <trkpt lat="37.384256" lon="-122.120797">
        <ele>50</ele>
        <time>2015-05-13T18:16:35Z</time>
      </trkpt>
      <trkpt lat="37.3842" lon="-122.120797">
        <ele>50.1</ele>
        <time>2015-05-13T18:16:36Z</time>
      </trkpt>
      <trkpt lat="37.384147" lon="-122.120797">
        <ele>50.3</ele>
        <time>2015-05-13T18:16:37Z</time>
      </trkpt>
      <trkpt lat="37.384096" lon="-122.120797">
        <ele>50.3</ele>
        <time>2015-05-13T18:16:38Z</time>
      </trkpt>
      <trkpt lat="37.384043" lon="-122.120797">
        <ele>50.5</ele>
        <time>2015-05-13T18:16:39Z</time>
      </trkpt>
      <trkpt lat="37.383996" lon="-122.120796">
        <ele>50.6</ele>
        <time>2015-05-13T18:16:40Z</time>
      </trkpt>
      <trkpt lat="37.383949" lon="-122.120796">
        <ele>50.7</ele>
        <time>2015-05-13T18:16:41Z</time>
      </trkpt>
      <trkpt lat="37.383895" lon="-122.120796">
        <ele>50.8</ele>
        <time>2015-05-13T18:16:42Z</time>
      </trkpt>
      <trkpt lat="37.38385" lon="-122.120796">
        <ele>50.9</ele>
        <time>2015-05-13T18:16:43Z</time>
      </trkpt>
      <trkpt lat="37.383798" lon="-122.120796">
        <ele>51</ele>
        <time>2015-05-13T18:16:44Z</time>
      </trkpt>
      <trkpt lat="37.383747" lon="-122.120796">
        <ele>51.2</ele>
        <time>2015-05-13T18:16:45Z</time>
      </trkpt>
      <trkpt lat="37.383693" lon="-122.120796">
        <ele>51.2</ele>
        <time>2015-05-13T18:16:47Z</time>
      </trkpt>
      <trkpt lat="37.383592" lon="-122.120796">
        <ele>51.5</ele>
        <time>2015-05-13T18:16:48Z</time>
      </trkpt>
      <trkpt lat="37.383543" lon="-122.120796">
        <ele>51.7</ele>
        <time>2015-05-13T18:16:49Z</time>
      </trkpt>
      <trkpt lat="37.383494" lon="-122.120795">
        <ele>51.8</ele>
        <time>2015-05-13T18:16:50Z</time>
      </trkpt>
      <trkpt lat="37.383442" lon="-122.120795">
        <ele>52</ele>
        <time>2015-05-13T18:16:51Z</time>
      </trkpt>
      <trkpt lat="37.383387" lon="-122.120795">
        <ele>52.1</ele>
        <time>2015-05-13T18:16:52Z</time>
      </trkpt>
      <trkpt lat="37.383334" lon="-122.120795">
        <ele>52.2</ele>
        <time>2015-05-13T18:16:53Z</time>
      </trkpt>
      <trkpt lat="37.383291" lon="-122.120795">
        <ele>52.3</ele>
        <time>2015-05-13T18:16:54Z</time>
      </trkpt>
      <trkpt lat="37.383026" lon="-122.120793">
        <ele>53</ele>
        <time>2015-05-13T18:16:59Z</time>
      </trkpt>
      <trkpt lat="37.382971" lon="-122.120793">
        <ele>53.1</ele>
        <time>2015-05-13T18:17:00Z</time>
      </trkpt>
      <trkpt lat="37.382925" lon="-122.120793">
        <ele>53.2</ele>
        <time>2015-05-13T18:17:01Z</time>
      </trkpt>
      <trkpt lat="37.382876" lon="-122.120792">
        <ele>53.4</ele>
        <time>2015-05-13T18:17:02Z</time>
      </trkpt>
      <trkpt lat="37.382826" lon="-122.120792">
        <ele>53.5</ele>
        <time>2015-05-13T18:17:03Z</time>
      </trkpt>
      <trkpt lat="37.382775" lon="-122.120792">
        <ele>53.6</ele>
        <time>2015-05-13T18:17:04Z</time>
      </trkpt>
      <trkpt lat="37.382724" lon="-122.120791">
        <ele>53.7</ele>
        <time>2015-05-13T18:17:05Z</time>
      </trkpt>
      <trkpt lat="37.382678" lon="-122.120791">
        <ele>53.8</ele>
        <time>2015-05-13T18:17:06Z</time>
      </trkpt>
      <trkpt lat="37.382631" lon="-122.120791">
        <ele>53.9</ele>
        <time>2015-05-13T18:17:07Z</time>
      </trkpt>
      <trkpt lat="37.382581" lon="-122.12079">
        <ele>53.9</ele>
        <time>2015-05-13T18:17:08Z</time>
      </trkpt>
      <trkpt lat="37.382534" lon="-122.12079">
        <ele>54</ele>
        <time>2015-05-13T18:17:09Z</time>
      </trkpt>
      <trkpt lat="37.382484" lon="-122.12079">
        <ele>54.1</ele>
        <time>2015-05-13T18:17:11Z</time>
      </trkpt>
      <trkpt lat="37.382276" lon="-122.120785">
        <ele>54.6</ele>
        <time>2015-05-13T18:17:14Z</time>
      </trkpt>
      <trkpt lat="37.382223" lon="-122.120784">
        <ele>54.8</ele>
        <time>2015-05-13T18:17:15Z</time>
      </trkpt>
      <trkpt lat="37.382171" lon="-122.120783">
        <ele>54.9</ele>
        <time>2015-05-13T18:17:16Z</time>
      </trkpt>
      <trkpt lat="37.382122" lon="-122.120782">
        <ele>55</ele>
        <time>2015-05-13T18:17:17Z</time>
      </trkpt>
      <trkpt lat="37.382059" lon="-122.120781">
        <ele>55.3</ele>
        <time>2015-05-13T18:17:18Z</time>
      </trkpt>
      <trkpt lat="37.382013" lon="-122.12078">
        <ele>55.4</ele>
        <time>2015-05-13T18:17:19Z</time>
      </trkpt>
      <trkpt lat="37.381947" lon="-122.120776">
        <ele>55.5</ele>
        <time>2015-05-13T18:17:21Z</time>
      </trkpt>
      <trkpt lat="37.381872" lon="-122.120759">
        <ele>55.7</ele>
        <time>2015-05-13T18:17:22Z</time>
      </trkpt>
      <trkpt lat="37.381828" lon="-122.120746">
        <ele>55.7</ele>
        <time>2015-05-13T18:17:23Z</time>
      </trkpt>
      <trkpt lat="37.381788" lon="-122.120732">
        <ele>55.8</ele>
        <time>2015-05-13T18:17:24Z</time>
      </trkpt>
      <trkpt lat="37.38175" lon="-122.120718">
        <ele>56</ele>
        <time>2015-05-13T18:17:25Z</time>
      </trkpt>
      <trkpt lat="37.381707" lon="-122.120703">
        <ele>56</ele>
        <time>2015-05-13T18:17:26Z</time>
      </trkpt>
      <trkpt lat="37.381674" lon="-122.120686">
        <ele>56.1</ele>
        <time>2015-05-13T18:17:27Z</time>
      </trkpt>
      <trkpt lat="37.38171" lon="-122.120704">
        <ele>56</ele>
        <time>2015-05-13T18:17:28Z</time>
      </trkpt>
      <trkpt lat="37.381423" lon="-122.120734">
        <ele>56.6</ele>
        <time>2015-05-13T18:17:31Z</time>
      </trkpt>
      <trkpt lat="37.381507" lon="-122.120799">
        <ele>56.7</ele>
        <time>2015-05-13T18:17:32Z</time>
      </trkpt>
      <trkpt lat="37.381487" lon="-122.120841">
        <ele>56.7</ele>
        <time>2015-05-13T18:17:33Z</time>
      </trkpt>
      <trkpt lat="37.381468" lon="-122.120882">
        <ele>56.9</ele>
        <time>2015-05-13T18:17:34Z</time>
      </trkpt>
      <trkpt lat="37.381457" lon="-122.120921">
        <ele>57.2</ele>
        <time>2015-05-13T18:17:35Z</time>
      </trkpt>
      <trkpt lat="37.381342" lon="-122.120903">
        <ele>57.1</ele>
        <time>2015-05-13T18:17:36Z</time>
      </trkpt>
      <trkpt lat="37.381339" lon="-122.121008">
        <ele>57.1</ele>
        <time>2015-05-13T18:17:38Z</time>
      </trkpt>
      <trkpt lat="37.381338" lon="-122.121049">
        <ele>57.2</ele>
        <time>2015-05-13T18:17:40Z</time>
      </trkpt>
      <trkpt lat="37.381336" lon="-122.121092">
        <ele>57.3</ele>
        <time>2015-05-13T18:17:42Z</time>
      </trkpt>
      <trkpt lat="37.381334" lon="-122.121137">
        <ele>57.3</ele>
        <time>2015-05-13T18:18:27Z</time>
      </trkpt>
      <trkpt lat="37.381328" lon="-122.121258">
        <ele>57.5</ele>
        <time>2015-05-13T18:18:30Z</time>
      </trkpt>
      <trkpt lat="37.381324" lon="-122.121313">
        <ele>57.4</ele>
        <time>2015-05-13T18:18:31Z</time>
      </trkpt>
      <trkpt lat="37.38132" lon="-122.121452">
        <ele>57.2</ele>
        <time>2015-05-13T18:18:33Z</time>
      </trkpt>
      <trkpt lat="37.381319" lon="-122.121522">
        <ele>57.2</ele>
        <time>2015-05-13T18:18:34Z</time>
      </trkpt>
      <trkpt lat="37.381318" lon="-122.121598">
        <ele>57.3</ele>
        <time>2015-05-13T18:18:35Z</time>
      </trkpt>
      <trkpt lat="37.381318" lon="-122.12168">
        <ele>57.3</ele>
        <time>2015-05-13T18:18:36Z</time>
      </trkpt>
      <trkpt lat="37.381321" lon="-122.121826">
        <ele>57.4</ele>
        <time>2015-05-13T18:18:38Z</time>
      </trkpt>
      <trkpt lat="37.381322" lon="-122.121861">
        <ele>57.4</ele>
        <time>2015-05-13T18:18:39Z</time>
      </trkpt>
      <trkpt lat="37.381322" lon="-122.121967">
        <ele>57.4</ele>
        <time>2015-05-13T18:18:40Z</time>
      </trkpt>
      <trkpt lat="37.381322" lon="-122.122043">
        <ele>57.3</ele>
        <time>2015-05-13T18:18:41Z</time>
      </trkpt>
      <trkpt lat="37.381323" lon="-122.122123">
        <ele>57.2</ele>
        <time>2015-05-13T18:18:42Z</time>
      </trkpt>
      <trkpt lat="37.381323" lon="-122.122201">
        <ele>57.1</ele>
        <time>2015-05-13T18:18:43Z</time>
      </trkpt>
      <trkpt lat="37.381323" lon="-122.12228">
        <ele>57</ele>
        <time>2015-05-13T18:18:44Z</time>
      </trkpt>
      <trkpt lat="37.381323" lon="-122.122357">
        <ele>56.9</ele>
        <time>2015-05-13T18:18:45Z</time>
      </trkpt>
      <trkpt lat="37.381323" lon="-122.122459">
        <ele>56.7</ele>
        <time>2015-05-13T18:18:46Z</time>
      </trkpt>
      <trkpt lat="37.381323" lon="-122.122553">
        <ele>56.5</ele>
        <time>2015-05-13T18:18:47Z</time>
      </trkpt>
      <trkpt lat="37.381324" lon="-122.122637">
        <ele>56.4</ele>
        <time>2015-05-13T18:18:48Z</time>
      </trkpt>
      <trkpt lat="37.381324" lon="-122.122733">
        <ele>56.1</ele>
        <time>2015-05-13T18:18:49Z</time>
      </trkpt>
      <trkpt lat="37.381324" lon="-122.122827">
        <ele>55.8</ele>
        <time>2015-05-13T18:18:50Z</time>
      </trkpt>
      <trkpt lat="37.381324" lon="-122.122923">
        <ele>55.5</ele>
        <time>2015-05-13T18:18:51Z</time>
      </trkpt>
      <trkpt lat="37.381324" lon="-122.122984">
        <ele>55.3</ele>
        <time>2015-05-13T18:18:52Z</time>
      </trkpt>
      <trkpt lat="37.381325" lon="-122.123072">
        <ele>55.1</ele>
        <time>2015-05-13T18:18:53Z</time>
      </trkpt>
      <trkpt lat="37.381312" lon="-122.123183">
        <ele>54.7</ele>
        <time>2015-05-13T18:18:54Z</time>
      </trkpt>
      <trkpt lat="37.381302" lon="-122.123256">
        <ele>54.6</ele>
        <time>2015-05-13T18:18:55Z</time>
      </trkpt>
      <trkpt lat="37.381273" lon="-122.123343">
        <ele>54.5</ele>
        <time>2015-05-13T18:18:56Z</time>
      </trkpt>
      <trkpt lat="37.381242" lon="-122.123412">
        <ele>54.4</ele>
        <time>2015-05-13T18:18:57Z</time>
      </trkpt>
      <trkpt lat="37.3812" lon="-122.123489">
        <ele>54.3</ele>
        <time>2015-05-13T18:18:58Z</time>
      </trkpt>
      <trkpt lat="37.381165" lon="-122.123544">
        <ele>54.2</ele>
        <time>2015-05-13T18:18:59Z</time>
      </trkpt>
      <trkpt lat="37.381117" lon="-122.12362">
        <ele>53.9</ele>
        <time>2015-05-13T18:19:00Z</time>
      </trkpt>
      <trkpt lat="37.381071" lon="-122.123692">
        <ele>53.6</ele>
        <time>2015-05-13T18:19:01Z</time>
      </trkpt>
      <trkpt lat="37.381022" lon="-122.123767">
        <ele>53.4</ele>
        <time>2015-05-13T18:19:02Z</time>
      </trkpt>
      <trkpt lat="37.380967" lon="-122.123844">
        <ele>53.3</ele>
        <time>2015-05-13T18:19:03Z</time>
      </trkpt>
      <trkpt lat="37.380917" lon="-122.123915">
        <ele>53.4</ele>
        <time>2015-05-13T18:19:04Z</time>
      </trkpt>
      <trkpt lat="37.380863" lon="-122.123989">
        <ele>53.5</ele>
        <time>2015-05-13T18:19:05Z</time>
      </trkpt>
      <trkpt lat="37.38082" lon="-122.124048">
        <ele>53.4</ele>
        <time>2015-05-13T18:19:06Z</time>
      </trkpt>
      <trkpt lat="37.380776" lon="-122.124111">
        <ele>53.4</ele>
        <time>2015-05-13T18:19:07Z</time>
      </trkpt>
      <trkpt lat="37.380733" lon="-122.12417">
        <ele>53.5</ele>
        <time>2015-05-13T18:19:08Z</time>
      </trkpt>
      <trkpt lat="37.380695" lon="-122.124223">
        <ele>53.6</ele>
        <time>2015-05-13T18:19:09Z</time>
      </trkpt>
      <trkpt lat="37.380654" lon="-122.12428">
        <ele>53.7</ele>
        <time>2015-05-13T18:19:10Z</time>
      </trkpt>
      <trkpt lat="37.380617" lon="-122.124332">
        <ele>53.8</ele>
        <time>2015-05-13T18:19:11Z</time>
      </trkpt>
      <trkpt lat="37.380582" lon="-122.12438">
        <ele>53.9</ele>
        <time>2015-05-13T18:19:12Z</time>
      </trkpt>
      <trkpt lat="37.380552" lon="-122.124422">
        <ele>54.1</ele>
        <time>2015-05-13T18:19:13Z</time>
      </trkpt>
      <trkpt lat="37.380515" lon="-122.124474">
        <ele>54.2</ele>
        <time>2015-05-13T18:19:14Z</time>
      </trkpt>
      <trkpt lat="37.380484" lon="-122.124517">
        <ele>54.3</ele>
        <time>2015-05-13T18:19:15Z</time>
      </trkpt>
      <trkpt lat="37.380429" lon="-122.124558">
        <ele>54.5</ele>
        <time>2015-05-13T18:19:16Z</time>
      </trkpt>
      <trkpt lat="37.380405" lon="-122.12451">
        <ele>54.5</ele>
        <time>2015-05-13T18:19:17Z</time>
      </trkpt>
      <trkpt lat="37.380378" lon="-122.124456">
        <ele>54.5</ele>
        <time>2015-05-13T18:19:18Z</time>
      </trkpt>
      <trkpt lat="37.380345" lon="-122.124391">
        <ele>54.4</ele>
        <time>2015-05-13T18:19:19Z</time>
      </trkpt>
      <trkpt lat="37.380311" lon="-122.124325">
        <ele>54.2</ele>
        <time>2015-05-13T18:19:20Z</time>
      </trkpt>
      <trkpt lat="37.380283" lon="-122.12427">
        <ele>54.1</ele>
        <time>2015-05-13T18:19:21Z</time>
      </trkpt>
      <trkpt lat="37.380258" lon="-122.124241">
        <ele>54.1</ele>
        <time>2015-05-13T18:19:22Z</time>
      </trkpt>
      <trkpt lat="37.380051" lon="-122.124319">
        <ele>54.5</ele>
        <time>2015-05-13T18:19:24Z</time>
      </trkpt>
      <trkpt lat="37.380012" lon="-122.124384">
        <ele>54.8</ele>
        <time>2015-05-13T18:19:25Z</time>
      </trkpt>
      <trkpt lat="37.37998" lon="-122.124441">
        <ele>55</ele>
        <time>2015-05-13T18:19:26Z</time>
      </trkpt>
      <trkpt lat="37.379947" lon="-122.1245">
        <ele>55.3</ele>
        <time>2015-05-13T18:19:27Z</time>
      </trkpt>
      <trkpt lat="37.379917" lon="-122.124554">
        <ele>55.4</ele>
        <time>2015-05-13T18:19:28Z</time>
      </trkpt>
      <trkpt lat="37.379885" lon="-122.124611">
        <ele>55.5</ele>
        <time>2015-05-13T18:19:29Z</time>
      </trkpt>
      <trkpt lat="37.379854" lon="-122.124667">
        <ele>55.6</ele>
        <time>2015-05-13T18:19:30Z</time>
      </trkpt>
      <trkpt lat="37.379822" lon="-122.124725">
        <ele>55.7</ele>
        <time>2015-05-13T18:19:31Z</time>
      </trkpt>
      <trkpt lat="37.379793" lon="-122.124779">
        <ele>55.8</ele>
        <time>2015-05-13T18:19:32Z</time>
      </trkpt>
      <trkpt lat="37.379764" lon="-122.124831">
        <ele>55.9</ele>
        <time>2015-05-13T18:19:33Z</time>
      </trkpt>
      <trkpt lat="37.379735" lon="-122.124885">
        <ele>56</ele>
        <time>2015-05-13T18:19:34Z</time>
      </trkpt>
      <trkpt lat="37.379706" lon="-122.124941">
        <ele>56</ele>
        <time>2015-05-13T18:19:35Z</time>
      </trkpt>
      <trkpt lat="37.379678" lon="-122.124993">
        <ele>56</ele>
        <time>2015-05-13T18:19:36Z</time>
      </trkpt>
      <trkpt lat="37.379651" lon="-122.125045">
        <ele>56.1</ele>
        <time>2015-05-13T18:19:37Z</time>
      </trkpt>
      <trkpt lat="37.379622" lon="-122.1251">
        <ele>56.2</ele>
        <time>2015-05-13T18:19:38Z</time>
      </trkpt>
      <trkpt lat="37.379594" lon="-122.125154">
        <ele>56.2</ele>
        <time>2015-05-13T18:19:39Z</time>
      </trkpt>
      <trkpt lat="37.379564" lon="-122.125211">
        <ele>56.2</ele>
        <time>2015-05-13T18:19:40Z</time>
      </trkpt>
      <trkpt lat="37.379537" lon="-122.125265">
        <ele>56.3</ele>
        <time>2015-05-13T18:19:41Z</time>
      </trkpt>
      <trkpt lat="37.379509" lon="-122.12532">
        <ele>56.3</ele>
        <time>2015-05-13T18:19:42Z</time>
      </trkpt>
      <trkpt lat="37.37948" lon="-122.125378">
        <ele>56.2</ele>
        <time>2015-05-13T18:19:43Z</time>
      </trkpt>
      <trkpt lat="37.379448" lon="-122.125441">
        <ele>56.2</ele>
        <time>2015-05-13T18:19:44Z</time>
      </trkpt>
      <trkpt lat="37.379417" lon="-122.125502">
        <ele>56.3</ele>
        <time>2015-05-13T18:19:45Z</time>
      </trkpt>
      <trkpt lat="37.379387" lon="-122.125562">
        <ele>56.3</ele>
        <time>2015-05-13T18:19:46Z</time>
      </trkpt>
      <trkpt lat="37.379356" lon="-122.125622">
        <ele>56.4</ele>
        <time>2015-05-13T18:19:47Z</time>
      </trkpt>
      <trkpt lat="37.379328" lon="-122.125676">
        <ele>56.5</ele>
        <time>2015-05-13T18:19:48Z</time>
      </trkpt>
      <trkpt lat="37.379302" lon="-122.125727">
        <ele>56.7</ele>
        <time>2015-05-13T18:19:49Z</time>
      </trkpt>
      <trkpt lat="37.379275" lon="-122.12578">
        <ele>56.9</ele>
        <time>2015-05-13T18:19:50Z</time>
      </trkpt>
      <trkpt lat="37.379248" lon="-122.125833">
        <ele>57</ele>
        <time>2015-05-13T18:19:51Z</time>
      </trkpt>
      <trkpt lat="37.379221" lon="-122.125884">
        <ele>57.1</ele>
        <time>2015-05-13T18:19:52Z</time>
      </trkpt>
      <trkpt lat="37.379195" lon="-122.125935">
        <ele>57.3</ele>
        <time>2015-05-13T18:19:53Z</time>
      </trkpt>
      <trkpt lat="37.379168" lon="-122.125987">
        <ele>57.5</ele>
        <time>2015-05-13T18:19:54Z</time>
      </trkpt>
      <trkpt lat="37.379139" lon="-122.12604">
        <ele>57.6</ele>
        <time>2015-05-13T18:19:55Z</time>
      </trkpt>
      <trkpt lat="37.379109" lon="-122.126093">
        <ele>57.6</ele>
        <time>2015-05-13T18:19:56Z</time>
      </trkpt>
      <trkpt lat="37.379081" lon="-122.126142">
        <ele>57.6</ele>
        <time>2015-05-13T18:19:57Z</time>
      </trkpt>
      <trkpt lat="37.379053" lon="-122.12619">
        <ele>57.7</ele>
        <time>2015-05-13T18:19:58Z</time>
      </trkpt>
      <trkpt lat="37.379051" lon="-122.126262">
        <ele>57.9</ele>
        <time>2015-05-13T18:19:59Z</time>
      </trkpt>
      <trkpt lat="37.37902" lon="-122.126309">
        <ele>58.2</ele>
        <time>2015-05-13T18:20:01Z</time>
      </trkpt>
      <trkpt lat="37.378934" lon="-122.126364">
        <ele>58.2</ele>
        <time>2015-05-13T18:20:02Z</time>
      </trkpt>
      <trkpt lat="37.378889" lon="-122.126401">
        <ele>58.3</ele>
        <time>2015-05-13T18:20:03Z</time>
      </trkpt>
      <trkpt lat="37.378847" lon="-122.12643">
        <ele>58.4</ele>
        <time>2015-05-13T18:20:04Z</time>
      </trkpt>
      <trkpt lat="37.378807" lon="-122.126458">
        <ele>58.5</ele>
        <time>2015-05-13T18:20:05Z</time>
      </trkpt>
      <trkpt lat="37.378762" lon="-122.126488">
        <ele>58.5</ele>
        <time>2015-05-13T18:20:06Z</time>
      </trkpt>
      <trkpt lat="37.378719" lon="-122.126512">
        <ele>58.7</ele>
        <time>2015-05-13T18:20:07Z</time>
      </trkpt>
      <trkpt lat="37.378684" lon="-122.126532">
        <ele>58.7</ele>
        <time>2015-05-13T18:20:08Z</time>
      </trkpt>
      <trkpt lat="37.378643" lon="-122.126549">
        <ele>58.8</ele>
        <time>2015-05-13T18:20:09Z</time>
      </trkpt>
      <trkpt lat="37.378599" lon="-122.126568">
        <ele>58.9</ele>
        <time>2015-05-13T18:20:10Z</time>
      </trkpt>
      <trkpt lat="37.378554" lon="-122.126586">
        <ele>59.1</ele>
        <time>2015-05-13T18:20:11Z</time>
      </trkpt>
      <trkpt lat="37.378511" lon="-122.126599">
        <ele>59.2</ele>
        <time>2015-05-13T18:20:12Z</time>
      </trkpt>
      <trkpt lat="37.378469" lon="-122.126606">
        <ele>59.3</ele>
        <time>2015-05-13T18:20:13Z</time>
      </trkpt>
      <trkpt lat="37.37842" lon="-122.126607">
        <ele>59.3</ele>
        <time>2015-05-13T18:20:14Z</time>
      </trkpt>
      <trkpt lat="37.378373" lon="-122.126601">
        <ele>59.3</ele>
        <time>2015-05-13T18:20:15Z</time>
      </trkpt>
      <trkpt lat="37.378315" lon="-122.126593">
        <ele>59.4</ele>
        <time>2015-05-13T18:20:16Z</time>
      </trkpt>
      <trkpt lat="37.378269" lon="-122.126586">
        <ele>59.5</ele>
        <time>2015-05-13T18:20:17Z</time>
      </trkpt>
      <trkpt lat="37.378218" lon="-122.126578">
        <ele>59.6</ele>
        <time>2015-05-13T18:20:18Z</time>
      </trkpt>
      <trkpt lat="37.378171" lon="-122.126568">
        <ele>59.8</ele>
        <time>2015-05-13T18:20:19Z</time>
      </trkpt>
      <trkpt lat="37.378119" lon="-122.126557">
        <ele>59.9</ele>
        <time>2015-05-13T18:20:20Z</time>
      </trkpt>
      <trkpt lat="37.378062" lon="-122.126547">
        <ele>60</ele>
        <time>2015-05-13T18:20:21Z</time>
      </trkpt>
      <trkpt lat="37.378008" lon="-122.126537">
        <ele>60.1</ele>
        <time>2015-05-13T18:20:22Z</time>
      </trkpt>
      <trkpt lat="37.377959" lon="-122.126534">
        <ele>60</ele>
        <time>2015-05-13T18:20:23Z</time>
      </trkpt>
      <trkpt lat="37.377906" lon="-122.12653">
        <ele>60.2</ele>
        <time>2015-05-13T18:20:24Z</time>
      </trkpt>
      <trkpt lat="37.377853" lon="-122.126531">
        <ele>60.3</ele>
        <time>2015-05-13T18:20:25Z</time>
      </trkpt>
      <trkpt lat="37.377803" lon="-122.126535">
        <ele>60.5</ele>
        <time>2015-05-13T18:20:26Z</time>
      </trkpt>
      <trkpt lat="37.377611" lon="-122.126549">
        <ele>60.9</ele>
        <time>2015-05-13T18:20:30Z</time>
      </trkpt>
      <trkpt lat="37.377559" lon="-122.126552">
        <ele>61</ele>
        <time>2015-05-13T18:20:31Z</time>
      </trkpt>
      <trkpt lat="37.377507" lon="-122.126554">
        <ele>61</ele>
        <time>2015-05-13T18:20:32Z</time>
      </trkpt>
      <trkpt lat="37.377458" lon="-122.126557">
        <ele>61.2</ele>
        <time>2015-05-13T18:20:33Z</time>
      </trkpt>
      <trkpt lat="37.377399" lon="-122.12656">
        <ele>61.3</ele>
        <time>2015-05-13T18:20:34Z</time>
      </trkpt>
      <trkpt lat="37.377354" lon="-122.126562">
        <ele>61.4</ele>
        <time>2015-05-13T18:20:35Z</time>
      </trkpt>
      <trkpt lat="37.377303" lon="-122.126564">
        <ele>61.5</ele>
        <time>2015-05-13T18:20:36Z</time>
      </trkpt>
      <trkpt lat="37.377247" lon="-122.126566">
        <ele>61.6</ele>
        <time>2015-05-13T18:20:37Z</time>
      </trkpt>
      <trkpt lat="37.377196" lon="-122.126568">
        <ele>61.8</ele>
        <time>2015-05-13T18:20:38Z</time>
      </trkpt>
      <trkpt lat="37.377157" lon="-122.126569">
        <ele>61.8</ele>
        <time>2015-05-13T18:20:39Z</time>
      </trkpt>
      <trkpt lat="37.377104" lon="-122.126569">
        <ele>61.9</ele>
        <time>2015-05-13T18:20:40Z</time>
      </trkpt>
      <trkpt lat="37.377052" lon="-122.12657">
        <ele>62</ele>
        <time>2015-05-13T18:20:41Z</time>
      </trkpt>
      <trkpt lat="37.377004" lon="-122.12657">
        <ele>62.1</ele>
        <time>2015-05-13T18:20:42Z</time>
      </trkpt>
      <trkpt lat="37.376959" lon="-122.12657">
        <ele>62.2</ele>
        <time>2015-05-13T18:20:43Z</time>
      </trkpt>
      <trkpt lat="37.376919" lon="-122.12657">
        <ele>62.3</ele>
        <time>2015-05-13T18:20:44Z</time>
      </trkpt>
      <trkpt lat="37.37687" lon="-122.12657">
        <ele>62.4</ele>
        <time>2015-05-13T18:20:45Z</time>
      </trkpt>
      <trkpt lat="37.376803" lon="-122.12657">
        <ele>62.5</ele>
        <time>2015-05-13T18:20:46Z</time>
      </trkpt>
      <trkpt lat="37.376754" lon="-122.126569">
        <ele>62.5</ele>
        <time>2015-05-13T18:20:47Z</time>
      </trkpt>
      <trkpt lat="37.376703" lon="-122.126568">
        <ele>62.7</ele>
        <time>2015-05-13T18:20:48Z</time>
      </trkpt>
      <trkpt lat="37.37666" lon="-122.126568">
        <ele>62.8</ele>
        <time>2015-05-13T18:20:49Z</time>
      </trkpt>
      <trkpt lat="37.37644" lon="-122.126596">
        <ele>63.3</ele>
        <time>2015-05-13T18:20:53Z</time>
      </trkpt>
      <trkpt lat="37.376382" lon="-122.12661">
        <ele>63.4</ele>
        <time>2015-05-13T18:20:54Z</time>
      </trkpt>
      <trkpt lat="37.376339" lon="-122.12662">
        <ele>63.5</ele>
        <time>2015-05-13T18:20:55Z</time>
      </trkpt>
      <trkpt lat="37.376292" lon="-122.126632">
        <ele>63.7</ele>
        <time>2015-05-13T18:20:56Z</time>
      </trkpt>
      <trkpt lat="37.376241" lon="-122.126645">
        <ele>63.8</ele>
        <time>2015-05-13T18:20:57Z</time>
      </trkpt>
      <trkpt lat="37.376197" lon="-122.126655">
        <ele>63.9</ele>
        <time>2015-05-13T18:20:58Z</time>
      </trkpt>
      <trkpt lat="37.376149" lon="-122.126667">
        <ele>64</ele>
        <time>2015-05-13T18:20:59Z</time>
      </trkpt>
      <trkpt lat="37.375938" lon="-122.126734">
        <ele>64.5</ele>
        <time>2015-05-13T18:21:04Z</time>
      </trkpt>
      <trkpt lat="37.375892" lon="-122.126751">
        <ele>64.6</ele>
        <time>2015-05-13T18:21:05Z</time>
      </trkpt>
      <trkpt lat="37.375844" lon="-122.126768">
        <ele>64.8</ele>
        <time>2015-05-13T18:21:06Z</time>
      </trkpt>
      <trkpt lat="37.375798" lon="-122.126785">
        <ele>64.9</ele>
        <time>2015-05-13T18:21:08Z</time>
      </trkpt>
      <trkpt lat="37.375749" lon="-122.126803">
        <ele>65</ele>
        <time>2015-05-13T18:21:09Z</time>
      </trkpt>
      <trkpt lat="37.375658" lon="-122.126838">
        <ele>65.3</ele>
        <time>2015-05-13T18:21:10Z</time>
      </trkpt>
      <trkpt lat="37.375614" lon="-122.126855">
        <ele>65.4</ele>
        <time>2015-05-13T18:21:11Z</time>
      </trkpt>
      <trkpt lat="37.375574" lon="-122.126869">
        <ele>65.5</ele>
        <time>2015-05-13T18:21:12Z</time>
      </trkpt>
      <trkpt lat="37.375539" lon="-122.126879">
        <ele>65.5</ele>
        <time>2015-05-13T18:21:13Z</time>
      </trkpt>
      <trkpt lat="37.375494" lon="-122.126892">
        <ele>65.6</ele>
        <time>2015-05-13T18:21:14Z</time>
      </trkpt>
      <trkpt lat="37.375436" lon="-122.126908">
        <ele>65.8</ele>
        <time>2015-05-13T18:21:15Z</time>
      </trkpt>
      <trkpt lat="37.375403" lon="-122.126913">
        <ele>65.9</ele>
        <time>2015-05-13T18:21:16Z</time>
      </trkpt>
      <trkpt lat="37.375366" lon="-122.126914">
        <ele>66</ele>
        <time>2015-05-13T18:21:17Z</time>
      </trkpt>
      <trkpt lat="37.375317" lon="-122.126915">
        <ele>66.1</ele>
        <time>2015-05-13T18:21:18Z</time>
      </trkpt>
      <trkpt lat="37.375268" lon="-122.12691">
        <ele>66.2</ele>
        <time>2015-05-13T18:21:19Z</time>
      </trkpt>
      <trkpt lat="37.37504" lon="-122.126871">
        <ele>66.5</ele>
        <time>2015-05-13T18:21:24Z</time>
      </trkpt>
      <trkpt lat="37.374992" lon="-122.126863">
        <ele>66.8</ele>
        <time>2015-05-13T18:21:25Z</time>
      </trkpt>
      <trkpt lat="37.374943" lon="-122.126854">
        <ele>66.8</ele>
        <time>2015-05-13T18:21:26Z</time>
      </trkpt>
      <trkpt lat="37.374896" lon="-122.126846">
        <ele>67</ele>
        <time>2015-05-13T18:21:27Z</time>
      </trkpt>
      <trkpt lat="37.374841" lon="-122.126837">
        <ele>67</ele>
        <time>2015-05-13T18:21:28Z</time>
      </trkpt>
      <trkpt lat="37.374795" lon="-122.126829">
        <ele>67.1</ele>
        <time>2015-05-13T18:21:29Z</time>
      </trkpt>
      <trkpt lat="37.374756" lon="-122.126823">
        <ele>67.3</ele>
        <time>2015-05-13T18:21:30Z</time>
      </trkpt>
      <trkpt lat="37.374705" lon="-122.126815">
        <ele>67.5</ele>
        <time>2015-05-13T18:21:32Z</time>
      </trkpt>
      <trkpt lat="37.374609" lon="-122.126799">
        <ele>67.8</ele>
        <time>2015-05-13T18:21:33Z</time>
      </trkpt>
      <trkpt lat="37.374555" lon="-122.126791">
        <ele>67.9</ele>
        <time>2015-05-13T18:21:34Z</time>
      </trkpt>
      <trkpt lat="37.374504" lon="-122.126782">
        <ele>68</ele>
        <time>2015-05-13T18:21:35Z</time>
      </trkpt>
      <trkpt lat="37.374462" lon="-122.126776">
        <ele>68.2</ele>
        <time>2015-05-13T18:21:37Z</time>
      </trkpt>
      <trkpt lat="37.37438" lon="-122.126767">
        <ele>68.5</ele>
        <time>2015-05-13T18:21:38Z</time>
      </trkpt>
      <trkpt lat="37.374336" lon="-122.126762">
        <ele>68.6</ele>
        <time>2015-05-13T18:21:39Z</time>
      </trkpt>
      <trkpt lat="37.374297" lon="-122.126757">
        <ele>68.8</ele>
        <time>2015-05-13T18:21:40Z</time>
      </trkpt>
      <trkpt lat="37.374257" lon="-122.126753">
        <ele>69.1</ele>
        <time>2015-05-13T18:21:41Z</time>
      </trkpt>
      <trkpt lat="37.374214" lon="-122.126749">
        <ele>69.4</ele>
        <time>2015-05-13T18:21:42Z</time>
      </trkpt>
      <trkpt lat="37.374178" lon="-122.126747">
        <ele>69.6</ele>
        <time>2015-05-13T18:21:43Z</time>
      </trkpt>
      <trkpt lat="37.374138" lon="-122.126745">
        <ele>69.9</ele>
        <time>2015-05-13T18:21:44Z</time>
      </trkpt>
      <trkpt lat="37.374096" lon="-122.126747">
        <ele>70.4</ele>
        <time>2015-05-13T18:21:45Z</time>
      </trkpt>
      <trkpt lat="37.37405" lon="-122.12675">
        <ele>70.6</ele>
        <time>2015-05-13T18:21:46Z</time>
      </trkpt>
      <trkpt lat="37.37399" lon="-122.126758">
        <ele>71.1</ele>
        <time>2015-05-13T18:21:48Z</time>
      </trkpt>
      <trkpt lat="37.373926" lon="-122.12677">
        <ele>71.6</ele>
        <time>2015-05-13T18:21:50Z</time>
      </trkpt>
      <trkpt lat="37.373895" lon="-122.126776">
        <ele>71.9</ele>
        <time>2015-05-13T18:21:51Z</time>
      </trkpt>
      <trkpt lat="37.37386" lon="-122.126782">
        <ele>72.1</ele>
        <time>2015-05-13T18:21:52Z</time>
      </trkpt>
      <trkpt lat="37.373801" lon="-122.126792">
        <ele>72.4</ele>
        <time>2015-05-13T18:21:54Z</time>
      </trkpt>
      <trkpt lat="37.37377" lon="-122.126798">
        <ele>72.7</ele>
        <time>2015-05-13T18:21:55Z</time>
      </trkpt>
      <trkpt lat="37.373734" lon="-122.126805">
        <ele>73</ele>
        <time>2015-05-13T18:21:56Z</time>
      </trkpt>
      <trkpt lat="37.3737" lon="-122.126811">
        <ele>73</ele>
        <time>2015-05-13T18:21:57Z</time>
      </trkpt>
      <trkpt lat="37.373668" lon="-122.126868">
        <ele>71.4</ele>
        <time>2015-05-13T18:21:58Z</time>
      </trkpt>
      <trkpt lat="37.37363" lon="-122.126875">
        <ele>71.9</ele>
        <time>2015-05-13T18:21:59Z</time>
      </trkpt>
      <trkpt lat="37.373591" lon="-122.12688">
        <ele>72.4</ele>
        <time>2015-05-13T18:22:00Z</time>
      </trkpt>
      <trkpt lat="37.373552" lon="-122.126884">
        <ele>72.7</ele>
        <time>2015-05-13T18:22:01Z</time>
      </trkpt>
      <trkpt lat="37.373513" lon="-122.126886">
        <ele>72.9</ele>
        <time>2015-05-13T18:22:02Z</time>
      </trkpt>
      <trkpt lat="37.373473" lon="-122.12689">
        <ele>72.7</ele>
        <time>2015-05-13T18:22:03Z</time>
      </trkpt>
      <trkpt lat="37.37343" lon="-122.126894">
        <ele>72.4</ele>
        <time>2015-05-13T18:22:04Z</time>
      </trkpt>
      <trkpt lat="37.373386" lon="-122.126899">
        <ele>71.8</ele>
        <time>2015-05-13T18:22:05Z</time>
      </trkpt>
      <trkpt lat="37.373341" lon="-122.126904">
        <ele>72.1</ele>
        <time>2015-05-13T18:22:06Z</time>
      </trkpt>
      <trkpt lat="37.373293" lon="-122.12691">
        <ele>72.3</ele>
        <time>2015-05-13T18:22:07Z</time>
      </trkpt>
      <trkpt lat="37.373245" lon="-122.126926">
        <ele>72.1</ele>
        <time>2015-05-13T18:22:08Z</time>
      </trkpt>
      <trkpt lat="37.37319" lon="-122.12694">
        <ele>72.4</ele>
        <time>2015-05-13T18:22:09Z</time>
      </trkpt>
      <trkpt lat="37.373141" lon="-122.126965">
        <ele>72.8</ele>
        <time>2015-05-13T18:22:10Z</time>
      </trkpt>
      <trkpt lat="37.373105" lon="-122.127009">
        <ele>72.9</ele>
        <time>2015-05-13T18:22:11Z</time>
      </trkpt>
      <trkpt lat="37.373076" lon="-122.127045">
        <ele>73</ele>
        <time>2015-05-13T18:22:12Z</time>
      </trkpt>
      <trkpt lat="37.373045" lon="-122.127084">
        <ele>73.5</ele>
        <time>2015-05-13T18:22:13Z</time>
      </trkpt>
      <trkpt lat="37.373014" lon="-122.127122">
        <ele>73.7</ele>
        <time>2015-05-13T18:22:14Z</time>
      </trkpt>
      <trkpt lat="37.372983" lon="-122.127161">
        <ele>73.8</ele>
        <time>2015-05-13T18:22:15Z</time>
      </trkpt>
      <trkpt lat="37.372952" lon="-122.127202">
        <ele>74.1</ele>
        <time>2015-05-13T18:22:16Z</time>
      </trkpt>
      <trkpt lat="37.372923" lon="-122.127238">
        <ele>74.3</ele>
        <time>2015-05-13T18:22:17Z</time>
      </trkpt>
      <trkpt lat="37.372886" lon="-122.12728">
        <ele>74.3</ele>
        <time>2015-05-13T18:22:18Z</time>
      </trkpt>
      <trkpt lat="37.372855" lon="-122.127316">
        <ele>74.6</ele>
        <time>2015-05-13T18:22:19Z</time>
      </trkpt>
      <trkpt lat="37.372829" lon="-122.127346">
        <ele>74.7</ele>
        <time>2015-05-13T18:22:20Z</time>
      </trkpt>
      <trkpt lat="37.372802" lon="-122.127377">
        <ele>75</ele>
        <time>2015-05-13T18:22:21Z</time>
      </trkpt>
      <trkpt lat="37.372774" lon="-122.12741">
        <ele>75.3</ele>
        <time>2015-05-13T18:22:22Z</time>
      </trkpt>
      <trkpt lat="37.372749" lon="-122.127439">
        <ele>75.4</ele>
        <time>2015-05-13T18:22:23Z</time>
      </trkpt>
      <trkpt lat="37.372703" lon="-122.127489">
        <ele>76</ele>
        <time>2015-05-13T18:22:25Z</time>
      </trkpt>
      <trkpt lat="37.372654" lon="-122.127526">
        <ele>75.8</ele>
        <time>2015-05-13T18:22:27Z</time>
      </trkpt>
      <trkpt lat="37.372629" lon="-122.127545">
        <ele>76</ele>
        <time>2015-05-13T18:22:28Z</time>
      </trkpt>
      <trkpt lat="37.372583" lon="-122.127569">
        <ele>76.7</ele>
        <time>2015-05-13T18:22:30Z</time>
      </trkpt>
      <trkpt lat="37.372551" lon="-122.127583">
        <ele>77.5</ele>
        <time>2015-05-13T18:22:32Z</time>
      </trkpt>
      <trkpt lat="37.372513" lon="-122.127595">
        <ele>77.9</ele>
        <time>2015-05-13T18:22:34Z</time>
      </trkpt>
      <trkpt lat="37.37248" lon="-122.127604">
        <ele>78.2</ele>
        <time>2015-05-13T18:22:37Z</time>
      </trkpt>
      <trkpt lat="37.372446" lon="-122.12761">
        <ele>78.3</ele>
        <time>2015-05-13T18:22:38Z</time>
      </trkpt>
      <trkpt lat="37.372407" lon="-122.127613">
        <ele>78.7</ele>
        <time>2015-05-13T18:22:40Z</time>
      </trkpt>
      <trkpt lat="37.372377" lon="-122.127615">
        <ele>79.1</ele>
        <time>2015-05-13T18:22:41Z</time>
      </trkpt>
      <trkpt lat="37.372363" lon="-122.12765">
        <ele>77.4</ele>
        <time>2015-05-13T18:22:42Z</time>
      </trkpt>
      <trkpt lat="37.372335" lon="-122.127644">
        <ele>77.7</ele>
        <time>2015-05-13T18:22:43Z</time>
      </trkpt>
      <trkpt lat="37.372301" lon="-122.127638">
        <ele>78</ele>
        <time>2015-05-13T18:22:44Z</time>
      </trkpt>
      <trkpt lat="37.372265" lon="-122.12763">
        <ele>78.1</ele>
        <time>2015-05-13T18:22:45Z</time>
      </trkpt>
      <trkpt lat="37.372223" lon="-122.127622">
        <ele>78.2</ele>
        <time>2015-05-13T18:22:46Z</time>
      </trkpt>
      <trkpt lat="37.372176" lon="-122.127619">
        <ele>77.9</ele>
        <time>2015-05-13T18:22:47Z</time>
      </trkpt>
      <trkpt lat="37.372128" lon="-122.127618">
        <ele>77.8</ele>
        <time>2015-05-13T18:22:48Z</time>
      </trkpt>
      <trkpt lat="37.372079" lon="-122.127624">
        <ele>77.7</ele>
        <time>2015-05-13T18:22:50Z</time>
      </trkpt>
      <trkpt lat="37.371978" lon="-122.127645">
        <ele>77.8</ele>
        <time>2015-05-13T18:22:51Z</time>
      </trkpt>
      <trkpt lat="37.371929" lon="-122.127641">
        <ele>78</ele>
        <time>2015-05-13T18:22:52Z</time>
      </trkpt>
      <trkpt lat="37.371876" lon="-122.127661">
        <ele>77.4</ele>
        <time>2015-05-13T18:22:53Z</time>
      </trkpt>
      <trkpt lat="37.371826" lon="-122.127693">
        <ele>77.6</ele>
        <time>2015-05-13T18:22:54Z</time>
      </trkpt>
      <trkpt lat="37.371806" lon="-122.127761">
        <ele>76.3</ele>
        <time>2015-05-13T18:22:55Z</time>
      </trkpt>
      <trkpt lat="37.371771" lon="-122.127798">
        <ele>76.3</ele>
        <time>2015-05-13T18:22:56Z</time>
      </trkpt>
      <trkpt lat="37.371752" lon="-122.127848">
        <ele>76.7</ele>
        <time>2015-05-13T18:22:57Z</time>
      </trkpt>
      <trkpt lat="37.371734" lon="-122.127898">
        <ele>77</ele>
        <time>2015-05-13T18:22:58Z</time>
      </trkpt>
      <trkpt lat="37.371709" lon="-122.127944">
        <ele>77.5</ele>
        <time>2015-05-13T18:22:59Z</time>
      </trkpt>
      <trkpt lat="37.371689" lon="-122.128">
        <ele>77</ele>
        <time>2015-05-13T18:23:00Z</time>
      </trkpt>
      <trkpt lat="37.371665" lon="-122.12805">
        <ele>77.1</ele>
        <time>2015-05-13T18:23:01Z</time>
      </trkpt>
      <trkpt lat="37.371641" lon="-122.128098">
        <ele>77.1</ele>
        <time>2015-05-13T18:23:02Z</time>
      </trkpt>
      <trkpt lat="37.371621" lon="-122.128141">
        <ele>76.8</ele>
        <time>2015-05-13T18:23:03Z</time>
      </trkpt>
      <trkpt lat="37.371607" lon="-122.128187">
        <ele>77</ele>
        <time>2015-05-13T18:23:04Z</time>
      </trkpt>
      <trkpt lat="37.37159" lon="-122.128224">
        <ele>77.2</ele>
        <time>2015-05-13T18:23:05Z</time>
      </trkpt>
      <trkpt lat="37.371572" lon="-122.128256">
        <ele>77.5</ele>
        <time>2015-05-13T18:23:06Z</time>
      </trkpt>
      <trkpt lat="37.371553" lon="-122.128287">
        <ele>77.6</ele>
        <time>2015-05-13T18:23:07Z</time>
      </trkpt>
      <trkpt lat="37.371533" lon="-122.128317">
        <ele>77.7</ele>
        <time>2015-05-13T18:23:08Z</time>
      </trkpt>
      <trkpt lat="37.371504" lon="-122.128355">
        <ele>77.9</ele>
        <time>2015-05-13T18:23:10Z</time>
      </trkpt>
      <trkpt lat="37.371474" lon="-122.128389">
        <ele>78.1</ele>
        <time>2015-05-13T18:23:12Z</time>
      </trkpt>
      <trkpt lat="37.371422" lon="-122.128445">
        <ele>78.9</ele>
        <time>2015-05-13T18:23:15Z</time>
      </trkpt>
      <trkpt lat="37.371404" lon="-122.128463">
        <ele>79.5</ele>
        <time>2015-05-13T18:23:16Z</time>
      </trkpt>
      <trkpt lat="37.371344" lon="-122.128519">
        <ele>80.2</ele>
        <time>2015-05-13T18:23:19Z</time>
      </trkpt>
      <trkpt lat="37.371318" lon="-122.128538">
        <ele>80.2</ele>
        <time>2015-05-13T18:23:21Z</time>
      </trkpt>
      <trkpt lat="37.371273" lon="-122.128573">
        <ele>80.5</ele>
        <time>2015-05-13T18:23:22Z</time>
      </trkpt>
      <trkpt lat="37.371252" lon="-122.128587">
        <ele>80.8</ele>
        <time>2015-05-13T18:23:23Z</time>
      </trkpt>
      <trkpt lat="37.371208" lon="-122.128615">
        <ele>82</ele>
        <time>2015-05-13T18:23:25Z</time>
      </trkpt>
      <trkpt lat="37.371157" lon="-122.12864">
        <ele>83.5</ele>
        <time>2015-05-13T18:23:27Z</time>
      </trkpt>
      <trkpt lat="37.371112" lon="-122.128671">
        <ele>84</ele>
        <time>2015-05-13T18:23:30Z</time>
      </trkpt>
      <trkpt lat="37.371071" lon="-122.128706">
        <ele>84.1</ele>
        <time>2015-05-13T18:23:32Z</time>
      </trkpt>
      <trkpt lat="37.37102" lon="-122.128736">
        <ele>84.5</ele>
        <time>2015-05-13T18:23:33Z</time>
      </trkpt>
      <trkpt lat="37.370955" lon="-122.128709">
        <ele>85.8</ele>
        <time>2015-05-13T18:23:35Z</time>
      </trkpt>
      <trkpt lat="37.370912" lon="-122.128731">
        <ele>86.1</ele>
        <time>2015-05-13T18:23:37Z</time>
      </trkpt>
      <trkpt lat="37.370886" lon="-122.128744">
        <ele>86.4</ele>
        <time>2015-05-13T18:23:38Z</time>
      </trkpt>
      <trkpt lat="37.370837" lon="-122.128765">
        <ele>86.8</ele>
        <time>2015-05-13T18:23:40Z</time>
      </trkpt>
      <trkpt lat="37.370822" lon="-122.128817">
        <ele>86.2</ele>
        <time>2015-05-13T18:23:41Z</time>
      </trkpt>
      <trkpt lat="37.370794" lon="-122.128828">
        <ele>86.5</ele>
        <time>2015-05-13T18:23:42Z</time>
      </trkpt>
      <trkpt lat="37.370767" lon="-122.128837">
        <ele>86.9</ele>
        <time>2015-05-13T18:23:43Z</time>
      </trkpt>
      <trkpt lat="37.370717" lon="-122.128853">
        <ele>87.5</ele>
        <time>2015-05-13T18:23:45Z</time>
      </trkpt>
      <trkpt lat="37.370665" lon="-122.128867">
        <ele>88.4</ele>
        <time>2015-05-13T18:23:47Z</time>
      </trkpt>
      <trkpt lat="37.370639" lon="-122.128873">
        <ele>88.7</ele>
        <time>2015-05-13T18:23:48Z</time>
      </trkpt>
      <trkpt lat="37.37061" lon="-122.128878">
        <ele>88.8</ele>
        <time>2015-05-13T18:23:49Z</time>
      </trkpt>
      <trkpt lat="37.370581" lon="-122.128883">
        <ele>88.9</ele>
        <time>2015-05-13T18:23:50Z</time>
      </trkpt>
      <trkpt lat="37.370552" lon="-122.128886">
        <ele>89</ele>
        <time>2015-05-13T18:23:51Z</time>
      </trkpt>
      <trkpt lat="37.370523" lon="-122.128888">
        <ele>89.2</ele>
        <time>2015-05-13T18:23:52Z</time>
      </trkpt>
      <trkpt lat="37.370493" lon="-122.128888">
        <ele>89.3</ele>
        <time>2015-05-13T18:23:53Z</time>
      </trkpt>
      <trkpt lat="37.370462" lon="-122.12889">
        <ele>89.4</ele>
        <time>2015-05-13T18:23:54Z</time>
      </trkpt>
      <trkpt lat="37.37043" lon="-122.128892">
        <ele>89.6</ele>
        <time>2015-05-13T18:23:55Z</time>
      </trkpt>
      <trkpt lat="37.370397" lon="-122.128896">
        <ele>89.6</ele>
        <time>2015-05-13T18:23:56Z</time>
      </trkpt>
      <trkpt lat="37.370365" lon="-122.128902">
        <ele>89.6</ele>
        <time>2015-05-13T18:23:57Z</time>
      </trkpt>
      <trkpt lat="37.370332" lon="-122.12891">
        <ele>89.7</ele>
        <time>2015-05-13T18:23:58Z</time>
      </trkpt>
      <trkpt lat="37.370299" lon="-122.128918">
        <ele>89.8</ele>
        <time>2015-05-13T18:23:59Z</time>
      </trkpt>
      <trkpt lat="37.370265" lon="-122.128927">
        <ele>89.9</ele>
        <time>2015-05-13T18:24:00Z</time>
      </trkpt>
      <trkpt lat="37.370232" lon="-122.128935">
        <ele>90.2</ele>
        <time>2015-05-13T18:24:01Z</time>
      </trkpt>
      <trkpt lat="37.3702" lon="-122.128945">
        <ele>90</ele>
        <time>2015-05-13T18:24:02Z</time>
      </trkpt>
      <trkpt lat="37.370168" lon="-122.128954">
        <ele>90.1</ele>
        <time>2015-05-13T18:24:03Z</time>
      </trkpt>
      <trkpt lat="37.370139" lon="-122.128962">
        <ele>90.4</ele>
        <time>2015-05-13T18:24:04Z</time>
      </trkpt>
      <trkpt lat="37.370109" lon="-122.128972">
        <ele>90.5</ele>
        <time>2015-05-13T18:24:05Z</time>
      </trkpt>
      <trkpt lat="37.370079" lon="-122.128981">
        <ele>90.8</ele>
        <time>2015-05-13T18:24:07Z</time>
      </trkpt>
      <trkpt lat="37.370051" lon="-122.12899">
        <ele>91.1</ele>
        <time>2015-05-13T18:24:08Z</time>
      </trkpt>
      <trkpt lat="37.370022" lon="-122.129">
        <ele>91.4</ele>
        <time>2015-05-13T18:24:09Z</time>
      </trkpt>
      <trkpt lat="37.369994" lon="-122.129011">
        <ele>91.6</ele>
        <time>2015-05-13T18:24:10Z</time>
      </trkpt>
      <trkpt lat="37.369934" lon="-122.129037">
        <ele>92.1</ele>
        <time>2015-05-13T18:24:12Z</time>
      </trkpt>
      <trkpt lat="37.369902" lon="-122.129051">
        <ele>92.2</ele>
        <time>2015-05-13T18:24:13Z</time>
      </trkpt>
      <trkpt lat="37.369845" lon="-122.129083">
        <ele>92.4</ele>
        <time>2015-05-13T18:24:14Z</time>
      </trkpt>
      <trkpt lat="37.369812" lon="-122.129107">
        <ele>92.3</ele>
        <time>2015-05-13T18:24:16Z</time>
      </trkpt>
      <trkpt lat="37.36978" lon="-122.129131">
        <ele>92</ele>
        <time>2015-05-13T18:24:17Z</time>
      </trkpt>
      <trkpt lat="37.369719" lon="-122.129179">
        <ele>91.7</ele>
        <time>2015-05-13T18:24:18Z</time>
      </trkpt>
      <trkpt lat="37.36969" lon="-122.129207">
        <ele>91.6</ele>
        <time>2015-05-13T18:24:19Z</time>
      </trkpt>
      <trkpt lat="37.369662" lon="-122.129233">
        <ele>91.8</ele>
        <time>2015-05-13T18:24:20Z</time>
      </trkpt>
      <trkpt lat="37.369611" lon="-122.129284">
        <ele>92.6</ele>
        <time>2015-05-13T18:24:22Z</time>
      </trkpt>
      <trkpt lat="37.369585" lon="-122.12931">
        <ele>92.7</ele>
        <time>2015-05-13T18:24:23Z</time>
      </trkpt>
      <trkpt lat="37.36956" lon="-122.129338">
        <ele>93</ele>
        <time>2015-05-13T18:24:24Z</time>
      </trkpt>
      <trkpt lat="37.369535" lon="-122.129367">
        <ele>93.3</ele>
        <time>2015-05-13T18:24:26Z</time>
      </trkpt>
      <trkpt lat="37.36951" lon="-122.129396">
        <ele>93.3</ele>
        <time>2015-05-13T18:24:27Z</time>
      </trkpt>
      <trkpt lat="37.369458" lon="-122.129455">
        <ele>93.3</ele>
        <time>2015-05-13T18:24:28Z</time>
      </trkpt>
      <trkpt lat="37.36943" lon="-122.129482">
        <ele>93.6</ele>
        <time>2015-05-13T18:24:30Z</time>
      </trkpt>
      <trkpt lat="37.369401" lon="-122.129509">
        <ele>93.7</ele>
        <time>2015-05-13T18:24:31Z</time>
      </trkpt>
      <trkpt lat="37.369338" lon="-122.129557">
        <ele>93.8</ele>
        <time>2015-05-13T18:24:32Z</time>
      </trkpt>
      <trkpt lat="37.369307" lon="-122.129573">
        <ele>94.1</ele>
        <time>2015-05-13T18:24:33Z</time>
      </trkpt>
      <trkpt lat="37.369273" lon="-122.129589">
        <ele>94.4</ele>
        <time>2015-05-13T18:24:34Z</time>
      </trkpt>
      <trkpt lat="37.369237" lon="-122.129605">
        <ele>94.7</ele>
        <time>2015-05-13T18:24:35Z</time>
      </trkpt>
      <trkpt lat="37.369203" lon="-122.129623">
        <ele>94.8</ele>
        <time>2015-05-13T18:24:36Z</time>
      </trkpt>
      <trkpt lat="37.369171" lon="-122.129642">
        <ele>94.9</ele>
        <time>2015-05-13T18:24:37Z</time>
      </trkpt>
      <trkpt lat="37.369137" lon="-122.129661">
        <ele>94.9</ele>
        <time>2015-05-13T18:24:38Z</time>
      </trkpt>
      <trkpt lat="37.369103" lon="-122.129678">
        <ele>95.1</ele>
        <time>2015-05-13T18:24:39Z</time>
      </trkpt>
      <trkpt lat="37.369069" lon="-122.129696">
        <ele>95.1</ele>
        <time>2015-05-13T18:24:40Z</time>
      </trkpt>
      <trkpt lat="37.369035" lon="-122.129716">
        <ele>95.1</ele>
        <time>2015-05-13T18:24:41Z</time>
      </trkpt>
      <trkpt lat="37.369" lon="-122.129734">
        <ele>95</ele>
        <time>2015-05-13T18:24:43Z</time>
      </trkpt>
      <trkpt lat="37.368965" lon="-122.129753">
        <ele>95</ele>
        <time>2015-05-13T18:24:44Z</time>
      </trkpt>
      <trkpt lat="37.36893" lon="-122.12977">
        <ele>95.3</ele>
        <time>2015-05-13T18:24:45Z</time>
      </trkpt>
      <trkpt lat="37.368857" lon="-122.129807">
        <ele>95.5</ele>
        <time>2015-05-13T18:24:46Z</time>
      </trkpt>
      <trkpt lat="37.368819" lon="-122.129827">
        <ele>95.6</ele>
        <time>2015-05-13T18:24:48Z</time>
      </trkpt>
      <trkpt lat="37.368781" lon="-122.129849">
        <ele>95.5</ele>
        <time>2015-05-13T18:24:49Z</time>
      </trkpt>
      <trkpt lat="37.368744" lon="-122.129871">
        <ele>95.5</ele>
        <time>2015-05-13T18:24:50Z</time>
      </trkpt>
      <trkpt lat="37.36867" lon="-122.129918">
        <ele>95.2</ele>
        <time>2015-05-13T18:24:51Z</time>
      </trkpt>
      <trkpt lat="37.368631" lon="-122.129945">
        <ele>95.1</ele>
        <time>2015-05-13T18:24:52Z</time>
      </trkpt>
      <trkpt lat="37.368591" lon="-122.129971">
        <ele>95.5</ele>
        <time>2015-05-13T18:24:53Z</time>
      </trkpt>
      <trkpt lat="37.368552" lon="-122.129995">
        <ele>95.5</ele>
        <time>2015-05-13T18:24:54Z</time>
      </trkpt>
      <trkpt lat="37.368513" lon="-122.130018">
        <ele>95.4</ele>
        <time>2015-05-13T18:24:55Z</time>
      </trkpt>
      <trkpt lat="37.368474" lon="-122.130043">
        <ele>95.2</ele>
        <time>2015-05-13T18:24:56Z</time>
      </trkpt>
      <trkpt lat="37.368436" lon="-122.130069">
        <ele>94.9</ele>
        <time>2015-05-13T18:24:57Z</time>
      </trkpt>
      <trkpt lat="37.368399" lon="-122.130098">
        <ele>94.7</ele>
        <time>2015-05-13T18:24:58Z</time>
      </trkpt>
      <trkpt lat="37.368361" lon="-122.130132">
        <ele>94.4</ele>
        <time>2015-05-13T18:24:59Z</time>
      </trkpt>
      <trkpt lat="37.368319" lon="-122.130157">
        <ele>94.4</ele>
        <time>2015-05-13T18:25:00Z</time>
      </trkpt>
      <trkpt lat="37.368282" lon="-122.130193">
        <ele>94.4</ele>
        <time>2015-05-13T18:25:01Z</time>
      </trkpt>
      <trkpt lat="37.368242" lon="-122.130227">
        <ele>94.5</ele>
        <time>2015-05-13T18:25:02Z</time>
      </trkpt>
      <trkpt lat="37.368216" lon="-122.130269">
        <ele>94.3</ele>
        <time>2015-05-13T18:25:03Z</time>
      </trkpt>
      <trkpt lat="37.368176" lon="-122.130302">
        <ele>94.4</ele>
        <time>2015-05-13T18:25:04Z</time>
      </trkpt>
      <trkpt lat="37.368136" lon="-122.130341">
        <ele>94.1</ele>
        <time>2015-05-13T18:25:05Z</time>
      </trkpt>
      <trkpt lat="37.368107" lon="-122.130375">
        <ele>94.1</ele>
        <time>2015-05-13T18:25:06Z</time>
      </trkpt>
      <trkpt lat="37.368076" lon="-122.130416">
        <ele>94.1</ele>
        <time>2015-05-13T18:25:07Z</time>
      </trkpt>
      <trkpt lat="37.368044" lon="-122.130477">
        <ele>94</ele>
        <time>2015-05-13T18:25:08Z</time>
      </trkpt>
      <trkpt lat="37.368018" lon="-122.130537">
        <ele>93.8</ele>
        <time>2015-05-13T18:25:09Z</time>
      </trkpt>
      <trkpt lat="37.367998" lon="-122.130613">
        <ele>93.7</ele>
        <time>2015-05-13T18:25:10Z</time>
      </trkpt>
      <trkpt lat="37.367979" lon="-122.130691">
        <ele>93.7</ele>
        <time>2015-05-13T18:25:11Z</time>
      </trkpt>
      <trkpt lat="37.36797" lon="-122.130763">
        <ele>94</ele>
        <time>2015-05-13T18:25:12Z</time>
      </trkpt>
      <trkpt lat="37.367952" lon="-122.130826">
        <ele>94.6</ele>
        <time>2015-05-13T18:25:13Z</time>
      </trkpt>
      <trkpt lat="37.367935" lon="-122.130888">
        <ele>95.3</ele>
        <time>2015-05-13T18:25:14Z</time>
      </trkpt>
      <trkpt lat="37.367916" lon="-122.130946">
        <ele>95.9</ele>
        <time>2015-05-13T18:25:15Z</time>
      </trkpt>
      <trkpt lat="37.367897" lon="-122.131">
        <ele>96.6</ele>
        <time>2015-05-13T18:25:16Z</time>
      </trkpt>
      <trkpt lat="37.36788" lon="-122.131052">
        <ele>96.9</ele>
        <time>2015-05-13T18:25:17Z</time>
      </trkpt>
      <trkpt lat="37.367856" lon="-122.131109">
        <ele>97.2</ele>
        <time>2015-05-13T18:25:18Z</time>
      </trkpt>
      <trkpt lat="37.367835" lon="-122.131155">
        <ele>97.1</ele>
        <time>2015-05-13T18:25:19Z</time>
      </trkpt>
      <trkpt lat="37.367812" lon="-122.131206">
        <ele>97.3</ele>
        <time>2015-05-13T18:25:20Z</time>
      </trkpt>
      <trkpt lat="37.367797" lon="-122.131271">
        <ele>97.5</ele>
        <time>2015-05-13T18:25:21Z</time>
      </trkpt>
      <trkpt lat="37.367781" lon="-122.131323">
        <ele>97.4</ele>
        <time>2015-05-13T18:25:22Z</time>
      </trkpt>
      <trkpt lat="37.367766" lon="-122.13137">
        <ele>97.4</ele>
        <time>2015-05-13T18:25:23Z</time>
      </trkpt>
      <trkpt lat="37.367762" lon="-122.131424">
        <ele>98.1</ele>
        <time>2015-05-13T18:25:24Z</time>
      </trkpt>
      <trkpt lat="37.367759" lon="-122.131474">
        <ele>98.6</ele>
        <time>2015-05-13T18:25:25Z</time>
      </trkpt>
      <trkpt lat="37.36776" lon="-122.131512">
        <ele>98.8</ele>
        <time>2015-05-13T18:25:26Z</time>
      </trkpt>
      <trkpt lat="37.367758" lon="-122.131556">
        <ele>98.9</ele>
        <time>2015-05-13T18:25:27Z</time>
      </trkpt>
      <trkpt lat="37.367765" lon="-122.131593">
        <ele>99.1</ele>
        <time>2015-05-13T18:25:28Z</time>
      </trkpt>
      <trkpt lat="37.36777" lon="-122.13164">
        <ele>99.3</ele>
        <time>2015-05-13T18:25:29Z</time>
      </trkpt>
      <trkpt lat="37.367791" lon="-122.131756">
        <ele>100</ele>
        <time>2015-05-13T18:25:32Z</time>
      </trkpt>
      <trkpt lat="37.367799" lon="-122.1318">
        <ele>100.2</ele>
        <time>2015-05-13T18:25:34Z</time>
      </trkpt>
      <trkpt lat="37.367813" lon="-122.131892">
        <ele>100.8</ele>
        <time>2015-05-13T18:25:35Z</time>
      </trkpt>
      <trkpt lat="37.36782" lon="-122.131934">
        <ele>101</ele>
        <time>2015-05-13T18:25:36Z</time>
      </trkpt>
      <trkpt lat="37.367828" lon="-122.131979">
        <ele>101</ele>
        <time>2015-05-13T18:25:38Z</time>
      </trkpt>
      <trkpt lat="37.367838" lon="-122.132028">
        <ele>101.2</ele>
        <time>2015-05-13T18:25:39Z</time>
      </trkpt>
      <trkpt lat="37.367847" lon="-122.132077">
        <ele>101.2</ele>
        <time>2015-05-13T18:25:40Z</time>
      </trkpt>
      <trkpt lat="37.367865" lon="-122.132171">
        <ele>101.8</ele>
        <time>2015-05-13T18:25:41Z</time>
      </trkpt>
      <trkpt lat="37.367874" lon="-122.132215">
        <ele>102</ele>
        <time>2015-05-13T18:25:43Z</time>
      </trkpt>
      <trkpt lat="37.367884" lon="-122.132258">
        <ele>102.3</ele>
        <time>2015-05-13T18:25:44Z</time>
      </trkpt>
      <trkpt lat="37.367892" lon="-122.132301">
        <ele>102.6</ele>
        <time>2015-05-13T18:25:45Z</time>
      </trkpt>
      <trkpt lat="37.367906" lon="-122.132381">
        <ele>103.1</ele>
        <time>2015-05-13T18:25:46Z</time>
      </trkpt>
      <trkpt lat="37.367913" lon="-122.13242">
        <ele>103.2</ele>
        <time>2015-05-13T18:25:47Z</time>
      </trkpt>
      <trkpt lat="37.367921" lon="-122.13246">
        <ele>103.3</ele>
        <time>2015-05-13T18:25:48Z</time>
      </trkpt>
      <trkpt lat="37.36793" lon="-122.132502">
        <ele>103.3</ele>
        <time>2015-05-13T18:25:49Z</time>
      </trkpt>
      <trkpt lat="37.367941" lon="-122.132549">
        <ele>103.7</ele>
        <time>2015-05-13T18:25:50Z</time>
      </trkpt>
      <trkpt lat="37.367952" lon="-122.132597">
        <ele>103.8</ele>
        <time>2015-05-13T18:25:51Z</time>
      </trkpt>
      <trkpt lat="37.36796" lon="-122.132644">
        <ele>104</ele>
        <time>2015-05-13T18:25:52Z</time>
      </trkpt>
      <trkpt lat="37.367967" lon="-122.132695">
        <ele>104.2</ele>
        <time>2015-05-13T18:25:53Z</time>
      </trkpt>
      <trkpt lat="37.367974" lon="-122.132745">
        <ele>104.4</ele>
        <time>2015-05-13T18:25:54Z</time>
      </trkpt>
      <trkpt lat="37.36798" lon="-122.132795">
        <ele>104.6</ele>
        <time>2015-05-13T18:25:55Z</time>
      </trkpt>
      <trkpt lat="37.367985" lon="-122.132847">
        <ele>104.9</ele>
        <time>2015-05-13T18:25:56Z</time>
      </trkpt>
      <trkpt lat="37.367988" lon="-122.132898">
        <ele>105.1</ele>
        <time>2015-05-13T18:25:58Z</time>
      </trkpt>
      <trkpt lat="37.367989" lon="-122.133001">
        <ele>105.5</ele>
        <time>2015-05-13T18:25:59Z</time>
      </trkpt>
      <trkpt lat="37.367984" lon="-122.133053">
        <ele>105.6</ele>
        <time>2015-05-13T18:26:00Z</time>
      </trkpt>
      <trkpt lat="37.367975" lon="-122.133103">
        <ele>105.8</ele>
        <time>2015-05-13T18:26:01Z</time>
      </trkpt>
      <trkpt lat="37.36796" lon="-122.133151">
        <ele>105.9</ele>
        <time>2015-05-13T18:26:03Z</time>
      </trkpt>
      <trkpt lat="37.367917" lon="-122.133236">
        <ele>106.2</ele>
        <time>2015-05-13T18:26:04Z</time>
      </trkpt>
      <trkpt lat="37.367889" lon="-122.133274">
        <ele>106.4</ele>
        <time>2015-05-13T18:26:05Z</time>
      </trkpt>
      <trkpt lat="37.367862" lon="-122.133309">
        <ele>106.5</ele>
        <time>2015-05-13T18:26:06Z</time>
      </trkpt>
      <trkpt lat="37.367836" lon="-122.133341">
        <ele>106.7</ele>
        <time>2015-05-13T18:26:07Z</time>
      </trkpt>
      <trkpt lat="37.367816" lon="-122.133367">
        <ele>106.8</ele>
        <time>2015-05-13T18:26:08Z</time>
      </trkpt>
      <trkpt lat="37.367781" lon="-122.133416">
        <ele>107</ele>
        <time>2015-05-13T18:26:11Z</time>
      </trkpt>
      <trkpt lat="37.367761" lon="-122.133447">
        <ele>107.1</ele>
        <time>2015-05-13T18:26:12Z</time>
      </trkpt>
      <trkpt lat="37.367721" lon="-122.133509">
        <ele>107.3</ele>
        <time>2015-05-13T18:26:13Z</time>
      </trkpt>
      <trkpt lat="37.367699" lon="-122.133539">
        <ele>107.4</ele>
        <time>2015-05-13T18:26:14Z</time>
      </trkpt>
      <trkpt lat="37.367677" lon="-122.133569">
        <ele>107.4</ele>
        <time>2015-05-13T18:26:16Z</time>
      </trkpt>
      <trkpt lat="37.367658" lon="-122.1336">
        <ele>107.5</ele>
        <time>2015-05-13T18:26:17Z</time>
      </trkpt>
      <trkpt lat="37.367641" lon="-122.133633">
        <ele>107.6</ele>
        <time>2015-05-13T18:26:18Z</time>
      </trkpt>
      <trkpt lat="37.367624" lon="-122.133663">
        <ele>107.8</ele>
        <time>2015-05-13T18:26:19Z</time>
      </trkpt>
      <trkpt lat="37.367604" lon="-122.133687">
        <ele>107.9</ele>
        <time>2015-05-13T18:26:20Z</time>
      </trkpt>
      <trkpt lat="37.367581" lon="-122.133708">
        <ele>108</ele>
        <time>2015-05-13T18:26:21Z</time>
      </trkpt>
      <trkpt lat="37.367538" lon="-122.13376">
        <ele>108.2</ele>
        <time>2015-05-13T18:26:22Z</time>
      </trkpt>
      <trkpt lat="37.367517" lon="-122.133791">
        <ele>108.2</ele>
        <time>2015-05-13T18:26:23Z</time>
      </trkpt>
      <trkpt lat="37.367494" lon="-122.133823">
        <ele>108.3</ele>
        <time>2015-05-13T18:26:25Z</time>
      </trkpt>
      <trkpt lat="37.367472" lon="-122.133854">
        <ele>108.4</ele>
        <time>2015-05-13T18:26:26Z</time>
      </trkpt>
      <trkpt lat="37.367428" lon="-122.133917">
        <ele>108.8</ele>
        <time>2015-05-13T18:26:27Z</time>
      </trkpt>
      <trkpt lat="37.367406" lon="-122.133946">
        <ele>109</ele>
        <time>2015-05-13T18:26:29Z</time>
      </trkpt>
      <trkpt lat="37.367383" lon="-122.133975">
        <ele>109.2</ele>
        <time>2015-05-13T18:26:30Z</time>
      </trkpt>
      <trkpt lat="37.367337" lon="-122.134034">
        <ele>109.4</ele>
        <time>2015-05-13T18:26:31Z</time>
      </trkpt>
      <trkpt lat="37.367315" lon="-122.134064">
        <ele>109.6</ele>
        <time>2015-05-13T18:26:33Z</time>
      </trkpt>
      <trkpt lat="37.367292" lon="-122.134094">
        <ele>109.7</ele>
        <time>2015-05-13T18:26:34Z</time>
      </trkpt>
      <trkpt lat="37.36727" lon="-122.134124">
        <ele>109.8</ele>
        <time>2015-05-13T18:26:35Z</time>
      </trkpt>
      <trkpt lat="37.36723" lon="-122.134184">
        <ele>110.1</ele>
        <time>2015-05-13T18:26:36Z</time>
      </trkpt>
      <trkpt lat="37.367208" lon="-122.134218">
        <ele>110.2</ele>
        <time>2015-05-13T18:26:38Z</time>
      </trkpt>
      <trkpt lat="37.367186" lon="-122.134253">
        <ele>110.3</ele>
        <time>2015-05-13T18:26:39Z</time>
      </trkpt>
      <trkpt lat="37.367142" lon="-122.134324">
        <ele>110.6</ele>
        <time>2015-05-13T18:26:40Z</time>
      </trkpt>
      <trkpt lat="37.367119" lon="-122.13436">
        <ele>110.7</ele>
        <time>2015-05-13T18:26:41Z</time>
      </trkpt>
      <trkpt lat="37.367095" lon="-122.134398">
        <ele>110.8</ele>
        <time>2015-05-13T18:26:42Z</time>
      </trkpt>
      <trkpt lat="37.367071" lon="-122.134435">
        <ele>111</ele>
        <time>2015-05-13T18:26:44Z</time>
      </trkpt>
      <trkpt lat="37.367025" lon="-122.134504">
        <ele>111.1</ele>
        <time>2015-05-13T18:26:45Z</time>
      </trkpt>
      <trkpt lat="37.367002" lon="-122.134541">
        <ele>111.2</ele>
        <time>2015-05-13T18:26:46Z</time>
      </trkpt>
      <trkpt lat="37.366979" lon="-122.134577">
        <ele>111.1</ele>
        <time>2015-05-13T18:26:47Z</time>
      </trkpt>
      <trkpt lat="37.366954" lon="-122.134613">
        <ele>111.4</ele>
        <time>2015-05-13T18:26:48Z</time>
      </trkpt>
      <trkpt lat="37.366927" lon="-122.134648">
        <ele>111.6</ele>
        <time>2015-05-13T18:26:49Z</time>
      </trkpt>
      <trkpt lat="37.3669" lon="-122.134684">
        <ele>111.6</ele>
        <time>2015-05-13T18:26:51Z</time>
      </trkpt>
      <trkpt lat="37.366874" lon="-122.13472">
        <ele>111.6</ele>
        <time>2015-05-13T18:26:52Z</time>
      </trkpt>
      <trkpt lat="37.366823" lon="-122.134795">
        <ele>111.6</ele>
        <time>2015-05-13T18:26:53Z</time>
      </trkpt>
      <trkpt lat="37.366797" lon="-122.134833">
        <ele>111.8</ele>
        <time>2015-05-13T18:26:54Z</time>
      </trkpt>
      <trkpt lat="37.36677" lon="-122.134871">
        <ele>111.8</ele>
        <time>2015-05-13T18:26:55Z</time>
      </trkpt>
      <trkpt lat="37.366743" lon="-122.134909">
        <ele>111.7</ele>
        <time>2015-05-13T18:26:56Z</time>
      </trkpt>
      <trkpt lat="37.366717" lon="-122.134951">
        <ele>111.7</ele>
        <time>2015-05-13T18:26:57Z</time>
      </trkpt>
      <trkpt lat="37.366691" lon="-122.134993">
        <ele>111.7</ele>
        <time>2015-05-13T18:26:58Z</time>
      </trkpt>
      <trkpt lat="37.366666" lon="-122.135035">
        <ele>111.9</ele>
        <time>2015-05-13T18:26:59Z</time>
      </trkpt>
      <trkpt lat="37.366641" lon="-122.135077">
        <ele>111.9</ele>
        <time>2015-05-13T18:27:01Z</time>
      </trkpt>
      <trkpt lat="37.36662" lon="-122.135117">
        <ele>111.9</ele>
        <time>2015-05-13T18:27:02Z</time>
      </trkpt>
      <trkpt lat="37.366572" lon="-122.1352">
        <ele>112.5</ele>
        <time>2015-05-13T18:27:03Z</time>
      </trkpt>
      <trkpt lat="37.366546" lon="-122.135238">
        <ele>113.3</ele>
        <time>2015-05-13T18:27:04Z</time>
      </trkpt>
      <trkpt lat="37.36652" lon="-122.135275">
        <ele>113.8</ele>
        <time>2015-05-13T18:27:05Z</time>
      </trkpt>
      <trkpt lat="37.366495" lon="-122.135313">
        <ele>113.8</ele>
        <time>2015-05-13T18:27:06Z</time>
      </trkpt>
      <trkpt lat="37.366471" lon="-122.135353">
        <ele>114</ele>
        <time>2015-05-13T18:27:07Z</time>
      </trkpt>
      <trkpt lat="37.366444" lon="-122.135396">
        <ele>114.2</ele>
        <time>2015-05-13T18:27:08Z</time>
      </trkpt>
      <trkpt lat="37.366417" lon="-122.13544">
        <ele>114.7</ele>
        <time>2015-05-13T18:27:09Z</time>
      </trkpt>
      <trkpt lat="37.366388" lon="-122.135483">
        <ele>115</ele>
        <time>2015-05-13T18:27:10Z</time>
      </trkpt>
      <trkpt lat="37.366359" lon="-122.135513">
        <ele>115.3</ele>
        <time>2015-05-13T18:27:11Z</time>
      </trkpt>
      <trkpt lat="37.366282" lon="-122.13551">
        <ele>113.6</ele>
        <time>2015-05-13T18:27:12Z</time>
      </trkpt>
      <trkpt lat="37.366251" lon="-122.135555">
        <ele>113.9</ele>
        <time>2015-05-13T18:27:13Z</time>
      </trkpt>
      <trkpt lat="37.366221" lon="-122.135598">
        <ele>114.2</ele>
        <time>2015-05-13T18:27:14Z</time>
      </trkpt>
      <trkpt lat="37.366193" lon="-122.13564">
        <ele>114.4</ele>
        <time>2015-05-13T18:27:15Z</time>
      </trkpt>
      <trkpt lat="37.366174" lon="-122.135668">
        <ele>114.4</ele>
        <time>2015-05-13T18:27:16Z</time>
      </trkpt>
      <trkpt lat="37.366145" lon="-122.13571">
        <ele>114.6</ele>
        <time>2015-05-13T18:27:17Z</time>
      </trkpt>
      <trkpt lat="37.366116" lon="-122.135753">
        <ele>115</ele>
        <time>2015-05-13T18:27:19Z</time>
      </trkpt>
      <trkpt lat="37.36609" lon="-122.135791">
        <ele>115.2</ele>
        <time>2015-05-13T18:27:21Z</time>
      </trkpt>
      <trkpt lat="37.366066" lon="-122.135825">
        <ele>115.5</ele>
        <time>2015-05-13T18:27:22Z</time>
      </trkpt>
      <trkpt lat="37.366031" lon="-122.135877">
        <ele>116</ele>
        <time>2015-05-13T18:27:24Z</time>
      </trkpt>
      <trkpt lat="37.36591" lon="-122.136055">
        <ele>118</ele>
        <time>2015-05-13T18:27:32Z</time>
      </trkpt>
      <trkpt lat="37.36587" lon="-122.136114">
        <ele>118.6</ele>
        <time>2015-05-13T18:27:35Z</time>
      </trkpt>
      <trkpt lat="37.365855" lon="-122.136135">
        <ele>118.8</ele>
        <time>2015-05-13T18:27:36Z</time>
      </trkpt>
      <trkpt lat="37.365829" lon="-122.136173">
        <ele>119.1</ele>
        <time>2015-05-13T18:27:39Z</time>
      </trkpt>
      <trkpt lat="37.365803" lon="-122.136212">
        <ele>119.4</ele>
        <time>2015-05-13T18:27:40Z</time>
      </trkpt>
      <trkpt lat="37.365751" lon="-122.136287">
        <ele>119.8</ele>
        <time>2015-05-13T18:27:43Z</time>
      </trkpt>
      <trkpt lat="37.365733" lon="-122.136314">
        <ele>119.9</ele>
        <time>2015-05-13T18:27:44Z</time>
      </trkpt>
      <trkpt lat="37.365759" lon="-122.136391">
        <ele>120</ele>
        <time>2015-05-13T18:27:45Z</time>
      </trkpt>
      <trkpt lat="37.365738" lon="-122.136419">
        <ele>120.1</ele>
        <time>2015-05-13T18:27:47Z</time>
      </trkpt>
      <trkpt lat="37.365718" lon="-122.136448">
        <ele>120.3</ele>
        <time>2015-05-13T18:27:48Z</time>
      </trkpt>
      <trkpt lat="37.365673" lon="-122.13651">
        <ele>120.5</ele>
        <time>2015-05-13T18:27:49Z</time>
      </trkpt>
      <trkpt lat="37.36565" lon="-122.136543">
        <ele>120.6</ele>
        <time>2015-05-13T18:27:50Z</time>
      </trkpt>
      <trkpt lat="37.365627" lon="-122.136576">
        <ele>120.7</ele>
        <time>2015-05-13T18:27:52Z</time>
      </trkpt>
      <trkpt lat="37.365605" lon="-122.13661">
        <ele>120.7</ele>
        <time>2015-05-13T18:27:53Z</time>
      </trkpt>
      <trkpt lat="37.365583" lon="-122.136645">
        <ele>120.8</ele>
        <time>2015-05-13T18:27:54Z</time>
      </trkpt>
      <trkpt lat="37.365562" lon="-122.136681">
        <ele>121</ele>
        <time>2015-05-13T18:27:55Z</time>
      </trkpt>
      <trkpt lat="37.365541" lon="-122.136716">
        <ele>121</ele>
        <time>2015-05-13T18:27:56Z</time>
      </trkpt>
      <trkpt lat="37.36552" lon="-122.136751">
        <ele>121.1</ele>
        <time>2015-05-13T18:27:57Z</time>
      </trkpt>
      <trkpt lat="37.365482" lon="-122.13682">
        <ele>121.1</ele>
        <time>2015-05-13T18:27:58Z</time>
      </trkpt>
      <trkpt lat="37.365464" lon="-122.136856">
        <ele>121.3</ele>
        <time>2015-05-13T18:28:00Z</time>
      </trkpt>
      <trkpt lat="37.365444" lon="-122.136891">
        <ele>121.6</ele>
        <time>2015-05-13T18:28:01Z</time>
      </trkpt>
      <trkpt lat="37.365423" lon="-122.136922">
        <ele>121.8</ele>
        <time>2015-05-13T18:28:02Z</time>
      </trkpt>
      <trkpt lat="37.365379" lon="-122.13698">
        <ele>122.4</ele>
        <time>2015-05-13T18:28:03Z</time>
      </trkpt>
      <trkpt lat="37.365358" lon="-122.137008">
        <ele>122.7</ele>
        <time>2015-05-13T18:28:04Z</time>
      </trkpt>
      <trkpt lat="37.365338" lon="-122.137037">
        <ele>122.9</ele>
        <time>2015-05-13T18:28:05Z</time>
      </trkpt>
      <trkpt lat="37.365317" lon="-122.137068">
        <ele>123.1</ele>
        <time>2015-05-13T18:28:06Z</time>
      </trkpt>
      <trkpt lat="37.365295" lon="-122.137099">
        <ele>123.3</ele>
        <time>2015-05-13T18:28:07Z</time>
      </trkpt>
      <trkpt lat="37.365272" lon="-122.137131">
        <ele>123.6</ele>
        <time>2015-05-13T18:28:08Z</time>
      </trkpt>
      <trkpt lat="37.365249" lon="-122.137161">
        <ele>123.9</ele>
        <time>2015-05-13T18:28:09Z</time>
      </trkpt>
      <trkpt lat="37.365205" lon="-122.137217">
        <ele>124.2</ele>
        <time>2015-05-13T18:28:11Z</time>
      </trkpt>
      <trkpt lat="37.365183" lon="-122.137244">
        <ele>124.4</ele>
        <time>2015-05-13T18:28:12Z</time>
      </trkpt>
      <trkpt lat="37.365162" lon="-122.137268">
        <ele>124.7</ele>
        <time>2015-05-13T18:28:13Z</time>
      </trkpt>
      <trkpt lat="37.365141" lon="-122.13729">
        <ele>124.9</ele>
        <time>2015-05-13T18:28:14Z</time>
      </trkpt>
      <trkpt lat="37.365119" lon="-122.137316">
        <ele>125.1</ele>
        <time>2015-05-13T18:28:15Z</time>
      </trkpt>
      <trkpt lat="37.365097" lon="-122.137344">
        <ele>125.3</ele>
        <time>2015-05-13T18:28:16Z</time>
      </trkpt>
      <trkpt lat="37.365074" lon="-122.137368">
        <ele>125.5</ele>
        <time>2015-05-13T18:28:18Z</time>
      </trkpt>
      <trkpt lat="37.365051" lon="-122.13739">
        <ele>125.5</ele>
        <time>2015-05-13T18:28:19Z</time>
      </trkpt>
      <trkpt lat="37.365005" lon="-122.137433">
        <ele>125.6</ele>
        <time>2015-05-13T18:28:20Z</time>
      </trkpt>
      <trkpt lat="37.364982" lon="-122.137458">
        <ele>125.7</ele>
        <time>2015-05-13T18:28:21Z</time>
      </trkpt>
      <trkpt lat="37.36496" lon="-122.137483">
        <ele>125.8</ele>
        <time>2015-05-13T18:28:23Z</time>
      </trkpt>
      <trkpt lat="37.364934" lon="-122.137506">
        <ele>125.8</ele>
        <time>2015-05-13T18:28:24Z</time>
      </trkpt>
      <trkpt lat="37.364903" lon="-122.137525">
        <ele>125.5</ele>
        <time>2015-05-13T18:28:25Z</time>
      </trkpt>
      <trkpt lat="37.364864" lon="-122.137537">
        <ele>125.2</ele>
        <time>2015-05-13T18:28:26Z</time>
      </trkpt>
      <trkpt lat="37.364819" lon="-122.137541">
        <ele>124.9</ele>
        <time>2015-05-13T18:28:27Z</time>
      </trkpt>
      <trkpt lat="37.364766" lon="-122.137541">
        <ele>124.4</ele>
        <time>2015-05-13T18:28:28Z</time>
      </trkpt>
      <trkpt lat="37.364653" lon="-122.13748">
        <ele>123.3</ele>
        <time>2015-05-13T18:28:29Z</time>
      </trkpt>
      <trkpt lat="37.364595" lon="-122.137478">
        <ele>122.6</ele>
        <time>2015-05-13T18:28:30Z</time>
      </trkpt>
      <trkpt lat="37.364535" lon="-122.137475">
        <ele>122</ele>
        <time>2015-05-13T18:28:31Z</time>
      </trkpt>
      <trkpt lat="37.364476" lon="-122.137469">
        <ele>121.4</ele>
        <time>2015-05-13T18:28:32Z</time>
      </trkpt>
      <trkpt lat="37.364415" lon="-122.137461">
        <ele>120.8</ele>
        <time>2015-05-13T18:28:33Z</time>
      </trkpt>
      <trkpt lat="37.364355" lon="-122.137442">
        <ele>120.2</ele>
        <time>2015-05-13T18:28:34Z</time>
      </trkpt>
      <trkpt lat="37.364295" lon="-122.137416">
        <ele>119.6</ele>
        <time>2015-05-13T18:28:35Z</time>
      </trkpt>
      <trkpt lat="37.364236" lon="-122.137378">
        <ele>119</ele>
        <time>2015-05-13T18:28:36Z</time>
      </trkpt>
      <trkpt lat="37.364178" lon="-122.137325">
        <ele>118.4</ele>
        <time>2015-05-13T18:28:37Z</time>
      </trkpt>
      <trkpt lat="37.36413" lon="-122.137269">
        <ele>117.8</ele>
        <time>2015-05-13T18:28:38Z</time>
      </trkpt>
      <trkpt lat="37.364095" lon="-122.137217">
        <ele>117.3</ele>
        <time>2015-05-13T18:28:39Z</time>
      </trkpt>
      <trkpt lat="37.364058" lon="-122.137147">
        <ele>116.7</ele>
        <time>2015-05-13T18:28:40Z</time>
      </trkpt>
      <trkpt lat="37.364015" lon="-122.137054">
        <ele>115.8</ele>
        <time>2015-05-13T18:28:41Z</time>
      </trkpt>
      <trkpt lat="37.363977" lon="-122.136972">
        <ele>115</ele>
        <time>2015-05-13T18:28:42Z</time>
      </trkpt>
      <trkpt lat="37.363936" lon="-122.136884">
        <ele>114.2</ele>
        <time>2015-05-13T18:28:43Z</time>
      </trkpt>
      <trkpt lat="37.363894" lon="-122.136803">
        <ele>113.6</ele>
        <time>2015-05-13T18:28:44Z</time>
      </trkpt>
      <trkpt lat="37.363849" lon="-122.136725">
        <ele>113.2</ele>
        <time>2015-05-13T18:28:45Z</time>
      </trkpt>
      <trkpt lat="37.363803" lon="-122.136653">
        <ele>112.6</ele>
        <time>2015-05-13T18:28:46Z</time>
      </trkpt>
      <trkpt lat="37.363749" lon="-122.13658">
        <ele>112.4</ele>
        <time>2015-05-13T18:28:47Z</time>
      </trkpt>
      <trkpt lat="37.363689" lon="-122.136514">
        <ele>111.7</ele>
        <time>2015-05-13T18:28:48Z</time>
      </trkpt>
      <trkpt lat="37.363625" lon="-122.136453">
        <ele>111.2</ele>
        <time>2015-05-13T18:28:49Z</time>
      </trkpt>
      <trkpt lat="37.363551" lon="-122.136395">
        <ele>110.5</ele>
        <time>2015-05-13T18:28:50Z</time>
      </trkpt>
      <trkpt lat="37.36347" lon="-122.136343">
        <ele>109.9</ele>
        <time>2015-05-13T18:28:51Z</time>
      </trkpt>
      <trkpt lat="37.363386" lon="-122.136293">
        <ele>109.4</ele>
        <time>2015-05-13T18:28:52Z</time>
      </trkpt>
      <trkpt lat="37.363309" lon="-122.136252">
        <ele>109.2</ele>
        <time>2015-05-13T18:28:53Z</time>
      </trkpt>
      <trkpt lat="37.363218" lon="-122.136251">
        <ele>109</ele>
        <time>2015-05-13T18:28:54Z</time>
      </trkpt>
      <trkpt lat="37.363128" lon="-122.136273">
        <ele>108.9</ele>
        <time>2015-05-13T18:28:55Z</time>
      </trkpt>
      <trkpt lat="37.363045" lon="-122.136295">
        <ele>109.1</ele>
        <time>2015-05-13T18:28:56Z</time>
      </trkpt>
      <trkpt lat="37.362968" lon="-122.136315">
        <ele>109.2</ele>
        <time>2015-05-13T18:28:57Z</time>
      </trkpt>
      <trkpt lat="37.362903" lon="-122.13633">
        <ele>109.4</ele>
        <time>2015-05-13T18:28:58Z</time>
      </trkpt>
      <trkpt lat="37.362834" lon="-122.136345">
        <ele>109.6</ele>
        <time>2015-05-13T18:28:59Z</time>
      </trkpt>
      <trkpt lat="37.362775" lon="-122.136358">
        <ele>109.9</ele>
        <time>2015-05-13T18:29:00Z</time>
      </trkpt>
      <trkpt lat="37.36271" lon="-122.136372">
        <ele>110.1</ele>
        <time>2015-05-13T18:29:01Z</time>
      </trkpt>
      <trkpt lat="37.362651" lon="-122.136385">
        <ele>110.5</ele>
        <time>2015-05-13T18:29:02Z</time>
      </trkpt>
      <trkpt lat="37.362591" lon="-122.136398">
        <ele>110.7</ele>
        <time>2015-05-13T18:29:03Z</time>
      </trkpt>
      <trkpt lat="37.36253" lon="-122.136413">
        <ele>111.1</ele>
        <time>2015-05-13T18:29:04Z</time>
      </trkpt>
      <trkpt lat="37.36247" lon="-122.136428">
        <ele>111.5</ele>
        <time>2015-05-13T18:29:05Z</time>
      </trkpt>
      <trkpt lat="37.362412" lon="-122.136443">
        <ele>111.8</ele>
        <time>2015-05-13T18:29:06Z</time>
      </trkpt>
      <trkpt lat="37.362357" lon="-122.136456">
        <ele>112.2</ele>
        <time>2015-05-13T18:29:07Z</time>
      </trkpt>
      <trkpt lat="37.362306" lon="-122.136467">
        <ele>112.3</ele>
        <time>2015-05-13T18:29:08Z</time>
      </trkpt>
      <trkpt lat="37.362254" lon="-122.136478">
        <ele>112.7</ele>
        <time>2015-05-13T18:29:09Z</time>
      </trkpt>
      <trkpt lat="37.362212" lon="-122.136486">
        <ele>113</ele>
        <time>2015-05-13T18:29:10Z</time>
      </trkpt>
      <trkpt lat="37.362168" lon="-122.136492">
        <ele>113.1</ele>
        <time>2015-05-13T18:29:11Z</time>
      </trkpt>
      <trkpt lat="37.362136" lon="-122.136497">
        <ele>113.2</ele>
        <time>2015-05-13T18:29:12Z</time>
      </trkpt>
      <trkpt lat="37.3621" lon="-122.136555">
        <ele>114.6</ele>
        <time>2015-05-13T18:29:13Z</time>
      </trkpt>
      <trkpt lat="37.362052" lon="-122.136556">
        <ele>114.3</ele>
        <time>2015-05-13T18:29:14Z</time>
      </trkpt>
      <trkpt lat="37.362014" lon="-122.136561">
        <ele>114.7</ele>
        <time>2015-05-13T18:29:15Z</time>
      </trkpt>
      <trkpt lat="37.361981" lon="-122.136561">
        <ele>114.9</ele>
        <time>2015-05-13T18:29:16Z</time>
      </trkpt>
      <trkpt lat="37.361948" lon="-122.136557">
        <ele>114.8</ele>
        <time>2015-05-13T18:29:17Z</time>
      </trkpt>
      <trkpt lat="37.361914" lon="-122.136563">
        <ele>114.9</ele>
        <time>2015-05-13T18:29:18Z</time>
      </trkpt>
      <trkpt lat="37.361876" lon="-122.136569">
        <ele>115.1</ele>
        <time>2015-05-13T18:29:19Z</time>
      </trkpt>
      <trkpt lat="37.36184" lon="-122.13657">
        <ele>115.1</ele>
        <time>2015-05-13T18:29:20Z</time>
      </trkpt>
      <trkpt lat="37.361807" lon="-122.136571">
        <ele>115.4</ele>
        <time>2015-05-13T18:29:21Z</time>
      </trkpt>
      <trkpt lat="37.361773" lon="-122.136575">
        <ele>115.8</ele>
        <time>2015-05-13T18:29:23Z</time>
      </trkpt>
      <trkpt lat="37.361744" lon="-122.136578">
        <ele>116.1</ele>
        <time>2015-05-13T18:29:24Z</time>
      </trkpt>
      <trkpt lat="37.361686" lon="-122.136587">
        <ele>116.7</ele>
        <time>2015-05-13T18:29:25Z</time>
      </trkpt>
      <trkpt lat="37.361651" lon="-122.136593">
        <ele>116.7</ele>
        <time>2015-05-13T18:29:26Z</time>
      </trkpt>
      <trkpt lat="37.361617" lon="-122.136597">
        <ele>116.9</ele>
        <time>2015-05-13T18:29:27Z</time>
      </trkpt>
      <trkpt lat="37.361581" lon="-122.136599">
        <ele>117</ele>
        <time>2015-05-13T18:29:28Z</time>
      </trkpt>
      <trkpt lat="37.361545" lon="-122.136601">
        <ele>117.1</ele>
        <time>2015-05-13T18:29:29Z</time>
      </trkpt>
      <trkpt lat="37.361513" lon="-122.136608">
        <ele>117.3</ele>
        <time>2015-05-13T18:29:30Z</time>
      </trkpt>
      <trkpt lat="37.361483" lon="-122.136618">
        <ele>117.3</ele>
        <time>2015-05-13T18:29:31Z</time>
      </trkpt>
      <trkpt lat="37.361453" lon="-122.136629">
        <ele>117.5</ele>
        <time>2015-05-13T18:29:32Z</time>
      </trkpt>
      <trkpt lat="37.361424" lon="-122.136642">
        <ele>117.7</ele>
        <time>2015-05-13T18:29:33Z</time>
      </trkpt>
      <trkpt lat="37.361366" lon="-122.136671">
        <ele>118.2</ele>
        <time>2015-05-13T18:29:35Z</time>
      </trkpt>
      <trkpt lat="37.361338" lon="-122.136686">
        <ele>118.3</ele>
        <time>2015-05-13T18:29:36Z</time>
      </trkpt>
      <trkpt lat="37.361293" lon="-122.136721">
        <ele>118.9</ele>
        <time>2015-05-13T18:29:39Z</time>
      </trkpt>
      <trkpt lat="37.361248" lon="-122.136758">
        <ele>119.3</ele>
        <time>2015-05-13T18:29:40Z</time>
      </trkpt>
      <trkpt lat="37.361228" lon="-122.136773">
        <ele>119.5</ele>
        <time>2015-05-13T18:29:42Z</time>
      </trkpt>
      <trkpt lat="37.361191" lon="-122.136798">
        <ele>119.9</ele>
        <time>2015-05-13T18:29:43Z</time>
      </trkpt>
      <trkpt lat="37.361152" lon="-122.136828">
        <ele>120.1</ele>
        <time>2015-05-13T18:29:45Z</time>
      </trkpt>
      <trkpt lat="37.361117" lon="-122.13686">
        <ele>120.6</ele>
        <time>2015-05-13T18:29:47Z</time>
      </trkpt>
      <trkpt lat="37.361076" lon="-122.136885">
        <ele>120.8</ele>
        <time>2015-05-13T18:29:49Z</time>
      </trkpt>
      <trkpt lat="37.36103" lon="-122.136902">
        <ele>121</ele>
        <time>2015-05-13T18:29:51Z</time>
      </trkpt>
      <trkpt lat="37.360982" lon="-122.136912">
        <ele>121.1</ele>
        <time>2015-05-13T18:29:53Z</time>
      </trkpt>
      <trkpt lat="37.360936" lon="-122.136906">
        <ele>121.3</ele>
        <time>2015-05-13T18:29:56Z</time>
      </trkpt>
      <trkpt lat="37.36089" lon="-122.136893">
        <ele>121.5</ele>
        <time>2015-05-13T18:29:57Z</time>
      </trkpt>
      <trkpt lat="37.360848" lon="-122.136875">
        <ele>121.8</ele>
        <time>2015-05-13T18:30:00Z</time>
      </trkpt>
      <trkpt lat="37.360808" lon="-122.136844">
        <ele>122</ele>
        <time>2015-05-13T18:30:02Z</time>
      </trkpt>
      <trkpt lat="37.360767" lon="-122.136809">
        <ele>122.4</ele>
        <time>2015-05-13T18:30:04Z</time>
      </trkpt>
      <trkpt lat="37.36071" lon="-122.136739">
        <ele>122.8</ele>
        <time>2015-05-13T18:30:06Z</time>
      </trkpt>
      <trkpt lat="37.360693" lon="-122.136709">
        <ele>122.9</ele>
        <time>2015-05-13T18:30:08Z</time>
      </trkpt>
      <trkpt lat="37.360678" lon="-122.136678">
        <ele>123.1</ele>
        <time>2015-05-13T18:30:09Z</time>
      </trkpt>
      <trkpt lat="37.360663" lon="-122.136646">
        <ele>123.3</ele>
        <time>2015-05-13T18:30:10Z</time>
      </trkpt>
      <trkpt lat="37.360634" lon="-122.136575">
        <ele>123.8</ele>
        <time>2015-05-13T18:30:11Z</time>
      </trkpt>
      <trkpt lat="37.360622" lon="-122.136542">
        <ele>123.9</ele>
        <time>2015-05-13T18:30:13Z</time>
      </trkpt>
      <trkpt lat="37.360593" lon="-122.136447">
        <ele>124.6</ele>
        <time>2015-05-13T18:30:15Z</time>
      </trkpt>
      <trkpt lat="37.360583" lon="-122.136422">
        <ele>124.8</ele>
        <time>2015-05-13T18:30:16Z</time>
      </trkpt>
      <trkpt lat="37.360561" lon="-122.136368">
        <ele>125.2</ele>
        <time>2015-05-13T18:30:19Z</time>
      </trkpt>
      <trkpt lat="37.360541" lon="-122.13631">
        <ele>125.6</ele>
        <time>2015-05-13T18:30:20Z</time>
      </trkpt>
      <trkpt lat="37.360521" lon="-122.136253">
        <ele>126</ele>
        <time>2015-05-13T18:30:22Z</time>
      </trkpt>
      <trkpt lat="37.360502" lon="-122.136193">
        <ele>126.4</ele>
        <time>2015-05-13T18:30:24Z</time>
      </trkpt>
      <trkpt lat="37.360485" lon="-122.136134">
        <ele>126.8</ele>
        <time>2015-05-13T18:30:27Z</time>
      </trkpt>
      <trkpt lat="37.360462" lon="-122.136041">
        <ele>127.4</ele>
        <time>2015-05-13T18:30:29Z</time>
      </trkpt>
      <trkpt lat="37.360451" lon="-122.13601">
        <ele>127.6</ele>
        <time>2015-05-13T18:30:31Z</time>
      </trkpt>
      <trkpt lat="37.360435" lon="-122.135946">
        <ele>127.9</ele>
        <time>2015-05-13T18:30:33Z</time>
      </trkpt>
      <trkpt lat="37.360428" lon="-122.135912">
        <ele>128</ele>
        <time>2015-05-13T18:30:34Z</time>
      </trkpt>
      <trkpt lat="37.360409" lon="-122.13585">
        <ele>128.3</ele>
        <time>2015-05-13T18:30:36Z</time>
      </trkpt>
      <trkpt lat="37.360398" lon="-122.135818">
        <ele>128.3</ele>
        <time>2015-05-13T18:30:37Z</time>
      </trkpt>
      <trkpt lat="37.360373" lon="-122.135748">
        <ele>128.4</ele>
        <time>2015-05-13T18:30:38Z</time>
      </trkpt>
      <trkpt lat="37.36036" lon="-122.135714">
        <ele>128.5</ele>
        <time>2015-05-13T18:30:40Z</time>
      </trkpt>
      <trkpt lat="37.360347" lon="-122.13568">
        <ele>128.5</ele>
        <time>2015-05-13T18:30:41Z</time>
      </trkpt>
      <trkpt lat="37.360333" lon="-122.135644">
        <ele>128.5</ele>
        <time>2015-05-13T18:30:42Z</time>
      </trkpt>
      <trkpt lat="37.360306" lon="-122.135566">
        <ele>128.4</ele>
        <time>2015-05-13T18:30:43Z</time>
      </trkpt>
      <trkpt lat="37.360291" lon="-122.135528">
        <ele>128.3</ele>
        <time>2015-05-13T18:30:45Z</time>
      </trkpt>
      <trkpt lat="37.360273" lon="-122.135487">
        <ele>128.2</ele>
        <time>2015-05-13T18:30:46Z</time>
      </trkpt>
      <trkpt lat="37.360227" lon="-122.135402">
        <ele>128</ele>
        <time>2015-05-13T18:30:47Z</time>
      </trkpt>
      <trkpt lat="37.360192" lon="-122.135372">
        <ele>127.8</ele>
        <time>2015-05-13T18:30:48Z</time>
      </trkpt>
      <trkpt lat="37.360161" lon="-122.135326">
        <ele>127.6</ele>
        <time>2015-05-13T18:30:49Z</time>
      </trkpt>
      <trkpt lat="37.360128" lon="-122.135277">
        <ele>127.4</ele>
        <time>2015-05-13T18:30:51Z</time>
      </trkpt>
      <trkpt lat="37.360055" lon="-122.135176">
        <ele>126.9</ele>
        <time>2015-05-13T18:30:52Z</time>
      </trkpt>
      <trkpt lat="37.360023" lon="-122.13512">
        <ele>126.6</ele>
        <time>2015-05-13T18:30:54Z</time>
      </trkpt>
      <trkpt lat="37.359985" lon="-122.13506">
        <ele>126.3</ele>
        <time>2015-05-13T18:30:55Z</time>
      </trkpt>
      <trkpt lat="37.35991" lon="-122.134932">
        <ele>125.6</ele>
        <time>2015-05-13T18:30:56Z</time>
      </trkpt>
      <trkpt lat="37.359873" lon="-122.134863">
        <ele>125.3</ele>
        <time>2015-05-13T18:30:57Z</time>
      </trkpt>
      <trkpt lat="37.35983" lon="-122.134798">
        <ele>125</ele>
        <time>2015-05-13T18:30:58Z</time>
      </trkpt>
      <trkpt lat="37.359785" lon="-122.134724">
        <ele>124.6</ele>
        <time>2015-05-13T18:30:59Z</time>
      </trkpt>
      <trkpt lat="37.35974" lon="-122.134658">
        <ele>124.4</ele>
        <time>2015-05-13T18:31:00Z</time>
      </trkpt>
      <trkpt lat="37.359692" lon="-122.134598">
        <ele>124</ele>
        <time>2015-05-13T18:31:01Z</time>
      </trkpt>
      <trkpt lat="37.35964" lon="-122.134532">
        <ele>123.7</ele>
        <time>2015-05-13T18:31:02Z</time>
      </trkpt>
      <trkpt lat="37.359592" lon="-122.134462">
        <ele>123.4</ele>
        <time>2015-05-13T18:31:03Z</time>
      </trkpt>
      <trkpt lat="37.359556" lon="-122.134386">
        <ele>123</ele>
        <time>2015-05-13T18:31:05Z</time>
      </trkpt>
      <trkpt lat="37.35951" lon="-122.134303">
        <ele>122.7</ele>
        <time>2015-05-13T18:31:06Z</time>
      </trkpt>
      <trkpt lat="37.35941" lon="-122.134139">
        <ele>122</ele>
        <time>2015-05-13T18:31:08Z</time>
      </trkpt>
      <trkpt lat="37.359371" lon="-122.134067">
        <ele>121.8</ele>
        <time>2015-05-13T18:31:09Z</time>
      </trkpt>
      <trkpt lat="37.359279" lon="-122.133906">
        <ele>121.2</ele>
        <time>2015-05-13T18:31:10Z</time>
      </trkpt>
      <trkpt lat="37.359238" lon="-122.133822">
        <ele>120.7</ele>
        <time>2015-05-13T18:31:11Z</time>
      </trkpt>
      <trkpt lat="37.359207" lon="-122.133714">
        <ele>119.9</ele>
        <time>2015-05-13T18:31:12Z</time>
      </trkpt>
      <trkpt lat="37.359197" lon="-122.133603">
        <ele>119.1</ele>
        <time>2015-05-13T18:31:14Z</time>
      </trkpt>
      <trkpt lat="37.359191" lon="-122.133357">
        <ele>116.9</ele>
        <time>2015-05-13T18:31:15Z</time>
      </trkpt>
      <trkpt lat="37.359182" lon="-122.133228">
        <ele>115.8</ele>
        <time>2015-05-13T18:31:16Z</time>
      </trkpt>
      <trkpt lat="37.359166" lon="-122.133088">
        <ele>115</ele>
        <time>2015-05-13T18:31:17Z</time>
      </trkpt>
      <trkpt lat="37.359151" lon="-122.132942">
        <ele>114.4</ele>
        <time>2015-05-13T18:31:18Z</time>
      </trkpt>
      <trkpt lat="37.359131" lon="-122.132808">
        <ele>114.1</ele>
        <time>2015-05-13T18:31:19Z</time>
      </trkpt>
      <trkpt lat="37.359106" lon="-122.132674">
        <ele>113.6</ele>
        <time>2015-05-13T18:31:20Z</time>
      </trkpt>
      <trkpt lat="37.35908" lon="-122.132539">
        <ele>113.1</ele>
        <time>2015-05-13T18:31:21Z</time>
      </trkpt>
      <trkpt lat="37.359051" lon="-122.132403">
        <ele>112.9</ele>
        <time>2015-05-13T18:31:22Z</time>
      </trkpt>
      <trkpt lat="37.359022" lon="-122.132272">
        <ele>112.4</ele>
        <time>2015-05-13T18:31:23Z</time>
      </trkpt>
      <trkpt lat="37.358992" lon="-122.132128">
        <ele>111.6</ele>
        <time>2015-05-13T18:31:24Z</time>
      </trkpt>
      <trkpt lat="37.358971" lon="-122.131977">
        <ele>110.9</ele>
        <time>2015-05-13T18:31:25Z</time>
      </trkpt>
      <trkpt lat="37.358943" lon="-122.131835">
        <ele>110.4</ele>
        <time>2015-05-13T18:31:26Z</time>
      </trkpt>
      <trkpt lat="37.358907" lon="-122.131699">
        <ele>109.5</ele>
        <time>2015-05-13T18:31:27Z</time>
      </trkpt>
      <trkpt lat="37.358878" lon="-122.13155">
        <ele>109.5</ele>
        <time>2015-05-13T18:31:28Z</time>
      </trkpt>
      <trkpt lat="37.358847" lon="-122.131409">
        <ele>109.1</ele>
        <time>2015-05-13T18:31:29Z</time>
      </trkpt>
      <trkpt lat="37.358817" lon="-122.131264">
        <ele>108.5</ele>
        <time>2015-05-13T18:31:30Z</time>
      </trkpt>
      <trkpt lat="37.358785" lon="-122.131129">
        <ele>108</ele>
        <time>2015-05-13T18:31:31Z</time>
      </trkpt>
      <trkpt lat="37.358757" lon="-122.130992">
        <ele>107.7</ele>
        <time>2015-05-13T18:31:32Z</time>
      </trkpt>
      <trkpt lat="37.358725" lon="-122.130861">
        <ele>107.6</ele>
        <time>2015-05-13T18:31:33Z</time>
      </trkpt>
      <trkpt lat="37.358695" lon="-122.130732">
        <ele>107.4</ele>
        <time>2015-05-13T18:31:34Z</time>
      </trkpt>
      <trkpt lat="37.358679" lon="-122.130619">
        <ele>107.6</ele>
        <time>2015-05-13T18:31:35Z</time>
      </trkpt>
      <trkpt lat="37.358653" lon="-122.13051">
        <ele>107.3</ele>
        <time>2015-05-13T18:31:36Z</time>
      </trkpt>
      <trkpt lat="37.358631" lon="-122.130397">
        <ele>107</ele>
        <time>2015-05-13T18:31:37Z</time>
      </trkpt>
      <trkpt lat="37.358609" lon="-122.130287">
        <ele>106.1</ele>
        <time>2015-05-13T18:31:38Z</time>
      </trkpt>
      <trkpt lat="37.35859" lon="-122.130184">
        <ele>104.7</ele>
        <time>2015-05-13T18:31:39Z</time>
      </trkpt>
      <trkpt lat="37.358573" lon="-122.130095">
        <ele>103.9</ele>
        <time>2015-05-13T18:31:40Z</time>
      </trkpt>
      <trkpt lat="37.358565" lon="-122.130015">
        <ele>103.4</ele>
        <time>2015-05-13T18:31:41Z</time>
      </trkpt>
      <trkpt lat="37.358559" lon="-122.129947">
        <ele>103.1</ele>
        <time>2015-05-13T18:31:42Z</time>
      </trkpt>
      <trkpt lat="37.358547" lon="-122.129892">
        <ele>102.8</ele>
        <time>2015-05-13T18:31:43Z</time>
      </trkpt>
      <trkpt lat="37.358518" lon="-122.129841">
        <ele>102.6</ele>
        <time>2015-05-13T18:31:44Z</time>
      </trkpt>
      <trkpt lat="37.358494" lon="-122.1298">
        <ele>102.4</ele>
        <time>2015-05-13T18:31:45Z</time>
      </trkpt>
      <trkpt lat="37.358465" lon="-122.129797">
        <ele>102.3</ele>
        <time>2015-05-13T18:31:46Z</time>
      </trkpt>
      <trkpt lat="37.358435" lon="-122.129799">
        <ele>102.4</ele>
        <time>2015-05-13T18:31:47Z</time>
      </trkpt>
      <trkpt lat="37.358379" lon="-122.129815">
        <ele>103</ele>
        <time>2015-05-13T18:31:49Z</time>
      </trkpt>
      <trkpt lat="37.358333" lon="-122.129845">
        <ele>104.2</ele>
        <time>2015-05-13T18:31:51Z</time>
      </trkpt>
      <trkpt lat="37.35831" lon="-122.129869">
        <ele>104.8</ele>
        <time>2015-05-13T18:31:52Z</time>
      </trkpt>
      <trkpt lat="37.358287" lon="-122.129896">
        <ele>105.4</ele>
        <time>2015-05-13T18:31:53Z</time>
      </trkpt>
      <trkpt lat="37.358247" lon="-122.129954">
        <ele>106.2</ele>
        <time>2015-05-13T18:31:55Z</time>
      </trkpt>
      <trkpt lat="37.358226" lon="-122.129985">
        <ele>106.3</ele>
        <time>2015-05-13T18:31:56Z</time>
      </trkpt>
      <trkpt lat="37.358205" lon="-122.13002">
        <ele>106.4</ele>
        <time>2015-05-13T18:31:58Z</time>
      </trkpt>
      <trkpt lat="37.358184" lon="-122.130056">
        <ele>106.4</ele>
        <time>2015-05-13T18:31:59Z</time>
      </trkpt>
      <trkpt lat="37.35814" lon="-122.130134">
        <ele>106.2</ele>
        <time>2015-05-13T18:32:00Z</time>
      </trkpt>
      <trkpt lat="37.35812" lon="-122.130176">
        <ele>106.2</ele>
        <time>2015-05-13T18:32:01Z</time>
      </trkpt>
      <trkpt lat="37.358102" lon="-122.130219">
        <ele>106.5</ele>
        <time>2015-05-13T18:32:02Z</time>
      </trkpt>
      <trkpt lat="37.358087" lon="-122.130261">
        <ele>107</ele>
        <time>2015-05-13T18:32:04Z</time>
      </trkpt>
      <trkpt lat="37.358068" lon="-122.130341">
        <ele>107.2</ele>
        <time>2015-05-13T18:32:05Z</time>
      </trkpt>
      <trkpt lat="37.358062" lon="-122.130376">
        <ele>107.2</ele>
        <time>2015-05-13T18:32:06Z</time>
      </trkpt>
      <trkpt lat="37.35807" lon="-122.130416">
        <ele>107.5</ele>
        <time>2015-05-13T18:32:07Z</time>
      </trkpt>
      <trkpt lat="37.358062" lon="-122.130455">
        <ele>107.6</ele>
        <time>2015-05-13T18:32:08Z</time>
      </trkpt>
      <trkpt lat="37.358053" lon="-122.130495">
        <ele>107.4</ele>
        <time>2015-05-13T18:32:09Z</time>
      </trkpt>
      <trkpt lat="37.358049" lon="-122.130536">
        <ele>107.4</ele>
        <time>2015-05-13T18:32:10Z</time>
      </trkpt>
      <trkpt lat="37.358048" lon="-122.130582">
        <ele>107.5</ele>
        <time>2015-05-13T18:32:12Z</time>
      </trkpt>
      <trkpt lat="37.358049" lon="-122.13063">
        <ele>107.8</ele>
        <time>2015-05-13T18:32:13Z</time>
      </trkpt>
      <trkpt lat="37.358056" lon="-122.130724">
        <ele>108.6</ele>
        <time>2015-05-13T18:32:14Z</time>
      </trkpt>
      <trkpt lat="37.358059" lon="-122.13077">
        <ele>108.7</ele>
        <time>2015-05-13T18:32:15Z</time>
      </trkpt>
      <trkpt lat="37.358057" lon="-122.130814">
        <ele>108.6</ele>
        <time>2015-05-13T18:32:16Z</time>
      </trkpt>
      <trkpt lat="37.358062" lon="-122.130858">
        <ele>109</ele>
        <time>2015-05-13T18:32:17Z</time>
      </trkpt>
      <trkpt lat="37.35806" lon="-122.130902">
        <ele>109</ele>
        <time>2015-05-13T18:32:18Z</time>
      </trkpt>
      <trkpt lat="37.358057" lon="-122.130944">
        <ele>109.2</ele>
        <time>2015-05-13T18:32:19Z</time>
      </trkpt>
      <trkpt lat="37.358061" lon="-122.130982">
        <ele>109.4</ele>
        <time>2015-05-13T18:32:20Z</time>
      </trkpt>
      <trkpt lat="37.358056" lon="-122.131018">
        <ele>109.3</ele>
        <time>2015-05-13T18:32:21Z</time>
      </trkpt>
      <trkpt lat="37.358052" lon="-122.131061">
        <ele>109.3</ele>
        <time>2015-05-13T18:32:22Z</time>
      </trkpt>
      <trkpt lat="37.358051" lon="-122.131124">
        <ele>109.4</ele>
        <time>2015-05-13T18:32:23Z</time>
      </trkpt>
      <trkpt lat="37.358057" lon="-122.131187">
        <ele>110</ele>
        <time>2015-05-13T18:32:24Z</time>
      </trkpt>
      <trkpt lat="37.358056" lon="-122.131236">
        <ele>110.2</ele>
        <time>2015-05-13T18:32:25Z</time>
      </trkpt>
      <trkpt lat="37.358059" lon="-122.131286">
        <ele>110.5</ele>
        <time>2015-05-13T18:32:26Z</time>
      </trkpt>
      <trkpt lat="37.358055" lon="-122.131343">
        <ele>110.6</ele>
        <time>2015-05-13T18:32:27Z</time>
      </trkpt>
      <trkpt lat="37.358048" lon="-122.131396">
        <ele>110.5</ele>
        <time>2015-05-13T18:32:28Z</time>
      </trkpt>
      <trkpt lat="37.358044" lon="-122.131453">
        <ele>110.4</ele>
        <time>2015-05-13T18:32:29Z</time>
      </trkpt>
      <trkpt lat="37.358041" lon="-122.131508">
        <ele>110.3</ele>
        <time>2015-05-13T18:32:30Z</time>
      </trkpt>
      <trkpt lat="37.358042" lon="-122.13157">
        <ele>110.5</ele>
        <time>2015-05-13T18:32:31Z</time>
      </trkpt>
      <trkpt lat="37.358034" lon="-122.131624">
        <ele>110.5</ele>
        <time>2015-05-13T18:32:32Z</time>
      </trkpt>
      <trkpt lat="37.358029" lon="-122.13168">
        <ele>110.8</ele>
        <time>2015-05-13T18:32:33Z</time>
      </trkpt>
      <trkpt lat="37.358026" lon="-122.13173">
        <ele>111.6</ele>
        <time>2015-05-13T18:32:34Z</time>
      </trkpt>
      <trkpt lat="37.358016" lon="-122.131788">
        <ele>111.8</ele>
        <time>2015-05-13T18:32:35Z</time>
      </trkpt>
      <trkpt lat="37.358003" lon="-122.131847">
        <ele>111.8</ele>
        <time>2015-05-13T18:32:36Z</time>
      </trkpt>
      <trkpt lat="37.357994" lon="-122.131903">
        <ele>112.1</ele>
        <time>2015-05-13T18:32:37Z</time>
      </trkpt>
      <trkpt lat="37.357979" lon="-122.13196">
        <ele>112</ele>
        <time>2015-05-13T18:32:38Z</time>
      </trkpt>
      <trkpt lat="37.357968" lon="-122.132012">
        <ele>112.2</ele>
        <time>2015-05-13T18:32:39Z</time>
      </trkpt>
      <trkpt lat="37.357954" lon="-122.132071">
        <ele>112.2</ele>
        <time>2015-05-13T18:32:40Z</time>
      </trkpt>
      <trkpt lat="37.357936" lon="-122.13212">
        <ele>111.8</ele>
        <time>2015-05-13T18:32:41Z</time>
      </trkpt>
      <trkpt lat="37.357917" lon="-122.132162">
        <ele>110.9</ele>
        <time>2015-05-13T18:32:42Z</time>
      </trkpt>
      <trkpt lat="37.357905" lon="-122.132207">
        <ele>110.4</ele>
        <time>2015-05-13T18:32:43Z</time>
      </trkpt>
      <trkpt lat="37.357897" lon="-122.132256">
        <ele>110.6</ele>
        <time>2015-05-13T18:32:44Z</time>
      </trkpt>
      <trkpt lat="37.357891" lon="-122.132312">
        <ele>111.4</ele>
        <time>2015-05-13T18:32:45Z</time>
      </trkpt>
      <trkpt lat="37.357877" lon="-122.13237">
        <ele>111</ele>
        <time>2015-05-13T18:32:46Z</time>
      </trkpt>
      <trkpt lat="37.357867" lon="-122.132421">
        <ele>110.6</ele>
        <time>2015-05-13T18:32:47Z</time>
      </trkpt>
      <trkpt lat="37.357864" lon="-122.132469">
        <ele>110.8</ele>
        <time>2015-05-13T18:32:48Z</time>
      </trkpt>
      <trkpt lat="37.357856" lon="-122.132528">
        <ele>110.7</ele>
        <time>2015-05-13T18:32:49Z</time>
      </trkpt>
      <trkpt lat="37.357848" lon="-122.132587">
        <ele>110.4</ele>
        <time>2015-05-13T18:32:50Z</time>
      </trkpt>
      <trkpt lat="37.357848" lon="-122.132639">
        <ele>110.5</ele>
        <time>2015-05-13T18:32:51Z</time>
      </trkpt>
      <trkpt lat="37.357838" lon="-122.132708">
        <ele>110</ele>
        <time>2015-05-13T18:32:52Z</time>
      </trkpt>
      <trkpt lat="37.357821" lon="-122.132764">
        <ele>109.3</ele>
        <time>2015-05-13T18:32:53Z</time>
      </trkpt>
      <trkpt lat="37.357826" lon="-122.132841">
        <ele>109.8</ele>
        <time>2015-05-13T18:32:54Z</time>
      </trkpt>
      <trkpt lat="37.357822" lon="-122.132894">
        <ele>109.6</ele>
        <time>2015-05-13T18:32:55Z</time>
      </trkpt>
      <trkpt lat="37.357814" lon="-122.13295">
        <ele>108.9</ele>
        <time>2015-05-13T18:32:56Z</time>
      </trkpt>
      <trkpt lat="37.357812" lon="-122.133014">
        <ele>108.6</ele>
        <time>2015-05-13T18:32:57Z</time>
      </trkpt>
      <trkpt lat="37.357806" lon="-122.133067">
        <ele>108.2</ele>
        <time>2015-05-13T18:32:58Z</time>
      </trkpt>
      <trkpt lat="37.357805" lon="-122.133127">
        <ele>108.5</ele>
        <time>2015-05-13T18:32:59Z</time>
      </trkpt>
      <trkpt lat="37.35781" lon="-122.133186">
        <ele>108.8</ele>
        <time>2015-05-13T18:33:00Z</time>
      </trkpt>
      <trkpt lat="37.357805" lon="-122.133248">
        <ele>108.5</ele>
        <time>2015-05-13T18:33:01Z</time>
      </trkpt>
      <trkpt lat="37.357809" lon="-122.133306">
        <ele>108.4</ele>
        <time>2015-05-13T18:33:02Z</time>
      </trkpt>
      <trkpt lat="37.35781" lon="-122.13337">
        <ele>108.6</ele>
        <time>2015-05-13T18:33:03Z</time>
      </trkpt>
      <trkpt lat="37.357804" lon="-122.13343">
        <ele>108.5</ele>
        <time>2015-05-13T18:33:04Z</time>
      </trkpt>
      <trkpt lat="37.357803" lon="-122.133495">
        <ele>108.6</ele>
        <time>2015-05-13T18:33:05Z</time>
      </trkpt>
      <trkpt lat="37.3578" lon="-122.133557">
        <ele>108.8</ele>
        <time>2015-05-13T18:33:06Z</time>
      </trkpt>
      <trkpt lat="37.357802" lon="-122.133625">
        <ele>109.2</ele>
        <time>2015-05-13T18:33:07Z</time>
      </trkpt>
      <trkpt lat="37.357798" lon="-122.133676">
        <ele>109.4</ele>
        <time>2015-05-13T18:33:08Z</time>
      </trkpt>
      <trkpt lat="37.357788" lon="-122.133728">
        <ele>109.2</ele>
        <time>2015-05-13T18:33:09Z</time>
      </trkpt>
      <trkpt lat="37.357785" lon="-122.133783">
        <ele>109.3</ele>
        <time>2015-05-13T18:33:10Z</time>
      </trkpt>
      <trkpt lat="37.357782" lon="-122.133839">
        <ele>109.3</ele>
        <time>2015-05-13T18:33:11Z</time>
      </trkpt>
      <trkpt lat="37.357779" lon="-122.133889">
        <ele>109.3</ele>
        <time>2015-05-13T18:33:12Z</time>
      </trkpt>
      <trkpt lat="37.357777" lon="-122.133941">
        <ele>109.3</ele>
        <time>2015-05-13T18:33:13Z</time>
      </trkpt>
      <trkpt lat="37.357774" lon="-122.133979">
        <ele>109.1</ele>
        <time>2015-05-13T18:33:14Z</time>
      </trkpt>
      <trkpt lat="37.357774" lon="-122.134031">
        <ele>109</ele>
        <time>2015-05-13T18:33:15Z</time>
      </trkpt>
      <trkpt lat="37.357772" lon="-122.134078">
        <ele>109.1</ele>
        <time>2015-05-13T18:33:16Z</time>
      </trkpt>
      <trkpt lat="37.357766" lon="-122.134132">
        <ele>109.1</ele>
        <time>2015-05-13T18:33:17Z</time>
      </trkpt>
      <trkpt lat="37.357757" lon="-122.134181">
        <ele>109.1</ele>
        <time>2015-05-13T18:33:18Z</time>
      </trkpt>
      <trkpt lat="37.357742" lon="-122.134236">
        <ele>109.1</ele>
        <time>2015-05-13T18:33:19Z</time>
      </trkpt>
      <trkpt lat="37.357727" lon="-122.134284">
        <ele>109</ele>
        <time>2015-05-13T18:33:20Z</time>
      </trkpt>
      <trkpt lat="37.357705" lon="-122.134325">
        <ele>109.1</ele>
        <time>2015-05-13T18:33:21Z</time>
      </trkpt>
      <trkpt lat="37.357687" lon="-122.134367">
        <ele>109.2</ele>
        <time>2015-05-13T18:33:22Z</time>
      </trkpt>
      <trkpt lat="37.357658" lon="-122.134407">
        <ele>109.3</ele>
        <time>2015-05-13T18:33:23Z</time>
      </trkpt>
      <trkpt lat="37.357633" lon="-122.134449">
        <ele>109</ele>
        <time>2015-05-13T18:33:24Z</time>
      </trkpt>
      <trkpt lat="37.357601" lon="-122.134488">
        <ele>108.8</ele>
        <time>2015-05-13T18:33:25Z</time>
      </trkpt>
      <trkpt lat="37.357571" lon="-122.134522">
        <ele>109</ele>
        <time>2015-05-13T18:33:26Z</time>
      </trkpt>
      <trkpt lat="37.357543" lon="-122.134557">
        <ele>109.2</ele>
        <time>2015-05-13T18:33:27Z</time>
      </trkpt>
      <trkpt lat="37.357513" lon="-122.134591">
        <ele>109.4</ele>
        <time>2015-05-13T18:33:28Z</time>
      </trkpt>
      <trkpt lat="37.357486" lon="-122.134616">
        <ele>109.4</ele>
        <time>2015-05-13T18:33:29Z</time>
      </trkpt>
      <trkpt lat="37.357455" lon="-122.134652">
        <ele>109.4</ele>
        <time>2015-05-13T18:33:30Z</time>
      </trkpt>
      <trkpt lat="37.357423" lon="-122.134687">
        <ele>109.4</ele>
        <time>2015-05-13T18:33:31Z</time>
      </trkpt>
      <trkpt lat="37.357391" lon="-122.134724">
        <ele>109.5</ele>
        <time>2015-05-13T18:33:32Z</time>
      </trkpt>
      <trkpt lat="37.35736" lon="-122.134759">
        <ele>109.5</ele>
        <time>2015-05-13T18:33:33Z</time>
      </trkpt>
      <trkpt lat="37.357329" lon="-122.13479">
        <ele>109.6</ele>
        <time>2015-05-13T18:33:34Z</time>
      </trkpt>
      <trkpt lat="37.357297" lon="-122.134825">
        <ele>109.7</ele>
        <time>2015-05-13T18:33:35Z</time>
      </trkpt>
      <trkpt lat="37.357271" lon="-122.134859">
        <ele>109.8</ele>
        <time>2015-05-13T18:33:36Z</time>
      </trkpt>
      <trkpt lat="37.357243" lon="-122.134895">
        <ele>109.9</ele>
        <time>2015-05-13T18:33:37Z</time>
      </trkpt>
      <trkpt lat="37.357215" lon="-122.13493">
        <ele>110</ele>
        <time>2015-05-13T18:33:38Z</time>
      </trkpt>
      <trkpt lat="37.357188" lon="-122.134959">
        <ele>110.1</ele>
        <time>2015-05-13T18:33:39Z</time>
      </trkpt>
      <trkpt lat="37.357163" lon="-122.134981">
        <ele>110.2</ele>
        <time>2015-05-13T18:33:40Z</time>
      </trkpt>
      <trkpt lat="37.357137" lon="-122.135016">
        <ele>110.3</ele>
        <time>2015-05-13T18:33:41Z</time>
      </trkpt>
      <trkpt lat="37.35711" lon="-122.135053">
        <ele>110.4</ele>
        <time>2015-05-13T18:33:42Z</time>
      </trkpt>
      <trkpt lat="37.357083" lon="-122.135084">
        <ele>110.6</ele>
        <time>2015-05-13T18:33:43Z</time>
      </trkpt>
      <trkpt lat="37.357057" lon="-122.135122">
        <ele>110.9</ele>
        <time>2015-05-13T18:33:44Z</time>
      </trkpt>
      <trkpt lat="37.357027" lon="-122.135154">
        <ele>111.1</ele>
        <time>2015-05-13T18:33:45Z</time>
      </trkpt>
      <trkpt lat="37.356999" lon="-122.135186">
        <ele>111.3</ele>
        <time>2015-05-13T18:33:46Z</time>
      </trkpt>
      <trkpt lat="37.356973" lon="-122.135214">
        <ele>111.3</ele>
        <time>2015-05-13T18:33:47Z</time>
      </trkpt>
      <trkpt lat="37.356945" lon="-122.135243">
        <ele>111.3</ele>
        <time>2015-05-13T18:33:48Z</time>
      </trkpt>
      <trkpt lat="37.356919" lon="-122.135277">
        <ele>111.7</ele>
        <time>2015-05-13T18:33:49Z</time>
      </trkpt>
      <trkpt lat="37.356891" lon="-122.135307">
        <ele>111.9</ele>
        <time>2015-05-13T18:33:50Z</time>
      </trkpt>
      <trkpt lat="37.35686" lon="-122.135339">
        <ele>112.1</ele>
        <time>2015-05-13T18:33:51Z</time>
      </trkpt>
      <trkpt lat="37.356825" lon="-122.135368">
        <ele>112.2</ele>
        <time>2015-05-13T18:33:52Z</time>
      </trkpt>
      <trkpt lat="37.356793" lon="-122.135401">
        <ele>112.3</ele>
        <time>2015-05-13T18:33:53Z</time>
      </trkpt>
      <trkpt lat="37.356767" lon="-122.13543">
        <ele>112.4</ele>
        <time>2015-05-13T18:33:54Z</time>
      </trkpt>
      <trkpt lat="37.356743" lon="-122.135464">
        <ele>112.6</ele>
        <time>2015-05-13T18:33:55Z</time>
      </trkpt>
      <trkpt lat="37.356716" lon="-122.135497">
        <ele>112.7</ele>
        <time>2015-05-13T18:33:56Z</time>
      </trkpt>
      <trkpt lat="37.356691" lon="-122.135535">
        <ele>112.7</ele>
        <time>2015-05-13T18:33:57Z</time>
      </trkpt>
      <trkpt lat="37.356661" lon="-122.135569">
        <ele>112.7</ele>
        <time>2015-05-13T18:33:58Z</time>
      </trkpt>
      <trkpt lat="37.356626" lon="-122.135601">
        <ele>112.7</ele>
        <time>2015-05-13T18:33:59Z</time>
      </trkpt>
      <trkpt lat="37.356593" lon="-122.135635">
        <ele>112.8</ele>
        <time>2015-05-13T18:34:00Z</time>
      </trkpt>
      <trkpt lat="37.356559" lon="-122.135671">
        <ele>112.8</ele>
        <time>2015-05-13T18:34:01Z</time>
      </trkpt>
      <trkpt lat="37.356526" lon="-122.135709">
        <ele>112.8</ele>
        <time>2015-05-13T18:34:02Z</time>
      </trkpt>
      <trkpt lat="37.356491" lon="-122.13575">
        <ele>112.9</ele>
        <time>2015-05-13T18:34:03Z</time>
      </trkpt>
      <trkpt lat="37.356456" lon="-122.135787">
        <ele>112.8</ele>
        <time>2015-05-13T18:34:04Z</time>
      </trkpt>
      <trkpt lat="37.356421" lon="-122.135818">
        <ele>112.8</ele>
        <time>2015-05-13T18:34:05Z</time>
      </trkpt>
      <trkpt lat="37.356384" lon="-122.135859">
        <ele>112.9</ele>
        <time>2015-05-13T18:34:06Z</time>
      </trkpt>
      <trkpt lat="37.356354" lon="-122.135894">
        <ele>113.1</ele>
        <time>2015-05-13T18:34:07Z</time>
      </trkpt>
      <trkpt lat="37.356317" lon="-122.135929">
        <ele>113.1</ele>
        <time>2015-05-13T18:34:08Z</time>
      </trkpt>
      <trkpt lat="37.356283" lon="-122.135963">
        <ele>113.1</ele>
        <time>2015-05-13T18:34:09Z</time>
      </trkpt>
      <trkpt lat="37.356256" lon="-122.136003">
        <ele>113.4</ele>
        <time>2015-05-13T18:34:10Z</time>
      </trkpt>
      <trkpt lat="37.356222" lon="-122.136034">
        <ele>113.6</ele>
        <time>2015-05-13T18:34:11Z</time>
      </trkpt>
      <trkpt lat="37.356187" lon="-122.136069">
        <ele>113.7</ele>
        <time>2015-05-13T18:34:12Z</time>
      </trkpt>
      <trkpt lat="37.356155" lon="-122.136106">
        <ele>114.1</ele>
        <time>2015-05-13T18:34:13Z</time>
      </trkpt>
      <trkpt lat="37.356127" lon="-122.136139">
        <ele>114.6</ele>
        <time>2015-05-13T18:34:14Z</time>
      </trkpt>
      <trkpt lat="37.356096" lon="-122.136172">
        <ele>115.1</ele>
        <time>2015-05-13T18:34:15Z</time>
      </trkpt>
      <trkpt lat="37.356063" lon="-122.136195">
        <ele>115.4</ele>
        <time>2015-05-13T18:34:16Z</time>
      </trkpt>
      <trkpt lat="37.356036" lon="-122.136224">
        <ele>115.6</ele>
        <time>2015-05-13T18:34:17Z</time>
      </trkpt>
      <trkpt lat="37.35601" lon="-122.136252">
        <ele>115.8</ele>
        <time>2015-05-13T18:34:19Z</time>
      </trkpt>
      <trkpt lat="37.355983" lon="-122.13628">
        <ele>116.2</ele>
        <time>2015-05-13T18:34:20Z</time>
      </trkpt>
      <trkpt lat="37.355958" lon="-122.136308">
        <ele>116.4</ele>
        <time>2015-05-13T18:34:21Z</time>
      </trkpt>
      <trkpt lat="37.355911" lon="-122.136366">
        <ele>116.5</ele>
        <time>2015-05-13T18:34:22Z</time>
      </trkpt>
      <trkpt lat="37.355888" lon="-122.136393">
        <ele>116.5</ele>
        <time>2015-05-13T18:34:23Z</time>
      </trkpt>
      <trkpt lat="37.355864" lon="-122.136419">
        <ele>116.6</ele>
        <time>2015-05-13T18:34:24Z</time>
      </trkpt>
      <trkpt lat="37.35584" lon="-122.13645">
        <ele>116.7</ele>
        <time>2015-05-13T18:34:25Z</time>
      </trkpt>
      <trkpt lat="37.355815" lon="-122.136481">
        <ele>116.6</ele>
        <time>2015-05-13T18:34:26Z</time>
      </trkpt>
      <trkpt lat="37.355789" lon="-122.136515">
        <ele>116.6</ele>
        <time>2015-05-13T18:34:27Z</time>
      </trkpt>
      <trkpt lat="37.355761" lon="-122.136551">
        <ele>116.5</ele>
        <time>2015-05-13T18:34:28Z</time>
      </trkpt>
      <trkpt lat="37.355733" lon="-122.136587">
        <ele>116.5</ele>
        <time>2015-05-13T18:34:29Z</time>
      </trkpt>
      <trkpt lat="37.355705" lon="-122.136625">
        <ele>116.6</ele>
        <time>2015-05-13T18:34:30Z</time>
      </trkpt>
      <trkpt lat="37.355675" lon="-122.136666">
        <ele>116.6</ele>
        <time>2015-05-13T18:34:31Z</time>
      </trkpt>
      <trkpt lat="37.355644" lon="-122.136706">
        <ele>116.7</ele>
        <time>2015-05-13T18:34:32Z</time>
      </trkpt>
      <trkpt lat="37.355615" lon="-122.136746">
        <ele>116.8</ele>
        <time>2015-05-13T18:34:33Z</time>
      </trkpt>
      <trkpt lat="37.355587" lon="-122.136785">
        <ele>117</ele>
        <time>2015-05-13T18:34:34Z</time>
      </trkpt>
      <trkpt lat="37.355561" lon="-122.136823">
        <ele>117.2</ele>
        <time>2015-05-13T18:34:35Z</time>
      </trkpt>
      <trkpt lat="37.355537" lon="-122.13686">
        <ele>117.5</ele>
        <time>2015-05-13T18:34:36Z</time>
      </trkpt>
      <trkpt lat="37.355511" lon="-122.136893">
        <ele>117.5</ele>
        <time>2015-05-13T18:34:37Z</time>
      </trkpt>
      <trkpt lat="37.355485" lon="-122.136927">
        <ele>117.7</ele>
        <time>2015-05-13T18:34:38Z</time>
      </trkpt>
      <trkpt lat="37.355461" lon="-122.136959">
        <ele>117.8</ele>
        <time>2015-05-13T18:34:39Z</time>
      </trkpt>
      <trkpt lat="37.355436" lon="-122.136992">
        <ele>118</ele>
        <time>2015-05-13T18:34:40Z</time>
      </trkpt>
      <trkpt lat="37.355412" lon="-122.137027">
        <ele>118.1</ele>
        <time>2015-05-13T18:34:41Z</time>
      </trkpt>
      <trkpt lat="37.355388" lon="-122.137061">
        <ele>118.2</ele>
        <time>2015-05-13T18:34:42Z</time>
      </trkpt>
      <trkpt lat="37.355365" lon="-122.137096">
        <ele>118.6</ele>
        <time>2015-05-13T18:34:43Z</time>
      </trkpt>
      <trkpt lat="37.355329" lon="-122.137119">
        <ele>118.5</ele>
        <time>2015-05-13T18:34:44Z</time>
      </trkpt>
      <trkpt lat="37.355306" lon="-122.137153">
        <ele>118.6</ele>
        <time>2015-05-13T18:34:45Z</time>
      </trkpt>
      <trkpt lat="37.355283" lon="-122.137188">
        <ele>118.9</ele>
        <time>2015-05-13T18:34:46Z</time>
      </trkpt>
      <trkpt lat="37.355261" lon="-122.13722">
        <ele>119</ele>
        <time>2015-05-13T18:34:47Z</time>
      </trkpt>
      <trkpt lat="37.355238" lon="-122.137254">
        <ele>119</ele>
        <time>2015-05-13T18:34:48Z</time>
      </trkpt>
      <trkpt lat="37.355218" lon="-122.137284">
        <ele>119.2</ele>
        <time>2015-05-13T18:34:49Z</time>
      </trkpt>
      <trkpt lat="37.355195" lon="-122.137317">
        <ele>119.4</ele>
        <time>2015-05-13T18:34:50Z</time>
      </trkpt>
      <trkpt lat="37.35517" lon="-122.137354">
        <ele>119.3</ele>
        <time>2015-05-13T18:34:51Z</time>
      </trkpt>
      <trkpt lat="37.355147" lon="-122.137388">
        <ele>119.3</ele>
        <time>2015-05-13T18:34:52Z</time>
      </trkpt>
      <trkpt lat="37.355129" lon="-122.137418">
        <ele>119.3</ele>
        <time>2015-05-13T18:34:53Z</time>
      </trkpt>
      <trkpt lat="37.355105" lon="-122.137457">
        <ele>119.3</ele>
        <time>2015-05-13T18:34:54Z</time>
      </trkpt>
      <trkpt lat="37.355085" lon="-122.137498">
        <ele>119.6</ele>
        <time>2015-05-13T18:34:55Z</time>
      </trkpt>
      <trkpt lat="37.355064" lon="-122.137541">
        <ele>119.7</ele>
        <time>2015-05-13T18:34:57Z</time>
      </trkpt>
      <trkpt lat="37.355048" lon="-122.137583">
        <ele>119.9</ele>
        <time>2015-05-13T18:34:58Z</time>
      </trkpt>
      <trkpt lat="37.355024" lon="-122.137651">
        <ele>120.1</ele>
        <time>2015-05-13T18:34:59Z</time>
      </trkpt>
      <trkpt lat="37.355012" lon="-122.137695">
        <ele>120.3</ele>
        <time>2015-05-13T18:35:01Z</time>
      </trkpt>
      <trkpt lat="37.355" lon="-122.137739">
        <ele>120.2</ele>
        <time>2015-05-13T18:35:02Z</time>
      </trkpt>
      <trkpt lat="37.354977" lon="-122.137829">
        <ele>120.4</ele>
        <time>2015-05-13T18:35:03Z</time>
      </trkpt>
      <trkpt lat="37.354967" lon="-122.137876">
        <ele>120.5</ele>
        <time>2015-05-13T18:35:04Z</time>
      </trkpt>
      <trkpt lat="37.354957" lon="-122.137927">
        <ele>120.5</ele>
        <time>2015-05-13T18:35:05Z</time>
      </trkpt>
      <trkpt lat="37.354948" lon="-122.137976">
        <ele>120.7</ele>
        <time>2015-05-13T18:35:06Z</time>
      </trkpt>
      <trkpt lat="37.354939" lon="-122.138025">
        <ele>120.8</ele>
        <time>2015-05-13T18:35:07Z</time>
      </trkpt>
      <trkpt lat="37.35493" lon="-122.138075">
        <ele>120.9</ele>
        <time>2015-05-13T18:35:08Z</time>
      </trkpt>
      <trkpt lat="37.35492" lon="-122.138125">
        <ele>121.1</ele>
        <time>2015-05-13T18:35:09Z</time>
      </trkpt>
      <trkpt lat="37.354912" lon="-122.13817">
        <ele>121.3</ele>
        <time>2015-05-13T18:35:10Z</time>
      </trkpt>
      <trkpt lat="37.354866" lon="-122.138401">
        <ele>122.4</ele>
        <time>2015-05-13T18:35:15Z</time>
      </trkpt>
      <trkpt lat="37.354858" lon="-122.138445">
        <ele>122.6</ele>
        <time>2015-05-13T18:35:16Z</time>
      </trkpt>
      <trkpt lat="37.354851" lon="-122.138495">
        <ele>122.8</ele>
        <time>2015-05-13T18:35:17Z</time>
      </trkpt>
      <trkpt lat="37.354845" lon="-122.138542">
        <ele>122.9</ele>
        <time>2015-05-13T18:35:18Z</time>
      </trkpt>
      <trkpt lat="37.354839" lon="-122.13859">
        <ele>123.1</ele>
        <time>2015-05-13T18:35:19Z</time>
      </trkpt>
      <trkpt lat="37.354834" lon="-122.138643">
        <ele>123.1</ele>
        <time>2015-05-13T18:35:20Z</time>
      </trkpt>
      <trkpt lat="37.35483" lon="-122.138693">
        <ele>123.3</ele>
        <time>2015-05-13T18:35:21Z</time>
      </trkpt>
      <trkpt lat="37.354826" lon="-122.138738">
        <ele>123.4</ele>
        <time>2015-05-13T18:35:23Z</time>
      </trkpt>
      <trkpt lat="37.354818" lon="-122.138786">
        <ele>123.4</ele>
        <time>2015-05-13T18:35:24Z</time>
      </trkpt>
      <trkpt lat="37.35481" lon="-122.138833">
        <ele>123.5</ele>
        <time>2015-05-13T18:35:25Z</time>
      </trkpt>
      <trkpt lat="37.354792" lon="-122.138914">
        <ele>123.6</ele>
        <time>2015-05-13T18:35:26Z</time>
      </trkpt>
      <trkpt lat="37.354777" lon="-122.138959">
        <ele>123.8</ele>
        <time>2015-05-13T18:35:27Z</time>
      </trkpt>
      <trkpt lat="37.354751" lon="-122.139022">
        <ele>123.9</ele>
        <time>2015-05-13T18:35:29Z</time>
      </trkpt>
      <trkpt lat="37.354722" lon="-122.139078">
        <ele>124.1</ele>
        <time>2015-05-13T18:35:30Z</time>
      </trkpt>
      <trkpt lat="37.354702" lon="-122.139112">
        <ele>124.2</ele>
        <time>2015-05-13T18:35:31Z</time>
      </trkpt>
      <trkpt lat="37.354653" lon="-122.139182">
        <ele>124.5</ele>
        <time>2015-05-13T18:35:33Z</time>
      </trkpt>
      <trkpt lat="37.35462" lon="-122.139223">
        <ele>124.7</ele>
        <time>2015-05-13T18:35:35Z</time>
      </trkpt>
      <trkpt lat="37.354568" lon="-122.139271">
        <ele>125</ele>
        <time>2015-05-13T18:35:36Z</time>
      </trkpt>
      <trkpt lat="37.354532" lon="-122.1393">
        <ele>125.2</ele>
        <time>2015-05-13T18:35:37Z</time>
      </trkpt>
      <trkpt lat="37.354472" lon="-122.139343">
        <ele>125.4</ele>
        <time>2015-05-13T18:35:39Z</time>
      </trkpt>
      <trkpt lat="37.354445" lon="-122.139362">
        <ele>125.6</ele>
        <time>2015-05-13T18:35:40Z</time>
      </trkpt>
      <trkpt lat="37.354415" lon="-122.139385">
        <ele>125.8</ele>
        <time>2015-05-13T18:35:42Z</time>
      </trkpt>
      <trkpt lat="37.354382" lon="-122.139409">
        <ele>126.1</ele>
        <time>2015-05-13T18:35:43Z</time>
      </trkpt>
      <trkpt lat="37.354315" lon="-122.139465">
        <ele>126.4</ele>
        <time>2015-05-13T18:35:44Z</time>
      </trkpt>
      <trkpt lat="37.354287" lon="-122.13949">
        <ele>126.6</ele>
        <time>2015-05-13T18:35:46Z</time>
      </trkpt>
      <trkpt lat="37.354259" lon="-122.139516">
        <ele>126.7</ele>
        <time>2015-05-13T18:35:47Z</time>
      </trkpt>
      <trkpt lat="37.354091" lon="-122.139691">
        <ele>126.7</ele>
        <time>2015-05-13T18:35:51Z</time>
      </trkpt>
      <trkpt lat="37.354061" lon="-122.139722">
        <ele>126.8</ele>
        <time>2015-05-13T18:35:52Z</time>
      </trkpt>
      <trkpt lat="37.354022" lon="-122.139763">
        <ele>126.9</ele>
        <time>2015-05-13T18:35:53Z</time>
      </trkpt>
      <trkpt lat="37.35399" lon="-122.1398">
        <ele>127.1</ele>
        <time>2015-05-13T18:35:54Z</time>
      </trkpt>
      <trkpt lat="37.353962" lon="-122.139831">
        <ele>127.1</ele>
        <time>2015-05-13T18:35:55Z</time>
      </trkpt>
      <trkpt lat="37.353929" lon="-122.139868">
        <ele>127.5</ele>
        <time>2015-05-13T18:35:56Z</time>
      </trkpt>
      <trkpt lat="37.353903" lon="-122.139899">
        <ele>127.7</ele>
        <time>2015-05-13T18:35:57Z</time>
      </trkpt>
      <trkpt lat="37.353874" lon="-122.139933">
        <ele>127.8</ele>
        <time>2015-05-13T18:35:58Z</time>
      </trkpt>
      <trkpt lat="37.353842" lon="-122.139971">
        <ele>128</ele>
        <time>2015-05-13T18:35:59Z</time>
      </trkpt>
      <trkpt lat="37.353816" lon="-122.140006">
        <ele>128.1</ele>
        <time>2015-05-13T18:36:00Z</time>
      </trkpt>
      <trkpt lat="37.353788" lon="-122.140042">
        <ele>128.2</ele>
        <time>2015-05-13T18:36:01Z</time>
      </trkpt>
      <trkpt lat="37.353758" lon="-122.140084">
        <ele>128.3</ele>
        <time>2015-05-13T18:36:02Z</time>
      </trkpt>
      <trkpt lat="37.353731" lon="-122.140122">
        <ele>128.4</ele>
        <time>2015-05-13T18:36:03Z</time>
      </trkpt>
      <trkpt lat="37.353705" lon="-122.14016">
        <ele>128.4</ele>
        <time>2015-05-13T18:36:04Z</time>
      </trkpt>
      <trkpt lat="37.353679" lon="-122.140198">
        <ele>128.6</ele>
        <time>2015-05-13T18:36:05Z</time>
      </trkpt>
      <trkpt lat="37.353655" lon="-122.140231">
        <ele>128.7</ele>
        <time>2015-05-13T18:36:06Z</time>
      </trkpt>
      <trkpt lat="37.353632" lon="-122.140268">
        <ele>128.8</ele>
        <time>2015-05-13T18:36:07Z</time>
      </trkpt>
      <trkpt lat="37.353605" lon="-122.140312">
        <ele>128.9</ele>
        <time>2015-05-13T18:36:08Z</time>
      </trkpt>
      <trkpt lat="37.35358" lon="-122.140353">
        <ele>128.9</ele>
        <time>2015-05-13T18:36:09Z</time>
      </trkpt>
      <trkpt lat="37.353554" lon="-122.140399">
        <ele>129</ele>
        <time>2015-05-13T18:36:10Z</time>
      </trkpt>
      <trkpt lat="37.353532" lon="-122.140442">
        <ele>129</ele>
        <time>2015-05-13T18:36:11Z</time>
      </trkpt>
      <trkpt lat="37.35349" lon="-122.140539">
        <ele>129.3</ele>
        <time>2015-05-13T18:36:14Z</time>
      </trkpt>
      <trkpt lat="37.353453" lon="-122.140623">
        <ele>129.2</ele>
        <time>2015-05-13T18:36:15Z</time>
      </trkpt>
      <trkpt lat="37.353433" lon="-122.140663">
        <ele>129.2</ele>
        <time>2015-05-13T18:36:16Z</time>
      </trkpt>
      <trkpt lat="37.353401" lon="-122.140724">
        <ele>129.4</ele>
        <time>2015-05-13T18:36:17Z</time>
      </trkpt>
      <trkpt lat="37.353367" lon="-122.140807">
        <ele>129.5</ele>
        <time>2015-05-13T18:36:19Z</time>
      </trkpt>
      <trkpt lat="37.353349" lon="-122.140894">
        <ele>129.5</ele>
        <time>2015-05-13T18:36:21Z</time>
      </trkpt>
      <trkpt lat="37.353339" lon="-122.140973">
        <ele>129.7</ele>
        <time>2015-05-13T18:36:22Z</time>
      </trkpt>
      <trkpt lat="37.353335" lon="-122.141045">
        <ele>129.9</ele>
        <time>2015-05-13T18:36:23Z</time>
      </trkpt>
      <trkpt lat="37.353333" lon="-122.141107">
        <ele>130.4</ele>
        <time>2015-05-13T18:36:24Z</time>
      </trkpt>
      <trkpt lat="37.353331" lon="-122.141158">
        <ele>130.2</ele>
        <time>2015-05-13T18:36:25Z</time>
      </trkpt>
      <trkpt lat="37.353329" lon="-122.141205">
        <ele>130.7</ele>
        <time>2015-05-13T18:36:26Z</time>
      </trkpt>
      <trkpt lat="37.353306" lon="-122.14144">
        <ele>131.4</ele>
        <time>2015-05-13T18:36:31Z</time>
      </trkpt>
      <trkpt lat="37.353302" lon="-122.141483">
        <ele>131.6</ele>
        <time>2015-05-13T18:36:32Z</time>
      </trkpt>
      <trkpt lat="37.353297" lon="-122.141526">
        <ele>131.5</ele>
        <time>2015-05-13T18:36:33Z</time>
      </trkpt>
      <trkpt lat="37.353292" lon="-122.141616">
        <ele>131.6</ele>
        <time>2015-05-13T18:36:35Z</time>
      </trkpt>
      <trkpt lat="37.353292" lon="-122.141668">
        <ele>131.8</ele>
        <time>2015-05-13T18:36:36Z</time>
      </trkpt>
      <trkpt lat="37.353292" lon="-122.141712">
        <ele>132</ele>
        <time>2015-05-13T18:36:37Z</time>
      </trkpt>
      <trkpt lat="37.353292" lon="-122.141752">
        <ele>132.3</ele>
        <time>2015-05-13T18:36:38Z</time>
      </trkpt>
      <trkpt lat="37.353292" lon="-122.141795">
        <ele>132.4</ele>
        <time>2015-05-13T18:36:39Z</time>
      </trkpt>
      <trkpt lat="37.353293" lon="-122.141836">
        <ele>132.3</ele>
        <time>2015-05-13T18:36:40Z</time>
      </trkpt>
      <trkpt lat="37.353295" lon="-122.141881">
        <ele>132.6</ele>
        <time>2015-05-13T18:36:41Z</time>
      </trkpt>
      <trkpt lat="37.353298" lon="-122.141919">
        <ele>132.8</ele>
        <time>2015-05-13T18:36:43Z</time>
      </trkpt>
      <trkpt lat="37.353306" lon="-122.142">
        <ele>132.8</ele>
        <time>2015-05-13T18:36:45Z</time>
      </trkpt>
      <trkpt lat="37.35331" lon="-122.142045">
        <ele>132.7</ele>
        <time>2015-05-13T18:36:46Z</time>
      </trkpt>
      <trkpt lat="37.353316" lon="-122.142125">
        <ele>132.8</ele>
        <time>2015-05-13T18:36:47Z</time>
      </trkpt>
      <trkpt lat="37.353319" lon="-122.142171">
        <ele>132.9</ele>
        <time>2015-05-13T18:36:48Z</time>
      </trkpt>
      <trkpt lat="37.353322" lon="-122.142217">
        <ele>133.1</ele>
        <time>2015-05-13T18:36:50Z</time>
      </trkpt>
      <trkpt lat="37.353327" lon="-122.142311">
        <ele>133.3</ele>
        <time>2015-05-13T18:36:51Z</time>
      </trkpt>
      <trkpt lat="37.353329" lon="-122.142358">
        <ele>133.4</ele>
        <time>2015-05-13T18:36:52Z</time>
      </trkpt>
      <trkpt lat="37.35333" lon="-122.142411">
        <ele>133.3</ele>
        <time>2015-05-13T18:36:53Z</time>
      </trkpt>
      <trkpt lat="37.353331" lon="-122.142449">
        <ele>133.2</ele>
        <time>2015-05-13T18:36:54Z</time>
      </trkpt>
      <trkpt lat="37.353332" lon="-122.142511">
        <ele>133.2</ele>
        <time>2015-05-13T18:36:56Z</time>
      </trkpt>
      <trkpt lat="37.353332" lon="-122.14261">
        <ele>133.3</ele>
        <time>2015-05-13T18:36:57Z</time>
      </trkpt>
      <trkpt lat="37.353332" lon="-122.142663">
        <ele>133.4</ele>
        <time>2015-05-13T18:36:58Z</time>
      </trkpt>
      <trkpt lat="37.353332" lon="-122.142718">
        <ele>133.6</ele>
        <time>2015-05-13T18:36:59Z</time>
      </trkpt>
      <trkpt lat="37.353332" lon="-122.142766">
        <ele>133.7</ele>
        <time>2015-05-13T18:37:00Z</time>
      </trkpt>
      <trkpt lat="37.35333" lon="-122.142811">
        <ele>133.8</ele>
        <time>2015-05-13T18:37:01Z</time>
      </trkpt>
      <trkpt lat="37.353328" lon="-122.142864">
        <ele>133.9</ele>
        <time>2015-05-13T18:37:02Z</time>
      </trkpt>
      <trkpt lat="37.353326" lon="-122.14291">
        <ele>134.1</ele>
        <time>2015-05-13T18:37:03Z</time>
      </trkpt>
      <trkpt lat="37.353323" lon="-122.142953">
        <ele>134.1</ele>
        <time>2015-05-13T18:37:04Z</time>
      </trkpt>
      <trkpt lat="37.353318" lon="-122.143006">
        <ele>134</ele>
        <time>2015-05-13T18:37:05Z</time>
      </trkpt>
      <trkpt lat="37.353313" lon="-122.143049">
        <ele>134.1</ele>
        <time>2015-05-13T18:37:06Z</time>
      </trkpt>
      <trkpt lat="37.353307" lon="-122.143097">
        <ele>134.1</ele>
        <time>2015-05-13T18:37:07Z</time>
      </trkpt>
      <trkpt lat="37.353286" lon="-122.143236">
        <ele>134.6</ele>
        <time>2015-05-13T18:37:10Z</time>
      </trkpt>
      <trkpt lat="37.353281" lon="-122.143273">
        <ele>134.7</ele>
        <time>2015-05-13T18:37:11Z</time>
      </trkpt>
      <trkpt lat="37.353275" lon="-122.143316">
        <ele>134.9</ele>
        <time>2015-05-13T18:37:12Z</time>
      </trkpt>
      <trkpt lat="37.353263" lon="-122.143402">
        <ele>135</ele>
        <time>2015-05-13T18:37:14Z</time>
      </trkpt>
      <trkpt lat="37.353257" lon="-122.143445">
        <ele>135.1</ele>
        <time>2015-05-13T18:37:15Z</time>
      </trkpt>
      <trkpt lat="37.353298" lon="-122.1435">
        <ele>135.7</ele>
        <time>2015-05-13T18:37:16Z</time>
      </trkpt>
      <trkpt lat="37.353287" lon="-122.143541">
        <ele>135.9</ele>
        <time>2015-05-13T18:37:17Z</time>
      </trkpt>
      <trkpt lat="37.353274" lon="-122.143585">
        <ele>136.3</ele>
        <time>2015-05-13T18:37:18Z</time>
      </trkpt>
      <trkpt lat="37.353261" lon="-122.143632">
        <ele>136.9</ele>
        <time>2015-05-13T18:37:19Z</time>
      </trkpt>
      <trkpt lat="37.353214" lon="-122.143665">
        <ele>136</ele>
        <time>2015-05-13T18:37:20Z</time>
      </trkpt>
      <trkpt lat="37.353202" lon="-122.143715">
        <ele>136.1</ele>
        <time>2015-05-13T18:37:21Z</time>
      </trkpt>
      <trkpt lat="37.353223" lon="-122.143773">
        <ele>137</ele>
        <time>2015-05-13T18:37:22Z</time>
      </trkpt>
      <trkpt lat="37.353211" lon="-122.143815">
        <ele>137.1</ele>
        <time>2015-05-13T18:37:23Z</time>
      </trkpt>
      <trkpt lat="37.353199" lon="-122.14386">
        <ele>137.5</ele>
        <time>2015-05-13T18:37:24Z</time>
      </trkpt>
      <trkpt lat="37.35319" lon="-122.143905">
        <ele>137.8</ele>
        <time>2015-05-13T18:37:25Z</time>
      </trkpt>
      <trkpt lat="37.353152" lon="-122.143939">
        <ele>136.3</ele>
        <time>2015-05-13T18:37:26Z</time>
      </trkpt>
      <trkpt lat="37.353142" lon="-122.143983">
        <ele>136.3</ele>
        <time>2015-05-13T18:37:27Z</time>
      </trkpt>
      <trkpt lat="37.353132" lon="-122.144027">
        <ele>136.2</ele>
        <time>2015-05-13T18:37:29Z</time>
      </trkpt>
      <trkpt lat="37.353098" lon="-122.144268">
        <ele>136.4</ele>
        <time>2015-05-13T18:37:33Z</time>
      </trkpt>
      <trkpt lat="37.353091" lon="-122.144314">
        <ele>136.5</ele>
        <time>2015-05-13T18:37:34Z</time>
      </trkpt>
      <trkpt lat="37.353085" lon="-122.144362">
        <ele>136.4</ele>
        <time>2015-05-13T18:37:35Z</time>
      </trkpt>
      <trkpt lat="37.353077" lon="-122.144413">
        <ele>136.4</ele>
        <time>2015-05-13T18:37:36Z</time>
      </trkpt>
      <trkpt lat="37.353069" lon="-122.144472">
        <ele>136.3</ele>
        <time>2015-05-13T18:37:37Z</time>
      </trkpt>
      <trkpt lat="37.353062" lon="-122.144524">
        <ele>136.4</ele>
        <time>2015-05-13T18:37:38Z</time>
      </trkpt>
      <trkpt lat="37.353054" lon="-122.144577">
        <ele>136.5</ele>
        <time>2015-05-13T18:37:39Z</time>
      </trkpt>
      <trkpt lat="37.353047" lon="-122.144629">
        <ele>136.5</ele>
        <time>2015-05-13T18:37:40Z</time>
      </trkpt>
      <trkpt lat="37.353039" lon="-122.144684">
        <ele>136.5</ele>
        <time>2015-05-13T18:37:41Z</time>
      </trkpt>
      <trkpt lat="37.353032" lon="-122.144736">
        <ele>136.6</ele>
        <time>2015-05-13T18:37:42Z</time>
      </trkpt>
      <trkpt lat="37.353025" lon="-122.144788">
        <ele>136.6</ele>
        <time>2015-05-13T18:37:43Z</time>
      </trkpt>
      <trkpt lat="37.353017" lon="-122.14484">
        <ele>136.7</ele>
        <time>2015-05-13T18:37:44Z</time>
      </trkpt>
      <trkpt lat="37.35301" lon="-122.144894">
        <ele>136.8</ele>
        <time>2015-05-13T18:37:45Z</time>
      </trkpt>
      <trkpt lat="37.353002" lon="-122.144945">
        <ele>136.8</ele>
        <time>2015-05-13T18:37:46Z</time>
      </trkpt>
      <trkpt lat="37.352995" lon="-122.144996">
        <ele>136.9</ele>
        <time>2015-05-13T18:37:47Z</time>
      </trkpt>
      <trkpt lat="37.352989" lon="-122.145044">
        <ele>137</ele>
        <time>2015-05-13T18:37:48Z</time>
      </trkpt>
      <trkpt lat="37.352995" lon="-122.145104">
        <ele>137.4</ele>
        <time>2015-05-13T18:37:49Z</time>
      </trkpt>
      <trkpt lat="37.352987" lon="-122.145151">
        <ele>137.6</ele>
        <time>2015-05-13T18:37:50Z</time>
      </trkpt>
      <trkpt lat="37.352981" lon="-122.145193">
        <ele>137.8</ele>
        <time>2015-05-13T18:37:51Z</time>
      </trkpt>
      <trkpt lat="37.352974" lon="-122.145238">
        <ele>138</ele>
        <time>2015-05-13T18:37:52Z</time>
      </trkpt>
      <trkpt lat="37.352973" lon="-122.145283">
        <ele>138.2</ele>
        <time>2015-05-13T18:37:53Z</time>
      </trkpt>
      <trkpt lat="37.352969" lon="-122.145331">
        <ele>138.4</ele>
        <time>2015-05-13T18:37:54Z</time>
      </trkpt>
      <trkpt lat="37.352964" lon="-122.145376">
        <ele>138.4</ele>
        <time>2015-05-13T18:37:55Z</time>
      </trkpt>
      <trkpt lat="37.352959" lon="-122.145416">
        <ele>138.3</ele>
        <time>2015-05-13T18:37:56Z</time>
      </trkpt>
      <trkpt lat="37.352954" lon="-122.145454">
        <ele>138.2</ele>
        <time>2015-05-13T18:37:57Z</time>
      </trkpt>
      <trkpt lat="37.352951" lon="-122.145495">
        <ele>138.3</ele>
        <time>2015-05-13T18:37:58Z</time>
      </trkpt>
      <trkpt lat="37.352947" lon="-122.145541">
        <ele>138.5</ele>
        <time>2015-05-13T18:37:59Z</time>
      </trkpt>
      <trkpt lat="37.352939" lon="-122.145591">
        <ele>138.4</ele>
        <time>2015-05-13T18:38:00Z</time>
      </trkpt>
      <trkpt lat="37.352929" lon="-122.145643">
        <ele>138.1</ele>
        <time>2015-05-13T18:38:01Z</time>
      </trkpt>
      <trkpt lat="37.352924" lon="-122.145703">
        <ele>138</ele>
        <time>2015-05-13T18:38:02Z</time>
      </trkpt>
      <trkpt lat="37.352922" lon="-122.145756">
        <ele>137.9</ele>
        <time>2015-05-13T18:38:03Z</time>
      </trkpt>
      <trkpt lat="37.352918" lon="-122.145811">
        <ele>138.1</ele>
        <time>2015-05-13T18:38:05Z</time>
      </trkpt>
      <trkpt lat="37.352913" lon="-122.145908">
        <ele>138.5</ele>
        <time>2015-05-13T18:38:06Z</time>
      </trkpt>
      <trkpt lat="37.352905" lon="-122.145965">
        <ele>138.3</ele>
        <time>2015-05-13T18:38:07Z</time>
      </trkpt>
      <trkpt lat="37.35291" lon="-122.146032">
        <ele>138.6</ele>
        <time>2015-05-13T18:38:08Z</time>
      </trkpt>
      <trkpt lat="37.352912" lon="-122.146086">
        <ele>138.8</ele>
        <time>2015-05-13T18:38:09Z</time>
      </trkpt>
      <trkpt lat="37.352906" lon="-122.146139">
        <ele>138.7</ele>
        <time>2015-05-13T18:38:10Z</time>
      </trkpt>
      <trkpt lat="37.352898" lon="-122.146194">
        <ele>138.6</ele>
        <time>2015-05-13T18:38:11Z</time>
      </trkpt>
      <trkpt lat="37.3529" lon="-122.14625">
        <ele>138.6</ele>
        <time>2015-05-13T18:38:12Z</time>
      </trkpt>
      <trkpt lat="37.352898" lon="-122.146307">
        <ele>138.5</ele>
        <time>2015-05-13T18:38:13Z</time>
      </trkpt>
      <trkpt lat="37.352889" lon="-122.146359">
        <ele>138.4</ele>
        <time>2015-05-13T18:38:14Z</time>
      </trkpt>
      <trkpt lat="37.352883" lon="-122.146406">
        <ele>138.4</ele>
        <time>2015-05-13T18:38:15Z</time>
      </trkpt>
      <trkpt lat="37.352882" lon="-122.146452">
        <ele>138.4</ele>
        <time>2015-05-13T18:38:16Z</time>
      </trkpt>
      <trkpt lat="37.352877" lon="-122.146504">
        <ele>138.4</ele>
        <time>2015-05-13T18:38:17Z</time>
      </trkpt>
      <trkpt lat="37.35287" lon="-122.146548">
        <ele>138.6</ele>
        <time>2015-05-13T18:38:18Z</time>
      </trkpt>
      <trkpt lat="37.352868" lon="-122.146597">
        <ele>139.1</ele>
        <time>2015-05-13T18:38:19Z</time>
      </trkpt>
      <trkpt lat="37.352862" lon="-122.146643">
        <ele>139.5</ele>
        <time>2015-05-13T18:38:20Z</time>
      </trkpt>
      <trkpt lat="37.352854" lon="-122.146685">
        <ele>139.7</ele>
        <time>2015-05-13T18:38:21Z</time>
      </trkpt>
      <trkpt lat="37.352843" lon="-122.14673">
        <ele>139.8</ele>
        <time>2015-05-13T18:38:22Z</time>
      </trkpt>
      <trkpt lat="37.35282" lon="-122.146764">
        <ele>139.5</ele>
        <time>2015-05-13T18:38:23Z</time>
      </trkpt>
      <trkpt lat="37.352807" lon="-122.146805">
        <ele>139.5</ele>
        <time>2015-05-13T18:38:24Z</time>
      </trkpt>
      <trkpt lat="37.352797" lon="-122.146848">
        <ele>139.7</ele>
        <time>2015-05-13T18:38:25Z</time>
      </trkpt>
      <trkpt lat="37.352783" lon="-122.14689">
        <ele>139.7</ele>
        <time>2015-05-13T18:38:26Z</time>
      </trkpt>
      <trkpt lat="37.352771" lon="-122.146931">
        <ele>139.7</ele>
        <time>2015-05-13T18:38:27Z</time>
      </trkpt>
      <trkpt lat="37.352758" lon="-122.146976">
        <ele>139.7</ele>
        <time>2015-05-13T18:38:28Z</time>
      </trkpt>
      <trkpt lat="37.352748" lon="-122.147021">
        <ele>139.9</ele>
        <time>2015-05-13T18:38:29Z</time>
      </trkpt>
      <trkpt lat="37.352738" lon="-122.147065">
        <ele>140.1</ele>
        <time>2015-05-13T18:38:30Z</time>
      </trkpt>
      <trkpt lat="37.352727" lon="-122.147108">
        <ele>140.3</ele>
        <time>2015-05-13T18:38:31Z</time>
      </trkpt>
      <trkpt lat="37.352716" lon="-122.147149">
        <ele>140.6</ele>
        <time>2015-05-13T18:38:32Z</time>
      </trkpt>
      <trkpt lat="37.352704" lon="-122.14719">
        <ele>140.8</ele>
        <time>2015-05-13T18:38:33Z</time>
      </trkpt>
      <trkpt lat="37.352693" lon="-122.147231">
        <ele>140.9</ele>
        <time>2015-05-13T18:38:34Z</time>
      </trkpt>
      <trkpt lat="37.352682" lon="-122.147272">
        <ele>141</ele>
        <time>2015-05-13T18:38:35Z</time>
      </trkpt>
      <trkpt lat="37.352671" lon="-122.147316">
        <ele>141</ele>
        <time>2015-05-13T18:38:36Z</time>
      </trkpt>
      <trkpt lat="37.352661" lon="-122.14736">
        <ele>141.1</ele>
        <time>2015-05-13T18:38:37Z</time>
      </trkpt>
      <trkpt lat="37.352653" lon="-122.147404">
        <ele>141.1</ele>
        <time>2015-05-13T18:38:38Z</time>
      </trkpt>
      <trkpt lat="37.352648" lon="-122.147448">
        <ele>141.2</ele>
        <time>2015-05-13T18:38:39Z</time>
      </trkpt>
      <trkpt lat="37.352644" lon="-122.147492">
        <ele>141.3</ele>
        <time>2015-05-13T18:38:40Z</time>
      </trkpt>
      <trkpt lat="37.35264" lon="-122.147536">
        <ele>141.4</ele>
        <time>2015-05-13T18:38:41Z</time>
      </trkpt>
      <trkpt lat="37.352637" lon="-122.14758">
        <ele>141.5</ele>
        <time>2015-05-13T18:38:42Z</time>
      </trkpt>
      <trkpt lat="37.352634" lon="-122.147623">
        <ele>141.4</ele>
        <time>2015-05-13T18:38:43Z</time>
      </trkpt>
      <trkpt lat="37.352631" lon="-122.147668">
        <ele>141.5</ele>
        <time>2015-05-13T18:38:44Z</time>
      </trkpt>
      <trkpt lat="37.35263" lon="-122.147714">
        <ele>141.5</ele>
        <time>2015-05-13T18:38:45Z</time>
      </trkpt>
      <trkpt lat="37.352629" lon="-122.147763">
        <ele>141.4</ele>
        <time>2015-05-13T18:38:46Z</time>
      </trkpt>
      <trkpt lat="37.352629" lon="-122.147816">
        <ele>141.5</ele>
        <time>2015-05-13T18:38:47Z</time>
      </trkpt>
      <trkpt lat="37.352627" lon="-122.147868">
        <ele>141.4</ele>
        <time>2015-05-13T18:38:48Z</time>
      </trkpt>
      <trkpt lat="37.352625" lon="-122.147919">
        <ele>141.3</ele>
        <time>2015-05-13T18:38:49Z</time>
      </trkpt>
      <trkpt lat="37.352622" lon="-122.147969">
        <ele>141.5</ele>
        <time>2015-05-13T18:38:51Z</time>
      </trkpt>
      <trkpt lat="37.352613" lon="-122.148071">
        <ele>141.4</ele>
        <time>2015-05-13T18:38:52Z</time>
      </trkpt>
      <trkpt lat="37.352607" lon="-122.14812">
        <ele>141.3</ele>
        <time>2015-05-13T18:38:54Z</time>
      </trkpt>
      <trkpt lat="37.352597" lon="-122.148219">
        <ele>142.2</ele>
        <time>2015-05-13T18:38:55Z</time>
      </trkpt>
      <trkpt lat="37.35259" lon="-122.14827">
        <ele>142.3</ele>
        <time>2015-05-13T18:38:56Z</time>
      </trkpt>
      <trkpt lat="37.352583" lon="-122.148319">
        <ele>142.6</ele>
        <time>2015-05-13T18:38:57Z</time>
      </trkpt>
      <trkpt lat="37.352574" lon="-122.148366">
        <ele>142.8</ele>
        <time>2015-05-13T18:38:58Z</time>
      </trkpt>
      <trkpt lat="37.352566" lon="-122.14841">
        <ele>143.1</ele>
        <time>2015-05-13T18:38:59Z</time>
      </trkpt>
      <trkpt lat="37.352565" lon="-122.148452">
        <ele>143.3</ele>
        <time>2015-05-13T18:39:00Z</time>
      </trkpt>
      <trkpt lat="37.352564" lon="-122.1485">
        <ele>143.6</ele>
        <time>2015-05-13T18:39:01Z</time>
      </trkpt>
      <trkpt lat="37.352562" lon="-122.148537">
        <ele>143.8</ele>
        <time>2015-05-13T18:39:02Z</time>
      </trkpt>
      <trkpt lat="37.352548" lon="-122.148587">
        <ele>143.6</ele>
        <time>2015-05-13T18:39:03Z</time>
      </trkpt>
      <trkpt lat="37.352537" lon="-122.148632">
        <ele>143.5</ele>
        <time>2015-05-13T18:39:04Z</time>
      </trkpt>
      <trkpt lat="37.352513" lon="-122.148672">
        <ele>143.1</ele>
        <time>2015-05-13T18:39:05Z</time>
      </trkpt>
      <trkpt lat="37.352499" lon="-122.148711">
        <ele>143.2</ele>
        <time>2015-05-13T18:39:06Z</time>
      </trkpt>
      <trkpt lat="37.352478" lon="-122.148738">
        <ele>143.2</ele>
        <time>2015-05-13T18:39:07Z</time>
      </trkpt>
      <trkpt lat="37.352462" lon="-122.148775">
        <ele>143.6</ele>
        <time>2015-05-13T18:39:08Z</time>
      </trkpt>
      <trkpt lat="37.352449" lon="-122.148813">
        <ele>143.9</ele>
        <time>2015-05-13T18:39:09Z</time>
      </trkpt>
      <trkpt lat="37.352436" lon="-122.14885">
        <ele>143.9</ele>
        <time>2015-05-13T18:39:10Z</time>
      </trkpt>
      <trkpt lat="37.35242" lon="-122.148886">
        <ele>143.7</ele>
        <time>2015-05-13T18:39:11Z</time>
      </trkpt>
      <trkpt lat="37.352403" lon="-122.14892">
        <ele>143.8</ele>
        <time>2015-05-13T18:39:12Z</time>
      </trkpt>
      <trkpt lat="37.352383" lon="-122.148955">
        <ele>144.1</ele>
        <time>2015-05-13T18:39:13Z</time>
      </trkpt>
      <trkpt lat="37.35236" lon="-122.148991">
        <ele>144.6</ele>
        <time>2015-05-13T18:39:14Z</time>
      </trkpt>
      <trkpt lat="37.352337" lon="-122.14903">
        <ele>144.6</ele>
        <time>2015-05-13T18:39:15Z</time>
      </trkpt>
      <trkpt lat="37.352313" lon="-122.149073">
        <ele>144.5</ele>
        <time>2015-05-13T18:39:17Z</time>
      </trkpt>
      <trkpt lat="37.352289" lon="-122.149116">
        <ele>144.8</ele>
        <time>2015-05-13T18:39:18Z</time>
      </trkpt>
      <trkpt lat="37.352251" lon="-122.149194">
        <ele>145.3</ele>
        <time>2015-05-13T18:39:19Z</time>
      </trkpt>
      <trkpt lat="37.352234" lon="-122.149234">
        <ele>145.8</ele>
        <time>2015-05-13T18:39:20Z</time>
      </trkpt>
      <trkpt lat="37.352217" lon="-122.149278">
        <ele>146</ele>
        <time>2015-05-13T18:39:21Z</time>
      </trkpt>
      <trkpt lat="37.352203" lon="-122.149325">
        <ele>146.5</ele>
        <time>2015-05-13T18:39:22Z</time>
      </trkpt>
      <trkpt lat="37.352188" lon="-122.149372">
        <ele>146.3</ele>
        <time>2015-05-13T18:39:23Z</time>
      </trkpt>
      <trkpt lat="37.352176" lon="-122.149419">
        <ele>146.4</ele>
        <time>2015-05-13T18:39:24Z</time>
      </trkpt>
      <trkpt lat="37.352166" lon="-122.149467">
        <ele>146</ele>
        <time>2015-05-13T18:39:25Z</time>
      </trkpt>
      <trkpt lat="37.35216" lon="-122.149514">
        <ele>145.3</ele>
        <time>2015-05-13T18:39:26Z</time>
      </trkpt>
      <trkpt lat="37.352158" lon="-122.149564">
        <ele>144.6</ele>
        <time>2015-05-13T18:39:27Z</time>
      </trkpt>
      <trkpt lat="37.352161" lon="-122.149611">
        <ele>144.5</ele>
        <time>2015-05-13T18:39:28Z</time>
      </trkpt>
      <trkpt lat="37.352166" lon="-122.149656">
        <ele>144.7</ele>
        <time>2015-05-13T18:39:29Z</time>
      </trkpt>
      <trkpt lat="37.352172" lon="-122.149699">
        <ele>144.8</ele>
        <time>2015-05-13T18:39:30Z</time>
      </trkpt>
      <trkpt lat="37.352178" lon="-122.14974">
        <ele>144.7</ele>
        <time>2015-05-13T18:39:31Z</time>
      </trkpt>
      <trkpt lat="37.352186" lon="-122.149782">
        <ele>144.9</ele>
        <time>2015-05-13T18:39:32Z</time>
      </trkpt>
      <trkpt lat="37.352202" lon="-122.14982">
        <ele>145.2</ele>
        <time>2015-05-13T18:39:33Z</time>
      </trkpt>
      <trkpt lat="37.352211" lon="-122.149863">
        <ele>145.3</ele>
        <time>2015-05-13T18:39:34Z</time>
      </trkpt>
      <trkpt lat="37.352223" lon="-122.149909">
        <ele>145.3</ele>
        <time>2015-05-13T18:39:35Z</time>
      </trkpt>
      <trkpt lat="37.352235" lon="-122.149951">
        <ele>145.4</ele>
        <time>2015-05-13T18:39:36Z</time>
      </trkpt>
      <trkpt lat="37.352248" lon="-122.149989">
        <ele>145.6</ele>
        <time>2015-05-13T18:39:37Z</time>
      </trkpt>
      <trkpt lat="37.352262" lon="-122.150038">
        <ele>145.9</ele>
        <time>2015-05-13T18:39:38Z</time>
      </trkpt>
      <trkpt lat="37.352268" lon="-122.150085">
        <ele>146.1</ele>
        <time>2015-05-13T18:39:40Z</time>
      </trkpt>
      <trkpt lat="37.352287" lon="-122.150177">
        <ele>146.5</ele>
        <time>2015-05-13T18:39:41Z</time>
      </trkpt>
      <trkpt lat="37.352296" lon="-122.150217">
        <ele>146.4</ele>
        <time>2015-05-13T18:39:43Z</time>
      </trkpt>
      <trkpt lat="37.352307" lon="-122.150253">
        <ele>146.4</ele>
        <time>2015-05-13T18:39:44Z</time>
      </trkpt>
      <trkpt lat="37.352319" lon="-122.150288">
        <ele>146.5</ele>
        <time>2015-05-13T18:39:45Z</time>
      </trkpt>
      <trkpt lat="37.352333" lon="-122.150321">
        <ele>146.6</ele>
        <time>2015-05-13T18:39:46Z</time>
      </trkpt>
      <trkpt lat="37.352347" lon="-122.150356">
        <ele>146.9</ele>
        <time>2015-05-13T18:39:47Z</time>
      </trkpt>
      <trkpt lat="37.352378" lon="-122.150431">
        <ele>147.3</ele>
        <time>2015-05-13T18:39:48Z</time>
      </trkpt>
      <trkpt lat="37.352393" lon="-122.150473">
        <ele>147.4</ele>
        <time>2015-05-13T18:39:49Z</time>
      </trkpt>
      <trkpt lat="37.352408" lon="-122.150517">
        <ele>147.7</ele>
        <time>2015-05-13T18:39:50Z</time>
      </trkpt>
      <trkpt lat="37.352422" lon="-122.150563">
        <ele>148.1</ele>
        <time>2015-05-13T18:39:51Z</time>
      </trkpt>
      <trkpt lat="37.352435" lon="-122.150611">
        <ele>148.5</ele>
        <time>2015-05-13T18:39:52Z</time>
      </trkpt>
      <trkpt lat="37.352442" lon="-122.150657">
        <ele>148.7</ele>
        <time>2015-05-13T18:39:53Z</time>
      </trkpt>
      <trkpt lat="37.35245" lon="-122.150698">
        <ele>148.8</ele>
        <time>2015-05-13T18:39:54Z</time>
      </trkpt>
      <trkpt lat="37.352466" lon="-122.150742">
        <ele>149</ele>
        <time>2015-05-13T18:39:55Z</time>
      </trkpt>
      <trkpt lat="37.352491" lon="-122.150788">
        <ele>149.5</ele>
        <time>2015-05-13T18:39:56Z</time>
      </trkpt>
      <trkpt lat="37.35251" lon="-122.150827">
        <ele>150</ele>
        <time>2015-05-13T18:39:57Z</time>
      </trkpt>
      <trkpt lat="37.352523" lon="-122.150863">
        <ele>149.9</ele>
        <time>2015-05-13T18:39:58Z</time>
      </trkpt>
      <trkpt lat="37.352539" lon="-122.150901">
        <ele>150</ele>
        <time>2015-05-13T18:39:59Z</time>
      </trkpt>
      <trkpt lat="37.352558" lon="-122.150939">
        <ele>149.6</ele>
        <time>2015-05-13T18:40:00Z</time>
      </trkpt>
      <trkpt lat="37.35258" lon="-122.150976">
        <ele>150.2</ele>
        <time>2015-05-13T18:40:01Z</time>
      </trkpt>
      <trkpt lat="37.3526" lon="-122.151017">
        <ele>150</ele>
        <time>2015-05-13T18:40:02Z</time>
      </trkpt>
      <trkpt lat="37.352624" lon="-122.151055">
        <ele>149.6</ele>
        <time>2015-05-13T18:40:03Z</time>
      </trkpt>
      <trkpt lat="37.352651" lon="-122.151095">
        <ele>149.7</ele>
        <time>2015-05-13T18:40:04Z</time>
      </trkpt>
      <trkpt lat="37.352678" lon="-122.151133">
        <ele>149.9</ele>
        <time>2015-05-13T18:40:05Z</time>
      </trkpt>
      <trkpt lat="37.352702" lon="-122.151173">
        <ele>149.6</ele>
        <time>2015-05-13T18:40:06Z</time>
      </trkpt>
      <trkpt lat="37.352726" lon="-122.151213">
        <ele>149.4</ele>
        <time>2015-05-13T18:40:07Z</time>
      </trkpt>
      <trkpt lat="37.352755" lon="-122.151254">
        <ele>149.2</ele>
        <time>2015-05-13T18:40:08Z</time>
      </trkpt>
      <trkpt lat="37.352783" lon="-122.151294">
        <ele>149.2</ele>
        <time>2015-05-13T18:40:09Z</time>
      </trkpt>
      <trkpt lat="37.352817" lon="-122.151342">
        <ele>149.2</ele>
        <time>2015-05-13T18:40:10Z</time>
      </trkpt>
      <trkpt lat="37.352845" lon="-122.151382">
        <ele>149.5</ele>
        <time>2015-05-13T18:40:11Z</time>
      </trkpt>
      <trkpt lat="37.352876" lon="-122.151426">
        <ele>149.4</ele>
        <time>2015-05-13T18:40:12Z</time>
      </trkpt>
      <trkpt lat="37.352905" lon="-122.151466">
        <ele>149.2</ele>
        <time>2015-05-13T18:40:13Z</time>
      </trkpt>
      <trkpt lat="37.352938" lon="-122.151498">
        <ele>149.4</ele>
        <time>2015-05-13T18:40:14Z</time>
      </trkpt>
      <trkpt lat="37.352973" lon="-122.151537">
        <ele>149.5</ele>
        <time>2015-05-13T18:40:15Z</time>
      </trkpt>
      <trkpt lat="37.353019" lon="-122.151596">
        <ele>149.3</ele>
        <time>2015-05-13T18:40:16Z</time>
      </trkpt>
      <trkpt lat="37.353055" lon="-122.151645">
        <ele>149.3</ele>
        <time>2015-05-13T18:40:17Z</time>
      </trkpt>
      <trkpt lat="37.353092" lon="-122.151684">
        <ele>149.4</ele>
        <time>2015-05-13T18:40:18Z</time>
      </trkpt>
      <trkpt lat="37.353122" lon="-122.151719">
        <ele>149.6</ele>
        <time>2015-05-13T18:40:19Z</time>
      </trkpt>
      <trkpt lat="37.353146" lon="-122.15177">
        <ele>149.3</ele>
        <time>2015-05-13T18:40:20Z</time>
      </trkpt>
      <trkpt lat="37.353172" lon="-122.151806">
        <ele>149.4</ele>
        <time>2015-05-13T18:40:21Z</time>
      </trkpt>
      <trkpt lat="37.353198" lon="-122.151842">
        <ele>149.4</ele>
        <time>2015-05-13T18:40:22Z</time>
      </trkpt>
      <trkpt lat="37.35323" lon="-122.151892">
        <ele>149.6</ele>
        <time>2015-05-13T18:40:23Z</time>
      </trkpt>
      <trkpt lat="37.353259" lon="-122.151975">
        <ele>149.8</ele>
        <time>2015-05-13T18:40:24Z</time>
      </trkpt>
      <trkpt lat="37.353283" lon="-122.152026">
        <ele>149.1</ele>
        <time>2015-05-13T18:40:25Z</time>
      </trkpt>
      <trkpt lat="37.353311" lon="-122.152077">
        <ele>149.9</ele>
        <time>2015-05-13T18:40:26Z</time>
      </trkpt>
      <trkpt lat="37.353342" lon="-122.152122">
        <ele>150</ele>
        <time>2015-05-13T18:40:27Z</time>
      </trkpt>
      <trkpt lat="37.353371" lon="-122.152167">
        <ele>149.8</ele>
        <time>2015-05-13T18:40:28Z</time>
      </trkpt>
      <trkpt lat="37.353402" lon="-122.15221">
        <ele>149.9</ele>
        <time>2015-05-13T18:40:29Z</time>
      </trkpt>
      <trkpt lat="37.353429" lon="-122.152258">
        <ele>150</ele>
        <time>2015-05-13T18:40:30Z</time>
      </trkpt>
      <trkpt lat="37.353457" lon="-122.152305">
        <ele>150.1</ele>
        <time>2015-05-13T18:40:31Z</time>
      </trkpt>
      <trkpt lat="37.353485" lon="-122.152353">
        <ele>150.3</ele>
        <time>2015-05-13T18:40:32Z</time>
      </trkpt>
      <trkpt lat="37.353515" lon="-122.152398">
        <ele>150.5</ele>
        <time>2015-05-13T18:40:33Z</time>
      </trkpt>
      <trkpt lat="37.35354" lon="-122.152439">
        <ele>150.9</ele>
        <time>2015-05-13T18:40:34Z</time>
      </trkpt>
      <trkpt lat="37.353585" lon="-122.152495">
        <ele>151.1</ele>
        <time>2015-05-13T18:40:35Z</time>
      </trkpt>
      <trkpt lat="37.353615" lon="-122.15254">
        <ele>151.2</ele>
        <time>2015-05-13T18:40:36Z</time>
      </trkpt>
      <trkpt lat="37.353634" lon="-122.152582">
        <ele>151.3</ele>
        <time>2015-05-13T18:40:37Z</time>
      </trkpt>
      <trkpt lat="37.353664" lon="-122.152624">
        <ele>151.3</ele>
        <time>2015-05-13T18:40:38Z</time>
      </trkpt>
      <trkpt lat="37.353691" lon="-122.152675">
        <ele>151.4</ele>
        <time>2015-05-13T18:40:39Z</time>
      </trkpt>
      <trkpt lat="37.353716" lon="-122.152712">
        <ele>151.4</ele>
        <time>2015-05-13T18:40:40Z</time>
      </trkpt>
      <trkpt lat="37.353738" lon="-122.152756">
        <ele>151.3</ele>
        <time>2015-05-13T18:40:41Z</time>
      </trkpt>
      <trkpt lat="37.353762" lon="-122.152804">
        <ele>151.1</ele>
        <time>2015-05-13T18:40:42Z</time>
      </trkpt>
      <trkpt lat="37.353792" lon="-122.152849">
        <ele>151.2</ele>
        <time>2015-05-13T18:40:43Z</time>
      </trkpt>
      <trkpt lat="37.353821" lon="-122.152896">
        <ele>151.5</ele>
        <time>2015-05-13T18:40:44Z</time>
      </trkpt>
      <trkpt lat="37.353848" lon="-122.152934">
        <ele>152.5</ele>
        <time>2015-05-13T18:40:45Z</time>
      </trkpt>
      <trkpt lat="37.353879" lon="-122.152981">
        <ele>152.8</ele>
        <time>2015-05-13T18:40:46Z</time>
      </trkpt>
      <trkpt lat="37.353913" lon="-122.153036">
        <ele>153.3</ele>
        <time>2015-05-13T18:40:47Z</time>
      </trkpt>
      <trkpt lat="37.353943" lon="-122.153083">
        <ele>153.4</ele>
        <time>2015-05-13T18:40:48Z</time>
      </trkpt>
      <trkpt lat="37.353967" lon="-122.153137">
        <ele>153.3</ele>
        <time>2015-05-13T18:40:49Z</time>
      </trkpt>
      <trkpt lat="37.353946" lon="-122.153234">
        <ele>151.4</ele>
        <time>2015-05-13T18:40:50Z</time>
      </trkpt>
      <trkpt lat="37.353977" lon="-122.153285">
        <ele>151.4</ele>
        <time>2015-05-13T18:40:51Z</time>
      </trkpt>
      <trkpt lat="37.354004" lon="-122.153329">
        <ele>151.5</ele>
        <time>2015-05-13T18:40:52Z</time>
      </trkpt>
      <trkpt lat="37.354034" lon="-122.153379">
        <ele>151.6</ele>
        <time>2015-05-13T18:40:53Z</time>
      </trkpt>
      <trkpt lat="37.354065" lon="-122.153432">
        <ele>151.8</ele>
        <time>2015-05-13T18:40:54Z</time>
      </trkpt>
      <trkpt lat="37.354093" lon="-122.153479">
        <ele>151.9</ele>
        <time>2015-05-13T18:40:55Z</time>
      </trkpt>
      <trkpt lat="37.35412" lon="-122.153524">
        <ele>152.1</ele>
        <time>2015-05-13T18:40:56Z</time>
      </trkpt>
      <trkpt lat="37.354153" lon="-122.15358">
        <ele>152.1</ele>
        <time>2015-05-13T18:40:57Z</time>
      </trkpt>
      <trkpt lat="37.354182" lon="-122.15363">
        <ele>152.2</ele>
        <time>2015-05-13T18:40:58Z</time>
      </trkpt>
      <trkpt lat="37.35422" lon="-122.153695">
        <ele>152.3</ele>
        <time>2015-05-13T18:40:59Z</time>
      </trkpt>
      <trkpt lat="37.35424" lon="-122.153732">
        <ele>152.2</ele>
        <time>2015-05-13T18:41:00Z</time>
      </trkpt>
      <trkpt lat="37.354265" lon="-122.153778">
        <ele>152.2</ele>
        <time>2015-05-13T18:41:02Z</time>
      </trkpt>
      <trkpt lat="37.354317" lon="-122.153877">
        <ele>152.2</ele>
        <time>2015-05-13T18:41:03Z</time>
      </trkpt>
      <trkpt lat="37.354343" lon="-122.15393">
        <ele>152.2</ele>
        <time>2015-05-13T18:41:05Z</time>
      </trkpt>
      <trkpt lat="37.35439" lon="-122.154039">
        <ele>152.2</ele>
        <time>2015-05-13T18:41:06Z</time>
      </trkpt>
      <trkpt lat="37.354412" lon="-122.1541">
        <ele>152.1</ele>
        <time>2015-05-13T18:41:08Z</time>
      </trkpt>
      <trkpt lat="37.354423" lon="-122.154141">
        <ele>152.1</ele>
        <time>2015-05-13T18:41:09Z</time>
      </trkpt>
      <trkpt lat="37.354447" lon="-122.154272">
        <ele>152.2</ele>
        <time>2015-05-13T18:41:10Z</time>
      </trkpt>
      <trkpt lat="37.354448" lon="-122.154307">
        <ele>152.2</ele>
        <time>2015-05-13T18:41:11Z</time>
      </trkpt>
      <trkpt lat="37.354447" lon="-122.154378">
        <ele>152.4</ele>
        <time>2015-05-13T18:41:12Z</time>
      </trkpt>
      <trkpt lat="37.354444" lon="-122.154439">
        <ele>152.5</ele>
        <time>2015-05-13T18:41:13Z</time>
      </trkpt>
      <trkpt lat="37.354437" lon="-122.154507">
        <ele>152.5</ele>
        <time>2015-05-13T18:41:14Z</time>
      </trkpt>
      <trkpt lat="37.35443" lon="-122.154579">
        <ele>152.6</ele>
        <time>2015-05-13T18:41:16Z</time>
      </trkpt>
      <trkpt lat="37.354411" lon="-122.15472">
        <ele>152.6</ele>
        <time>2015-05-13T18:41:17Z</time>
      </trkpt>
      <trkpt lat="37.354401" lon="-122.154788">
        <ele>152.7</ele>
        <time>2015-05-13T18:41:19Z</time>
      </trkpt>
      <trkpt lat="37.354392" lon="-122.154856">
        <ele>152.8</ele>
        <time>2015-05-13T18:41:20Z</time>
      </trkpt>
      <trkpt lat="37.354376" lon="-122.15496">
        <ele>153.1</ele>
        <time>2015-05-13T18:41:21Z</time>
      </trkpt>
      <trkpt lat="37.354362" lon="-122.155101">
        <ele>153.6</ele>
        <time>2015-05-13T18:41:23Z</time>
      </trkpt>
      <trkpt lat="37.354347" lon="-122.155241">
        <ele>154.1</ele>
        <time>2015-05-13T18:41:25Z</time>
      </trkpt>
      <trkpt lat="37.354343" lon="-122.155299">
        <ele>154.3</ele>
        <time>2015-05-13T18:41:26Z</time>
      </trkpt>
      <trkpt lat="37.35434" lon="-122.155354">
        <ele>154.5</ele>
        <time>2015-05-13T18:41:27Z</time>
      </trkpt>
      <trkpt lat="37.354338" lon="-122.155416">
        <ele>154.6</ele>
        <time>2015-05-13T18:41:28Z</time>
      </trkpt>
      <trkpt lat="37.354337" lon="-122.155474">
        <ele>154.8</ele>
        <time>2015-05-13T18:41:30Z</time>
      </trkpt>
      <trkpt lat="37.354337" lon="-122.155582">
        <ele>155.1</ele>
        <time>2015-05-13T18:41:31Z</time>
      </trkpt>
      <trkpt lat="37.354336" lon="-122.15564">
        <ele>155.1</ele>
        <time>2015-05-13T18:41:32Z</time>
      </trkpt>
      <trkpt lat="37.354336" lon="-122.155701">
        <ele>155.2</ele>
        <time>2015-05-13T18:41:33Z</time>
      </trkpt>
      <trkpt lat="37.354337" lon="-122.155753">
        <ele>155.3</ele>
        <time>2015-05-13T18:41:34Z</time>
      </trkpt>
      <trkpt lat="37.354338" lon="-122.155803">
        <ele>155.4</ele>
        <time>2015-05-13T18:41:35Z</time>
      </trkpt>
      <trkpt lat="37.354339" lon="-122.15586">
        <ele>155.6</ele>
        <time>2015-05-13T18:41:36Z</time>
      </trkpt>
      <trkpt lat="37.354341" lon="-122.155909">
        <ele>155.7</ele>
        <time>2015-05-13T18:41:37Z</time>
      </trkpt>
      <trkpt lat="37.354343" lon="-122.155966">
        <ele>155.9</ele>
        <time>2015-05-13T18:41:39Z</time>
      </trkpt>
      <trkpt lat="37.354347" lon="-122.15609">
        <ele>156.3</ele>
        <time>2015-05-13T18:41:40Z</time>
      </trkpt>
      <trkpt lat="37.35435" lon="-122.156149">
        <ele>156.5</ele>
        <time>2015-05-13T18:41:41Z</time>
      </trkpt>
      <trkpt lat="37.354352" lon="-122.156202">
        <ele>156.7</ele>
        <time>2015-05-13T18:41:42Z</time>
      </trkpt>
      <trkpt lat="37.354355" lon="-122.156253">
        <ele>156.7</ele>
        <time>2015-05-13T18:41:44Z</time>
      </trkpt>
      <trkpt lat="37.354358" lon="-122.156318">
        <ele>156.9</ele>
        <time>2015-05-13T18:41:45Z</time>
      </trkpt>
      <trkpt lat="37.354364" lon="-122.156398">
        <ele>157</ele>
        <time>2015-05-13T18:41:47Z</time>
      </trkpt>
      <trkpt lat="37.354368" lon="-122.156443">
        <ele>157.1</ele>
        <time>2015-05-13T18:41:48Z</time>
      </trkpt>
      <trkpt lat="37.354372" lon="-122.156497">
        <ele>157.2</ele>
        <time>2015-05-13T18:41:49Z</time>
      </trkpt>
      <trkpt lat="37.354376" lon="-122.156553">
        <ele>157.3</ele>
        <time>2015-05-13T18:41:50Z</time>
      </trkpt>
      <trkpt lat="37.354385" lon="-122.156672">
        <ele>157.5</ele>
        <time>2015-05-13T18:41:51Z</time>
      </trkpt>
      <trkpt lat="37.354386" lon="-122.156721">
        <ele>157.6</ele>
        <time>2015-05-13T18:41:53Z</time>
      </trkpt>
      <trkpt lat="37.354387" lon="-122.156765">
        <ele>157.7</ele>
        <time>2015-05-13T18:41:54Z</time>
      </trkpt>
      <trkpt lat="37.354388" lon="-122.156812">
        <ele>157.7</ele>
        <time>2015-05-13T18:41:55Z</time>
      </trkpt>
      <trkpt lat="37.354388" lon="-122.156861">
        <ele>157.8</ele>
        <time>2015-05-13T18:41:56Z</time>
      </trkpt>
      <trkpt lat="37.354387" lon="-122.156901">
        <ele>157.8</ele>
        <time>2015-05-13T18:41:57Z</time>
      </trkpt>
      <trkpt lat="37.354382" lon="-122.156959">
        <ele>157.9</ele>
        <time>2015-05-13T18:41:58Z</time>
      </trkpt>
      <trkpt lat="37.354368" lon="-122.157058">
        <ele>158.1</ele>
        <time>2015-05-13T18:41:59Z</time>
      </trkpt>
      <trkpt lat="37.354359" lon="-122.157103">
        <ele>158.2</ele>
        <time>2015-05-13T18:42:01Z</time>
      </trkpt>
      <trkpt lat="37.354351" lon="-122.157146">
        <ele>158.3</ele>
        <time>2015-05-13T18:42:02Z</time>
      </trkpt>
      <trkpt lat="37.354342" lon="-122.157191">
        <ele>158.4</ele>
        <time>2015-05-13T18:42:03Z</time>
      </trkpt>
      <trkpt lat="37.354324" lon="-122.157282">
        <ele>158.7</ele>
        <time>2015-05-13T18:42:04Z</time>
      </trkpt>
      <trkpt lat="37.354309" lon="-122.157367">
        <ele>159.1</ele>
        <time>2015-05-13T18:42:06Z</time>
      </trkpt>
      <trkpt lat="37.3543" lon="-122.157421">
        <ele>159</ele>
        <time>2015-05-13T18:42:07Z</time>
      </trkpt>
      <trkpt lat="37.354293" lon="-122.157463">
        <ele>159.3</ele>
        <time>2015-05-13T18:42:08Z</time>
      </trkpt>
      <trkpt lat="37.354286" lon="-122.157506">
        <ele>159.1</ele>
        <time>2015-05-13T18:42:09Z</time>
      </trkpt>
      <trkpt lat="37.354276" lon="-122.157574">
        <ele>158.9</ele>
        <time>2015-05-13T18:42:11Z</time>
      </trkpt>
      <trkpt lat="37.35427" lon="-122.157651">
        <ele>159.1</ele>
        <time>2015-05-13T18:42:12Z</time>
      </trkpt>
      <trkpt lat="37.354267" lon="-122.157701">
        <ele>158.9</ele>
        <time>2015-05-13T18:42:13Z</time>
      </trkpt>
      <trkpt lat="37.354265" lon="-122.157736">
        <ele>159</ele>
        <time>2015-05-13T18:42:14Z</time>
      </trkpt>
      <trkpt lat="37.354264" lon="-122.157798">
        <ele>159.1</ele>
        <time>2015-05-13T18:42:15Z</time>
      </trkpt>
      <trkpt lat="37.354263" lon="-122.157838">
        <ele>159.2</ele>
        <time>2015-05-13T18:42:16Z</time>
      </trkpt>
      <trkpt lat="37.354264" lon="-122.157881">
        <ele>159.2</ele>
        <time>2015-05-13T18:42:17Z</time>
      </trkpt>
      <trkpt lat="37.354264" lon="-122.157928">
        <ele>159.2</ele>
        <time>2015-05-13T18:42:18Z</time>
      </trkpt>
      <trkpt lat="37.354265" lon="-122.157981">
        <ele>159.2</ele>
        <time>2015-05-13T18:42:19Z</time>
      </trkpt>
      <trkpt lat="37.354267" lon="-122.158033">
        <ele>159.2</ele>
        <time>2015-05-13T18:42:20Z</time>
      </trkpt>
      <trkpt lat="37.35427" lon="-122.158103">
        <ele>159.2</ele>
        <time>2015-05-13T18:42:21Z</time>
      </trkpt>
      <trkpt lat="37.354272" lon="-122.158164">
        <ele>159.3</ele>
        <time>2015-05-13T18:42:22Z</time>
      </trkpt>
      <trkpt lat="37.354274" lon="-122.158218">
        <ele>159.4</ele>
        <time>2015-05-13T18:42:23Z</time>
      </trkpt>
      <trkpt lat="37.354277" lon="-122.158277">
        <ele>159.5</ele>
        <time>2015-05-13T18:42:25Z</time>
      </trkpt>
      <trkpt lat="37.354279" lon="-122.158322">
        <ele>159.6</ele>
        <time>2015-05-13T18:42:26Z</time>
      </trkpt>
      <trkpt lat="37.354284" lon="-122.15843">
        <ele>160</ele>
        <time>2015-05-13T18:42:27Z</time>
      </trkpt>
      <trkpt lat="37.354287" lon="-122.158482">
        <ele>160.6</ele>
        <time>2015-05-13T18:42:28Z</time>
      </trkpt>
      <trkpt lat="37.354289" lon="-122.15853">
        <ele>161.3</ele>
        <time>2015-05-13T18:42:29Z</time>
      </trkpt>
      <trkpt lat="37.354291" lon="-122.158569">
        <ele>161.4</ele>
        <time>2015-05-13T18:42:30Z</time>
      </trkpt>
      <trkpt lat="37.354294" lon="-122.158614">
        <ele>161.1</ele>
        <time>2015-05-13T18:42:31Z</time>
      </trkpt>
      <trkpt lat="37.354297" lon="-122.158665">
        <ele>161.1</ele>
        <time>2015-05-13T18:42:32Z</time>
      </trkpt>
      <trkpt lat="37.3543" lon="-122.158713">
        <ele>161.3</ele>
        <time>2015-05-13T18:42:33Z</time>
      </trkpt>
      <trkpt lat="37.354302" lon="-122.158757">
        <ele>161.7</ele>
        <time>2015-05-13T18:42:34Z</time>
      </trkpt>
      <trkpt lat="37.354305" lon="-122.158801">
        <ele>162.1</ele>
        <time>2015-05-13T18:42:35Z</time>
      </trkpt>
      <trkpt lat="37.354308" lon="-122.158842">
        <ele>162.3</ele>
        <time>2015-05-13T18:42:36Z</time>
      </trkpt>
      <trkpt lat="37.35431" lon="-122.158883">
        <ele>162.7</ele>
        <time>2015-05-13T18:42:37Z</time>
      </trkpt>
      <trkpt lat="37.35431" lon="-122.158921">
        <ele>162.9</ele>
        <time>2015-05-13T18:42:38Z</time>
      </trkpt>
      <trkpt lat="37.354301" lon="-122.159028">
        <ele>163.4</ele>
        <time>2015-05-13T18:42:41Z</time>
      </trkpt>
      <trkpt lat="37.354293" lon="-122.159071">
        <ele>163.5</ele>
        <time>2015-05-13T18:42:43Z</time>
      </trkpt>
      <trkpt lat="37.354287" lon="-122.159104">
        <ele>163.7</ele>
        <time>2015-05-13T18:42:44Z</time>
      </trkpt>
      <trkpt lat="37.354265" lon="-122.159186">
        <ele>163.9</ele>
        <time>2015-05-13T18:42:45Z</time>
      </trkpt>
      <trkpt lat="37.354251" lon="-122.159233">
        <ele>164.3</ele>
        <time>2015-05-13T18:42:46Z</time>
      </trkpt>
      <trkpt lat="37.354238" lon="-122.159275">
        <ele>164.4</ele>
        <time>2015-05-13T18:42:47Z</time>
      </trkpt>
      <trkpt lat="37.354224" lon="-122.159324">
        <ele>164.7</ele>
        <time>2015-05-13T18:42:48Z</time>
      </trkpt>
      <trkpt lat="37.354206" lon="-122.159393">
        <ele>164.6</ele>
        <time>2015-05-13T18:42:49Z</time>
      </trkpt>
      <trkpt lat="37.354189" lon="-122.159471">
        <ele>164.6</ele>
        <time>2015-05-13T18:42:52Z</time>
      </trkpt>
      <trkpt lat="37.354171" lon="-122.159588">
        <ele>163.8</ele>
        <time>2015-05-13T18:42:53Z</time>
      </trkpt>
      <trkpt lat="37.35417" lon="-122.159654">
        <ele>163.5</ele>
        <time>2015-05-13T18:42:54Z</time>
      </trkpt>
      <trkpt lat="37.35417" lon="-122.159716">
        <ele>163.2</ele>
        <time>2015-05-13T18:42:55Z</time>
      </trkpt>
      <trkpt lat="37.354177" lon="-122.159778">
        <ele>163.4</ele>
        <time>2015-05-13T18:42:56Z</time>
      </trkpt>
      <trkpt lat="37.354188" lon="-122.159831">
        <ele>163.1</ele>
        <time>2015-05-13T18:42:57Z</time>
      </trkpt>
      <trkpt lat="37.3542" lon="-122.159873">
        <ele>163</ele>
        <time>2015-05-13T18:42:58Z</time>
      </trkpt>
      <trkpt lat="37.354242" lon="-122.15997">
        <ele>163</ele>
        <time>2015-05-13T18:42:59Z</time>
      </trkpt>
      <trkpt lat="37.35427" lon="-122.160017">
        <ele>163.1</ele>
        <time>2015-05-13T18:43:00Z</time>
      </trkpt>
      <trkpt lat="37.354301" lon="-122.160062">
        <ele>163.4</ele>
        <time>2015-05-13T18:43:01Z</time>
      </trkpt>
      <trkpt lat="37.354328" lon="-122.160097">
        <ele>163.4</ele>
        <time>2015-05-13T18:43:02Z</time>
      </trkpt>
      <trkpt lat="37.354366" lon="-122.160137">
        <ele>163.4</ele>
        <time>2015-05-13T18:43:03Z</time>
      </trkpt>
      <trkpt lat="37.354407" lon="-122.160174">
        <ele>163.5</ele>
        <time>2015-05-13T18:43:04Z</time>
      </trkpt>
      <trkpt lat="37.354437" lon="-122.160201">
        <ele>163.7</ele>
        <time>2015-05-13T18:43:05Z</time>
      </trkpt>
      <trkpt lat="37.354475" lon="-122.160235">
        <ele>163.9</ele>
        <time>2015-05-13T18:43:07Z</time>
      </trkpt>
      <trkpt lat="37.354555" lon="-122.160298">
        <ele>164.6</ele>
        <time>2015-05-13T18:43:08Z</time>
      </trkpt>
      <trkpt lat="37.354589" lon="-122.160322">
        <ele>164.5</ele>
        <time>2015-05-13T18:43:09Z</time>
      </trkpt>
      <trkpt lat="37.354622" lon="-122.160346">
        <ele>164.6</ele>
        <time>2015-05-13T18:43:10Z</time>
      </trkpt>
      <trkpt lat="37.354659" lon="-122.160371">
        <ele>164.9</ele>
        <time>2015-05-13T18:43:11Z</time>
      </trkpt>
      <trkpt lat="37.354698" lon="-122.160397">
        <ele>165.1</ele>
        <time>2015-05-13T18:43:12Z</time>
      </trkpt>
      <trkpt lat="37.354732" lon="-122.16042">
        <ele>165.2</ele>
        <time>2015-05-13T18:43:13Z</time>
      </trkpt>
      <trkpt lat="37.354757" lon="-122.160437">
        <ele>165.4</ele>
        <time>2015-05-13T18:43:14Z</time>
      </trkpt>
      <trkpt lat="37.354787" lon="-122.160457">
        <ele>165.6</ele>
        <time>2015-05-13T18:43:15Z</time>
      </trkpt>
      <trkpt lat="37.354816" lon="-122.160476">
        <ele>165.8</ele>
        <time>2015-05-13T18:43:16Z</time>
      </trkpt>
      <trkpt lat="37.354871" lon="-122.160515">
        <ele>166</ele>
        <time>2015-05-13T18:43:19Z</time>
      </trkpt>
      <trkpt lat="37.35492" lon="-122.160552">
        <ele>166.3</ele>
        <time>2015-05-13T18:43:20Z</time>
      </trkpt>
      <trkpt lat="37.354965" lon="-122.160593">
        <ele>166.5</ele>
        <time>2015-05-13T18:43:22Z</time>
      </trkpt>
      <trkpt lat="37.354989" lon="-122.160621">
        <ele>166.5</ele>
        <time>2015-05-13T18:43:23Z</time>
      </trkpt>
      <trkpt lat="37.355017" lon="-122.160653">
        <ele>166.7</ele>
        <time>2015-05-13T18:43:24Z</time>
      </trkpt>
      <trkpt lat="37.355039" lon="-122.160679">
        <ele>166.9</ele>
        <time>2015-05-13T18:43:25Z</time>
      </trkpt>
      <trkpt lat="37.355067" lon="-122.160715">
        <ele>167</ele>
        <time>2015-05-13T18:43:26Z</time>
      </trkpt>
      <trkpt lat="37.355108" lon="-122.160771">
        <ele>167.3</ele>
        <time>2015-05-13T18:43:28Z</time>
      </trkpt>
      <trkpt lat="37.355148" lon="-122.160832">
        <ele>167.6</ele>
        <time>2015-05-13T18:43:30Z</time>
      </trkpt>
      <trkpt lat="37.355167" lon="-122.160862">
        <ele>167.7</ele>
        <time>2015-05-13T18:43:31Z</time>
      </trkpt>
      <trkpt lat="37.355204" lon="-122.160927">
        <ele>168</ele>
        <time>2015-05-13T18:43:33Z</time>
      </trkpt>
      <trkpt lat="37.355224" lon="-122.160963">
        <ele>168.2</ele>
        <time>2015-05-13T18:43:34Z</time>
      </trkpt>
      <trkpt lat="37.355243" lon="-122.161002">
        <ele>168.2</ele>
        <time>2015-05-13T18:43:35Z</time>
      </trkpt>
      <trkpt lat="37.355265" lon="-122.161047">
        <ele>168.3</ele>
        <time>2015-05-13T18:43:36Z</time>
      </trkpt>
      <trkpt lat="37.355285" lon="-122.161087">
        <ele>168.4</ele>
        <time>2015-05-13T18:43:37Z</time>
      </trkpt>
      <trkpt lat="37.355305" lon="-122.161128">
        <ele>168.5</ele>
        <time>2015-05-13T18:43:38Z</time>
      </trkpt>
      <trkpt lat="37.355323" lon="-122.161163">
        <ele>168.6</ele>
        <time>2015-05-13T18:43:39Z</time>
      </trkpt>
      <trkpt lat="37.355348" lon="-122.16121">
        <ele>168.7</ele>
        <time>2015-05-13T18:43:40Z</time>
      </trkpt>
      <trkpt lat="37.355369" lon="-122.161247">
        <ele>168.7</ele>
        <time>2015-05-13T18:43:41Z</time>
      </trkpt>
      <trkpt lat="37.35539" lon="-122.161286">
        <ele>168.8</ele>
        <time>2015-05-13T18:43:43Z</time>
      </trkpt>
      <trkpt lat="37.355434" lon="-122.161363">
        <ele>168.9</ele>
        <time>2015-05-13T18:43:44Z</time>
      </trkpt>
      <trkpt lat="37.355459" lon="-122.161403">
        <ele>169</ele>
        <time>2015-05-13T18:43:45Z</time>
      </trkpt>
      <trkpt lat="37.355486" lon="-122.161443">
        <ele>169.2</ele>
        <time>2015-05-13T18:43:46Z</time>
      </trkpt>
      <trkpt lat="37.355509" lon="-122.161477">
        <ele>169.2</ele>
        <time>2015-05-13T18:43:47Z</time>
      </trkpt>
      <trkpt lat="37.355536" lon="-122.161517">
        <ele>169.3</ele>
        <time>2015-05-13T18:43:48Z</time>
      </trkpt>
      <trkpt lat="37.355566" lon="-122.161555">
        <ele>169.5</ele>
        <time>2015-05-13T18:43:50Z</time>
      </trkpt>
      <trkpt lat="37.355611" lon="-122.161614">
        <ele>169.6</ele>
        <time>2015-05-13T18:43:51Z</time>
      </trkpt>
      <trkpt lat="37.355634" lon="-122.161643">
        <ele>169.7</ele>
        <time>2015-05-13T18:43:52Z</time>
      </trkpt>
      <trkpt lat="37.35566" lon="-122.161676">
        <ele>169.8</ele>
        <time>2015-05-13T18:43:53Z</time>
      </trkpt>
      <trkpt lat="37.35569" lon="-122.161714">
        <ele>170</ele>
        <time>2015-05-13T18:43:55Z</time>
      </trkpt>
      <trkpt lat="37.355719" lon="-122.161751">
        <ele>170.2</ele>
        <time>2015-05-13T18:43:56Z</time>
      </trkpt>
      <trkpt lat="37.35576" lon="-122.161802">
        <ele>170.4</ele>
        <time>2015-05-13T18:43:57Z</time>
      </trkpt>
      <trkpt lat="37.355792" lon="-122.161852">
        <ele>170.6</ele>
        <time>2015-05-13T18:43:58Z</time>
      </trkpt>
      <trkpt lat="37.355827" lon="-122.161912">
        <ele>171</ele>
        <time>2015-05-13T18:44:00Z</time>
      </trkpt>
      <trkpt lat="37.355858" lon="-122.161978">
        <ele>171.2</ele>
        <time>2015-05-13T18:44:02Z</time>
      </trkpt>
      <trkpt lat="37.355875" lon="-122.162015">
        <ele>171.5</ele>
        <time>2015-05-13T18:44:03Z</time>
      </trkpt>
      <trkpt lat="37.355898" lon="-122.162072">
        <ele>171.8</ele>
        <time>2015-05-13T18:44:04Z</time>
      </trkpt>
      <trkpt lat="37.355912" lon="-122.162108">
        <ele>171.9</ele>
        <time>2015-05-13T18:44:05Z</time>
      </trkpt>
      <trkpt lat="37.355927" lon="-122.162152">
        <ele>172.2</ele>
        <time>2015-05-13T18:44:06Z</time>
      </trkpt>
      <trkpt lat="37.355941" lon="-122.162193">
        <ele>172.3</ele>
        <time>2015-05-13T18:44:07Z</time>
      </trkpt>
      <trkpt lat="37.355955" lon="-122.162236">
        <ele>172.5</ele>
        <time>2015-05-13T18:44:09Z</time>
      </trkpt>
      <trkpt lat="37.355979" lon="-122.16231">
        <ele>172.7</ele>
        <time>2015-05-13T18:44:10Z</time>
      </trkpt>
      <trkpt lat="37.35599" lon="-122.162346">
        <ele>173</ele>
        <time>2015-05-13T18:44:11Z</time>
      </trkpt>
      <trkpt lat="37.356002" lon="-122.162385">
        <ele>173.2</ele>
        <time>2015-05-13T18:44:12Z</time>
      </trkpt>
      <trkpt lat="37.356016" lon="-122.162429">
        <ele>173.5</ele>
        <time>2015-05-13T18:44:14Z</time>
      </trkpt>
      <trkpt lat="37.356041" lon="-122.162513">
        <ele>173.7</ele>
        <time>2015-05-13T18:44:15Z</time>
      </trkpt>
      <trkpt lat="37.356052" lon="-122.162551">
        <ele>173.9</ele>
        <time>2015-05-13T18:44:16Z</time>
      </trkpt>
      <trkpt lat="37.356064" lon="-122.162591">
        <ele>174.1</ele>
        <time>2015-05-13T18:44:17Z</time>
      </trkpt>
      <trkpt lat="37.356074" lon="-122.162629">
        <ele>174.4</ele>
        <time>2015-05-13T18:44:18Z</time>
      </trkpt>
      <trkpt lat="37.356087" lon="-122.162673">
        <ele>174.7</ele>
        <time>2015-05-13T18:44:19Z</time>
      </trkpt>
      <trkpt lat="37.356104" lon="-122.162737">
        <ele>175.2</ele>
        <time>2015-05-13T18:44:21Z</time>
      </trkpt>
      <trkpt lat="37.356121" lon="-122.1628">
        <ele>175.8</ele>
        <time>2015-05-13T18:44:23Z</time>
      </trkpt>
      <trkpt lat="37.35613" lon="-122.162835">
        <ele>175.9</ele>
        <time>2015-05-13T18:44:24Z</time>
      </trkpt>
      <trkpt lat="37.356139" lon="-122.162867">
        <ele>176.2</ele>
        <time>2015-05-13T18:44:25Z</time>
      </trkpt>
      <trkpt lat="37.356148" lon="-122.162901">
        <ele>176.6</ele>
        <time>2015-05-13T18:44:26Z</time>
      </trkpt>
      <trkpt lat="37.356157" lon="-122.162934">
        <ele>176.8</ele>
        <time>2015-05-13T18:44:27Z</time>
      </trkpt>
      <trkpt lat="37.356173" lon="-122.162995">
        <ele>177.2</ele>
        <time>2015-05-13T18:44:29Z</time>
      </trkpt>
      <trkpt lat="37.356194" lon="-122.163072">
        <ele>177.7</ele>
        <time>2015-05-13T18:44:31Z</time>
      </trkpt>
      <trkpt lat="37.356211" lon="-122.163125">
        <ele>178.1</ele>
        <time>2015-05-13T18:44:33Z</time>
      </trkpt>
      <trkpt lat="37.356222" lon="-122.16316">
        <ele>178.2</ele>
        <time>2015-05-13T18:44:34Z</time>
      </trkpt>
      <trkpt lat="37.356236" lon="-122.163201">
        <ele>178.4</ele>
        <time>2015-05-13T18:44:35Z</time>
      </trkpt>
      <trkpt lat="37.356247" lon="-122.163232">
        <ele>178.5</ele>
        <time>2015-05-13T18:44:36Z</time>
      </trkpt>
      <trkpt lat="37.356286" lon="-122.163323">
        <ele>178.6</ele>
        <time>2015-05-13T18:44:39Z</time>
      </trkpt>
      <trkpt lat="37.356305" lon="-122.163358">
        <ele>178.7</ele>
        <time>2015-05-13T18:44:40Z</time>
      </trkpt>
      <trkpt lat="37.356324" lon="-122.163395">
        <ele>178.8</ele>
        <time>2015-05-13T18:44:41Z</time>
      </trkpt>
      <trkpt lat="37.356369" lon="-122.163404">
        <ele>178.8</ele>
        <time>2015-05-13T18:44:42Z</time>
      </trkpt>
      <trkpt lat="37.356389" lon="-122.163436">
        <ele>178.9</ele>
        <time>2015-05-13T18:44:43Z</time>
      </trkpt>
      <trkpt lat="37.35641" lon="-122.16346">
        <ele>178.9</ele>
        <time>2015-05-13T18:44:45Z</time>
      </trkpt>
      <trkpt lat="37.356432" lon="-122.163483">
        <ele>179.1</ele>
        <time>2015-05-13T18:44:46Z</time>
      </trkpt>
      <trkpt lat="37.35648" lon="-122.163534">
        <ele>179.5</ele>
        <time>2015-05-13T18:44:47Z</time>
      </trkpt>
      <trkpt lat="37.3565" lon="-122.163563">
        <ele>179.7</ele>
        <time>2015-05-13T18:44:49Z</time>
      </trkpt>
      <trkpt lat="37.356519" lon="-122.163591">
        <ele>180</ele>
        <time>2015-05-13T18:44:50Z</time>
      </trkpt>
      <trkpt lat="37.35654" lon="-122.163617">
        <ele>180.4</ele>
        <time>2015-05-13T18:44:51Z</time>
      </trkpt>
      <trkpt lat="37.356562" lon="-122.163644">
        <ele>180.6</ele>
        <time>2015-05-13T18:44:52Z</time>
      </trkpt>
      <trkpt lat="37.356609" lon="-122.163689">
        <ele>181.1</ele>
        <time>2015-05-13T18:44:53Z</time>
      </trkpt>
      <trkpt lat="37.356652" lon="-122.16372">
        <ele>181.5</ele>
        <time>2015-05-13T18:44:55Z</time>
      </trkpt>
      <trkpt lat="37.356677" lon="-122.163738">
        <ele>181.7</ele>
        <time>2015-05-13T18:44:56Z</time>
      </trkpt>
      <trkpt lat="37.356703" lon="-122.163764">
        <ele>182</ele>
        <time>2015-05-13T18:44:57Z</time>
      </trkpt>
      <trkpt lat="37.356724" lon="-122.16379">
        <ele>182.1</ele>
        <time>2015-05-13T18:44:58Z</time>
      </trkpt>
      <trkpt lat="37.35676" lon="-122.16384">
        <ele>182.3</ele>
        <time>2015-05-13T18:45:00Z</time>
      </trkpt>
      <trkpt lat="37.356781" lon="-122.163862">
        <ele>182.4</ele>
        <time>2015-05-13T18:45:01Z</time>
      </trkpt>
      <trkpt lat="37.356803" lon="-122.163884">
        <ele>182.6</ele>
        <time>2015-05-13T18:45:02Z</time>
      </trkpt>
      <trkpt lat="37.356838" lon="-122.163928">
        <ele>182.9</ele>
        <time>2015-05-13T18:45:04Z</time>
      </trkpt>
      <trkpt lat="37.356856" lon="-122.163955">
        <ele>183.1</ele>
        <time>2015-05-13T18:45:05Z</time>
      </trkpt>
      <trkpt lat="37.356872" lon="-122.163984">
        <ele>183.4</ele>
        <time>2015-05-13T18:45:06Z</time>
      </trkpt>
      <trkpt lat="37.356887" lon="-122.164012">
        <ele>183.5</ele>
        <time>2015-05-13T18:45:07Z</time>
      </trkpt>
      <trkpt lat="37.356903" lon="-122.164041">
        <ele>183.7</ele>
        <time>2015-05-13T18:45:08Z</time>
      </trkpt>
      <trkpt lat="37.35692" lon="-122.164069">
        <ele>183.8</ele>
        <time>2015-05-13T18:45:09Z</time>
      </trkpt>
      <trkpt lat="37.356951" lon="-122.164119">
        <ele>184.1</ele>
        <time>2015-05-13T18:45:11Z</time>
      </trkpt>
      <trkpt lat="37.356977" lon="-122.164165">
        <ele>184.3</ele>
        <time>2015-05-13T18:45:13Z</time>
      </trkpt>
      <trkpt lat="37.356978" lon="-122.164236">
        <ele>184.6</ele>
        <time>2015-05-13T18:45:15Z</time>
      </trkpt>
      <trkpt lat="37.357004" lon="-122.164272">
        <ele>184.8</ele>
        <time>2015-05-13T18:45:17Z</time>
      </trkpt>
      <trkpt lat="37.35704" lon="-122.16432">
        <ele>185</ele>
        <time>2015-05-13T18:45:19Z</time>
      </trkpt>
      <trkpt lat="37.357071" lon="-122.164362">
        <ele>185.3</ele>
        <time>2015-05-13T18:45:21Z</time>
      </trkpt>
      <trkpt lat="37.357101" lon="-122.164402">
        <ele>185.6</ele>
        <time>2015-05-13T18:45:23Z</time>
      </trkpt>
      <trkpt lat="37.357133" lon="-122.164444">
        <ele>185.9</ele>
        <time>2015-05-13T18:45:25Z</time>
      </trkpt>
      <trkpt lat="37.357158" lon="-122.164478">
        <ele>186.1</ele>
        <time>2015-05-13T18:45:28Z</time>
      </trkpt>
      <trkpt lat="37.357187" lon="-122.164515">
        <ele>186.4</ele>
        <time>2015-05-13T18:45:30Z</time>
      </trkpt>
      <trkpt lat="37.357235" lon="-122.164578">
        <ele>186.9</ele>
        <time>2015-05-13T18:45:32Z</time>
      </trkpt>
      <trkpt lat="37.357249" lon="-122.164597">
        <ele>187</ele>
        <time>2015-05-13T18:45:33Z</time>
      </trkpt>
      <trkpt lat="37.357284" lon="-122.164643">
        <ele>187.3</ele>
        <time>2015-05-13T18:45:35Z</time>
      </trkpt>
      <trkpt lat="37.357316" lon="-122.164688">
        <ele>187.5</ele>
        <time>2015-05-13T18:45:37Z</time>
      </trkpt>
      <trkpt lat="37.357349" lon="-122.164734">
        <ele>187.8</ele>
        <time>2015-05-13T18:45:39Z</time>
      </trkpt>
      <trkpt lat="37.357383" lon="-122.164781">
        <ele>188</ele>
        <time>2015-05-13T18:45:41Z</time>
      </trkpt>
      <trkpt lat="37.357412" lon="-122.164822">
        <ele>188.2</ele>
        <time>2015-05-13T18:45:43Z</time>
      </trkpt>
      <trkpt lat="37.357437" lon="-122.164861">
        <ele>188.3</ele>
        <time>2015-05-13T18:45:45Z</time>
      </trkpt>
      <trkpt lat="37.357458" lon="-122.164895">
        <ele>188.5</ele>
        <time>2015-05-13T18:45:47Z</time>
      </trkpt>
      <trkpt lat="37.357477" lon="-122.164929">
        <ele>188.7</ele>
        <time>2015-05-13T18:45:48Z</time>
      </trkpt>
      <trkpt lat="37.357533" lon="-122.164914">
        <ele>189.1</ele>
        <time>2015-05-13T18:45:49Z</time>
      </trkpt>
      <trkpt lat="37.357582" lon="-122.165002">
        <ele>189.7</ele>
        <time>2015-05-13T18:45:52Z</time>
      </trkpt>
      <trkpt lat="37.357592" lon="-122.165015">
        <ele>189.9</ele>
        <time>2015-05-13T18:45:53Z</time>
      </trkpt>
      <trkpt lat="37.357623" lon="-122.165066">
        <ele>190.4</ele>
        <time>2015-05-13T18:45:55Z</time>
      </trkpt>
      <trkpt lat="37.357639" lon="-122.165097">
        <ele>190.5</ele>
        <time>2015-05-13T18:45:56Z</time>
      </trkpt>
      <trkpt lat="37.357656" lon="-122.165129">
        <ele>190.6</ele>
        <time>2015-05-13T18:45:57Z</time>
      </trkpt>
      <trkpt lat="37.35767" lon="-122.165158">
        <ele>190.7</ele>
        <time>2015-05-13T18:45:58Z</time>
      </trkpt>
      <trkpt lat="37.357691" lon="-122.165211">
        <ele>191</ele>
        <time>2015-05-13T18:46:01Z</time>
      </trkpt>
      <trkpt lat="37.357712" lon="-122.165259">
        <ele>191.2</ele>
        <time>2015-05-13T18:46:03Z</time>
      </trkpt>
      <trkpt lat="37.357729" lon="-122.165311">
        <ele>191.4</ele>
        <time>2015-05-13T18:46:05Z</time>
      </trkpt>
      <trkpt lat="37.357762" lon="-122.165391">
        <ele>191.7</ele>
        <time>2015-05-13T18:46:07Z</time>
      </trkpt>
      <trkpt lat="37.357772" lon="-122.165417">
        <ele>191.8</ele>
        <time>2015-05-13T18:46:08Z</time>
      </trkpt>
      <trkpt lat="37.357793" lon="-122.165472">
        <ele>191.8</ele>
        <time>2015-05-13T18:46:10Z</time>
      </trkpt>
      <trkpt lat="37.357817" lon="-122.165528">
        <ele>192.1</ele>
        <time>2015-05-13T18:46:12Z</time>
      </trkpt>
      <trkpt lat="37.357839" lon="-122.165582">
        <ele>192.6</ele>
        <time>2015-05-13T18:46:14Z</time>
      </trkpt>
      <trkpt lat="37.357855" lon="-122.165628">
        <ele>192.7</ele>
        <time>2015-05-13T18:46:16Z</time>
      </trkpt>
      <trkpt lat="37.357875" lon="-122.165721">
        <ele>193</ele>
        <time>2015-05-13T18:46:19Z</time>
      </trkpt>
      <trkpt lat="37.357879" lon="-122.165738">
        <ele>193</ele>
        <time>2015-05-13T18:46:20Z</time>
      </trkpt>
      <trkpt lat="37.357885" lon="-122.165772">
        <ele>193</ele>
        <time>2015-05-13T18:46:21Z</time>
      </trkpt>
      <trkpt lat="37.357898" lon="-122.165831">
        <ele>193.8</ele>
        <time>2015-05-13T18:46:23Z</time>
      </trkpt>
      <trkpt lat="37.357899" lon="-122.165885">
        <ele>194.2</ele>
        <time>2015-05-13T18:46:25Z</time>
      </trkpt>
      <trkpt lat="37.357894" lon="-122.165944">
        <ele>194.8</ele>
        <time>2015-05-13T18:46:27Z</time>
      </trkpt>
      <trkpt lat="37.357911" lon="-122.16599">
        <ele>195.3</ele>
        <time>2015-05-13T18:46:30Z</time>
      </trkpt>
      <trkpt lat="37.357927" lon="-122.166044">
        <ele>195.7</ele>
        <time>2015-05-13T18:46:33Z</time>
      </trkpt>
      <trkpt lat="37.357928" lon="-122.166071">
        <ele>196.1</ele>
        <time>2015-05-13T18:46:35Z</time>
      </trkpt>
      <trkpt lat="37.357934" lon="-122.166121">
        <ele>196.6</ele>
        <time>2015-05-13T18:46:38Z</time>
      </trkpt>
      <trkpt lat="37.357953" lon="-122.166155">
        <ele>196.9</ele>
        <time>2015-05-13T18:46:40Z</time>
      </trkpt>
      <trkpt lat="37.357981" lon="-122.166189">
        <ele>197.2</ele>
        <time>2015-05-13T18:46:42Z</time>
      </trkpt>
      <trkpt lat="37.358025" lon="-122.166214">
        <ele>197.4</ele>
        <time>2015-05-13T18:46:45Z</time>
      </trkpt>
      <trkpt lat="37.358078" lon="-122.16621">
        <ele>197.5</ele>
        <time>2015-05-13T18:46:47Z</time>
      </trkpt>
      <trkpt lat="37.358103" lon="-122.166193">
        <ele>197.5</ele>
        <time>2015-05-13T18:46:48Z</time>
      </trkpt>
      <trkpt lat="37.358121" lon="-122.166166">
        <ele>197.5</ele>
        <time>2015-05-13T18:46:49Z</time>
      </trkpt>
      <trkpt lat="37.35813" lon="-122.166131">
        <ele>197.6</ele>
        <time>2015-05-13T18:46:50Z</time>
      </trkpt>
      <trkpt lat="37.358134" lon="-122.166047">
        <ele>197.9</ele>
        <time>2015-05-13T18:46:51Z</time>
      </trkpt>
      <trkpt lat="37.358132" lon="-122.166005">
        <ele>197.9</ele>
        <time>2015-05-13T18:46:53Z</time>
      </trkpt>
      <trkpt lat="37.358126" lon="-122.165961">
        <ele>198.3</ele>
        <time>2015-05-13T18:46:54Z</time>
      </trkpt>
      <trkpt lat="37.358116" lon="-122.165919">
        <ele>198.6</ele>
        <time>2015-05-13T18:46:55Z</time>
      </trkpt>
      <trkpt lat="37.358107" lon="-122.165878">
        <ele>198.7</ele>
        <time>2015-05-13T18:46:56Z</time>
      </trkpt>
      <trkpt lat="37.358098" lon="-122.165839">
        <ele>199</ele>
        <time>2015-05-13T18:46:57Z</time>
      </trkpt>
      <trkpt lat="37.358092" lon="-122.165801">
        <ele>199.6</ele>
        <time>2015-05-13T18:46:58Z</time>
      </trkpt>
      <trkpt lat="37.358087" lon="-122.165767">
        <ele>200</ele>
        <time>2015-05-13T18:46:59Z</time>
      </trkpt>
      <trkpt lat="37.358072" lon="-122.165706">
        <ele>200.1</ele>
        <time>2015-05-13T18:47:01Z</time>
      </trkpt>
      <trkpt lat="37.35806" lon="-122.165652">
        <ele>200.5</ele>
        <time>2015-05-13T18:47:02Z</time>
      </trkpt>
      <trkpt lat="37.358056" lon="-122.165604">
        <ele>200.9</ele>
        <time>2015-05-13T18:47:04Z</time>
      </trkpt>
      <trkpt lat="37.358057" lon="-122.165552">
        <ele>201.3</ele>
        <time>2015-05-13T18:47:06Z</time>
      </trkpt>
      <trkpt lat="37.358058" lon="-122.165473">
        <ele>202</ele>
        <time>2015-05-13T18:47:09Z</time>
      </trkpt>
      <trkpt lat="37.35806" lon="-122.165449">
        <ele>202.2</ele>
        <time>2015-05-13T18:47:10Z</time>
      </trkpt>
      <trkpt lat="37.358073" lon="-122.165403">
        <ele>202.9</ele>
        <time>2015-05-13T18:47:13Z</time>
      </trkpt>
      <trkpt lat="37.358081" lon="-122.165365">
        <ele>203.6</ele>
        <time>2015-05-13T18:47:14Z</time>
      </trkpt>
      <trkpt lat="37.358096" lon="-122.165309">
        <ele>204</ele>
        <time>2015-05-13T18:47:18Z</time>
      </trkpt>
      <trkpt lat="37.358118" lon="-122.165264">
        <ele>204.6</ele>
        <time>2015-05-13T18:47:19Z</time>
      </trkpt>
      <trkpt lat="37.358129" lon="-122.165225">
        <ele>204.9</ele>
        <time>2015-05-13T18:47:21Z</time>
      </trkpt>
      <trkpt lat="37.358131" lon="-122.165186">
        <ele>205.3</ele>
        <time>2015-05-13T18:47:23Z</time>
      </trkpt>
      <trkpt lat="37.358125" lon="-122.165136">
        <ele>205.8</ele>
        <time>2015-05-13T18:47:27Z</time>
      </trkpt>
      <trkpt lat="37.358103" lon="-122.165096">
        <ele>206.3</ele>
        <time>2015-05-13T18:47:29Z</time>
      </trkpt>
      <trkpt lat="37.358079" lon="-122.165065">
        <ele>206.7</ele>
        <time>2015-05-13T18:47:31Z</time>
      </trkpt>
      <trkpt lat="37.358052" lon="-122.165033">
        <ele>207.1</ele>
        <time>2015-05-13T18:47:33Z</time>
      </trkpt>
      <trkpt lat="37.358031" lon="-122.165">
        <ele>207.8</ele>
        <time>2015-05-13T18:47:35Z</time>
      </trkpt>
      <trkpt lat="37.358013" lon="-122.164952">
        <ele>208.4</ele>
        <time>2015-05-13T18:47:37Z</time>
      </trkpt>
      <trkpt lat="37.358004" lon="-122.164906">
        <ele>208.9</ele>
        <time>2015-05-13T18:47:39Z</time>
      </trkpt>
      <trkpt lat="37.357991" lon="-122.164858">
        <ele>209.4</ele>
        <time>2015-05-13T18:47:41Z</time>
      </trkpt>
      <trkpt lat="37.357978" lon="-122.164797">
        <ele>210</ele>
        <time>2015-05-13T18:47:43Z</time>
      </trkpt>
      <trkpt lat="37.357973" lon="-122.164701">
        <ele>210.9</ele>
        <time>2015-05-13T18:47:45Z</time>
      </trkpt>
      <trkpt lat="37.357976" lon="-122.16467">
        <ele>211.3</ele>
        <time>2015-05-13T18:47:46Z</time>
      </trkpt>
      <trkpt lat="37.357989" lon="-122.16461">
        <ele>212.1</ele>
        <time>2015-05-13T18:47:48Z</time>
      </trkpt>
      <trkpt lat="37.358007" lon="-122.164559">
        <ele>212.7</ele>
        <time>2015-05-13T18:47:50Z</time>
      </trkpt>
      <trkpt lat="37.358023" lon="-122.164512">
        <ele>213.2</ele>
        <time>2015-05-13T18:47:52Z</time>
      </trkpt>
      <trkpt lat="37.358048" lon="-122.164476">
        <ele>213.6</ele>
        <time>2015-05-13T18:47:54Z</time>
      </trkpt>
      <trkpt lat="37.358078" lon="-122.164449">
        <ele>213.7</ele>
        <time>2015-05-13T18:47:56Z</time>
      </trkpt>
      <trkpt lat="37.358122" lon="-122.164424">
        <ele>213.6</ele>
        <time>2015-05-13T18:47:59Z</time>
      </trkpt>
      <trkpt lat="37.358171" lon="-122.164416">
        <ele>213.5</ele>
        <time>2015-05-13T18:48:00Z</time>
      </trkpt>
      <trkpt lat="37.358217" lon="-122.164429">
        <ele>213.4</ele>
        <time>2015-05-13T18:48:02Z</time>
      </trkpt>
      <trkpt lat="37.35827" lon="-122.164468">
        <ele>214.6</ele>
        <time>2015-05-13T18:48:05Z</time>
      </trkpt>
      <trkpt lat="37.358292" lon="-122.164487">
        <ele>215.4</ele>
        <time>2015-05-13T18:48:06Z</time>
      </trkpt>
      <trkpt lat="37.358329" lon="-122.16452">
        <ele>216.3</ele>
        <time>2015-05-13T18:48:09Z</time>
      </trkpt>
      <trkpt lat="37.358364" lon="-122.164552">
        <ele>216.8</ele>
        <time>2015-05-13T18:48:10Z</time>
      </trkpt>
      <trkpt lat="37.358398" lon="-122.164598">
        <ele>217.2</ele>
        <time>2015-05-13T18:48:13Z</time>
      </trkpt>
      <trkpt lat="37.35843" lon="-122.164647">
        <ele>217.7</ele>
        <time>2015-05-13T18:48:15Z</time>
      </trkpt>
      <trkpt lat="37.358464" lon="-122.164688">
        <ele>218.4</ele>
        <time>2015-05-13T18:48:17Z</time>
      </trkpt>
      <trkpt lat="37.358499" lon="-122.164733">
        <ele>219.4</ele>
        <time>2015-05-13T18:48:19Z</time>
      </trkpt>
      <trkpt lat="37.358532" lon="-122.164781">
        <ele>220.4</ele>
        <time>2015-05-13T18:48:21Z</time>
      </trkpt>
      <trkpt lat="37.358569" lon="-122.164827">
        <ele>222.3</ele>
        <time>2015-05-13T18:48:22Z</time>
      </trkpt>
      <trkpt lat="37.358581" lon="-122.164841">
        <ele>223.2</ele>
        <time>2015-05-13T18:48:24Z</time>
      </trkpt>
      <trkpt lat="37.358595" lon="-122.164871">
        <ele>224.4</ele>
        <time>2015-05-13T18:48:25Z</time>
      </trkpt>
      <trkpt lat="37.358591" lon="-122.164925">
        <ele>225.1</ele>
        <time>2015-05-13T18:48:28Z</time>
      </trkpt>
      <trkpt lat="37.358579" lon="-122.164964">
        <ele>225.5</ele>
        <time>2015-05-13T18:48:30Z</time>
      </trkpt>
      <trkpt lat="37.358566" lon="-122.165005">
        <ele>226.4</ele>
        <time>2015-05-13T18:48:32Z</time>
      </trkpt>
      <trkpt lat="37.358554" lon="-122.165047">
        <ele>227</ele>
        <time>2015-05-13T18:48:34Z</time>
      </trkpt>
      <trkpt lat="37.358539" lon="-122.165095">
        <ele>227.6</ele>
        <time>2015-05-13T18:48:36Z</time>
      </trkpt>
      <trkpt lat="37.358516" lon="-122.165156">
        <ele>227.3</ele>
        <time>2015-05-13T18:48:39Z</time>
      </trkpt>
      <trkpt lat="37.358508" lon="-122.165174">
        <ele>226.9</ele>
        <time>2015-05-13T18:48:40Z</time>
      </trkpt>
      <trkpt lat="37.358495" lon="-122.165217">
        <ele>226.5</ele>
        <time>2015-05-13T18:48:42Z</time>
      </trkpt>
      <trkpt lat="37.358489" lon="-122.165264">
        <ele>227.8</ele>
        <time>2015-05-13T18:48:44Z</time>
      </trkpt>
      <trkpt lat="37.358487" lon="-122.165303">
        <ele>228.1</ele>
        <time>2015-05-13T18:48:46Z</time>
      </trkpt>
      <trkpt lat="37.358478" lon="-122.16535">
        <ele>226.8</ele>
        <time>2015-05-13T18:48:48Z</time>
      </trkpt>
      <trkpt lat="37.358472" lon="-122.16539">
        <ele>226.2</ele>
        <time>2015-05-13T18:48:50Z</time>
      </trkpt>
      <trkpt lat="37.358473" lon="-122.165431">
        <ele>226.2</ele>
        <time>2015-05-13T18:48:52Z</time>
      </trkpt>
      <trkpt lat="37.358483" lon="-122.165479">
        <ele>227.3</ele>
        <time>2015-05-13T18:48:54Z</time>
      </trkpt>
      <trkpt lat="37.358503" lon="-122.16552">
        <ele>227.5</ele>
        <time>2015-05-13T18:48:56Z</time>
      </trkpt>
      <trkpt lat="37.358543" lon="-122.165565">
        <ele>227.9</ele>
        <time>2015-05-13T18:48:59Z</time>
      </trkpt>
      <trkpt lat="37.358561" lon="-122.165574">
        <ele>227.9</ele>
        <time>2015-05-13T18:49:00Z</time>
      </trkpt>
      <trkpt lat="37.358598" lon="-122.165583">
        <ele>228.3</ele>
        <time>2015-05-13T18:49:03Z</time>
      </trkpt>
      <trkpt lat="37.358634" lon="-122.165579">
        <ele>228.9</ele>
        <time>2015-05-13T18:49:04Z</time>
      </trkpt>
      <trkpt lat="37.358671" lon="-122.16556">
        <ele>229.4</ele>
        <time>2015-05-13T18:49:06Z</time>
      </trkpt>
      <trkpt lat="37.358709" lon="-122.165535">
        <ele>229.8</ele>
        <time>2015-05-13T18:49:08Z</time>
      </trkpt>
      <trkpt lat="37.358742" lon="-122.1655">
        <ele>230.4</ele>
        <time>2015-05-13T18:49:10Z</time>
      </trkpt>
      <trkpt lat="37.358797" lon="-122.165448">
        <ele>231.3</ele>
        <time>2015-05-13T18:49:13Z</time>
      </trkpt>
      <trkpt lat="37.358816" lon="-122.165432">
        <ele>231.5</ele>
        <time>2015-05-13T18:49:14Z</time>
      </trkpt>
      <trkpt lat="37.35887" lon="-122.165394">
        <ele>232.3</ele>
        <time>2015-05-13T18:49:17Z</time>
      </trkpt>
      <trkpt lat="37.358888" lon="-122.165385">
        <ele>232.4</ele>
        <time>2015-05-13T18:49:18Z</time>
      </trkpt>
      <trkpt lat="37.358933" lon="-122.165375">
        <ele>233.1</ele>
        <time>2015-05-13T18:49:20Z</time>
      </trkpt>
      <trkpt lat="37.358972" lon="-122.165376">
        <ele>234.5</ele>
        <time>2015-05-13T18:49:22Z</time>
      </trkpt>
      <trkpt lat="37.35901" lon="-122.165375">
        <ele>236.2</ele>
        <time>2015-05-13T18:49:24Z</time>
      </trkpt>
      <trkpt lat="37.359044" lon="-122.165381">
        <ele>237.8</ele>
        <time>2015-05-13T18:49:26Z</time>
      </trkpt>
      <trkpt lat="37.359076" lon="-122.165405">
        <ele>238.7</ele>
        <time>2015-05-13T18:49:28Z</time>
      </trkpt>
      <trkpt lat="37.359105" lon="-122.165429">
        <ele>239.2</ele>
        <time>2015-05-13T18:49:30Z</time>
      </trkpt>
      <trkpt lat="37.359132" lon="-122.165444">
        <ele>239.9</ele>
        <time>2015-05-13T18:49:32Z</time>
      </trkpt>
      <trkpt lat="37.359156" lon="-122.165469">
        <ele>239.8</ele>
        <time>2015-05-13T18:49:35Z</time>
      </trkpt>
      <trkpt lat="37.359181" lon="-122.165504">
        <ele>239.4</ele>
        <time>2015-05-13T18:49:36Z</time>
      </trkpt>
      <trkpt lat="37.359203" lon="-122.165539">
        <ele>239.1</ele>
        <time>2015-05-13T18:49:39Z</time>
      </trkpt>
      <trkpt lat="37.359224" lon="-122.165574">
        <ele>239.4</ele>
        <time>2015-05-13T18:49:40Z</time>
      </trkpt>
      <trkpt lat="37.359245" lon="-122.165608">
        <ele>240.6</ele>
        <time>2015-05-13T18:49:43Z</time>
      </trkpt>
      <trkpt lat="37.359274" lon="-122.165668">
        <ele>242</ele>
        <time>2015-05-13T18:49:45Z</time>
      </trkpt>
      <trkpt lat="37.359283" lon="-122.165684">
        <ele>242.3</ele>
        <time>2015-05-13T18:49:46Z</time>
      </trkpt>
      <trkpt lat="37.359311" lon="-122.165732">
        <ele>242.7</ele>
        <time>2015-05-13T18:49:49Z</time>
      </trkpt>
      <trkpt lat="37.359322" lon="-122.165753">
        <ele>242.7</ele>
        <time>2015-05-13T18:49:50Z</time>
      </trkpt>
      <trkpt lat="37.359344" lon="-122.165796">
        <ele>242.8</ele>
        <time>2015-05-13T18:49:53Z</time>
      </trkpt>
      <trkpt lat="37.359363" lon="-122.165831">
        <ele>242.9</ele>
        <time>2015-05-13T18:49:54Z</time>
      </trkpt>
      <trkpt lat="37.359376" lon="-122.165893">
        <ele>242.2</ele>
        <time>2015-05-13T18:49:58Z</time>
      </trkpt>
      <trkpt lat="37.35938" lon="-122.165913">
        <ele>242.2</ele>
        <time>2015-05-13T18:49:59Z</time>
      </trkpt>
      <trkpt lat="37.359385" lon="-122.165955">
        <ele>242.7</ele>
        <time>2015-05-13T18:50:01Z</time>
      </trkpt>
      <trkpt lat="37.359382" lon="-122.165999">
        <ele>243.4</ele>
        <time>2015-05-13T18:50:03Z</time>
      </trkpt>
      <trkpt lat="37.359375" lon="-122.166045">
        <ele>244.3</ele>
        <time>2015-05-13T18:50:05Z</time>
      </trkpt>
      <trkpt lat="37.35936" lon="-122.166091">
        <ele>245.2</ele>
        <time>2015-05-13T18:50:08Z</time>
      </trkpt>
      <trkpt lat="37.359366" lon="-122.166137">
        <ele>246.7</ele>
        <time>2015-05-13T18:50:11Z</time>
      </trkpt>
      <trkpt lat="37.359364" lon="-122.166176">
        <ele>247.6</ele>
        <time>2015-05-13T18:50:13Z</time>
      </trkpt>
      <trkpt lat="37.359362" lon="-122.166225">
        <ele>248.6</ele>
        <time>2015-05-13T18:50:16Z</time>
      </trkpt>
      <trkpt lat="37.359358" lon="-122.166271">
        <ele>248.6</ele>
        <time>2015-05-13T18:50:17Z</time>
      </trkpt>
      <trkpt lat="37.359349" lon="-122.166307">
        <ele>247.8</ele>
        <time>2015-05-13T18:50:19Z</time>
      </trkpt>
      <trkpt lat="37.359341" lon="-122.166342">
        <ele>247.1</ele>
        <time>2015-05-13T18:50:21Z</time>
      </trkpt>
      <trkpt lat="37.359339" lon="-122.166379">
        <ele>246.8</ele>
        <time>2015-05-13T18:50:23Z</time>
      </trkpt>
      <trkpt lat="37.359351" lon="-122.166447">
        <ele>247.3</ele>
        <time>2015-05-13T18:50:26Z</time>
      </trkpt>
      <trkpt lat="37.359358" lon="-122.166459">
        <ele>247.5</ele>
        <time>2015-05-13T18:50:27Z</time>
      </trkpt>
      <trkpt lat="37.359374" lon="-122.166492">
        <ele>247.8</ele>
        <time>2015-05-13T18:50:29Z</time>
      </trkpt>
      <trkpt lat="37.359392" lon="-122.166527">
        <ele>247.9</ele>
        <time>2015-05-13T18:50:31Z</time>
      </trkpt>
      <trkpt lat="37.359416" lon="-122.166562">
        <ele>248.5</ele>
        <time>2015-05-13T18:50:33Z</time>
      </trkpt>
      <trkpt lat="37.359443" lon="-122.16659">
        <ele>249.1</ele>
        <time>2015-05-13T18:50:35Z</time>
      </trkpt>
      <trkpt lat="37.359473" lon="-122.166616">
        <ele>249.5</ele>
        <time>2015-05-13T18:50:38Z</time>
      </trkpt>
      <trkpt lat="37.359498" lon="-122.166639">
        <ele>249.7</ele>
        <time>2015-05-13T18:50:39Z</time>
      </trkpt>
      <trkpt lat="37.359528" lon="-122.166665">
        <ele>249.9</ele>
        <time>2015-05-13T18:50:41Z</time>
      </trkpt>
      <trkpt lat="37.359576" lon="-122.16669">
        <ele>250.5</ele>
        <time>2015-05-13T18:50:44Z</time>
      </trkpt>
      <trkpt lat="37.35959" lon="-122.166695">
        <ele>250.7</ele>
        <time>2015-05-13T18:50:45Z</time>
      </trkpt>
      <trkpt lat="37.359627" lon="-122.166711">
        <ele>251.2</ele>
        <time>2015-05-13T18:50:48Z</time>
      </trkpt>
      <trkpt lat="37.359655" lon="-122.166735">
        <ele>251.7</ele>
        <time>2015-05-13T18:50:50Z</time>
      </trkpt>
      <trkpt lat="37.359681" lon="-122.166764">
        <ele>252.1</ele>
        <time>2015-05-13T18:50:53Z</time>
      </trkpt>
      <trkpt lat="37.359713" lon="-122.166789">
        <ele>252.9</ele>
        <time>2015-05-13T18:50:56Z</time>
      </trkpt>
      <trkpt lat="37.359736" lon="-122.166809">
        <ele>253.5</ele>
        <time>2015-05-13T18:50:58Z</time>
      </trkpt>
      <trkpt lat="37.359755" lon="-122.166854">
        <ele>254</ele>
        <time>2015-05-13T18:51:01Z</time>
      </trkpt>
      <trkpt lat="37.359761" lon="-122.16689">
        <ele>254.2</ele>
        <time>2015-05-13T18:51:03Z</time>
      </trkpt>
      <trkpt lat="37.359765" lon="-122.166953">
        <ele>256.6</ele>
        <time>2015-05-13T18:51:07Z</time>
      </trkpt>
      <trkpt lat="37.359763" lon="-122.166982">
        <ele>257.3</ele>
        <time>2015-05-13T18:51:09Z</time>
      </trkpt>
      <trkpt lat="37.359756" lon="-122.167028">
        <ele>257.4</ele>
        <time>2015-05-13T18:51:12Z</time>
      </trkpt>
      <trkpt lat="37.359755" lon="-122.167062">
        <ele>257.9</ele>
        <time>2015-05-13T18:51:14Z</time>
      </trkpt>
      <trkpt lat="37.359755" lon="-122.167101">
        <ele>258</ele>
        <time>2015-05-13T18:51:18Z</time>
      </trkpt>
      <trkpt lat="37.359768" lon="-122.167131">
        <ele>258.6</ele>
        <time>2015-05-13T18:51:20Z</time>
      </trkpt>
      <trkpt lat="37.359783" lon="-122.167164">
        <ele>259.1</ele>
        <time>2015-05-13T18:51:21Z</time>
      </trkpt>
      <trkpt lat="37.359798" lon="-122.167192">
        <ele>259.3</ele>
        <time>2015-05-13T18:51:24Z</time>
      </trkpt>
      <trkpt lat="37.359814" lon="-122.167223">
        <ele>259.7</ele>
        <time>2015-05-13T18:51:25Z</time>
      </trkpt>
      <trkpt lat="37.359836" lon="-122.167252">
        <ele>260.7</ele>
        <time>2015-05-13T18:51:27Z</time>
      </trkpt>
      <trkpt lat="37.359859" lon="-122.167281">
        <ele>261.2</ele>
        <time>2015-05-13T18:51:29Z</time>
      </trkpt>
      <trkpt lat="37.359888" lon="-122.167318">
        <ele>261</ele>
        <time>2015-05-13T18:51:31Z</time>
      </trkpt>
      <trkpt lat="37.359913" lon="-122.167348">
        <ele>261.7</ele>
        <time>2015-05-13T18:51:33Z</time>
      </trkpt>
      <trkpt lat="37.359932" lon="-122.16738">
        <ele>261.3</ele>
        <time>2015-05-13T18:51:35Z</time>
      </trkpt>
      <trkpt lat="37.359956" lon="-122.167415">
        <ele>261.4</ele>
        <time>2015-05-13T18:51:38Z</time>
      </trkpt>
      <trkpt lat="37.359966" lon="-122.167462">
        <ele>261.1</ele>
        <time>2015-05-13T18:51:40Z</time>
      </trkpt>
      <trkpt lat="37.35998" lon="-122.167506">
        <ele>261</ele>
        <time>2015-05-13T18:51:43Z</time>
      </trkpt>
      <trkpt lat="37.359988" lon="-122.167542">
        <ele>261.6</ele>
        <time>2015-05-13T18:51:45Z</time>
      </trkpt>
      <trkpt lat="37.359997" lon="-122.167596">
        <ele>263.4</ele>
        <time>2015-05-13T18:51:48Z</time>
      </trkpt>
      <trkpt lat="37.359997" lon="-122.167615">
        <ele>263.9</ele>
        <time>2015-05-13T18:51:49Z</time>
      </trkpt>
      <trkpt lat="37.359995" lon="-122.167686">
        <ele>265.9</ele>
        <time>2015-05-13T18:51:53Z</time>
      </trkpt>
      <trkpt lat="37.359994" lon="-122.16771">
        <ele>266.5</ele>
        <time>2015-05-13T18:51:54Z</time>
      </trkpt>
      <trkpt lat="37.359992" lon="-122.167749">
        <ele>267.5</ele>
        <time>2015-05-13T18:51:56Z</time>
      </trkpt>
      <trkpt lat="37.35999" lon="-122.167787">
        <ele>267.9</ele>
        <time>2015-05-13T18:51:58Z</time>
      </trkpt>
      <trkpt lat="37.359988" lon="-122.167826">
        <ele>267.5</ele>
        <time>2015-05-13T18:52:01Z</time>
      </trkpt>
      <trkpt lat="37.359992" lon="-122.167864">
        <ele>267.7</ele>
        <time>2015-05-13T18:52:02Z</time>
      </trkpt>
      <trkpt lat="37.360001" lon="-122.167901">
        <ele>268.1</ele>
        <time>2015-05-13T18:52:05Z</time>
      </trkpt>
      <trkpt lat="37.360009" lon="-122.167946">
        <ele>267.9</ele>
        <time>2015-05-13T18:52:06Z</time>
      </trkpt>
      <trkpt lat="37.360016" lon="-122.167993">
        <ele>266.5</ele>
        <time>2015-05-13T18:52:08Z</time>
      </trkpt>
      <trkpt lat="37.360033" lon="-122.168053">
        <ele>266.9</ele>
        <time>2015-05-13T18:52:11Z</time>
      </trkpt>
      <trkpt lat="37.360043" lon="-122.168068">
        <ele>266.8</ele>
        <time>2015-05-13T18:52:12Z</time>
      </trkpt>
      <trkpt lat="37.360072" lon="-122.168099">
        <ele>267.4</ele>
        <time>2015-05-13T18:52:14Z</time>
      </trkpt>
      <trkpt lat="37.360099" lon="-122.168125">
        <ele>268.1</ele>
        <time>2015-05-13T18:52:16Z</time>
      </trkpt>
      <trkpt lat="37.36013" lon="-122.168159">
        <ele>268.4</ele>
        <time>2015-05-13T18:52:18Z</time>
      </trkpt>
      <trkpt lat="37.360156" lon="-122.168183">
        <ele>268.8</ele>
        <time>2015-05-13T18:52:20Z</time>
      </trkpt>
      <trkpt lat="37.360203" lon="-122.168219">
        <ele>269.5</ele>
        <time>2015-05-13T18:52:23Z</time>
      </trkpt>
      <trkpt lat="37.360217" lon="-122.168228">
        <ele>269.6</ele>
        <time>2015-05-13T18:52:24Z</time>
      </trkpt>
      <trkpt lat="37.360244" lon="-122.168243">
        <ele>270.2</ele>
        <time>2015-05-13T18:52:26Z</time>
      </trkpt>
      <trkpt lat="37.360272" lon="-122.168255">
        <ele>270.7</ele>
        <time>2015-05-13T18:52:28Z</time>
      </trkpt>
      <trkpt lat="37.360308" lon="-122.168291">
        <ele>271</ele>
        <time>2015-05-13T18:52:31Z</time>
      </trkpt>
      <trkpt lat="37.36034" lon="-122.168312">
        <ele>271.5</ele>
        <time>2015-05-13T18:52:33Z</time>
      </trkpt>
      <trkpt lat="37.360372" lon="-122.168318">
        <ele>271.8</ele>
        <time>2015-05-13T18:52:34Z</time>
      </trkpt>
      <trkpt lat="37.360405" lon="-122.168323">
        <ele>272.3</ele>
        <time>2015-05-13T18:52:37Z</time>
      </trkpt>
      <trkpt lat="37.360441" lon="-122.16834">
        <ele>273</ele>
        <time>2015-05-13T18:52:38Z</time>
      </trkpt>
      <trkpt lat="37.360471" lon="-122.168356">
        <ele>273.4</ele>
        <time>2015-05-13T18:52:40Z</time>
      </trkpt>
      <trkpt lat="37.360505" lon="-122.168359">
        <ele>273.9</ele>
        <time>2015-05-13T18:52:42Z</time>
      </trkpt>
      <trkpt lat="37.360536" lon="-122.168383">
        <ele>274.8</ele>
        <time>2015-05-13T18:52:44Z</time>
      </trkpt>
      <trkpt lat="37.360557" lon="-122.168406">
        <ele>275.7</ele>
        <time>2015-05-13T18:52:46Z</time>
      </trkpt>
      <trkpt lat="37.360581" lon="-122.16843">
        <ele>277</ele>
        <time>2015-05-13T18:52:48Z</time>
      </trkpt>
      <trkpt lat="37.360601" lon="-122.168459">
        <ele>278.3</ele>
        <time>2015-05-13T18:52:50Z</time>
      </trkpt>
      <trkpt lat="37.360607" lon="-122.168499">
        <ele>279.1</ele>
        <time>2015-05-13T18:52:52Z</time>
      </trkpt>
      <trkpt lat="37.360607" lon="-122.168546">
        <ele>279.9</ele>
        <time>2015-05-13T18:52:54Z</time>
      </trkpt>
      <trkpt lat="37.360601" lon="-122.168588">
        <ele>280.3</ele>
        <time>2015-05-13T18:52:56Z</time>
      </trkpt>
      <trkpt lat="37.3606" lon="-122.168628">
        <ele>280.4</ele>
        <time>2015-05-13T18:52:58Z</time>
      </trkpt>
      <trkpt lat="37.360598" lon="-122.168672">
        <ele>279.9</ele>
        <time>2015-05-13T18:53:00Z</time>
      </trkpt>
      <trkpt lat="37.360604" lon="-122.168719">
        <ele>279.7</ele>
        <time>2015-05-13T18:53:02Z</time>
      </trkpt>
      <trkpt lat="37.360617" lon="-122.168765">
        <ele>279.9</ele>
        <time>2015-05-13T18:53:04Z</time>
      </trkpt>
      <trkpt lat="37.360626" lon="-122.16881">
        <ele>279.9</ele>
        <time>2015-05-13T18:53:06Z</time>
      </trkpt>
      <trkpt lat="37.360627" lon="-122.168849">
        <ele>279.8</ele>
        <time>2015-05-13T18:53:08Z</time>
      </trkpt>
      <trkpt lat="37.360629" lon="-122.16889">
        <ele>280</ele>
        <time>2015-05-13T18:53:10Z</time>
      </trkpt>
      <trkpt lat="37.360632" lon="-122.168933">
        <ele>280.3</ele>
        <time>2015-05-13T18:53:12Z</time>
      </trkpt>
      <trkpt lat="37.360635" lon="-122.168974">
        <ele>280.8</ele>
        <time>2015-05-13T18:53:14Z</time>
      </trkpt>
      <trkpt lat="37.360635" lon="-122.169017">
        <ele>281.6</ele>
        <time>2015-05-13T18:53:16Z</time>
      </trkpt>
      <trkpt lat="37.360627" lon="-122.16906">
        <ele>282.3</ele>
        <time>2015-05-13T18:53:18Z</time>
      </trkpt>
      <trkpt lat="37.360613" lon="-122.1691">
        <ele>282.5</ele>
        <time>2015-05-13T18:53:20Z</time>
      </trkpt>
      <trkpt lat="37.360593" lon="-122.169138">
        <ele>283</ele>
        <time>2015-05-13T18:53:23Z</time>
      </trkpt>
      <trkpt lat="37.360571" lon="-122.169169">
        <ele>282.8</ele>
        <time>2015-05-13T18:53:24Z</time>
      </trkpt>
      <trkpt lat="37.360561" lon="-122.169205">
        <ele>283.6</ele>
        <time>2015-05-13T18:53:26Z</time>
      </trkpt>
      <trkpt lat="37.360559" lon="-122.169243">
        <ele>284.4</ele>
        <time>2015-05-13T18:53:28Z</time>
      </trkpt>
      <trkpt lat="37.360554" lon="-122.169297">
        <ele>285.5</ele>
        <time>2015-05-13T18:53:31Z</time>
      </trkpt>
      <trkpt lat="37.360565" lon="-122.169355">
        <ele>286.9</ele>
        <time>2015-05-13T18:53:33Z</time>
      </trkpt>
      <trkpt lat="37.360572" lon="-122.169396">
        <ele>287.5</ele>
        <time>2015-05-13T18:53:35Z</time>
      </trkpt>
      <trkpt lat="37.360579" lon="-122.16943">
        <ele>287.4</ele>
        <time>2015-05-13T18:53:37Z</time>
      </trkpt>
      <trkpt lat="37.360588" lon="-122.169462">
        <ele>287.5</ele>
        <time>2015-05-13T18:53:39Z</time>
      </trkpt>
      <trkpt lat="37.360604" lon="-122.169501">
        <ele>287.8</ele>
        <time>2015-05-13T18:53:42Z</time>
      </trkpt>
      <trkpt lat="37.360624" lon="-122.16953">
        <ele>288.1</ele>
        <time>2015-05-13T18:53:44Z</time>
      </trkpt>
      <trkpt lat="37.360654" lon="-122.169566">
        <ele>288.5</ele>
        <time>2015-05-13T18:53:46Z</time>
      </trkpt>
      <trkpt lat="37.360683" lon="-122.169598">
        <ele>289.1</ele>
        <time>2015-05-13T18:53:48Z</time>
      </trkpt>
      <trkpt lat="37.36071" lon="-122.16963">
        <ele>289.8</ele>
        <time>2015-05-13T18:53:51Z</time>
      </trkpt>
      <trkpt lat="37.360731" lon="-122.169663">
        <ele>290.3</ele>
        <time>2015-05-13T18:53:53Z</time>
      </trkpt>
      <trkpt lat="37.360752" lon="-122.1697">
        <ele>290.7</ele>
        <time>2015-05-13T18:53:55Z</time>
      </trkpt>
      <trkpt lat="37.360772" lon="-122.169747">
        <ele>291.2</ele>
        <time>2015-05-13T18:53:57Z</time>
      </trkpt>
      <trkpt lat="37.360788" lon="-122.169824">
        <ele>291.5</ele>
        <time>2015-05-13T18:54:00Z</time>
      </trkpt>
      <trkpt lat="37.360788" lon="-122.169847">
        <ele>291.5</ele>
        <time>2015-05-13T18:54:01Z</time>
      </trkpt>
      <trkpt lat="37.360784" lon="-122.169888">
        <ele>291.5</ele>
        <time>2015-05-13T18:54:03Z</time>
      </trkpt>
      <trkpt lat="37.360783" lon="-122.169931">
        <ele>291.6</ele>
        <time>2015-05-13T18:54:05Z</time>
      </trkpt>
      <trkpt lat="37.360797" lon="-122.169968">
        <ele>291.5</ele>
        <time>2015-05-13T18:54:07Z</time>
      </trkpt>
      <trkpt lat="37.360839" lon="-122.16997">
        <ele>291.1</ele>
        <time>2015-05-13T18:54:10Z</time>
      </trkpt>
      <trkpt lat="37.360858" lon="-122.169914">
        <ele>290.7</ele>
        <time>2015-05-13T18:54:12Z</time>
      </trkpt>
      <trkpt lat="37.36086" lon="-122.169854">
        <ele>291.3</ele>
        <time>2015-05-13T18:54:14Z</time>
      </trkpt>
      <trkpt lat="37.36086" lon="-122.169802">
        <ele>291.8</ele>
        <time>2015-05-13T18:54:16Z</time>
      </trkpt>
      <trkpt lat="37.360857" lon="-122.169754">
        <ele>291.8</ele>
        <time>2015-05-13T18:54:18Z</time>
      </trkpt>
      <trkpt lat="37.36086" lon="-122.169711">
        <ele>291.8</ele>
        <time>2015-05-13T18:54:20Z</time>
      </trkpt>
      <trkpt lat="37.360867" lon="-122.169668">
        <ele>292</ele>
        <time>2015-05-13T18:54:22Z</time>
      </trkpt>
      <trkpt lat="37.360872" lon="-122.169628">
        <ele>292.2</ele>
        <time>2015-05-13T18:54:24Z</time>
      </trkpt>
      <trkpt lat="37.360874" lon="-122.169572">
        <ele>292.3</ele>
        <time>2015-05-13T18:54:26Z</time>
      </trkpt>
      <trkpt lat="37.360877" lon="-122.169533">
        <ele>292.5</ele>
        <time>2015-05-13T18:54:28Z</time>
      </trkpt>
      <trkpt lat="37.360873" lon="-122.169486">
        <ele>292.8</ele>
        <time>2015-05-13T18:54:31Z</time>
      </trkpt>
      <trkpt lat="37.360863" lon="-122.169443">
        <ele>292.6</ele>
        <time>2015-05-13T18:54:34Z</time>
      </trkpt>
      <trkpt lat="37.360855" lon="-122.169398">
        <ele>292.3</ele>
        <time>2015-05-13T18:54:37Z</time>
      </trkpt>
      <trkpt lat="37.360852" lon="-122.16936">
        <ele>292</ele>
        <time>2015-05-13T18:54:39Z</time>
      </trkpt>
      <trkpt lat="37.360849" lon="-122.169314">
        <ele>291.7</ele>
        <time>2015-05-13T18:54:41Z</time>
      </trkpt>
      <trkpt lat="37.360857" lon="-122.169244">
        <ele>291.3</ele>
        <time>2015-05-13T18:54:43Z</time>
      </trkpt>
      <trkpt lat="37.360863" lon="-122.16921">
        <ele>291.3</ele>
        <time>2015-05-13T18:54:44Z</time>
      </trkpt>
      <trkpt lat="37.360891" lon="-122.169167">
        <ele>291.9</ele>
        <time>2015-05-13T18:54:46Z</time>
      </trkpt>
      <trkpt lat="37.360905" lon="-122.169197">
        <ele>292.2</ele>
        <time>2015-05-13T18:54:48Z</time>
      </trkpt>
      <trkpt lat="37.360893" lon="-122.169238">
        <ele>291.8</ele>
        <time>2015-05-13T18:54:49Z</time>
      </trkpt>
      <trkpt lat="37.360878" lon="-122.169275">
        <ele>291.8</ele>
        <time>2015-05-13T18:54:50Z</time>
      </trkpt>
      <trkpt lat="37.360869" lon="-122.169313">
        <ele>292</ele>
        <time>2015-05-13T18:54:51Z</time>
      </trkpt>
      <trkpt lat="37.360863" lon="-122.169351">
        <ele>292.2</ele>
        <time>2015-05-13T18:54:52Z</time>
      </trkpt>
      <trkpt lat="37.360857" lon="-122.169385">
        <ele>292.3</ele>
        <time>2015-05-13T18:54:53Z</time>
      </trkpt>
      <trkpt lat="37.360838" lon="-122.169473">
        <ele>292.5</ele>
        <time>2015-05-13T18:54:56Z</time>
      </trkpt>
      <trkpt lat="37.360833" lon="-122.169501">
        <ele>292.4</ele>
        <time>2015-05-13T18:54:57Z</time>
      </trkpt>
      <trkpt lat="37.36083" lon="-122.169564">
        <ele>292.2</ele>
        <time>2015-05-13T18:54:59Z</time>
      </trkpt>
      <trkpt lat="37.36083" lon="-122.169601">
        <ele>292.1</ele>
        <time>2015-05-13T18:55:00Z</time>
      </trkpt>
      <trkpt lat="37.360831" lon="-122.169651">
        <ele>291.9</ele>
        <time>2015-05-13T18:55:01Z</time>
      </trkpt>
      <trkpt lat="37.360828" lon="-122.16971">
        <ele>291.7</ele>
        <time>2015-05-13T18:55:03Z</time>
      </trkpt>
      <trkpt lat="37.360824" lon="-122.169745">
        <ele>291.7</ele>
        <time>2015-05-13T18:55:04Z</time>
      </trkpt>
      <trkpt lat="37.36083" lon="-122.169799">
        <ele>291.6</ele>
        <time>2015-05-13T18:55:06Z</time>
      </trkpt>
      <trkpt lat="37.360834" lon="-122.169843">
        <ele>291.4</ele>
        <time>2015-05-13T18:55:08Z</time>
      </trkpt>
      <trkpt lat="37.360862" lon="-122.169885">
        <ele>290.7</ele>
        <time>2015-05-13T18:55:10Z</time>
      </trkpt>
      <trkpt lat="37.360888" lon="-122.169902">
        <ele>290.3</ele>
        <time>2015-05-13T18:55:11Z</time>
      </trkpt>
      <trkpt lat="37.360918" lon="-122.169902">
        <ele>289.8</ele>
        <time>2015-05-13T18:55:12Z</time>
      </trkpt>
      <trkpt lat="37.360949" lon="-122.169893">
        <ele>289.2</ele>
        <time>2015-05-13T18:55:13Z</time>
      </trkpt>
      <trkpt lat="37.360985" lon="-122.169874">
        <ele>288.4</ele>
        <time>2015-05-13T18:55:14Z</time>
      </trkpt>
      <trkpt lat="37.361038" lon="-122.169859">
        <ele>287.3</ele>
        <time>2015-05-13T18:55:15Z</time>
      </trkpt>
      <trkpt lat="37.361094" lon="-122.169831">
        <ele>286.2</ele>
        <time>2015-05-13T18:55:16Z</time>
      </trkpt>
      <trkpt lat="37.361152" lon="-122.169802">
        <ele>285.3</ele>
        <time>2015-05-13T18:55:17Z</time>
      </trkpt>
      <trkpt lat="37.361211" lon="-122.169789">
        <ele>284.4</ele>
        <time>2015-05-13T18:55:18Z</time>
      </trkpt>
      <trkpt lat="37.361274" lon="-122.169779">
        <ele>283.8</ele>
        <time>2015-05-13T18:55:19Z</time>
      </trkpt>
      <trkpt lat="37.36134" lon="-122.169792">
        <ele>283.3</ele>
        <time>2015-05-13T18:55:20Z</time>
      </trkpt>
      <trkpt lat="37.361393" lon="-122.169808">
        <ele>282.9</ele>
        <time>2015-05-13T18:55:21Z</time>
      </trkpt>
      <trkpt lat="37.361439" lon="-122.169827">
        <ele>282.5</ele>
        <time>2015-05-13T18:55:22Z</time>
      </trkpt>
      <trkpt lat="37.361488" lon="-122.169854">
        <ele>282</ele>
        <time>2015-05-13T18:55:23Z</time>
      </trkpt>
      <trkpt lat="37.361545" lon="-122.169874">
        <ele>281.1</ele>
        <time>2015-05-13T18:55:24Z</time>
      </trkpt>
      <trkpt lat="37.361607" lon="-122.169889">
        <ele>280.4</ele>
        <time>2015-05-13T18:55:25Z</time>
      </trkpt>
      <trkpt lat="37.361681" lon="-122.169911">
        <ele>279.8</ele>
        <time>2015-05-13T18:55:26Z</time>
      </trkpt>
      <trkpt lat="37.36175" lon="-122.169918">
        <ele>279.4</ele>
        <time>2015-05-13T18:55:27Z</time>
      </trkpt>
      <trkpt lat="37.361816" lon="-122.169931">
        <ele>278.6</ele>
        <time>2015-05-13T18:55:28Z</time>
      </trkpt>
      <trkpt lat="37.361879" lon="-122.169952">
        <ele>277.8</ele>
        <time>2015-05-13T18:55:29Z</time>
      </trkpt>
      <trkpt lat="37.361945" lon="-122.169978">
        <ele>277.2</ele>
        <time>2015-05-13T18:55:30Z</time>
      </trkpt>
      <trkpt lat="37.362005" lon="-122.169996">
        <ele>276.7</ele>
        <time>2015-05-13T18:55:31Z</time>
      </trkpt>
      <trkpt lat="37.36206" lon="-122.170018">
        <ele>276.2</ele>
        <time>2015-05-13T18:55:32Z</time>
      </trkpt>
      <trkpt lat="37.362112" lon="-122.170062">
        <ele>275.6</ele>
        <time>2015-05-13T18:55:33Z</time>
      </trkpt>
      <trkpt lat="37.362158" lon="-122.17012">
        <ele>274.9</ele>
        <time>2015-05-13T18:55:34Z</time>
      </trkpt>
      <trkpt lat="37.362203" lon="-122.170165">
        <ele>274.1</ele>
        <time>2015-05-13T18:55:35Z</time>
      </trkpt>
      <trkpt lat="37.362232" lon="-122.170235">
        <ele>273.2</ele>
        <time>2015-05-13T18:55:36Z</time>
      </trkpt>
      <trkpt lat="37.362258" lon="-122.170301">
        <ele>271.8</ele>
        <time>2015-05-13T18:55:37Z</time>
      </trkpt>
      <trkpt lat="37.362255" lon="-122.170407">
        <ele>271.6</ele>
        <time>2015-05-13T18:55:38Z</time>
      </trkpt>
      <trkpt lat="37.362266" lon="-122.170478">
        <ele>270.7</ele>
        <time>2015-05-13T18:55:39Z</time>
      </trkpt>
      <trkpt lat="37.362285" lon="-122.170542">
        <ele>269.5</ele>
        <time>2015-05-13T18:55:40Z</time>
      </trkpt>
      <trkpt lat="37.362302" lon="-122.170626">
        <ele>268.8</ele>
        <time>2015-05-13T18:55:41Z</time>
      </trkpt>
      <trkpt lat="37.362327" lon="-122.170698">
        <ele>268.9</ele>
        <time>2015-05-13T18:55:42Z</time>
      </trkpt>
      <trkpt lat="37.362354" lon="-122.170769">
        <ele>268.1</ele>
        <time>2015-05-13T18:55:43Z</time>
      </trkpt>
      <trkpt lat="37.36238" lon="-122.170855">
        <ele>267.2</ele>
        <time>2015-05-13T18:55:44Z</time>
      </trkpt>
      <trkpt lat="37.362399" lon="-122.170938">
        <ele>266.2</ele>
        <time>2015-05-13T18:55:45Z</time>
      </trkpt>
      <trkpt lat="37.362416" lon="-122.171032">
        <ele>265.1</ele>
        <time>2015-05-13T18:55:46Z</time>
      </trkpt>
      <trkpt lat="37.36243" lon="-122.171114">
        <ele>264.5</ele>
        <time>2015-05-13T18:55:47Z</time>
      </trkpt>
      <trkpt lat="37.36245" lon="-122.17117">
        <ele>263.2</ele>
        <time>2015-05-13T18:55:48Z</time>
      </trkpt>
      <trkpt lat="37.36245" lon="-122.171242">
        <ele>263.2</ele>
        <time>2015-05-13T18:55:49Z</time>
      </trkpt>
      <trkpt lat="37.362463" lon="-122.171319">
        <ele>263.1</ele>
        <time>2015-05-13T18:55:50Z</time>
      </trkpt>
      <trkpt lat="37.362469" lon="-122.171409">
        <ele>262.4</ele>
        <time>2015-05-13T18:55:51Z</time>
      </trkpt>
      <trkpt lat="37.362495" lon="-122.171469">
        <ele>261.2</ele>
        <time>2015-05-13T18:55:52Z</time>
      </trkpt>
      <trkpt lat="37.362509" lon="-122.171546">
        <ele>260.7</ele>
        <time>2015-05-13T18:55:53Z</time>
      </trkpt>
      <trkpt lat="37.362548" lon="-122.171612">
        <ele>259.8</ele>
        <time>2015-05-13T18:55:54Z</time>
      </trkpt>
      <trkpt lat="37.362579" lon="-122.171686">
        <ele>259.2</ele>
        <time>2015-05-13T18:55:55Z</time>
      </trkpt>
      <trkpt lat="37.362611" lon="-122.171768">
        <ele>258.6</ele>
        <time>2015-05-13T18:55:56Z</time>
      </trkpt>
      <trkpt lat="37.362685" lon="-122.171803">
        <ele>258</ele>
        <time>2015-05-13T18:55:57Z</time>
      </trkpt>
      <trkpt lat="37.362735" lon="-122.171812">
        <ele>257.3</ele>
        <time>2015-05-13T18:55:58Z</time>
      </trkpt>
      <trkpt lat="37.362778" lon="-122.17182">
        <ele>256.7</ele>
        <time>2015-05-13T18:55:59Z</time>
      </trkpt>
      <trkpt lat="37.362834" lon="-122.171811">
        <ele>256.1</ele>
        <time>2015-05-13T18:56:00Z</time>
      </trkpt>
      <trkpt lat="37.362886" lon="-122.171798">
        <ele>255.9</ele>
        <time>2015-05-13T18:56:01Z</time>
      </trkpt>
      <trkpt lat="37.362937" lon="-122.17176">
        <ele>255.6</ele>
        <time>2015-05-13T18:56:02Z</time>
      </trkpt>
      <trkpt lat="37.362959" lon="-122.171701">
        <ele>255.3</ele>
        <time>2015-05-13T18:56:03Z</time>
      </trkpt>
      <trkpt lat="37.362969" lon="-122.171624">
        <ele>254.9</ele>
        <time>2015-05-13T18:56:04Z</time>
      </trkpt>
      <trkpt lat="37.362973" lon="-122.17154">
        <ele>254.6</ele>
        <time>2015-05-13T18:56:05Z</time>
      </trkpt>
      <trkpt lat="37.362975" lon="-122.171446">
        <ele>254.3</ele>
        <time>2015-05-13T18:56:06Z</time>
      </trkpt>
      <trkpt lat="37.362976" lon="-122.171353">
        <ele>254</ele>
        <time>2015-05-13T18:56:07Z</time>
      </trkpt>
      <trkpt lat="37.362967" lon="-122.171262">
        <ele>253.7</ele>
        <time>2015-05-13T18:56:08Z</time>
      </trkpt>
      <trkpt lat="37.362961" lon="-122.17116">
        <ele>253.4</ele>
        <time>2015-05-13T18:56:09Z</time>
      </trkpt>
      <trkpt lat="37.362947" lon="-122.171063">
        <ele>253.1</ele>
        <time>2015-05-13T18:56:10Z</time>
      </trkpt>
      <trkpt lat="37.362938" lon="-122.170968">
        <ele>252.8</ele>
        <time>2015-05-13T18:56:11Z</time>
      </trkpt>
      <trkpt lat="37.362931" lon="-122.170873">
        <ele>252.6</ele>
        <time>2015-05-13T18:56:12Z</time>
      </trkpt>
      <trkpt lat="37.362923" lon="-122.170766">
        <ele>252.4</ele>
        <time>2015-05-13T18:56:13Z</time>
      </trkpt>
      <trkpt lat="37.362903" lon="-122.17066">
        <ele>252.1</ele>
        <time>2015-05-13T18:56:14Z</time>
      </trkpt>
      <trkpt lat="37.362892" lon="-122.170558">
        <ele>251.9</ele>
        <time>2015-05-13T18:56:15Z</time>
      </trkpt>
      <trkpt lat="37.362887" lon="-122.170459">
        <ele>251.6</ele>
        <time>2015-05-13T18:56:16Z</time>
      </trkpt>
      <trkpt lat="37.362886" lon="-122.170356">
        <ele>251.4</ele>
        <time>2015-05-13T18:56:17Z</time>
      </trkpt>
      <trkpt lat="37.36286" lon="-122.170247">
        <ele>251.3</ele>
        <time>2015-05-13T18:56:18Z</time>
      </trkpt>
      <trkpt lat="37.362861" lon="-122.170148">
        <ele>251.1</ele>
        <time>2015-05-13T18:56:19Z</time>
      </trkpt>
      <trkpt lat="37.362856" lon="-122.170055">
        <ele>250.9</ele>
        <time>2015-05-13T18:56:20Z</time>
      </trkpt>
      <trkpt lat="37.36285" lon="-122.169958">
        <ele>250.7</ele>
        <time>2015-05-13T18:56:21Z</time>
      </trkpt>
      <trkpt lat="37.362841" lon="-122.169866">
        <ele>250.4</ele>
        <time>2015-05-13T18:56:22Z</time>
      </trkpt>
      <trkpt lat="37.362828" lon="-122.169772">
        <ele>250</ele>
        <time>2015-05-13T18:56:23Z</time>
      </trkpt>
      <trkpt lat="37.362816" lon="-122.169675">
        <ele>249.4</ele>
        <time>2015-05-13T18:56:24Z</time>
      </trkpt>
      <trkpt lat="37.362802" lon="-122.169573">
        <ele>248.9</ele>
        <time>2015-05-13T18:56:25Z</time>
      </trkpt>
      <trkpt lat="37.362813" lon="-122.169479">
        <ele>248</ele>
        <time>2015-05-13T18:56:26Z</time>
      </trkpt>
      <trkpt lat="37.362824" lon="-122.169398">
        <ele>247.2</ele>
        <time>2015-05-13T18:56:27Z</time>
      </trkpt>
      <trkpt lat="37.362838" lon="-122.169314">
        <ele>246.8</ele>
        <time>2015-05-13T18:56:28Z</time>
      </trkpt>
      <trkpt lat="37.362872" lon="-122.16922">
        <ele>246</ele>
        <time>2015-05-13T18:56:29Z</time>
      </trkpt>
      <trkpt lat="37.362899" lon="-122.169131">
        <ele>245.1</ele>
        <time>2015-05-13T18:56:30Z</time>
      </trkpt>
      <trkpt lat="37.362945" lon="-122.169057">
        <ele>244.2</ele>
        <time>2015-05-13T18:56:31Z</time>
      </trkpt>
      <trkpt lat="37.363015" lon="-122.16899">
        <ele>244.4</ele>
        <time>2015-05-13T18:56:32Z</time>
      </trkpt>
      <trkpt lat="37.363085" lon="-122.168917">
        <ele>243.8</ele>
        <time>2015-05-13T18:56:33Z</time>
      </trkpt>
      <trkpt lat="37.363168" lon="-122.168872">
        <ele>243.8</ele>
        <time>2015-05-13T18:56:34Z</time>
      </trkpt>
      <trkpt lat="37.363237" lon="-122.168822">
        <ele>242.1</ele>
        <time>2015-05-13T18:56:35Z</time>
      </trkpt>
      <trkpt lat="37.36331" lon="-122.168806">
        <ele>241.7</ele>
        <time>2015-05-13T18:56:36Z</time>
      </trkpt>
      <trkpt lat="37.363383" lon="-122.16879">
        <ele>240.8</ele>
        <time>2015-05-13T18:56:37Z</time>
      </trkpt>
      <trkpt lat="37.363459" lon="-122.168794">
        <ele>240</ele>
        <time>2015-05-13T18:56:38Z</time>
      </trkpt>
      <trkpt lat="37.363533" lon="-122.168811">
        <ele>239.7</ele>
        <time>2015-05-13T18:56:39Z</time>
      </trkpt>
      <trkpt lat="37.363603" lon="-122.168814">
        <ele>239.1</ele>
        <time>2015-05-13T18:56:40Z</time>
      </trkpt>
      <trkpt lat="37.363676" lon="-122.168839">
        <ele>238.6</ele>
        <time>2015-05-13T18:56:41Z</time>
      </trkpt>
      <trkpt lat="37.363749" lon="-122.168852">
        <ele>238.4</ele>
        <time>2015-05-13T18:56:42Z</time>
      </trkpt>
      <trkpt lat="37.363806" lon="-122.168827">
        <ele>237.4</ele>
        <time>2015-05-13T18:56:43Z</time>
      </trkpt>
      <trkpt lat="37.363881" lon="-122.168798">
        <ele>236.9</ele>
        <time>2015-05-13T18:56:44Z</time>
      </trkpt>
      <trkpt lat="37.363935" lon="-122.168758">
        <ele>236.5</ele>
        <time>2015-05-13T18:56:45Z</time>
      </trkpt>
      <trkpt lat="37.364003" lon="-122.168696">
        <ele>236.1</ele>
        <time>2015-05-13T18:56:46Z</time>
      </trkpt>
      <trkpt lat="37.364058" lon="-122.168624">
        <ele>235.9</ele>
        <time>2015-05-13T18:56:47Z</time>
      </trkpt>
      <trkpt lat="37.36408" lon="-122.168545">
        <ele>235.9</ele>
        <time>2015-05-13T18:56:48Z</time>
      </trkpt>
      <trkpt lat="37.364103" lon="-122.168463">
        <ele>236</ele>
        <time>2015-05-13T18:56:49Z</time>
      </trkpt>
      <trkpt lat="37.364119" lon="-122.168381">
        <ele>235.8</ele>
        <time>2015-05-13T18:56:50Z</time>
      </trkpt>
      <trkpt lat="37.364134" lon="-122.168291">
        <ele>235.7</ele>
        <time>2015-05-13T18:56:51Z</time>
      </trkpt>
      <trkpt lat="37.364148" lon="-122.168207">
        <ele>235.6</ele>
        <time>2015-05-13T18:56:52Z</time>
      </trkpt>
      <trkpt lat="37.364159" lon="-122.168121">
        <ele>235.7</ele>
        <time>2015-05-13T18:56:53Z</time>
      </trkpt>
      <trkpt lat="37.364181" lon="-122.168031">
        <ele>235.7</ele>
        <time>2015-05-13T18:56:54Z</time>
      </trkpt>
      <trkpt lat="37.364204" lon="-122.167962">
        <ele>235.6</ele>
        <time>2015-05-13T18:56:55Z</time>
      </trkpt>
      <trkpt lat="37.364235" lon="-122.167896">
        <ele>235.6</ele>
        <time>2015-05-13T18:56:56Z</time>
      </trkpt>
      <trkpt lat="37.364266" lon="-122.167825">
        <ele>235.4</ele>
        <time>2015-05-13T18:56:57Z</time>
      </trkpt>
      <trkpt lat="37.364298" lon="-122.167748">
        <ele>235.1</ele>
        <time>2015-05-13T18:56:58Z</time>
      </trkpt>
      <trkpt lat="37.364342" lon="-122.167685">
        <ele>234.8</ele>
        <time>2015-05-13T18:56:59Z</time>
      </trkpt>
      <trkpt lat="37.364388" lon="-122.167617">
        <ele>234.6</ele>
        <time>2015-05-13T18:57:00Z</time>
      </trkpt>
      <trkpt lat="37.364445" lon="-122.167548">
        <ele>234.2</ele>
        <time>2015-05-13T18:57:01Z</time>
      </trkpt>
      <trkpt lat="37.364507" lon="-122.167487">
        <ele>233.4</ele>
        <time>2015-05-13T18:57:02Z</time>
      </trkpt>
      <trkpt lat="37.364572" lon="-122.167442">
        <ele>233</ele>
        <time>2015-05-13T18:57:03Z</time>
      </trkpt>
      <trkpt lat="37.364651" lon="-122.167414">
        <ele>232.6</ele>
        <time>2015-05-13T18:57:04Z</time>
      </trkpt>
      <trkpt lat="37.364732" lon="-122.167398">
        <ele>232.2</ele>
        <time>2015-05-13T18:57:05Z</time>
      </trkpt>
      <trkpt lat="37.364806" lon="-122.167397">
        <ele>232</ele>
        <time>2015-05-13T18:57:06Z</time>
      </trkpt>
      <trkpt lat="37.364878" lon="-122.167395">
        <ele>231.9</ele>
        <time>2015-05-13T18:57:07Z</time>
      </trkpt>
      <trkpt lat="37.364954" lon="-122.16739">
        <ele>231.7</ele>
        <time>2015-05-13T18:57:08Z</time>
      </trkpt>
      <trkpt lat="37.365025" lon="-122.167398">
        <ele>231.8</ele>
        <time>2015-05-13T18:57:09Z</time>
      </trkpt>
      <trkpt lat="37.365093" lon="-122.167399">
        <ele>231.8</ele>
        <time>2015-05-13T18:57:10Z</time>
      </trkpt>
      <trkpt lat="37.365145" lon="-122.167387">
        <ele>231.7</ele>
        <time>2015-05-13T18:57:11Z</time>
      </trkpt>
      <trkpt lat="37.365193" lon="-122.167385">
        <ele>231.6</ele>
        <time>2015-05-13T18:57:12Z</time>
      </trkpt>
      <trkpt lat="37.365236" lon="-122.16738">
        <ele>231.5</ele>
        <time>2015-05-13T18:57:13Z</time>
      </trkpt>
      <trkpt lat="37.365272" lon="-122.167335">
        <ele>231</ele>
        <time>2015-05-13T18:57:14Z</time>
      </trkpt>
      <trkpt lat="37.365285" lon="-122.167282">
        <ele>231</ele>
        <time>2015-05-13T18:57:15Z</time>
      </trkpt>
      <trkpt lat="37.365293" lon="-122.167232">
        <ele>231.1</ele>
        <time>2015-05-13T18:57:16Z</time>
      </trkpt>
      <trkpt lat="37.365303" lon="-122.16718">
        <ele>231.3</ele>
        <time>2015-05-13T18:57:17Z</time>
      </trkpt>
      <trkpt lat="37.365307" lon="-122.167132">
        <ele>231.5</ele>
        <time>2015-05-13T18:57:18Z</time>
      </trkpt>
      <trkpt lat="37.365314" lon="-122.167084">
        <ele>231.7</ele>
        <time>2015-05-13T18:57:19Z</time>
      </trkpt>
      <trkpt lat="37.365321" lon="-122.167034">
        <ele>231.9</ele>
        <time>2015-05-13T18:57:21Z</time>
      </trkpt>
      <trkpt lat="37.36532" lon="-122.166948">
        <ele>232.5</ele>
        <time>2015-05-13T18:57:22Z</time>
      </trkpt>
      <trkpt lat="37.36532" lon="-122.16691">
        <ele>232.8</ele>
        <time>2015-05-13T18:57:23Z</time>
      </trkpt>
      <trkpt lat="37.36533" lon="-122.166845">
        <ele>233.2</ele>
        <time>2015-05-13T18:57:25Z</time>
      </trkpt>
      <trkpt lat="37.365335" lon="-122.166789">
        <ele>233.6</ele>
        <time>2015-05-13T18:57:27Z</time>
      </trkpt>
      <trkpt lat="37.365341" lon="-122.166733">
        <ele>233.9</ele>
        <time>2015-05-13T18:57:29Z</time>
      </trkpt>
      <trkpt lat="37.365344" lon="-122.166698">
        <ele>234.1</ele>
        <time>2015-05-13T18:57:30Z</time>
      </trkpt>
      <trkpt lat="37.365348" lon="-122.166663">
        <ele>234.3</ele>
        <time>2015-05-13T18:57:31Z</time>
      </trkpt>
      <trkpt lat="37.365353" lon="-122.166626">
        <ele>234.4</ele>
        <time>2015-05-13T18:57:32Z</time>
      </trkpt>
      <trkpt lat="37.365359" lon="-122.166587">
        <ele>234.6</ele>
        <time>2015-05-13T18:57:34Z</time>
      </trkpt>
      <trkpt lat="37.365366" lon="-122.166548">
        <ele>234.7</ele>
        <time>2015-05-13T18:57:35Z</time>
      </trkpt>
      <trkpt lat="37.365381" lon="-122.166471">
        <ele>234.7</ele>
        <time>2015-05-13T18:57:36Z</time>
      </trkpt>
      <trkpt lat="37.365389" lon="-122.166429">
        <ele>234.7</ele>
        <time>2015-05-13T18:57:37Z</time>
      </trkpt>
      <trkpt lat="37.365395" lon="-122.166376">
        <ele>234.7</ele>
        <time>2015-05-13T18:57:38Z</time>
      </trkpt>
      <trkpt lat="37.365403" lon="-122.16633">
        <ele>234.5</ele>
        <time>2015-05-13T18:57:39Z</time>
      </trkpt>
      <trkpt lat="37.365415" lon="-122.166285">
        <ele>234.2</ele>
        <time>2015-05-13T18:57:40Z</time>
      </trkpt>
      <trkpt lat="37.365429" lon="-122.166232">
        <ele>233.9</ele>
        <time>2015-05-13T18:57:41Z</time>
      </trkpt>
      <trkpt lat="37.365437" lon="-122.16616">
        <ele>233.3</ele>
        <time>2015-05-13T18:57:42Z</time>
      </trkpt>
      <trkpt lat="37.365444" lon="-122.166093">
        <ele>232.6</ele>
        <time>2015-05-13T18:57:43Z</time>
      </trkpt>
      <trkpt lat="37.365449" lon="-122.166025">
        <ele>232.1</ele>
        <time>2015-05-13T18:57:44Z</time>
      </trkpt>
      <trkpt lat="37.365453" lon="-122.165946">
        <ele>231.4</ele>
        <time>2015-05-13T18:57:45Z</time>
      </trkpt>
      <trkpt lat="37.365462" lon="-122.165857">
        <ele>230.7</ele>
        <time>2015-05-13T18:57:46Z</time>
      </trkpt>
      <trkpt lat="37.365462" lon="-122.16576">
        <ele>229.8</ele>
        <time>2015-05-13T18:57:47Z</time>
      </trkpt>
      <trkpt lat="37.365478" lon="-122.165657">
        <ele>228.8</ele>
        <time>2015-05-13T18:57:48Z</time>
      </trkpt>
      <trkpt lat="37.365477" lon="-122.165561">
        <ele>228.1</ele>
        <time>2015-05-13T18:57:49Z</time>
      </trkpt>
      <trkpt lat="37.365479" lon="-122.16545">
        <ele>227.4</ele>
        <time>2015-05-13T18:57:50Z</time>
      </trkpt>
      <trkpt lat="37.365489" lon="-122.165349">
        <ele>226.8</ele>
        <time>2015-05-13T18:57:51Z</time>
      </trkpt>
      <trkpt lat="37.365488" lon="-122.165271">
        <ele>226.5</ele>
        <time>2015-05-13T18:57:52Z</time>
      </trkpt>
      <trkpt lat="37.365478" lon="-122.165167">
        <ele>225.9</ele>
        <time>2015-05-13T18:57:53Z</time>
      </trkpt>
      <trkpt lat="37.365478" lon="-122.165063">
        <ele>225.6</ele>
        <time>2015-05-13T18:57:54Z</time>
      </trkpt>
      <trkpt lat="37.365485" lon="-122.164983">
        <ele>225.4</ele>
        <time>2015-05-13T18:57:55Z</time>
      </trkpt>
      <trkpt lat="37.365464" lon="-122.164907">
        <ele>225.2</ele>
        <time>2015-05-13T18:57:56Z</time>
      </trkpt>
      <trkpt lat="37.365434" lon="-122.164821">
        <ele>224.9</ele>
        <time>2015-05-13T18:57:57Z</time>
      </trkpt>
      <trkpt lat="37.365409" lon="-122.164746">
        <ele>224.8</ele>
        <time>2015-05-13T18:57:58Z</time>
      </trkpt>
      <trkpt lat="37.365379" lon="-122.164678">
        <ele>224.7</ele>
        <time>2015-05-13T18:57:59Z</time>
      </trkpt>
      <trkpt lat="37.36534" lon="-122.164607">
        <ele>224.4</ele>
        <time>2015-05-13T18:58:00Z</time>
      </trkpt>
      <trkpt lat="37.365294" lon="-122.16453">
        <ele>224.2</ele>
        <time>2015-05-13T18:58:01Z</time>
      </trkpt>
      <trkpt lat="37.36525" lon="-122.164452">
        <ele>223.7</ele>
        <time>2015-05-13T18:58:02Z</time>
      </trkpt>
      <trkpt lat="37.365206" lon="-122.164373">
        <ele>223.2</ele>
        <time>2015-05-13T18:58:03Z</time>
      </trkpt>
      <trkpt lat="37.365173" lon="-122.164289">
        <ele>223</ele>
        <time>2015-05-13T18:58:04Z</time>
      </trkpt>
      <trkpt lat="37.36514" lon="-122.164206">
        <ele>222.8</ele>
        <time>2015-05-13T18:58:05Z</time>
      </trkpt>
      <trkpt lat="37.365118" lon="-122.164111">
        <ele>222.5</ele>
        <time>2015-05-13T18:58:06Z</time>
      </trkpt>
      <trkpt lat="37.365096" lon="-122.164014">
        <ele>222.4</ele>
        <time>2015-05-13T18:58:07Z</time>
      </trkpt>
      <trkpt lat="37.36509" lon="-122.1639">
        <ele>222.1</ele>
        <time>2015-05-13T18:58:08Z</time>
      </trkpt>
      <trkpt lat="37.365078" lon="-122.163793">
        <ele>221.9</ele>
        <time>2015-05-13T18:58:09Z</time>
      </trkpt>
      <trkpt lat="37.365081" lon="-122.163684">
        <ele>221.4</ele>
        <time>2015-05-13T18:58:10Z</time>
      </trkpt>
      <trkpt lat="37.365082" lon="-122.163579">
        <ele>221.1</ele>
        <time>2015-05-13T18:58:11Z</time>
      </trkpt>
      <trkpt lat="37.365095" lon="-122.163476">
        <ele>220.7</ele>
        <time>2015-05-13T18:58:12Z</time>
      </trkpt>
      <trkpt lat="37.365117" lon="-122.163363">
        <ele>220.5</ele>
        <time>2015-05-13T18:58:13Z</time>
      </trkpt>
      <trkpt lat="37.36514" lon="-122.163263">
        <ele>220.1</ele>
        <time>2015-05-13T18:58:14Z</time>
      </trkpt>
      <trkpt lat="37.365183" lon="-122.163161">
        <ele>220</ele>
        <time>2015-05-13T18:58:15Z</time>
      </trkpt>
      <trkpt lat="37.365228" lon="-122.163064">
        <ele>219.5</ele>
        <time>2015-05-13T18:58:16Z</time>
      </trkpt>
      <trkpt lat="37.365258" lon="-122.162971">
        <ele>219.6</ele>
        <time>2015-05-13T18:58:17Z</time>
      </trkpt>
      <trkpt lat="37.365293" lon="-122.162871">
        <ele>219.4</ele>
        <time>2015-05-13T18:58:19Z</time>
      </trkpt>
      <trkpt lat="37.365358" lon="-122.162669">
        <ele>219.1</ele>
        <time>2015-05-13T18:58:20Z</time>
      </trkpt>
      <trkpt lat="37.365398" lon="-122.162579">
        <ele>219</ele>
        <time>2015-05-13T18:58:21Z</time>
      </trkpt>
      <trkpt lat="37.365432" lon="-122.162485">
        <ele>218.7</ele>
        <time>2015-05-13T18:58:22Z</time>
      </trkpt>
      <trkpt lat="37.365469" lon="-122.1624">
        <ele>218.7</ele>
        <time>2015-05-13T18:58:23Z</time>
      </trkpt>
      <trkpt lat="37.365504" lon="-122.16231">
        <ele>218.6</ele>
        <time>2015-05-13T18:58:24Z</time>
      </trkpt>
      <trkpt lat="37.365526" lon="-122.162222">
        <ele>218.3</ele>
        <time>2015-05-13T18:58:25Z</time>
      </trkpt>
      <trkpt lat="37.365557" lon="-122.162131">
        <ele>218.1</ele>
        <time>2015-05-13T18:58:26Z</time>
      </trkpt>
      <trkpt lat="37.365597" lon="-122.162031">
        <ele>217.7</ele>
        <time>2015-05-13T18:58:27Z</time>
      </trkpt>
      <trkpt lat="37.365627" lon="-122.161937">
        <ele>217.2</ele>
        <time>2015-05-13T18:58:28Z</time>
      </trkpt>
      <trkpt lat="37.36566" lon="-122.161836">
        <ele>216.5</ele>
        <time>2015-05-13T18:58:29Z</time>
      </trkpt>
      <trkpt lat="37.365686" lon="-122.161726">
        <ele>216.3</ele>
        <time>2015-05-13T18:58:30Z</time>
      </trkpt>
      <trkpt lat="37.365698" lon="-122.161623">
        <ele>216.1</ele>
        <time>2015-05-13T18:58:31Z</time>
      </trkpt>
      <trkpt lat="37.365713" lon="-122.161518">
        <ele>215.8</ele>
        <time>2015-05-13T18:58:32Z</time>
      </trkpt>
      <trkpt lat="37.365729" lon="-122.161403">
        <ele>215.7</ele>
        <time>2015-05-13T18:58:33Z</time>
      </trkpt>
      <trkpt lat="37.36574" lon="-122.161297">
        <ele>215.5</ele>
        <time>2015-05-13T18:58:34Z</time>
      </trkpt>
      <trkpt lat="37.36574" lon="-122.161198">
        <ele>215.4</ele>
        <time>2015-05-13T18:58:35Z</time>
      </trkpt>
      <trkpt lat="37.365734" lon="-122.161093">
        <ele>215.6</ele>
        <time>2015-05-13T18:58:36Z</time>
      </trkpt>
      <trkpt lat="37.365734" lon="-122.161009">
        <ele>215.8</ele>
        <time>2015-05-13T18:58:37Z</time>
      </trkpt>
      <trkpt lat="37.365734" lon="-122.160922">
        <ele>216.1</ele>
        <time>2015-05-13T18:58:38Z</time>
      </trkpt>
      <trkpt lat="37.365739" lon="-122.160839">
        <ele>216.3</ele>
        <time>2015-05-13T18:58:39Z</time>
      </trkpt>
      <trkpt lat="37.365729" lon="-122.160763">
        <ele>216.6</ele>
        <time>2015-05-13T18:58:40Z</time>
      </trkpt>
      <trkpt lat="37.365724" lon="-122.160686">
        <ele>216.8</ele>
        <time>2015-05-13T18:58:41Z</time>
      </trkpt>
      <trkpt lat="37.365723" lon="-122.160616">
        <ele>217.1</ele>
        <time>2015-05-13T18:58:42Z</time>
      </trkpt>
      <trkpt lat="37.36573" lon="-122.160541">
        <ele>217.1</ele>
        <time>2015-05-13T18:58:43Z</time>
      </trkpt>
      <trkpt lat="37.365732" lon="-122.160466">
        <ele>217</ele>
        <time>2015-05-13T18:58:44Z</time>
      </trkpt>
      <trkpt lat="37.36574" lon="-122.16039">
        <ele>216.8</ele>
        <time>2015-05-13T18:58:45Z</time>
      </trkpt>
      <trkpt lat="37.36575" lon="-122.160311">
        <ele>216.5</ele>
        <time>2015-05-13T18:58:46Z</time>
      </trkpt>
      <trkpt lat="37.365764" lon="-122.160223">
        <ele>215.9</ele>
        <time>2015-05-13T18:58:47Z</time>
      </trkpt>
      <trkpt lat="37.365772" lon="-122.160126">
        <ele>215.2</ele>
        <time>2015-05-13T18:58:48Z</time>
      </trkpt>
      <trkpt lat="37.365794" lon="-122.160032">
        <ele>214.6</ele>
        <time>2015-05-13T18:58:49Z</time>
      </trkpt>
      <trkpt lat="37.365811" lon="-122.159935">
        <ele>214.2</ele>
        <time>2015-05-13T18:58:50Z</time>
      </trkpt>
      <trkpt lat="37.365835" lon="-122.159841">
        <ele>213.8</ele>
        <time>2015-05-13T18:58:51Z</time>
      </trkpt>
      <trkpt lat="37.365857" lon="-122.159746">
        <ele>213.5</ele>
        <time>2015-05-13T18:58:52Z</time>
      </trkpt>
      <trkpt lat="37.365884" lon="-122.159648">
        <ele>213</ele>
        <time>2015-05-13T18:58:53Z</time>
      </trkpt>
      <trkpt lat="37.365915" lon="-122.159549">
        <ele>212.5</ele>
        <time>2015-05-13T18:58:54Z</time>
      </trkpt>
      <trkpt lat="37.365943" lon="-122.159456">
        <ele>212.4</ele>
        <time>2015-05-13T18:58:55Z</time>
      </trkpt>
      <trkpt lat="37.365976" lon="-122.159365">
        <ele>212.6</ele>
        <time>2015-05-13T18:58:56Z</time>
      </trkpt>
      <trkpt lat="37.366005" lon="-122.159275">
        <ele>212.9</ele>
        <time>2015-05-13T18:58:57Z</time>
      </trkpt>
      <trkpt lat="37.366029" lon="-122.159193">
        <ele>213.2</ele>
        <time>2015-05-13T18:58:58Z</time>
      </trkpt>
      <trkpt lat="37.366063" lon="-122.159102">
        <ele>213.6</ele>
        <time>2015-05-13T18:58:59Z</time>
      </trkpt>
      <trkpt lat="37.366087" lon="-122.159023">
        <ele>213.7</ele>
        <time>2015-05-13T18:59:00Z</time>
      </trkpt>
      <trkpt lat="37.36611" lon="-122.158947">
        <ele>214</ele>
        <time>2015-05-13T18:59:01Z</time>
      </trkpt>
      <trkpt lat="37.366135" lon="-122.158873">
        <ele>214.3</ele>
        <time>2015-05-13T18:59:02Z</time>
      </trkpt>
      <trkpt lat="37.36616" lon="-122.158807">
        <ele>214.5</ele>
        <time>2015-05-13T18:59:03Z</time>
      </trkpt>
      <trkpt lat="37.366183" lon="-122.158728">
        <ele>214.4</ele>
        <time>2015-05-13T18:59:04Z</time>
      </trkpt>
      <trkpt lat="37.366207" lon="-122.158655">
        <ele>214.2</ele>
        <time>2015-05-13T18:59:05Z</time>
      </trkpt>
      <trkpt lat="37.366225" lon="-122.15858">
        <ele>214.2</ele>
        <time>2015-05-13T18:59:06Z</time>
      </trkpt>
      <trkpt lat="37.366248" lon="-122.158501">
        <ele>213.8</ele>
        <time>2015-05-13T18:59:07Z</time>
      </trkpt>
      <trkpt lat="37.366273" lon="-122.158424">
        <ele>213.5</ele>
        <time>2015-05-13T18:59:08Z</time>
      </trkpt>
      <trkpt lat="37.366291" lon="-122.158344">
        <ele>213.1</ele>
        <time>2015-05-13T18:59:10Z</time>
      </trkpt>
      <trkpt lat="37.366326" lon="-122.158172">
        <ele>212.3</ele>
        <time>2015-05-13T18:59:11Z</time>
      </trkpt>
      <trkpt lat="37.366334" lon="-122.158067">
        <ele>211.8</ele>
        <time>2015-05-13T18:59:12Z</time>
      </trkpt>
      <trkpt lat="37.366325" lon="-122.157969">
        <ele>211.3</ele>
        <time>2015-05-13T18:59:13Z</time>
      </trkpt>
      <trkpt lat="37.366298" lon="-122.157868">
        <ele>210.8</ele>
        <time>2015-05-13T18:59:14Z</time>
      </trkpt>
      <trkpt lat="37.366268" lon="-122.157775">
        <ele>210.3</ele>
        <time>2015-05-13T18:59:15Z</time>
      </trkpt>
      <trkpt lat="37.366228" lon="-122.157687">
        <ele>210</ele>
        <time>2015-05-13T18:59:16Z</time>
      </trkpt>
      <trkpt lat="37.366185" lon="-122.157587">
        <ele>209.6</ele>
        <time>2015-05-13T18:59:17Z</time>
      </trkpt>
      <trkpt lat="37.36613" lon="-122.157479">
        <ele>209.1</ele>
        <time>2015-05-13T18:59:18Z</time>
      </trkpt>
      <trkpt lat="37.366079" lon="-122.157374">
        <ele>208.5</ele>
        <time>2015-05-13T18:59:19Z</time>
      </trkpt>
      <trkpt lat="37.366022" lon="-122.15728">
        <ele>207.7</ele>
        <time>2015-05-13T18:59:20Z</time>
      </trkpt>
      <trkpt lat="37.365955" lon="-122.157182">
        <ele>206.8</ele>
        <time>2015-05-13T18:59:21Z</time>
      </trkpt>
      <trkpt lat="37.365879" lon="-122.157086">
        <ele>205.9</ele>
        <time>2015-05-13T18:59:22Z</time>
      </trkpt>
      <trkpt lat="37.365789" lon="-122.157001">
        <ele>205.1</ele>
        <time>2015-05-13T18:59:23Z</time>
      </trkpt>
      <trkpt lat="37.365695" lon="-122.156924">
        <ele>204.5</ele>
        <time>2015-05-13T18:59:24Z</time>
      </trkpt>
      <trkpt lat="37.365599" lon="-122.156852">
        <ele>204.3</ele>
        <time>2015-05-13T18:59:25Z</time>
      </trkpt>
      <trkpt lat="37.365502" lon="-122.156813">
        <ele>204.7</ele>
        <time>2015-05-13T18:59:26Z</time>
      </trkpt>
      <trkpt lat="37.365405" lon="-122.156788">
        <ele>205.4</ele>
        <time>2015-05-13T18:59:27Z</time>
      </trkpt>
      <trkpt lat="37.365323" lon="-122.156767">
        <ele>206.1</ele>
        <time>2015-05-13T18:59:28Z</time>
      </trkpt>
      <trkpt lat="37.365242" lon="-122.156753">
        <ele>206.7</ele>
        <time>2015-05-13T18:59:29Z</time>
      </trkpt>
      <trkpt lat="37.365162" lon="-122.156735">
        <ele>207.4</ele>
        <time>2015-05-13T18:59:30Z</time>
      </trkpt>
      <trkpt lat="37.365087" lon="-122.156718">
        <ele>207.9</ele>
        <time>2015-05-13T18:59:31Z</time>
      </trkpt>
      <trkpt lat="37.36502" lon="-122.156699">
        <ele>208.4</ele>
        <time>2015-05-13T18:59:32Z</time>
      </trkpt>
      <trkpt lat="37.364958" lon="-122.156663">
        <ele>208.9</ele>
        <time>2015-05-13T18:59:33Z</time>
      </trkpt>
      <trkpt lat="37.364894" lon="-122.15663">
        <ele>209.4</ele>
        <time>2015-05-13T18:59:34Z</time>
      </trkpt>
      <trkpt lat="37.364842" lon="-122.156584">
        <ele>209.9</ele>
        <time>2015-05-13T18:59:35Z</time>
      </trkpt>
      <trkpt lat="37.364789" lon="-122.156535">
        <ele>210.3</ele>
        <time>2015-05-13T18:59:36Z</time>
      </trkpt>
      <trkpt lat="37.364739" lon="-122.156493">
        <ele>210.6</ele>
        <time>2015-05-13T18:59:37Z</time>
      </trkpt>
      <trkpt lat="37.36469" lon="-122.156444">
        <ele>211</ele>
        <time>2015-05-13T18:59:38Z</time>
      </trkpt>
      <trkpt lat="37.364643" lon="-122.156403">
        <ele>211.3</ele>
        <time>2015-05-13T18:59:39Z</time>
      </trkpt>
      <trkpt lat="37.36459" lon="-122.156359">
        <ele>211.7</ele>
        <time>2015-05-13T18:59:40Z</time>
      </trkpt>
      <trkpt lat="37.364542" lon="-122.156311">
        <ele>212</ele>
        <time>2015-05-13T18:59:41Z</time>
      </trkpt>
      <trkpt lat="37.364493" lon="-122.156265">
        <ele>212.4</ele>
        <time>2015-05-13T18:59:42Z</time>
      </trkpt>
      <trkpt lat="37.364436" lon="-122.156226">
        <ele>212.8</ele>
        <time>2015-05-13T18:59:43Z</time>
      </trkpt>
      <trkpt lat="37.364388" lon="-122.15619">
        <ele>213.2</ele>
        <time>2015-05-13T18:59:44Z</time>
      </trkpt>
      <trkpt lat="37.364343" lon="-122.156154">
        <ele>213.5</ele>
        <time>2015-05-13T18:59:45Z</time>
      </trkpt>
      <trkpt lat="37.364308" lon="-122.156103">
        <ele>213.7</ele>
        <time>2015-05-13T18:59:47Z</time>
      </trkpt>
      <trkpt lat="37.364223" lon="-122.156031">
        <ele>214.3</ele>
        <time>2015-05-13T18:59:48Z</time>
      </trkpt>
      <trkpt lat="37.364186" lon="-122.156001">
        <ele>214.4</ele>
        <time>2015-05-13T18:59:50Z</time>
      </trkpt>
      <trkpt lat="37.364141" lon="-122.15597">
        <ele>214.6</ele>
        <time>2015-05-13T18:59:51Z</time>
      </trkpt>
      <trkpt lat="37.364095" lon="-122.155932">
        <ele>214.7</ele>
        <time>2015-05-13T18:59:52Z</time>
      </trkpt>
      <trkpt lat="37.364" lon="-122.155845">
        <ele>214.8</ele>
        <time>2015-05-13T18:59:53Z</time>
      </trkpt>
      <trkpt lat="37.36396" lon="-122.155797">
        <ele>214.8</ele>
        <time>2015-05-13T18:59:55Z</time>
      </trkpt>
      <trkpt lat="37.363907" lon="-122.155743">
        <ele>214.8</ele>
        <time>2015-05-13T18:59:56Z</time>
      </trkpt>
      <trkpt lat="37.363802" lon="-122.155651">
        <ele>214.9</ele>
        <time>2015-05-13T18:59:57Z</time>
      </trkpt>
      <trkpt lat="37.363743" lon="-122.155602">
        <ele>215</ele>
        <time>2015-05-13T18:59:58Z</time>
      </trkpt>
      <trkpt lat="37.363699" lon="-122.155561">
        <ele>215</ele>
        <time>2015-05-13T18:59:59Z</time>
      </trkpt>
      <trkpt lat="37.363654" lon="-122.155514">
        <ele>215.1</ele>
        <time>2015-05-13T19:00:00Z</time>
      </trkpt>
      <trkpt lat="37.363609" lon="-122.155469">
        <ele>215.2</ele>
        <time>2015-05-13T19:00:01Z</time>
      </trkpt>
      <trkpt lat="37.363569" lon="-122.155426">
        <ele>215.4</ele>
        <time>2015-05-13T19:00:02Z</time>
      </trkpt>
      <trkpt lat="37.363522" lon="-122.155373">
        <ele>215.6</ele>
        <time>2015-05-13T19:00:03Z</time>
      </trkpt>
      <trkpt lat="37.363485" lon="-122.155325">
        <ele>215.9</ele>
        <time>2015-05-13T19:00:04Z</time>
      </trkpt>
      <trkpt lat="37.363452" lon="-122.155274">
        <ele>216.3</ele>
        <time>2015-05-13T19:00:05Z</time>
      </trkpt>
      <trkpt lat="37.36342" lon="-122.155227">
        <ele>216.7</ele>
        <time>2015-05-13T19:00:06Z</time>
      </trkpt>
      <trkpt lat="37.363396" lon="-122.155186">
        <ele>217.1</ele>
        <time>2015-05-13T19:00:07Z</time>
      </trkpt>
      <trkpt lat="37.363371" lon="-122.155142">
        <ele>217.4</ele>
        <time>2015-05-13T19:00:08Z</time>
      </trkpt>
      <trkpt lat="37.363342" lon="-122.155106">
        <ele>217.8</ele>
        <time>2015-05-13T19:00:09Z</time>
      </trkpt>
      <trkpt lat="37.363321" lon="-122.155064">
        <ele>218.2</ele>
        <time>2015-05-13T19:00:10Z</time>
      </trkpt>
      <trkpt lat="37.363299" lon="-122.155025">
        <ele>218.6</ele>
        <time>2015-05-13T19:00:11Z</time>
      </trkpt>
      <trkpt lat="37.363269" lon="-122.154995">
        <ele>219.1</ele>
        <time>2015-05-13T19:00:13Z</time>
      </trkpt>
      <trkpt lat="37.363234" lon="-122.154934">
        <ele>219.8</ele>
        <time>2015-05-13T19:00:14Z</time>
      </trkpt>
      <trkpt lat="37.363217" lon="-122.154903">
        <ele>220.2</ele>
        <time>2015-05-13T19:00:15Z</time>
      </trkpt>
      <trkpt lat="37.363199" lon="-122.154858">
        <ele>220.5</ele>
        <time>2015-05-13T19:00:17Z</time>
      </trkpt>
      <trkpt lat="37.363174" lon="-122.1548">
        <ele>221.1</ele>
        <time>2015-05-13T19:00:19Z</time>
      </trkpt>
      <trkpt lat="37.363159" lon="-122.154768">
        <ele>221.4</ele>
        <time>2015-05-13T19:00:20Z</time>
      </trkpt>
      <trkpt lat="37.36314" lon="-122.154733">
        <ele>221.8</ele>
        <time>2015-05-13T19:00:21Z</time>
      </trkpt>
      <trkpt lat="37.36312" lon="-122.154698">
        <ele>222.1</ele>
        <time>2015-05-13T19:00:23Z</time>
      </trkpt>
      <trkpt lat="37.363099" lon="-122.154664">
        <ele>222.4</ele>
        <time>2015-05-13T19:00:24Z</time>
      </trkpt>
      <trkpt lat="37.36306" lon="-122.154593">
        <ele>223.1</ele>
        <time>2015-05-13T19:00:25Z</time>
      </trkpt>
      <trkpt lat="37.363041" lon="-122.154558">
        <ele>223.4</ele>
        <time>2015-05-13T19:00:26Z</time>
      </trkpt>
      <trkpt lat="37.363004" lon="-122.154497">
        <ele>223.9</ele>
        <time>2015-05-13T19:00:28Z</time>
      </trkpt>
      <trkpt lat="37.362984" lon="-122.154467">
        <ele>224.1</ele>
        <time>2015-05-13T19:00:29Z</time>
      </trkpt>
      <trkpt lat="37.362962" lon="-122.15444">
        <ele>224.3</ele>
        <time>2015-05-13T19:00:30Z</time>
      </trkpt>
      <trkpt lat="37.362939" lon="-122.154416">
        <ele>224.5</ele>
        <time>2015-05-13T19:00:32Z</time>
      </trkpt>
      <trkpt lat="37.362915" lon="-122.154392">
        <ele>224.7</ele>
        <time>2015-05-13T19:00:33Z</time>
      </trkpt>
      <trkpt lat="37.362863" lon="-122.154343">
        <ele>225.1</ele>
        <time>2015-05-13T19:00:34Z</time>
      </trkpt>
      <trkpt lat="37.362836" lon="-122.15432">
        <ele>225.3</ele>
        <time>2015-05-13T19:00:35Z</time>
      </trkpt>
      <trkpt lat="37.362783" lon="-122.154281">
        <ele>225.6</ele>
        <time>2015-05-13T19:00:37Z</time>
      </trkpt>
      <trkpt lat="37.362755" lon="-122.154263">
        <ele>225.8</ele>
        <time>2015-05-13T19:00:38Z</time>
      </trkpt>
      <trkpt lat="37.362728" lon="-122.154243">
        <ele>225.9</ele>
        <time>2015-05-13T19:00:39Z</time>
      </trkpt>
      <trkpt lat="37.362701" lon="-122.154223">
        <ele>226.1</ele>
        <time>2015-05-13T19:00:40Z</time>
      </trkpt>
      <trkpt lat="37.362644" lon="-122.154185">
        <ele>226.5</ele>
        <time>2015-05-13T19:00:42Z</time>
      </trkpt>
      <trkpt lat="37.362615" lon="-122.154165">
        <ele>226.6</ele>
        <time>2015-05-13T19:00:43Z</time>
      </trkpt>
      <trkpt lat="37.362585" lon="-122.154145">
        <ele>226.8</ele>
        <time>2015-05-13T19:00:44Z</time>
      </trkpt>
      <trkpt lat="37.362557" lon="-122.154126">
        <ele>226.9</ele>
        <time>2015-05-13T19:00:45Z</time>
      </trkpt>
      <trkpt lat="37.362526" lon="-122.154106">
        <ele>227</ele>
        <time>2015-05-13T19:00:46Z</time>
      </trkpt>
      <trkpt lat="37.362495" lon="-122.154085">
        <ele>227.1</ele>
        <time>2015-05-13T19:00:47Z</time>
      </trkpt>
      <trkpt lat="37.362465" lon="-122.154066">
        <ele>227.2</ele>
        <time>2015-05-13T19:00:48Z</time>
      </trkpt>
      <trkpt lat="37.362435" lon="-122.154047">
        <ele>227.4</ele>
        <time>2015-05-13T19:00:49Z</time>
      </trkpt>
      <trkpt lat="37.362404" lon="-122.154026">
        <ele>227.4</ele>
        <time>2015-05-13T19:00:50Z</time>
      </trkpt>
      <trkpt lat="37.362373" lon="-122.154002">
        <ele>227.3</ele>
        <time>2015-05-13T19:00:51Z</time>
      </trkpt>
      <trkpt lat="37.362343" lon="-122.153981">
        <ele>227.5</ele>
        <time>2015-05-13T19:00:52Z</time>
      </trkpt>
      <trkpt lat="37.362314" lon="-122.153961">
        <ele>227.5</ele>
        <time>2015-05-13T19:00:53Z</time>
      </trkpt>
      <trkpt lat="37.362285" lon="-122.153942">
        <ele>227.6</ele>
        <time>2015-05-13T19:00:54Z</time>
      </trkpt>
      <trkpt lat="37.362252" lon="-122.153921">
        <ele>227.6</ele>
        <time>2015-05-13T19:00:55Z</time>
      </trkpt>
      <trkpt lat="37.362216" lon="-122.153898">
        <ele>227.6</ele>
        <time>2015-05-13T19:00:56Z</time>
      </trkpt>
      <trkpt lat="37.362179" lon="-122.153873">
        <ele>227.6</ele>
        <time>2015-05-13T19:00:57Z</time>
      </trkpt>
      <trkpt lat="37.362141" lon="-122.153843">
        <ele>227.5</ele>
        <time>2015-05-13T19:00:58Z</time>
      </trkpt>
      <trkpt lat="37.362103" lon="-122.153814">
        <ele>227.5</ele>
        <time>2015-05-13T19:00:59Z</time>
      </trkpt>
      <trkpt lat="37.362068" lon="-122.153793">
        <ele>227.6</ele>
        <time>2015-05-13T19:01:00Z</time>
      </trkpt>
      <trkpt lat="37.36203" lon="-122.153769">
        <ele>227.6</ele>
        <time>2015-05-13T19:01:01Z</time>
      </trkpt>
      <trkpt lat="37.362004" lon="-122.153741">
        <ele>227.6</ele>
        <time>2015-05-13T19:01:02Z</time>
      </trkpt>
      <trkpt lat="37.361968" lon="-122.15371">
        <ele>227.6</ele>
        <time>2015-05-13T19:01:03Z</time>
      </trkpt>
      <trkpt lat="37.361932" lon="-122.15367">
        <ele>227.6</ele>
        <time>2015-05-13T19:01:04Z</time>
      </trkpt>
      <trkpt lat="37.361895" lon="-122.153636">
        <ele>227.6</ele>
        <time>2015-05-13T19:01:05Z</time>
      </trkpt>
      <trkpt lat="37.361862" lon="-122.153605">
        <ele>227.5</ele>
        <time>2015-05-13T19:01:06Z</time>
      </trkpt>
      <trkpt lat="37.361829" lon="-122.153568">
        <ele>227.5</ele>
        <time>2015-05-13T19:01:07Z</time>
      </trkpt>
      <trkpt lat="37.361791" lon="-122.153535">
        <ele>227.5</ele>
        <time>2015-05-13T19:01:08Z</time>
      </trkpt>
      <trkpt lat="37.361758" lon="-122.153494">
        <ele>227.4</ele>
        <time>2015-05-13T19:01:09Z</time>
      </trkpt>
      <trkpt lat="37.361722" lon="-122.153454">
        <ele>227.3</ele>
        <time>2015-05-13T19:01:10Z</time>
      </trkpt>
      <trkpt lat="37.36169" lon="-122.153406">
        <ele>227.2</ele>
        <time>2015-05-13T19:01:11Z</time>
      </trkpt>
      <trkpt lat="37.361652" lon="-122.153352">
        <ele>226.9</ele>
        <time>2015-05-13T19:01:12Z</time>
      </trkpt>
      <trkpt lat="37.361624" lon="-122.1533">
        <ele>226.7</ele>
        <time>2015-05-13T19:01:13Z</time>
      </trkpt>
      <trkpt lat="37.361592" lon="-122.153239">
        <ele>226.4</ele>
        <time>2015-05-13T19:01:14Z</time>
      </trkpt>
      <trkpt lat="37.361565" lon="-122.153169">
        <ele>226</ele>
        <time>2015-05-13T19:01:15Z</time>
      </trkpt>
      <trkpt lat="37.361532" lon="-122.153099">
        <ele>225.6</ele>
        <time>2015-05-13T19:01:16Z</time>
      </trkpt>
      <trkpt lat="37.361499" lon="-122.153027">
        <ele>225.1</ele>
        <time>2015-05-13T19:01:18Z</time>
      </trkpt>
      <trkpt lat="37.361463" lon="-122.152944">
        <ele>224.5</ele>
        <time>2015-05-13T19:01:19Z</time>
      </trkpt>
      <trkpt lat="37.361387" lon="-122.15277">
        <ele>223.5</ele>
        <time>2015-05-13T19:01:20Z</time>
      </trkpt>
      <trkpt lat="37.361356" lon="-122.152682">
        <ele>223.2</ele>
        <time>2015-05-13T19:01:21Z</time>
      </trkpt>
      <trkpt lat="37.361317" lon="-122.152592">
        <ele>222.8</ele>
        <time>2015-05-13T19:01:22Z</time>
      </trkpt>
      <trkpt lat="37.361284" lon="-122.152514">
        <ele>222.7</ele>
        <time>2015-05-13T19:01:23Z</time>
      </trkpt>
      <trkpt lat="37.361257" lon="-122.152435">
        <ele>222.5</ele>
        <time>2015-05-13T19:01:24Z</time>
      </trkpt>
      <trkpt lat="37.361238" lon="-122.152361">
        <ele>222.5</ele>
        <time>2015-05-13T19:01:25Z</time>
      </trkpt>
      <trkpt lat="37.361235" lon="-122.152292">
        <ele>222.5</ele>
        <time>2015-05-13T19:01:26Z</time>
      </trkpt>
      <trkpt lat="37.361217" lon="-122.152222">
        <ele>222.4</ele>
        <time>2015-05-13T19:01:28Z</time>
      </trkpt>
      <trkpt lat="37.361201" lon="-122.152091">
        <ele>222.3</ele>
        <time>2015-05-13T19:01:29Z</time>
      </trkpt>
      <trkpt lat="37.361202" lon="-122.152041">
        <ele>222.3</ele>
        <time>2015-05-13T19:01:30Z</time>
      </trkpt>
      <trkpt lat="37.361194" lon="-122.151978">
        <ele>222.2</ele>
        <time>2015-05-13T19:01:31Z</time>
      </trkpt>
      <trkpt lat="37.361195" lon="-122.151927">
        <ele>222.3</ele>
        <time>2015-05-13T19:01:32Z</time>
      </trkpt>
      <trkpt lat="37.361188" lon="-122.151872">
        <ele>222.1</ele>
        <time>2015-05-13T19:01:33Z</time>
      </trkpt>
      <trkpt lat="37.361182" lon="-122.151812">
        <ele>221.9</ele>
        <time>2015-05-13T19:01:34Z</time>
      </trkpt>
      <trkpt lat="37.361181" lon="-122.15175">
        <ele>221.8</ele>
        <time>2015-05-13T19:01:35Z</time>
      </trkpt>
      <trkpt lat="37.361173" lon="-122.151692">
        <ele>221.7</ele>
        <time>2015-05-13T19:01:36Z</time>
      </trkpt>
      <trkpt lat="37.361167" lon="-122.151634">
        <ele>221.7</ele>
        <time>2015-05-13T19:01:37Z</time>
      </trkpt>
      <trkpt lat="37.361154" lon="-122.151579">
        <ele>221.8</ele>
        <time>2015-05-13T19:01:38Z</time>
      </trkpt>
      <trkpt lat="37.361146" lon="-122.151523">
        <ele>221.9</ele>
        <time>2015-05-13T19:01:39Z</time>
      </trkpt>
      <trkpt lat="37.361138" lon="-122.151463">
        <ele>222</ele>
        <time>2015-05-13T19:01:40Z</time>
      </trkpt>
      <trkpt lat="37.361128" lon="-122.151409">
        <ele>222.3</ele>
        <time>2015-05-13T19:01:41Z</time>
      </trkpt>
      <trkpt lat="37.361117" lon="-122.151353">
        <ele>222.7</ele>
        <time>2015-05-13T19:01:42Z</time>
      </trkpt>
      <trkpt lat="37.36111" lon="-122.151313">
        <ele>222.9</ele>
        <time>2015-05-13T19:01:43Z</time>
      </trkpt>
      <trkpt lat="37.361101" lon="-122.151268">
        <ele>223.2</ele>
        <time>2015-05-13T19:01:44Z</time>
      </trkpt>
      <trkpt lat="37.361085" lon="-122.15122">
        <ele>223.4</ele>
        <time>2015-05-13T19:01:45Z</time>
      </trkpt>
      <trkpt lat="37.361072" lon="-122.151176">
        <ele>223.7</ele>
        <time>2015-05-13T19:01:46Z</time>
      </trkpt>
      <trkpt lat="37.36106" lon="-122.151137">
        <ele>223.8</ele>
        <time>2015-05-13T19:01:47Z</time>
      </trkpt>
      <trkpt lat="37.361043" lon="-122.1511">
        <ele>223.8</ele>
        <time>2015-05-13T19:01:48Z</time>
      </trkpt>
      <trkpt lat="37.361023" lon="-122.151063">
        <ele>224</ele>
        <time>2015-05-13T19:01:49Z</time>
      </trkpt>
      <trkpt lat="37.361001" lon="-122.151028">
        <ele>224</ele>
        <time>2015-05-13T19:01:50Z</time>
      </trkpt>
      <trkpt lat="37.360977" lon="-122.150994">
        <ele>224.1</ele>
        <time>2015-05-13T19:01:51Z</time>
      </trkpt>
      <trkpt lat="37.360952" lon="-122.15096">
        <ele>224.2</ele>
        <time>2015-05-13T19:01:52Z</time>
      </trkpt>
      <trkpt lat="37.360926" lon="-122.150927">
        <ele>224.3</ele>
        <time>2015-05-13T19:01:53Z</time>
      </trkpt>
      <trkpt lat="37.360897" lon="-122.150889">
        <ele>224.3</ele>
        <time>2015-05-13T19:01:54Z</time>
      </trkpt>
      <trkpt lat="37.360869" lon="-122.150853">
        <ele>224.6</ele>
        <time>2015-05-13T19:01:55Z</time>
      </trkpt>
      <trkpt lat="37.360841" lon="-122.150819">
        <ele>224.7</ele>
        <time>2015-05-13T19:01:56Z</time>
      </trkpt>
      <trkpt lat="37.360813" lon="-122.150786">
        <ele>224.8</ele>
        <time>2015-05-13T19:01:57Z</time>
      </trkpt>
      <trkpt lat="37.360785" lon="-122.150752">
        <ele>224.9</ele>
        <time>2015-05-13T19:01:59Z</time>
      </trkpt>
      <trkpt lat="37.360755" lon="-122.150719">
        <ele>225.1</ele>
        <time>2015-05-13T19:02:00Z</time>
      </trkpt>
      <trkpt lat="37.360693" lon="-122.150653">
        <ele>225.2</ele>
        <time>2015-05-13T19:02:01Z</time>
      </trkpt>
      <trkpt lat="37.360662" lon="-122.150617">
        <ele>225.2</ele>
        <time>2015-05-13T19:02:02Z</time>
      </trkpt>
      <trkpt lat="37.36063" lon="-122.150578">
        <ele>225.2</ele>
        <time>2015-05-13T19:02:03Z</time>
      </trkpt>
      <trkpt lat="37.360591" lon="-122.150546">
        <ele>225.3</ele>
        <time>2015-05-13T19:02:04Z</time>
      </trkpt>
      <trkpt lat="37.360551" lon="-122.1505">
        <ele>225.2</ele>
        <time>2015-05-13T19:02:05Z</time>
      </trkpt>
      <trkpt lat="37.360511" lon="-122.150458">
        <ele>225.1</ele>
        <time>2015-05-13T19:02:06Z</time>
      </trkpt>
      <trkpt lat="37.360467" lon="-122.150419">
        <ele>225</ele>
        <time>2015-05-13T19:02:07Z</time>
      </trkpt>
      <trkpt lat="37.360435" lon="-122.150372">
        <ele>224.8</ele>
        <time>2015-05-13T19:02:08Z</time>
      </trkpt>
      <trkpt lat="37.360398" lon="-122.150329">
        <ele>224.5</ele>
        <time>2015-05-13T19:02:09Z</time>
      </trkpt>
      <trkpt lat="37.360372" lon="-122.150266">
        <ele>224.1</ele>
        <time>2015-05-13T19:02:10Z</time>
      </trkpt>
      <trkpt lat="37.360324" lon="-122.15021">
        <ele>223.5</ele>
        <time>2015-05-13T19:02:11Z</time>
      </trkpt>
      <trkpt lat="37.360272" lon="-122.150149">
        <ele>222.8</ele>
        <time>2015-05-13T19:02:12Z</time>
      </trkpt>
      <trkpt lat="37.360216" lon="-122.150081">
        <ele>222.1</ele>
        <time>2015-05-13T19:02:13Z</time>
      </trkpt>
      <trkpt lat="37.360163" lon="-122.150017">
        <ele>221.5</ele>
        <time>2015-05-13T19:02:14Z</time>
      </trkpt>
      <trkpt lat="37.360099" lon="-122.14994">
        <ele>220.7</ele>
        <time>2015-05-13T19:02:15Z</time>
      </trkpt>
      <trkpt lat="37.360041" lon="-122.149872">
        <ele>219.9</ele>
        <time>2015-05-13T19:02:16Z</time>
      </trkpt>
      <trkpt lat="37.359987" lon="-122.149809">
        <ele>219.2</ele>
        <time>2015-05-13T19:02:17Z</time>
      </trkpt>
      <trkpt lat="37.359938" lon="-122.149743">
        <ele>218.6</ele>
        <time>2015-05-13T19:02:18Z</time>
      </trkpt>
      <trkpt lat="37.359899" lon="-122.149685">
        <ele>218</ele>
        <time>2015-05-13T19:02:19Z</time>
      </trkpt>
      <trkpt lat="37.359874" lon="-122.14962">
        <ele>217.5</ele>
        <time>2015-05-13T19:02:20Z</time>
      </trkpt>
      <trkpt lat="37.359864" lon="-122.149542">
        <ele>216.6</ele>
        <time>2015-05-13T19:02:21Z</time>
      </trkpt>
      <trkpt lat="37.359929" lon="-122.149209">
        <ele>213.7</ele>
        <time>2015-05-13T19:02:25Z</time>
      </trkpt>
      <trkpt lat="37.359961" lon="-122.149124">
        <ele>213.5</ele>
        <time>2015-05-13T19:02:26Z</time>
      </trkpt>
      <trkpt lat="37.359998" lon="-122.149043">
        <ele>212.7</ele>
        <time>2015-05-13T19:02:27Z</time>
      </trkpt>
      <trkpt lat="37.360041" lon="-122.148956">
        <ele>212.2</ele>
        <time>2015-05-13T19:02:28Z</time>
      </trkpt>
      <trkpt lat="37.360084" lon="-122.148872">
        <ele>211.8</ele>
        <time>2015-05-13T19:02:29Z</time>
      </trkpt>
      <trkpt lat="37.360122" lon="-122.148801">
        <ele>211.5</ele>
        <time>2015-05-13T19:02:30Z</time>
      </trkpt>
      <trkpt lat="37.360163" lon="-122.148719">
        <ele>211</ele>
        <time>2015-05-13T19:02:31Z</time>
      </trkpt>
      <trkpt lat="37.360201" lon="-122.148623">
        <ele>210.5</ele>
        <time>2015-05-13T19:02:32Z</time>
      </trkpt>
      <trkpt lat="37.360221" lon="-122.148505">
        <ele>209.9</ele>
        <time>2015-05-13T19:02:33Z</time>
      </trkpt>
      <trkpt lat="37.36022" lon="-122.148415">
        <ele>209.3</ele>
        <time>2015-05-13T19:02:34Z</time>
      </trkpt>
      <trkpt lat="37.360196" lon="-122.148278">
        <ele>208.7</ele>
        <time>2015-05-13T19:02:35Z</time>
      </trkpt>
      <trkpt lat="37.360175" lon="-122.148181">
        <ele>208</ele>
        <time>2015-05-13T19:02:36Z</time>
      </trkpt>
      <trkpt lat="37.360149" lon="-122.148066">
        <ele>207.2</ele>
        <time>2015-05-13T19:02:37Z</time>
      </trkpt>
      <trkpt lat="37.360122" lon="-122.147958">
        <ele>206.7</ele>
        <time>2015-05-13T19:02:38Z</time>
      </trkpt>
      <trkpt lat="37.360095" lon="-122.147854">
        <ele>206.3</ele>
        <time>2015-05-13T19:02:39Z</time>
      </trkpt>
      <trkpt lat="37.360067" lon="-122.147748">
        <ele>205.9</ele>
        <time>2015-05-13T19:02:40Z</time>
      </trkpt>
      <trkpt lat="37.36003" lon="-122.147645">
        <ele>205.8</ele>
        <time>2015-05-13T19:02:41Z</time>
      </trkpt>
      <trkpt lat="37.359986" lon="-122.147559">
        <ele>205.5</ele>
        <time>2015-05-13T19:02:42Z</time>
      </trkpt>
      <trkpt lat="37.359918" lon="-122.147463">
        <ele>205.3</ele>
        <time>2015-05-13T19:02:43Z</time>
      </trkpt>
      <trkpt lat="37.35985" lon="-122.147399">
        <ele>205.1</ele>
        <time>2015-05-13T19:02:44Z</time>
      </trkpt>
      <trkpt lat="37.359776" lon="-122.147329">
        <ele>205</ele>
        <time>2015-05-13T19:02:45Z</time>
      </trkpt>
      <trkpt lat="37.35972" lon="-122.147267">
        <ele>205.1</ele>
        <time>2015-05-13T19:02:46Z</time>
      </trkpt>
      <trkpt lat="37.359659" lon="-122.147191">
        <ele>205.1</ele>
        <time>2015-05-13T19:02:47Z</time>
      </trkpt>
      <trkpt lat="37.359596" lon="-122.147105">
        <ele>205.2</ele>
        <time>2015-05-13T19:02:48Z</time>
      </trkpt>
      <trkpt lat="37.359551" lon="-122.147039">
        <ele>205.1</ele>
        <time>2015-05-13T19:02:49Z</time>
      </trkpt>
      <trkpt lat="37.359498" lon="-122.146958">
        <ele>205.2</ele>
        <time>2015-05-13T19:02:50Z</time>
      </trkpt>
      <trkpt lat="37.359452" lon="-122.146886">
        <ele>205.2</ele>
        <time>2015-05-13T19:02:51Z</time>
      </trkpt>
      <trkpt lat="37.359407" lon="-122.146817">
        <ele>205.2</ele>
        <time>2015-05-13T19:02:52Z</time>
      </trkpt>
      <trkpt lat="37.359357" lon="-122.146741">
        <ele>205.2</ele>
        <time>2015-05-13T19:02:53Z</time>
      </trkpt>
      <trkpt lat="37.359303" lon="-122.146665">
        <ele>205</ele>
        <time>2015-05-13T19:02:54Z</time>
      </trkpt>
      <trkpt lat="37.359247" lon="-122.146589">
        <ele>204.6</ele>
        <time>2015-05-13T19:02:55Z</time>
      </trkpt>
      <trkpt lat="37.359187" lon="-122.146522">
        <ele>204.1</ele>
        <time>2015-05-13T19:02:56Z</time>
      </trkpt>
      <trkpt lat="37.359115" lon="-122.146463">
        <ele>203.3</ele>
        <time>2015-05-13T19:02:57Z</time>
      </trkpt>
      <trkpt lat="37.359046" lon="-122.146416">
        <ele>202.4</ele>
        <time>2015-05-13T19:02:58Z</time>
      </trkpt>
      <trkpt lat="37.358962" lon="-122.146375">
        <ele>201.1</ele>
        <time>2015-05-13T19:02:59Z</time>
      </trkpt>
      <trkpt lat="37.358868" lon="-122.146349">
        <ele>199.7</ele>
        <time>2015-05-13T19:03:00Z</time>
      </trkpt>
      <trkpt lat="37.358785" lon="-122.146342">
        <ele>198.6</ele>
        <time>2015-05-13T19:03:01Z</time>
      </trkpt>
      <trkpt lat="37.358685" lon="-122.146355">
        <ele>197.6</ele>
        <time>2015-05-13T19:03:02Z</time>
      </trkpt>
      <trkpt lat="37.358591" lon="-122.146378">
        <ele>197</ele>
        <time>2015-05-13T19:03:03Z</time>
      </trkpt>
      <trkpt lat="37.358507" lon="-122.146407">
        <ele>196.7</ele>
        <time>2015-05-13T19:03:04Z</time>
      </trkpt>
      <trkpt lat="37.358431" lon="-122.146425">
        <ele>196.4</ele>
        <time>2015-05-13T19:03:05Z</time>
      </trkpt>
      <trkpt lat="37.358346" lon="-122.146422">
        <ele>196.1</ele>
        <time>2015-05-13T19:03:06Z</time>
      </trkpt>
      <trkpt lat="37.358259" lon="-122.146405">
        <ele>195.5</ele>
        <time>2015-05-13T19:03:07Z</time>
      </trkpt>
      <trkpt lat="37.358177" lon="-122.146379">
        <ele>194.7</ele>
        <time>2015-05-13T19:03:08Z</time>
      </trkpt>
      <trkpt lat="37.358104" lon="-122.146352">
        <ele>194</ele>
        <time>2015-05-13T19:03:09Z</time>
      </trkpt>
      <trkpt lat="37.358013" lon="-122.146307">
        <ele>192.7</ele>
        <time>2015-05-13T19:03:10Z</time>
      </trkpt>
      <trkpt lat="37.357974" lon="-122.146283">
        <ele>192</ele>
        <time>2015-05-13T19:03:11Z</time>
      </trkpt>
      <trkpt lat="37.357915" lon="-122.146246">
        <ele>191</ele>
        <time>2015-05-13T19:03:12Z</time>
      </trkpt>
      <trkpt lat="37.357859" lon="-122.146167">
        <ele>189.7</ele>
        <time>2015-05-13T19:03:13Z</time>
      </trkpt>
      <trkpt lat="37.357838" lon="-122.146087">
        <ele>188.6</ele>
        <time>2015-05-13T19:03:14Z</time>
      </trkpt>
      <trkpt lat="37.357817" lon="-122.145983">
        <ele>187.3</ele>
        <time>2015-05-13T19:03:15Z</time>
      </trkpt>
      <trkpt lat="37.357803" lon="-122.145874">
        <ele>185.9</ele>
        <time>2015-05-13T19:03:16Z</time>
      </trkpt>
      <trkpt lat="37.357788" lon="-122.145741">
        <ele>184.3</ele>
        <time>2015-05-13T19:03:17Z</time>
      </trkpt>
      <trkpt lat="37.357776" lon="-122.145617">
        <ele>182.7</ele>
        <time>2015-05-13T19:03:18Z</time>
      </trkpt>
      <trkpt lat="37.357769" lon="-122.145518">
        <ele>181.4</ele>
        <time>2015-05-13T19:03:19Z</time>
      </trkpt>
      <trkpt lat="37.357767" lon="-122.145424">
        <ele>180.2</ele>
        <time>2015-05-13T19:03:20Z</time>
      </trkpt>
      <trkpt lat="37.357768" lon="-122.145338">
        <ele>179</ele>
        <time>2015-05-13T19:03:22Z</time>
      </trkpt>
      <trkpt lat="37.357795" lon="-122.145202">
        <ele>177.2</ele>
        <time>2015-05-13T19:03:23Z</time>
      </trkpt>
      <trkpt lat="37.35783" lon="-122.14514">
        <ele>176.2</ele>
        <time>2015-05-13T19:03:24Z</time>
      </trkpt>
      <trkpt lat="37.357882" lon="-122.145086">
        <ele>175.2</ele>
        <time>2015-05-13T19:03:25Z</time>
      </trkpt>
      <trkpt lat="37.357935" lon="-122.145045">
        <ele>174.5</ele>
        <time>2015-05-13T19:03:26Z</time>
      </trkpt>
      <trkpt lat="37.357998" lon="-122.145007">
        <ele>173.3</ele>
        <time>2015-05-13T19:03:27Z</time>
      </trkpt>
      <trkpt lat="37.358079" lon="-122.144962">
        <ele>171.6</ele>
        <time>2015-05-13T19:03:28Z</time>
      </trkpt>
      <trkpt lat="37.358148" lon="-122.14491">
        <ele>170.3</ele>
        <time>2015-05-13T19:03:29Z</time>
      </trkpt>
      <trkpt lat="37.358207" lon="-122.144851">
        <ele>169.5</ele>
        <time>2015-05-13T19:03:30Z</time>
      </trkpt>
      <trkpt lat="37.358258" lon="-122.144776">
        <ele>168.7</ele>
        <time>2015-05-13T19:03:31Z</time>
      </trkpt>
      <trkpt lat="37.358299" lon="-122.144696">
        <ele>168</ele>
        <time>2015-05-13T19:03:32Z</time>
      </trkpt>
      <trkpt lat="37.358331" lon="-122.144603">
        <ele>167.2</ele>
        <time>2015-05-13T19:03:33Z</time>
      </trkpt>
      <trkpt lat="37.35836" lon="-122.144503">
        <ele>166.4</ele>
        <time>2015-05-13T19:03:34Z</time>
      </trkpt>
      <trkpt lat="37.358383" lon="-122.14441">
        <ele>165.7</ele>
        <time>2015-05-13T19:03:35Z</time>
      </trkpt>
      <trkpt lat="37.358405" lon="-122.144302">
        <ele>164.7</ele>
        <time>2015-05-13T19:03:36Z</time>
      </trkpt>
      <trkpt lat="37.358419" lon="-122.14419">
        <ele>163.9</ele>
        <time>2015-05-13T19:03:37Z</time>
      </trkpt>
      <trkpt lat="37.358413" lon="-122.144074">
        <ele>162.9</ele>
        <time>2015-05-13T19:03:38Z</time>
      </trkpt>
      <trkpt lat="37.358392" lon="-122.143955">
        <ele>161.8</ele>
        <time>2015-05-13T19:03:39Z</time>
      </trkpt>
      <trkpt lat="37.35835" lon="-122.143839">
        <ele>160.6</ele>
        <time>2015-05-13T19:03:40Z</time>
      </trkpt>
      <trkpt lat="37.358301" lon="-122.143734">
        <ele>159.5</ele>
        <time>2015-05-13T19:03:41Z</time>
      </trkpt>
      <trkpt lat="37.35825" lon="-122.143628">
        <ele>158.4</ele>
        <time>2015-05-13T19:03:42Z</time>
      </trkpt>
      <trkpt lat="37.358198" lon="-122.143509">
        <ele>157.3</ele>
        <time>2015-05-13T19:03:43Z</time>
      </trkpt>
      <trkpt lat="37.358155" lon="-122.143381">
        <ele>156.2</ele>
        <time>2015-05-13T19:03:44Z</time>
      </trkpt>
      <trkpt lat="37.358137" lon="-122.143256">
        <ele>155.1</ele>
        <time>2015-05-13T19:03:45Z</time>
      </trkpt>
      <trkpt lat="37.35813" lon="-122.143123">
        <ele>154</ele>
        <time>2015-05-13T19:03:46Z</time>
      </trkpt>
      <trkpt lat="37.358129" lon="-122.142982">
        <ele>153</ele>
        <time>2015-05-13T19:03:47Z</time>
      </trkpt>
      <trkpt lat="37.358126" lon="-122.142847">
        <ele>152.1</ele>
        <time>2015-05-13T19:03:48Z</time>
      </trkpt>
      <trkpt lat="37.358115" lon="-122.142709">
        <ele>151.1</ele>
        <time>2015-05-13T19:03:49Z</time>
      </trkpt>
      <trkpt lat="37.358095" lon="-122.142563">
        <ele>150.1</ele>
        <time>2015-05-13T19:03:50Z</time>
      </trkpt>
      <trkpt lat="37.358071" lon="-122.142443">
        <ele>149.1</ele>
        <time>2015-05-13T19:03:51Z</time>
      </trkpt>
      <trkpt lat="37.358035" lon="-122.142316">
        <ele>148</ele>
        <time>2015-05-13T19:03:52Z</time>
      </trkpt>
      <trkpt lat="37.357998" lon="-122.142201">
        <ele>147.1</ele>
        <time>2015-05-13T19:03:53Z</time>
      </trkpt>
      <trkpt lat="37.357958" lon="-122.142076">
        <ele>145.9</ele>
        <time>2015-05-13T19:03:54Z</time>
      </trkpt>
      <trkpt lat="37.357937" lon="-122.141993">
        <ele>145.2</ele>
        <time>2015-05-13T19:03:55Z</time>
      </trkpt>
      <trkpt lat="37.357908" lon="-122.141838">
        <ele>143.9</ele>
        <time>2015-05-13T19:03:56Z</time>
      </trkpt>
      <trkpt lat="37.357888" lon="-122.141713">
        <ele>143.1</ele>
        <time>2015-05-13T19:03:57Z</time>
      </trkpt>
      <trkpt lat="37.357874" lon="-122.141596">
        <ele>142.3</ele>
        <time>2015-05-13T19:03:58Z</time>
      </trkpt>
      <trkpt lat="37.357866" lon="-122.141467">
        <ele>141.5</ele>
        <time>2015-05-13T19:03:59Z</time>
      </trkpt>
      <trkpt lat="37.357861" lon="-122.141336">
        <ele>140.8</ele>
        <time>2015-05-13T19:04:00Z</time>
      </trkpt>
      <trkpt lat="37.357857" lon="-122.141194">
        <ele>139.7</ele>
        <time>2015-05-13T19:04:01Z</time>
      </trkpt>
      <trkpt lat="37.357853" lon="-122.141063">
        <ele>138.6</ele>
        <time>2015-05-13T19:04:02Z</time>
      </trkpt>
      <trkpt lat="37.357851" lon="-122.14093">
        <ele>137.3</ele>
        <time>2015-05-13T19:04:03Z</time>
      </trkpt>
      <trkpt lat="37.357854" lon="-122.140809">
        <ele>136.2</ele>
        <time>2015-05-13T19:04:04Z</time>
      </trkpt>
      <trkpt lat="37.357858" lon="-122.140703">
        <ele>135.3</ele>
        <time>2015-05-13T19:04:05Z</time>
      </trkpt>
      <trkpt lat="37.357868" lon="-122.140562">
        <ele>134</ele>
        <time>2015-05-13T19:04:06Z</time>
      </trkpt>
      <trkpt lat="37.357892" lon="-122.140438">
        <ele>132.8</ele>
        <time>2015-05-13T19:04:07Z</time>
      </trkpt>
      <trkpt lat="37.35792" lon="-122.140345">
        <ele>132.1</ele>
        <time>2015-05-13T19:04:08Z</time>
      </trkpt>
      <trkpt lat="37.357964" lon="-122.14023">
        <ele>131.1</ele>
        <time>2015-05-13T19:04:09Z</time>
      </trkpt>
      <trkpt lat="37.358008" lon="-122.140124">
        <ele>130.5</ele>
        <time>2015-05-13T19:04:10Z</time>
      </trkpt>
      <trkpt lat="37.358042" lon="-122.140039">
        <ele>130</ele>
        <time>2015-05-13T19:04:11Z</time>
      </trkpt>
      <trkpt lat="37.358083" lon="-122.139932">
        <ele>129.5</ele>
        <time>2015-05-13T19:04:12Z</time>
      </trkpt>
      <trkpt lat="37.358122" lon="-122.139825">
        <ele>128.9</ele>
        <time>2015-05-13T19:04:13Z</time>
      </trkpt>
      <trkpt lat="37.358156" lon="-122.139695">
        <ele>128.3</ele>
        <time>2015-05-13T19:04:14Z</time>
      </trkpt>
      <trkpt lat="37.358172" lon="-122.13957">
        <ele>127.9</ele>
        <time>2015-05-13T19:04:15Z</time>
      </trkpt>
      <trkpt lat="37.358185" lon="-122.139443">
        <ele>127.3</ele>
        <time>2015-05-13T19:04:16Z</time>
      </trkpt>
      <trkpt lat="37.358191" lon="-122.13932">
        <ele>126.8</ele>
        <time>2015-05-13T19:04:17Z</time>
      </trkpt>
      <trkpt lat="37.358194" lon="-122.139207">
        <ele>126.3</ele>
        <time>2015-05-13T19:04:18Z</time>
      </trkpt>
      <trkpt lat="37.3582" lon="-122.13911">
        <ele>125.9</ele>
        <time>2015-05-13T19:04:19Z</time>
      </trkpt>
      <trkpt lat="37.358201" lon="-122.138994">
        <ele>125.5</ele>
        <time>2015-05-13T19:04:20Z</time>
      </trkpt>
      <trkpt lat="37.3582" lon="-122.138894">
        <ele>125</ele>
        <time>2015-05-13T19:04:21Z</time>
      </trkpt>
      <trkpt lat="37.3582" lon="-122.138782">
        <ele>124.5</ele>
        <time>2015-05-13T19:04:22Z</time>
      </trkpt>
      <trkpt lat="37.358197" lon="-122.138659">
        <ele>124</ele>
        <time>2015-05-13T19:04:23Z</time>
      </trkpt>
      <trkpt lat="37.358188" lon="-122.138542">
        <ele>123.6</ele>
        <time>2015-05-13T19:04:24Z</time>
      </trkpt>
      <trkpt lat="37.358175" lon="-122.138417">
        <ele>123.1</ele>
        <time>2015-05-13T19:04:25Z</time>
      </trkpt>
      <trkpt lat="37.358165" lon="-122.138303">
        <ele>122.7</ele>
        <time>2015-05-13T19:04:26Z</time>
      </trkpt>
      <trkpt lat="37.358153" lon="-122.13817">
        <ele>122.1</ele>
        <time>2015-05-13T19:04:27Z</time>
      </trkpt>
      <trkpt lat="37.358138" lon="-122.138034">
        <ele>121.7</ele>
        <time>2015-05-13T19:04:28Z</time>
      </trkpt>
      <trkpt lat="37.358125" lon="-122.137912">
        <ele>121.1</ele>
        <time>2015-05-13T19:04:29Z</time>
      </trkpt>
      <trkpt lat="37.358112" lon="-122.137795">
        <ele>120.7</ele>
        <time>2015-05-13T19:04:30Z</time>
      </trkpt>
      <trkpt lat="37.358097" lon="-122.137662">
        <ele>120.2</ele>
        <time>2015-05-13T19:04:31Z</time>
      </trkpt>
      <trkpt lat="37.358083" lon="-122.137548">
        <ele>119.7</ele>
        <time>2015-05-13T19:04:32Z</time>
      </trkpt>
      <trkpt lat="37.358068" lon="-122.137419">
        <ele>119.3</ele>
        <time>2015-05-13T19:04:34Z</time>
      </trkpt>
      <trkpt lat="37.358039" lon="-122.137155">
        <ele>118.2</ele>
        <time>2015-05-13T19:04:35Z</time>
      </trkpt>
      <trkpt lat="37.358025" lon="-122.13703">
        <ele>117.8</ele>
        <time>2015-05-13T19:04:36Z</time>
      </trkpt>
      <trkpt lat="37.358009" lon="-122.1369">
        <ele>117.3</ele>
        <time>2015-05-13T19:04:37Z</time>
      </trkpt>
      <trkpt lat="37.357993" lon="-122.136769">
        <ele>116.8</ele>
        <time>2015-05-13T19:04:38Z</time>
      </trkpt>
      <trkpt lat="37.357977" lon="-122.136641">
        <ele>116.4</ele>
        <time>2015-05-13T19:04:39Z</time>
      </trkpt>
      <trkpt lat="37.357961" lon="-122.136507">
        <ele>115.9</ele>
        <time>2015-05-13T19:04:40Z</time>
      </trkpt>
      <trkpt lat="37.357945" lon="-122.136378">
        <ele>115.4</ele>
        <time>2015-05-13T19:04:41Z</time>
      </trkpt>
      <trkpt lat="37.357929" lon="-122.136249">
        <ele>114.9</ele>
        <time>2015-05-13T19:04:42Z</time>
      </trkpt>
      <trkpt lat="37.357914" lon="-122.136129">
        <ele>114.3</ele>
        <time>2015-05-13T19:04:43Z</time>
      </trkpt>
      <trkpt lat="37.357898" lon="-122.136004">
        <ele>113.8</ele>
        <time>2015-05-13T19:04:44Z</time>
      </trkpt>
      <trkpt lat="37.357881" lon="-122.135873">
        <ele>113.2</ele>
        <time>2015-05-13T19:04:45Z</time>
      </trkpt>
      <trkpt lat="37.357864" lon="-122.135738">
        <ele>112.6</ele>
        <time>2015-05-13T19:04:46Z</time>
      </trkpt>
      <trkpt lat="37.357846" lon="-122.135603">
        <ele>112</ele>
        <time>2015-05-13T19:04:47Z</time>
      </trkpt>
      <trkpt lat="37.35783" lon="-122.135478">
        <ele>111.7</ele>
        <time>2015-05-13T19:04:48Z</time>
      </trkpt>
      <trkpt lat="37.357815" lon="-122.135356">
        <ele>111.4</ele>
        <time>2015-05-13T19:04:49Z</time>
      </trkpt>
      <trkpt lat="37.357799" lon="-122.135225">
        <ele>111.3</ele>
        <time>2015-05-13T19:04:50Z</time>
      </trkpt>
      <trkpt lat="37.357782" lon="-122.135105">
        <ele>110.8</ele>
        <time>2015-05-13T19:04:51Z</time>
      </trkpt>
      <trkpt lat="37.357766" lon="-122.134993">
        <ele>110.5</ele>
        <time>2015-05-13T19:04:52Z</time>
      </trkpt>
      <trkpt lat="37.357752" lon="-122.134893">
        <ele>110.3</ele>
        <time>2015-05-13T19:04:53Z</time>
      </trkpt>
      <trkpt lat="37.357735" lon="-122.134777">
        <ele>110</ele>
        <time>2015-05-13T19:04:54Z</time>
      </trkpt>
      <trkpt lat="37.357727" lon="-122.134711">
        <ele>109.9</ele>
        <time>2015-05-13T19:04:55Z</time>
      </trkpt>
      <trkpt lat="37.357717" lon="-122.134638">
        <ele>109.7</ele>
        <time>2015-05-13T19:04:56Z</time>
      </trkpt>
      <trkpt lat="37.357709" lon="-122.134578">
        <ele>109.6</ele>
        <time>2015-05-13T19:04:57Z</time>
      </trkpt>
      <trkpt lat="37.357705" lon="-122.134544">
        <ele>109.6</ele>
        <time>2015-05-13T19:04:58Z</time>
      </trkpt>
      <trkpt lat="37.357544" lon="-122.134458">
        <ele>109.2</ele>
        <time>2015-05-13T19:05:01Z</time>
      </trkpt>
      <trkpt lat="37.357501" lon="-122.134508">
        <ele>109.2</ele>
        <time>2015-05-13T19:05:02Z</time>
      </trkpt>
      <trkpt lat="37.357474" lon="-122.13454">
        <ele>109.3</ele>
        <time>2015-05-13T19:05:03Z</time>
      </trkpt>
      <trkpt lat="37.357435" lon="-122.134586">
        <ele>109.3</ele>
        <time>2015-05-13T19:05:04Z</time>
      </trkpt>
      <trkpt lat="37.357394" lon="-122.134634">
        <ele>109.5</ele>
        <time>2015-05-13T19:05:05Z</time>
      </trkpt>
      <trkpt lat="37.357353" lon="-122.134682">
        <ele>109.5</ele>
        <time>2015-05-13T19:05:06Z</time>
      </trkpt>
      <trkpt lat="37.35732" lon="-122.134722">
        <ele>109.6</ele>
        <time>2015-05-13T19:05:07Z</time>
      </trkpt>
      <trkpt lat="37.357292" lon="-122.134754">
        <ele>109.6</ele>
        <time>2015-05-13T19:05:08Z</time>
      </trkpt>
      <trkpt lat="37.357251" lon="-122.134744">
        <ele>109.7</ele>
        <time>2015-05-13T19:05:10Z</time>
      </trkpt>
      <trkpt lat="37.35719" lon="-122.134669">
        <ele>109.6</ele>
        <time>2015-05-13T19:05:11Z</time>
      </trkpt>
      <trkpt lat="37.357153" lon="-122.134623">
        <ele>109.3</ele>
        <time>2015-05-13T19:05:12Z</time>
      </trkpt>
      <trkpt lat="37.357117" lon="-122.134578">
        <ele>109.6</ele>
        <time>2015-05-13T19:05:13Z</time>
      </trkpt>
      <trkpt lat="37.357079" lon="-122.134529">
        <ele>109.6</ele>
        <time>2015-05-13T19:05:14Z</time>
      </trkpt>
      <trkpt lat="37.357043" lon="-122.134484">
        <ele>109.6</ele>
        <time>2015-05-13T19:05:15Z</time>
      </trkpt>
      <trkpt lat="37.357005" lon="-122.13444">
        <ele>109.6</ele>
        <time>2015-05-13T19:05:16Z</time>
      </trkpt>
      <trkpt lat="37.356982" lon="-122.134413">
        <ele>109.6</ele>
        <time>2015-05-13T19:05:17Z</time>
      </trkpt>
      <trkpt lat="37.356934" lon="-122.134361">
        <ele>109.6</ele>
        <time>2015-05-13T19:05:18Z</time>
      </trkpt>
      <trkpt lat="37.356893" lon="-122.134315">
        <ele>109.6</ele>
        <time>2015-05-13T19:05:20Z</time>
      </trkpt>
      <trkpt lat="37.356847" lon="-122.134265">
        <ele>109.6</ele>
        <time>2015-05-13T19:05:21Z</time>
      </trkpt>
      <trkpt lat="37.356766" lon="-122.134175">
        <ele>109.6</ele>
        <time>2015-05-13T19:05:22Z</time>
      </trkpt>
      <trkpt lat="37.356722" lon="-122.134127">
        <ele>109.5</ele>
        <time>2015-05-13T19:05:23Z</time>
      </trkpt>
      <trkpt lat="37.356671" lon="-122.134072">
        <ele>109.5</ele>
        <time>2015-05-13T19:05:25Z</time>
      </trkpt>
      <trkpt lat="37.35659" lon="-122.133982">
        <ele>109.5</ele>
        <time>2015-05-13T19:05:26Z</time>
      </trkpt>
      <trkpt lat="37.356539" lon="-122.133925">
        <ele>109.5</ele>
        <time>2015-05-13T19:05:27Z</time>
      </trkpt>
      <trkpt lat="37.356497" lon="-122.133876">
        <ele>109.5</ele>
        <time>2015-05-13T19:05:29Z</time>
      </trkpt>
      <trkpt lat="37.356472" lon="-122.133844">
        <ele>109.4</ele>
        <time>2015-05-13T19:05:30Z</time>
      </trkpt>
      <trkpt lat="37.35639" lon="-122.133734">
        <ele>109.3</ele>
        <time>2015-05-13T19:05:31Z</time>
      </trkpt>
      <trkpt lat="37.356355" lon="-122.133681">
        <ele>109.3</ele>
        <time>2015-05-13T19:05:32Z</time>
      </trkpt>
      <trkpt lat="37.356325" lon="-122.133628">
        <ele>109.4</ele>
        <time>2015-05-13T19:05:33Z</time>
      </trkpt>
      <trkpt lat="37.35629" lon="-122.133561">
        <ele>109.5</ele>
        <time>2015-05-13T19:05:34Z</time>
      </trkpt>
      <trkpt lat="37.356264" lon="-122.13351">
        <ele>109.5</ele>
        <time>2015-05-13T19:05:35Z</time>
      </trkpt>
      <trkpt lat="37.356143" lon="-122.133302">
        <ele>109.9</ele>
        <time>2015-05-13T19:05:40Z</time>
      </trkpt>
      <trkpt lat="37.356123" lon="-122.133268">
        <ele>110.1</ele>
        <time>2015-05-13T19:05:41Z</time>
      </trkpt>
      <trkpt lat="37.356103" lon="-122.133234">
        <ele>110.5</ele>
        <time>2015-05-13T19:05:42Z</time>
      </trkpt>
      <trkpt lat="37.356081" lon="-122.133196">
        <ele>110.9</ele>
        <time>2015-05-13T19:05:43Z</time>
      </trkpt>
      <trkpt lat="37.356064" lon="-122.133169">
        <ele>111.4</ele>
        <time>2015-05-13T19:05:44Z</time>
      </trkpt>
      <trkpt lat="37.356022" lon="-122.133115">
        <ele>112.4</ele>
        <time>2015-05-13T19:05:46Z</time>
      </trkpt>
      <trkpt lat="37.355996" lon="-122.133086">
        <ele>112.9</ele>
        <time>2015-05-13T19:05:48Z</time>
      </trkpt>
      <trkpt lat="37.355861" lon="-122.132962">
        <ele>115.6</ele>
        <time>2015-05-13T19:05:57Z</time>
      </trkpt>
      <trkpt lat="37.355835" lon="-122.132939">
        <ele>116.2</ele>
        <time>2015-05-13T19:05:59Z</time>
      </trkpt>
      <trkpt lat="37.355797" lon="-122.132973">
        <ele>116.5</ele>
        <time>2015-05-13T19:06:01Z</time>
      </trkpt>
      <trkpt lat="37.355774" lon="-122.132947">
        <ele>116.9</ele>
        <time>2015-05-13T19:06:02Z</time>
      </trkpt>
      <trkpt lat="37.355737" lon="-122.132917">
        <ele>117.7</ele>
        <time>2015-05-13T19:06:05Z</time>
      </trkpt>
      <trkpt lat="37.355694" lon="-122.132898">
        <ele>118.5</ele>
        <time>2015-05-13T19:06:07Z</time>
      </trkpt>
      <trkpt lat="37.355655" lon="-122.132889">
        <ele>119.1</ele>
        <time>2015-05-13T19:06:08Z</time>
      </trkpt>
      <trkpt lat="37.355616" lon="-122.132878">
        <ele>119.6</ele>
        <time>2015-05-13T19:06:10Z</time>
      </trkpt>
      <trkpt lat="37.355586" lon="-122.132859">
        <ele>120</ele>
        <time>2015-05-13T19:06:12Z</time>
      </trkpt>
      <trkpt lat="37.355556" lon="-122.132842">
        <ele>120.6</ele>
        <time>2015-05-13T19:06:15Z</time>
      </trkpt>
      <trkpt lat="37.355497" lon="-122.132832">
        <ele>121.6</ele>
        <time>2015-05-13T19:06:17Z</time>
      </trkpt>
      <trkpt lat="37.355471" lon="-122.132832">
        <ele>121.9</ele>
        <time>2015-05-13T19:06:18Z</time>
      </trkpt>
      <trkpt lat="37.355423" lon="-122.13284">
        <ele>122.5</ele>
        <time>2015-05-13T19:06:20Z</time>
      </trkpt>
      <trkpt lat="37.355377" lon="-122.132853">
        <ele>123</ele>
        <time>2015-05-13T19:06:22Z</time>
      </trkpt>
      <trkpt lat="37.35535" lon="-122.132863">
        <ele>123.2</ele>
        <time>2015-05-13T19:06:23Z</time>
      </trkpt>
      <trkpt lat="37.355323" lon="-122.132875">
        <ele>123.2</ele>
        <time>2015-05-13T19:06:24Z</time>
      </trkpt>
      <trkpt lat="37.355294" lon="-122.132889">
        <ele>123.4</ele>
        <time>2015-05-13T19:06:25Z</time>
      </trkpt>
      <trkpt lat="37.355266" lon="-122.132903">
        <ele>123.5</ele>
        <time>2015-05-13T19:06:26Z</time>
      </trkpt>
      <trkpt lat="37.355239" lon="-122.132918">
        <ele>123.7</ele>
        <time>2015-05-13T19:06:27Z</time>
      </trkpt>
      <trkpt lat="37.355193" lon="-122.13294">
        <ele>123.9</ele>
        <time>2015-05-13T19:06:29Z</time>
      </trkpt>
      <trkpt lat="37.35515" lon="-122.132959">
        <ele>124.6</ele>
        <time>2015-05-13T19:06:31Z</time>
      </trkpt>
      <trkpt lat="37.355112" lon="-122.132978">
        <ele>125.2</ele>
        <time>2015-05-13T19:06:33Z</time>
      </trkpt>
      <trkpt lat="37.355077" lon="-122.132996">
        <ele>125.8</ele>
        <time>2015-05-13T19:06:35Z</time>
      </trkpt>
      <trkpt lat="37.355034" lon="-122.133027">
        <ele>126.2</ele>
        <time>2015-05-13T19:06:37Z</time>
      </trkpt>
      <trkpt lat="37.355011" lon="-122.133045">
        <ele>126.4</ele>
        <time>2015-05-13T19:06:38Z</time>
      </trkpt>
      <trkpt lat="37.354989" lon="-122.133074">
        <ele>126.6</ele>
        <time>2015-05-13T19:06:40Z</time>
      </trkpt>
      <trkpt lat="37.354969" lon="-122.133103">
        <ele>126.8</ele>
        <time>2015-05-13T19:06:42Z</time>
      </trkpt>
      <trkpt lat="37.35495" lon="-122.133132">
        <ele>127.1</ele>
        <time>2015-05-13T19:06:44Z</time>
      </trkpt>
      <trkpt lat="37.35493" lon="-122.133169">
        <ele>127.2</ele>
        <time>2015-05-13T19:06:47Z</time>
      </trkpt>
      <trkpt lat="37.354898" lon="-122.133224">
        <ele>127.8</ele>
        <time>2015-05-13T19:06:49Z</time>
      </trkpt>
      <trkpt lat="37.354887" lon="-122.133243">
        <ele>127.8</ele>
        <time>2015-05-13T19:06:50Z</time>
      </trkpt>
      <trkpt lat="37.354844" lon="-122.133303">
        <ele>128.2</ele>
        <time>2015-05-13T19:06:53Z</time>
      </trkpt>
      <trkpt lat="37.354831" lon="-122.133319">
        <ele>128.5</ele>
        <time>2015-05-13T19:06:54Z</time>
      </trkpt>
      <trkpt lat="37.354805" lon="-122.133349">
        <ele>129.1</ele>
        <time>2015-05-13T19:06:56Z</time>
      </trkpt>
      <trkpt lat="37.354782" lon="-122.133384">
        <ele>129.2</ele>
        <time>2015-05-13T19:06:58Z</time>
      </trkpt>
      <trkpt lat="37.354773" lon="-122.133417">
        <ele>129</ele>
        <time>2015-05-13T19:07:00Z</time>
      </trkpt>
      <trkpt lat="37.354755" lon="-122.133451">
        <ele>129</ele>
        <time>2015-05-13T19:07:02Z</time>
      </trkpt>
      <trkpt lat="37.354731" lon="-122.133481">
        <ele>129.4</ele>
        <time>2015-05-13T19:07:04Z</time>
      </trkpt>
      <trkpt lat="37.354703" lon="-122.133513">
        <ele>129.7</ele>
        <time>2015-05-13T19:07:06Z</time>
      </trkpt>
      <trkpt lat="37.354678" lon="-122.133539">
        <ele>130.2</ele>
        <time>2015-05-13T19:07:08Z</time>
      </trkpt>
      <trkpt lat="37.354648" lon="-122.133557">
        <ele>130.8</ele>
        <time>2015-05-13T19:07:11Z</time>
      </trkpt>
      <trkpt lat="37.354615" lon="-122.133578">
        <ele>131.3</ele>
        <time>2015-05-13T19:07:14Z</time>
      </trkpt>
      <trkpt lat="37.354582" lon="-122.133614">
        <ele>131.4</ele>
        <time>2015-05-13T19:07:16Z</time>
      </trkpt>
      <trkpt lat="37.354543" lon="-122.133632">
        <ele>131.7</ele>
        <time>2015-05-13T19:07:19Z</time>
      </trkpt>
      <trkpt lat="37.354529" lon="-122.133637">
        <ele>131.8</ele>
        <time>2015-05-13T19:07:20Z</time>
      </trkpt>
      <trkpt lat="37.354489" lon="-122.133653">
        <ele>131.8</ele>
        <time>2015-05-13T19:07:23Z</time>
      </trkpt>
      <trkpt lat="37.354445" lon="-122.133665">
        <ele>132.2</ele>
        <time>2015-05-13T19:07:25Z</time>
      </trkpt>
      <trkpt lat="37.354415" lon="-122.133668">
        <ele>132.4</ele>
        <time>2015-05-13T19:07:26Z</time>
      </trkpt>
      <trkpt lat="37.354381" lon="-122.133677">
        <ele>133.1</ele>
        <time>2015-05-13T19:07:27Z</time>
      </trkpt>
      <trkpt lat="37.354345" lon="-122.13369">
        <ele>134.2</ele>
        <time>2015-05-13T19:07:28Z</time>
      </trkpt>
      <trkpt lat="37.354315" lon="-122.133704">
        <ele>134.9</ele>
        <time>2015-05-13T19:07:29Z</time>
      </trkpt>
      <trkpt lat="37.35429" lon="-122.133727">
        <ele>135.4</ele>
        <time>2015-05-13T19:07:30Z</time>
      </trkpt>
      <trkpt lat="37.354272" lon="-122.133756">
        <ele>135.7</ele>
        <time>2015-05-13T19:07:32Z</time>
      </trkpt>
      <trkpt lat="37.354247" lon="-122.133819">
        <ele>135.8</ele>
        <time>2015-05-13T19:07:34Z</time>
      </trkpt>
      <trkpt lat="37.354232" lon="-122.133841">
        <ele>136.3</ele>
        <time>2015-05-13T19:07:35Z</time>
      </trkpt>
      <trkpt lat="37.354205" lon="-122.133886">
        <ele>137.2</ele>
        <time>2015-05-13T19:07:38Z</time>
      </trkpt>
      <trkpt lat="37.354202" lon="-122.133924">
        <ele>137.1</ele>
        <time>2015-05-13T19:07:39Z</time>
      </trkpt>
      <trkpt lat="37.354202" lon="-122.13397">
        <ele>137.1</ele>
        <time>2015-05-13T19:07:42Z</time>
      </trkpt>
      <trkpt lat="37.354202" lon="-122.134017">
        <ele>137.2</ele>
        <time>2015-05-13T19:07:44Z</time>
      </trkpt>
      <trkpt lat="37.354207" lon="-122.134072">
        <ele>137.5</ele>
        <time>2015-05-13T19:07:47Z</time>
      </trkpt>
      <trkpt lat="37.354202" lon="-122.13412">
        <ele>137.8</ele>
        <time>2015-05-13T19:07:48Z</time>
      </trkpt>
      <trkpt lat="37.354197" lon="-122.134162">
        <ele>138.1</ele>
        <time>2015-05-13T19:07:50Z</time>
      </trkpt>
      <trkpt lat="37.354194" lon="-122.134207">
        <ele>138.5</ele>
        <time>2015-05-13T19:07:52Z</time>
      </trkpt>
      <trkpt lat="37.354189" lon="-122.134254">
        <ele>138.7</ele>
        <time>2015-05-13T19:07:55Z</time>
      </trkpt>
      <trkpt lat="37.354182" lon="-122.134292">
        <ele>139.1</ele>
        <time>2015-05-13T19:07:57Z</time>
      </trkpt>
      <trkpt lat="37.354182" lon="-122.134339">
        <ele>139.3</ele>
        <time>2015-05-13T19:07:59Z</time>
      </trkpt>
      <trkpt lat="37.354186" lon="-122.13439">
        <ele>139.1</ele>
        <time>2015-05-13T19:08:01Z</time>
      </trkpt>
      <trkpt lat="37.354185" lon="-122.134445">
        <ele>138.8</ele>
        <time>2015-05-13T19:08:05Z</time>
      </trkpt>
      <trkpt lat="37.354178" lon="-122.134489">
        <ele>138.8</ele>
        <time>2015-05-13T19:08:06Z</time>
      </trkpt>
      <trkpt lat="37.354165" lon="-122.134537">
        <ele>139.1</ele>
        <time>2015-05-13T19:08:08Z</time>
      </trkpt>
      <trkpt lat="37.354156" lon="-122.13458">
        <ele>139.6</ele>
        <time>2015-05-13T19:08:11Z</time>
      </trkpt>
      <trkpt lat="37.354138" lon="-122.134621">
        <ele>140.4</ele>
        <time>2015-05-13T19:08:14Z</time>
      </trkpt>
      <trkpt lat="37.354118" lon="-122.134672">
        <ele>141.2</ele>
        <time>2015-05-13T19:08:16Z</time>
      </trkpt>
      <trkpt lat="37.354104" lon="-122.134734">
        <ele>141.1</ele>
        <time>2015-05-13T19:08:19Z</time>
      </trkpt>
      <trkpt lat="37.354087" lon="-122.134789">
        <ele>141.6</ele>
        <time>2015-05-13T19:08:20Z</time>
      </trkpt>
      <trkpt lat="37.354067" lon="-122.134825">
        <ele>142.6</ele>
        <time>2015-05-13T19:08:22Z</time>
      </trkpt>
      <trkpt lat="37.354052" lon="-122.134865">
        <ele>143.3</ele>
        <time>2015-05-13T19:08:24Z</time>
      </trkpt>
      <trkpt lat="37.354033" lon="-122.134902">
        <ele>143.3</ele>
        <time>2015-05-13T19:08:26Z</time>
      </trkpt>
      <trkpt lat="37.354003" lon="-122.134939">
        <ele>143.5</ele>
        <time>2015-05-13T19:08:28Z</time>
      </trkpt>
      <trkpt lat="37.353974" lon="-122.134966">
        <ele>143.9</ele>
        <time>2015-05-13T19:08:30Z</time>
      </trkpt>
      <trkpt lat="37.353943" lon="-122.134999">
        <ele>144.6</ele>
        <time>2015-05-13T19:08:32Z</time>
      </trkpt>
      <trkpt lat="37.353915" lon="-122.135031">
        <ele>145.1</ele>
        <time>2015-05-13T19:08:34Z</time>
      </trkpt>
      <trkpt lat="37.353874" lon="-122.135066">
        <ele>145.7</ele>
        <time>2015-05-13T19:08:36Z</time>
      </trkpt>
      <trkpt lat="37.353835" lon="-122.13509">
        <ele>146.4</ele>
        <time>2015-05-13T19:08:38Z</time>
      </trkpt>
      <trkpt lat="37.353796" lon="-122.13511">
        <ele>147.1</ele>
        <time>2015-05-13T19:08:40Z</time>
      </trkpt>
      <trkpt lat="37.35375" lon="-122.135123">
        <ele>147.7</ele>
        <time>2015-05-13T19:08:42Z</time>
      </trkpt>
      <trkpt lat="37.353707" lon="-122.135128">
        <ele>148.1</ele>
        <time>2015-05-13T19:08:44Z</time>
      </trkpt>
      <trkpt lat="37.353666" lon="-122.135126">
        <ele>148.8</ele>
        <time>2015-05-13T19:08:46Z</time>
      </trkpt>
      <trkpt lat="37.353615" lon="-122.135127">
        <ele>149.1</ele>
        <time>2015-05-13T19:08:49Z</time>
      </trkpt>
      <trkpt lat="37.353574" lon="-122.135122">
        <ele>149.4</ele>
        <time>2015-05-13T19:08:51Z</time>
      </trkpt>
      <trkpt lat="37.353541" lon="-122.135106">
        <ele>150.4</ele>
        <time>2015-05-13T19:08:52Z</time>
      </trkpt>
      <trkpt lat="37.353503" lon="-122.135087">
        <ele>151.4</ele>
        <time>2015-05-13T19:08:55Z</time>
      </trkpt>
      <trkpt lat="37.353467" lon="-122.13501">
        <ele>152.4</ele>
        <time>2015-05-13T19:08:57Z</time>
      </trkpt>
      <trkpt lat="37.353463" lon="-122.134955">
        <ele>152.4</ele>
        <time>2015-05-13T19:08:59Z</time>
      </trkpt>
      <trkpt lat="37.353464" lon="-122.13491">
        <ele>152.3</ele>
        <time>2015-05-13T19:09:01Z</time>
      </trkpt>
      <trkpt lat="37.35347" lon="-122.134859">
        <ele>152.3</ele>
        <time>2015-05-13T19:09:03Z</time>
      </trkpt>
      <trkpt lat="37.353475" lon="-122.134799">
        <ele>152</ele>
        <time>2015-05-13T19:09:05Z</time>
      </trkpt>
      <trkpt lat="37.353486" lon="-122.13474">
        <ele>151.7</ele>
        <time>2015-05-13T19:09:07Z</time>
      </trkpt>
      <trkpt lat="37.353498" lon="-122.134689">
        <ele>151.7</ele>
        <time>2015-05-13T19:09:09Z</time>
      </trkpt>
      <trkpt lat="37.353511" lon="-122.134634">
        <ele>152</ele>
        <time>2015-05-13T19:09:11Z</time>
      </trkpt>
      <trkpt lat="37.353524" lon="-122.134579">
        <ele>152.2</ele>
        <time>2015-05-13T19:09:13Z</time>
      </trkpt>
      <trkpt lat="37.35354" lon="-122.134527">
        <ele>152.3</ele>
        <time>2015-05-13T19:09:15Z</time>
      </trkpt>
      <trkpt lat="37.353558" lon="-122.134479">
        <ele>152.7</ele>
        <time>2015-05-13T19:09:17Z</time>
      </trkpt>
      <trkpt lat="37.353579" lon="-122.134438">
        <ele>152.8</ele>
        <time>2015-05-13T19:09:19Z</time>
      </trkpt>
      <trkpt lat="37.353598" lon="-122.13439">
        <ele>153.1</ele>
        <time>2015-05-13T19:09:21Z</time>
      </trkpt>
      <trkpt lat="37.35361" lon="-122.134347">
        <ele>153.3</ele>
        <time>2015-05-13T19:09:23Z</time>
      </trkpt>
      <trkpt lat="37.353627" lon="-122.134308">
        <ele>153.6</ele>
        <time>2015-05-13T19:09:25Z</time>
      </trkpt>
      <trkpt lat="37.353641" lon="-122.134257">
        <ele>153.8</ele>
        <time>2015-05-13T19:09:27Z</time>
      </trkpt>
      <trkpt lat="37.353647" lon="-122.134201">
        <ele>154.1</ele>
        <time>2015-05-13T19:09:29Z</time>
      </trkpt>
      <trkpt lat="37.353648" lon="-122.134147">
        <ele>154.6</ele>
        <time>2015-05-13T19:09:31Z</time>
      </trkpt>
      <trkpt lat="37.353644" lon="-122.134093">
        <ele>155</ele>
        <time>2015-05-13T19:09:33Z</time>
      </trkpt>
      <trkpt lat="37.353635" lon="-122.134041">
        <ele>155.4</ele>
        <time>2015-05-13T19:09:35Z</time>
      </trkpt>
      <trkpt lat="37.353617" lon="-122.133991">
        <ele>155.7</ele>
        <time>2015-05-13T19:09:37Z</time>
      </trkpt>
      <trkpt lat="37.353592" lon="-122.133942">
        <ele>156</ele>
        <time>2015-05-13T19:09:39Z</time>
      </trkpt>
      <trkpt lat="37.353561" lon="-122.133899">
        <ele>155.9</ele>
        <time>2015-05-13T19:09:41Z</time>
      </trkpt>
      <trkpt lat="37.353528" lon="-122.133852">
        <ele>156.2</ele>
        <time>2015-05-13T19:09:43Z</time>
      </trkpt>
      <trkpt lat="37.3535" lon="-122.133801">
        <ele>156.3</ele>
        <time>2015-05-13T19:09:45Z</time>
      </trkpt>
      <trkpt lat="37.353479" lon="-122.133751">
        <ele>156.4</ele>
        <time>2015-05-13T19:09:47Z</time>
      </trkpt>
      <trkpt lat="37.353458" lon="-122.133706">
        <ele>156.9</ele>
        <time>2015-05-13T19:09:49Z</time>
      </trkpt>
      <trkpt lat="37.35345" lon="-122.133655">
        <ele>157.1</ele>
        <time>2015-05-13T19:09:51Z</time>
      </trkpt>
      <trkpt lat="37.353438" lon="-122.133609">
        <ele>157.3</ele>
        <time>2015-05-13T19:09:53Z</time>
      </trkpt>
      <trkpt lat="37.353429" lon="-122.133564">
        <ele>157.6</ele>
        <time>2015-05-13T19:09:55Z</time>
      </trkpt>
      <trkpt lat="37.353423" lon="-122.13352">
        <ele>158</ele>
        <time>2015-05-13T19:09:57Z</time>
      </trkpt>
      <trkpt lat="37.353417" lon="-122.133479">
        <ele>158.2</ele>
        <time>2015-05-13T19:09:59Z</time>
      </trkpt>
      <trkpt lat="37.353413" lon="-122.13344">
        <ele>158.4</ele>
        <time>2015-05-13T19:10:01Z</time>
      </trkpt>
      <trkpt lat="37.353402" lon="-122.133391">
        <ele>159.2</ele>
        <time>2015-05-13T19:10:04Z</time>
      </trkpt>
      <trkpt lat="37.353392" lon="-122.133347">
        <ele>159.7</ele>
        <time>2015-05-13T19:10:06Z</time>
      </trkpt>
      <trkpt lat="37.353381" lon="-122.1333">
        <ele>160</ele>
        <time>2015-05-13T19:10:08Z</time>
      </trkpt>
      <trkpt lat="37.35338" lon="-122.133254">
        <ele>160</ele>
        <time>2015-05-13T19:10:10Z</time>
      </trkpt>
      <trkpt lat="37.353375" lon="-122.133202">
        <ele>160.4</ele>
        <time>2015-05-13T19:10:13Z</time>
      </trkpt>
      <trkpt lat="37.353371" lon="-122.133155">
        <ele>160.8</ele>
        <time>2015-05-13T19:10:14Z</time>
      </trkpt>
      <trkpt lat="37.35337" lon="-122.1331">
        <ele>161.2</ele>
        <time>2015-05-13T19:10:16Z</time>
      </trkpt>
      <trkpt lat="37.353368" lon="-122.13305">
        <ele>161.6</ele>
        <time>2015-05-13T19:10:18Z</time>
      </trkpt>
      <trkpt lat="37.353365" lon="-122.132997">
        <ele>162.1</ele>
        <time>2015-05-13T19:10:20Z</time>
      </trkpt>
      <trkpt lat="37.353359" lon="-122.132947">
        <ele>162.5</ele>
        <time>2015-05-13T19:10:22Z</time>
      </trkpt>
      <trkpt lat="37.35335" lon="-122.132896">
        <ele>163</ele>
        <time>2015-05-13T19:10:24Z</time>
      </trkpt>
      <trkpt lat="37.353337" lon="-122.132847">
        <ele>163.7</ele>
        <time>2015-05-13T19:10:26Z</time>
      </trkpt>
      <trkpt lat="37.353326" lon="-122.132801">
        <ele>164.3</ele>
        <time>2015-05-13T19:10:28Z</time>
      </trkpt>
      <trkpt lat="37.353317" lon="-122.132751">
        <ele>164.8</ele>
        <time>2015-05-13T19:10:30Z</time>
      </trkpt>
      <trkpt lat="37.353304" lon="-122.132681">
        <ele>166</ele>
        <time>2015-05-13T19:10:33Z</time>
      </trkpt>
      <trkpt lat="37.353302" lon="-122.132655">
        <ele>166.3</ele>
        <time>2015-05-13T19:10:34Z</time>
      </trkpt>
      <trkpt lat="37.3533" lon="-122.132613">
        <ele>166.7</ele>
        <time>2015-05-13T19:10:36Z</time>
      </trkpt>
      <trkpt lat="37.3533" lon="-122.132573">
        <ele>166.8</ele>
        <time>2015-05-13T19:10:38Z</time>
      </trkpt>
      <trkpt lat="37.3533" lon="-122.132536">
        <ele>167.1</ele>
        <time>2015-05-13T19:10:41Z</time>
      </trkpt>
      <trkpt lat="37.353306" lon="-122.132499">
        <ele>167.1</ele>
        <time>2015-05-13T19:10:42Z</time>
      </trkpt>
      <trkpt lat="37.353313" lon="-122.132463">
        <ele>167.2</ele>
        <time>2015-05-13T19:10:44Z</time>
      </trkpt>
      <trkpt lat="37.353321" lon="-122.132425">
        <ele>167.4</ele>
        <time>2015-05-13T19:10:46Z</time>
      </trkpt>
      <trkpt lat="37.353327" lon="-122.132383">
        <ele>168.1</ele>
        <time>2015-05-13T19:10:48Z</time>
      </trkpt>
      <trkpt lat="37.35334" lon="-122.13234">
        <ele>168.4</ele>
        <time>2015-05-13T19:10:50Z</time>
      </trkpt>
      <trkpt lat="37.353335" lon="-122.132275">
        <ele>169.7</ele>
        <time>2015-05-13T19:10:54Z</time>
      </trkpt>
      <trkpt lat="37.353329" lon="-122.132257">
        <ele>170.3</ele>
        <time>2015-05-13T19:10:55Z</time>
      </trkpt>
      <trkpt lat="37.353332" lon="-122.132221">
        <ele>170.9</ele>
        <time>2015-05-13T19:10:57Z</time>
      </trkpt>
      <trkpt lat="37.353346" lon="-122.132191">
        <ele>170.9</ele>
        <time>2015-05-13T19:10:59Z</time>
      </trkpt>
      <trkpt lat="37.353358" lon="-122.132153">
        <ele>171.7</ele>
        <time>2015-05-13T19:11:01Z</time>
      </trkpt>
      <trkpt lat="37.353378" lon="-122.132119">
        <ele>171.6</ele>
        <time>2015-05-13T19:11:04Z</time>
      </trkpt>
      <trkpt lat="37.353412" lon="-122.132089">
        <ele>170.8</ele>
        <time>2015-05-13T19:11:05Z</time>
      </trkpt>
      <trkpt lat="37.353451" lon="-122.132064">
        <ele>170.8</ele>
        <time>2015-05-13T19:11:08Z</time>
      </trkpt>
      <trkpt lat="37.35349" lon="-122.132038">
        <ele>171</ele>
        <time>2015-05-13T19:11:09Z</time>
      </trkpt>
      <trkpt lat="37.353529" lon="-122.13201">
        <ele>171.2</ele>
        <time>2015-05-13T19:11:12Z</time>
      </trkpt>
      <trkpt lat="37.35358" lon="-122.131965">
        <ele>171.7</ele>
        <time>2015-05-13T19:11:14Z</time>
      </trkpt>
      <trkpt lat="37.353597" lon="-122.13195">
        <ele>171.9</ele>
        <time>2015-05-13T19:11:15Z</time>
      </trkpt>
      <trkpt lat="37.353645" lon="-122.131905">
        <ele>172.3</ele>
        <time>2015-05-13T19:11:18Z</time>
      </trkpt>
      <trkpt lat="37.353663" lon="-122.131891">
        <ele>172.5</ele>
        <time>2015-05-13T19:11:19Z</time>
      </trkpt>
      <trkpt lat="37.353696" lon="-122.131859">
        <ele>172.9</ele>
        <time>2015-05-13T19:11:21Z</time>
      </trkpt>
      <trkpt lat="37.35373" lon="-122.131827">
        <ele>173.4</ele>
        <time>2015-05-13T19:11:23Z</time>
      </trkpt>
      <trkpt lat="37.353759" lon="-122.1318">
        <ele>173.8</ele>
        <time>2015-05-13T19:11:25Z</time>
      </trkpt>
      <trkpt lat="37.35379" lon="-122.131777">
        <ele>174</ele>
        <time>2015-05-13T19:11:27Z</time>
      </trkpt>
      <trkpt lat="37.353822" lon="-122.131755">
        <ele>174.5</ele>
        <time>2015-05-13T19:11:29Z</time>
      </trkpt>
      <trkpt lat="37.353851" lon="-122.131736">
        <ele>174.7</ele>
        <time>2015-05-13T19:11:31Z</time>
      </trkpt>
      <trkpt lat="37.353874" lon="-122.13171">
        <ele>175</ele>
        <time>2015-05-13T19:11:33Z</time>
      </trkpt>
      <trkpt lat="37.353901" lon="-122.131676">
        <ele>175.4</ele>
        <time>2015-05-13T19:11:35Z</time>
      </trkpt>
      <trkpt lat="37.353923" lon="-122.131643">
        <ele>175.6</ele>
        <time>2015-05-13T19:11:37Z</time>
      </trkpt>
      <trkpt lat="37.353938" lon="-122.131606">
        <ele>175.9</ele>
        <time>2015-05-13T19:11:39Z</time>
      </trkpt>
      <trkpt lat="37.353947" lon="-122.131557">
        <ele>176.1</ele>
        <time>2015-05-13T19:11:41Z</time>
      </trkpt>
      <trkpt lat="37.353948" lon="-122.131502">
        <ele>176.3</ele>
        <time>2015-05-13T19:11:44Z</time>
      </trkpt>
      <trkpt lat="37.353928" lon="-122.131425">
        <ele>176.6</ele>
        <time>2015-05-13T19:11:46Z</time>
      </trkpt>
      <trkpt lat="37.353915" lon="-122.131399">
        <ele>176.7</ele>
        <time>2015-05-13T19:11:48Z</time>
      </trkpt>
      <trkpt lat="37.353867" lon="-122.131337">
        <ele>177.2</ele>
        <time>2015-05-13T19:11:50Z</time>
      </trkpt>
      <trkpt lat="37.35385" lon="-122.131319">
        <ele>177.3</ele>
        <time>2015-05-13T19:11:51Z</time>
      </trkpt>
      <trkpt lat="37.35381" lon="-122.131284">
        <ele>177.7</ele>
        <time>2015-05-13T19:11:53Z</time>
      </trkpt>
      <trkpt lat="37.353769" lon="-122.131268">
        <ele>178.2</ele>
        <time>2015-05-13T19:11:55Z</time>
      </trkpt>
      <trkpt lat="37.353723" lon="-122.131266">
        <ele>178.8</ele>
        <time>2015-05-13T19:11:58Z</time>
      </trkpt>
      <trkpt lat="37.35367" lon="-122.131278">
        <ele>179.3</ele>
        <time>2015-05-13T19:12:00Z</time>
      </trkpt>
      <trkpt lat="37.35365" lon="-122.131284">
        <ele>179.5</ele>
        <time>2015-05-13T19:12:01Z</time>
      </trkpt>
      <trkpt lat="37.353611" lon="-122.131289">
        <ele>179.7</ele>
        <time>2015-05-13T19:12:03Z</time>
      </trkpt>
      <trkpt lat="37.353573" lon="-122.131279">
        <ele>179.9</ele>
        <time>2015-05-13T19:12:05Z</time>
      </trkpt>
      <trkpt lat="37.353541" lon="-122.131251">
        <ele>180.4</ele>
        <time>2015-05-13T19:12:07Z</time>
      </trkpt>
      <trkpt lat="37.353513" lon="-122.131218">
        <ele>181.1</ele>
        <time>2015-05-13T19:12:09Z</time>
      </trkpt>
      <trkpt lat="37.353491" lon="-122.131182">
        <ele>181.4</ele>
        <time>2015-05-13T19:12:11Z</time>
      </trkpt>
      <trkpt lat="37.353474" lon="-122.131139">
        <ele>181.6</ele>
        <time>2015-05-13T19:12:13Z</time>
      </trkpt>
      <trkpt lat="37.353453" lon="-122.131099">
        <ele>182</ele>
        <time>2015-05-13T19:12:15Z</time>
      </trkpt>
      <trkpt lat="37.353416" lon="-122.131044">
        <ele>182.9</ele>
        <time>2015-05-13T19:12:18Z</time>
      </trkpt>
      <trkpt lat="37.353404" lon="-122.131025">
        <ele>183.2</ele>
        <time>2015-05-13T19:12:19Z</time>
      </trkpt>
      <trkpt lat="37.353387" lon="-122.130985">
        <ele>183.3</ele>
        <time>2015-05-13T19:12:21Z</time>
      </trkpt>
      <trkpt lat="37.353372" lon="-122.130939">
        <ele>183.4</ele>
        <time>2015-05-13T19:12:23Z</time>
      </trkpt>
      <trkpt lat="37.353355" lon="-122.130894">
        <ele>183.5</ele>
        <time>2015-05-13T19:12:26Z</time>
      </trkpt>
      <trkpt lat="37.353339" lon="-122.130852">
        <ele>183.7</ele>
        <time>2015-05-13T19:12:27Z</time>
      </trkpt>
      <trkpt lat="37.35332" lon="-122.130808">
        <ele>184.2</ele>
        <time>2015-05-13T19:12:30Z</time>
      </trkpt>
      <trkpt lat="37.353297" lon="-122.130738">
        <ele>184</ele>
        <time>2015-05-13T19:12:32Z</time>
      </trkpt>
      <trkpt lat="37.353291" lon="-122.130713">
        <ele>183.9</ele>
        <time>2015-05-13T19:12:33Z</time>
      </trkpt>
      <trkpt lat="37.353272" lon="-122.130668">
        <ele>184.2</ele>
        <time>2015-05-13T19:12:35Z</time>
      </trkpt>
      <trkpt lat="37.353251" lon="-122.130624">
        <ele>184.4</ele>
        <time>2015-05-13T19:12:38Z</time>
      </trkpt>
      <trkpt lat="37.353217" lon="-122.130559">
        <ele>184.6</ele>
        <time>2015-05-13T19:12:40Z</time>
      </trkpt>
      <trkpt lat="37.353205" lon="-122.130537">
        <ele>184.6</ele>
        <time>2015-05-13T19:12:41Z</time>
      </trkpt>
      <trkpt lat="37.353182" lon="-122.130487">
        <ele>184.7</ele>
        <time>2015-05-13T19:12:43Z</time>
      </trkpt>
      <trkpt lat="37.353167" lon="-122.130458">
        <ele>184.7</ele>
        <time>2015-05-13T19:12:44Z</time>
      </trkpt>
      <trkpt lat="37.353142" lon="-122.130402">
        <ele>184.6</ele>
        <time>2015-05-13T19:12:46Z</time>
      </trkpt>
      <trkpt lat="37.353126" lon="-122.13037">
        <ele>184.4</ele>
        <time>2015-05-13T19:12:47Z</time>
      </trkpt>
      <trkpt lat="37.353112" lon="-122.130338">
        <ele>184.3</ele>
        <time>2015-05-13T19:12:48Z</time>
      </trkpt>
      <trkpt lat="37.353091" lon="-122.130291">
        <ele>184</ele>
        <time>2015-05-13T19:12:49Z</time>
      </trkpt>
      <trkpt lat="37.353069" lon="-122.130242">
        <ele>183.6</ele>
        <time>2015-05-13T19:12:50Z</time>
      </trkpt>
      <trkpt lat="37.353044" lon="-122.130186">
        <ele>183.3</ele>
        <time>2015-05-13T19:12:51Z</time>
      </trkpt>
      <trkpt lat="37.353021" lon="-122.130133">
        <ele>182.8</ele>
        <time>2015-05-13T19:12:52Z</time>
      </trkpt>
      <trkpt lat="37.353078" lon="-122.129994">
        <ele>182.6</ele>
        <time>2015-05-13T19:12:53Z</time>
      </trkpt>
      <trkpt lat="37.353039" lon="-122.129914">
        <ele>182</ele>
        <time>2015-05-13T19:12:54Z</time>
      </trkpt>
      <trkpt lat="37.352998" lon="-122.129826">
        <ele>181.2</ele>
        <time>2015-05-13T19:12:55Z</time>
      </trkpt>
      <trkpt lat="37.352961" lon="-122.129748">
        <ele>180.3</ele>
        <time>2015-05-13T19:12:56Z</time>
      </trkpt>
      <trkpt lat="37.352931" lon="-122.129684">
        <ele>179.7</ele>
        <time>2015-05-13T19:12:57Z</time>
      </trkpt>
      <trkpt lat="37.352908" lon="-122.129595">
        <ele>179.1</ele>
        <time>2015-05-13T19:12:58Z</time>
      </trkpt>
      <trkpt lat="37.352895" lon="-122.12951">
        <ele>178.6</ele>
        <time>2015-05-13T19:12:59Z</time>
      </trkpt>
      <trkpt lat="37.352887" lon="-122.129422">
        <ele>178</ele>
        <time>2015-05-13T19:13:00Z</time>
      </trkpt>
      <trkpt lat="37.352882" lon="-122.12933">
        <ele>177.5</ele>
        <time>2015-05-13T19:13:01Z</time>
      </trkpt>
      <trkpt lat="37.352897" lon="-122.129241">
        <ele>177</ele>
        <time>2015-05-13T19:13:02Z</time>
      </trkpt>
      <trkpt lat="37.352915" lon="-122.129168">
        <ele>176.5</ele>
        <time>2015-05-13T19:13:03Z</time>
      </trkpt>
      <trkpt lat="37.352942" lon="-122.129083">
        <ele>176</ele>
        <time>2015-05-13T19:13:04Z</time>
      </trkpt>
      <trkpt lat="37.352982" lon="-122.128979">
        <ele>175.3</ele>
        <time>2015-05-13T19:13:05Z</time>
      </trkpt>
      <trkpt lat="37.353022" lon="-122.128887">
        <ele>174.6</ele>
        <time>2015-05-13T19:13:06Z</time>
      </trkpt>
      <trkpt lat="37.353067" lon="-122.128782">
        <ele>173.4</ele>
        <time>2015-05-13T19:13:07Z</time>
      </trkpt>
      <trkpt lat="37.353115" lon="-122.128689">
        <ele>172.8</ele>
        <time>2015-05-13T19:13:08Z</time>
      </trkpt>
      <trkpt lat="37.353173" lon="-122.1286">
        <ele>172.5</ele>
        <time>2015-05-13T19:13:09Z</time>
      </trkpt>
      <trkpt lat="37.353241" lon="-122.12851">
        <ele>172.4</ele>
        <time>2015-05-13T19:13:10Z</time>
      </trkpt>
      <trkpt lat="37.353303" lon="-122.128429">
        <ele>172.5</ele>
        <time>2015-05-13T19:13:11Z</time>
      </trkpt>
      <trkpt lat="37.353364" lon="-122.128348">
        <ele>172.6</ele>
        <time>2015-05-13T19:13:12Z</time>
      </trkpt>
      <trkpt lat="37.353419" lon="-122.128275">
        <ele>172.8</ele>
        <time>2015-05-13T19:13:13Z</time>
      </trkpt>
      <trkpt lat="37.353476" lon="-122.1282">
        <ele>172.9</ele>
        <time>2015-05-13T19:13:14Z</time>
      </trkpt>
      <trkpt lat="37.353529" lon="-122.128131">
        <ele>173.1</ele>
        <time>2015-05-13T19:13:15Z</time>
      </trkpt>
      <trkpt lat="37.35358" lon="-122.128081">
        <ele>173.2</ele>
        <time>2015-05-13T19:13:16Z</time>
      </trkpt>
      <trkpt lat="37.353634" lon="-122.128039">
        <ele>172.9</ele>
        <time>2015-05-13T19:13:17Z</time>
      </trkpt>
      <trkpt lat="37.353696" lon="-122.128011">
        <ele>172.9</ele>
        <time>2015-05-13T19:13:18Z</time>
      </trkpt>
      <trkpt lat="37.353769" lon="-122.127998">
        <ele>173</ele>
        <time>2015-05-13T19:13:19Z</time>
      </trkpt>
      <trkpt lat="37.353838" lon="-122.127991">
        <ele>173.1</ele>
        <time>2015-05-13T19:13:20Z</time>
      </trkpt>
      <trkpt lat="37.3539" lon="-122.127984">
        <ele>173.2</ele>
        <time>2015-05-13T19:13:21Z</time>
      </trkpt>
      <trkpt lat="37.353971" lon="-122.127974">
        <ele>173.4</ele>
        <time>2015-05-13T19:13:22Z</time>
      </trkpt>
      <trkpt lat="37.354022" lon="-122.127967">
        <ele>173.4</ele>
        <time>2015-05-13T19:13:23Z</time>
      </trkpt>
      <trkpt lat="37.354082" lon="-122.127959">
        <ele>173.5</ele>
        <time>2015-05-13T19:13:24Z</time>
      </trkpt>
      <trkpt lat="37.354143" lon="-122.127951">
        <ele>173.6</ele>
        <time>2015-05-13T19:13:25Z</time>
      </trkpt>
      <trkpt lat="37.354197" lon="-122.127943">
        <ele>173.6</ele>
        <time>2015-05-13T19:13:26Z</time>
      </trkpt>
      <trkpt lat="37.354247" lon="-122.127936">
        <ele>173.7</ele>
        <time>2015-05-13T19:13:27Z</time>
      </trkpt>
      <trkpt lat="37.354304" lon="-122.127928">
        <ele>173.6</ele>
        <time>2015-05-13T19:13:28Z</time>
      </trkpt>
      <trkpt lat="37.354361" lon="-122.127918">
        <ele>173.5</ele>
        <time>2015-05-13T19:13:29Z</time>
      </trkpt>
      <trkpt lat="37.354407" lon="-122.127908">
        <ele>173.3</ele>
        <time>2015-05-13T19:13:30Z</time>
      </trkpt>
      <trkpt lat="37.354486" lon="-122.127844">
        <ele>172.5</ele>
        <time>2015-05-13T19:13:31Z</time>
      </trkpt>
      <trkpt lat="37.3545" lon="-122.127775">
        <ele>172.1</ele>
        <time>2015-05-13T19:13:32Z</time>
      </trkpt>
      <trkpt lat="37.354515" lon="-122.127694">
        <ele>171.5</ele>
        <time>2015-05-13T19:13:33Z</time>
      </trkpt>
      <trkpt lat="37.354533" lon="-122.127601">
        <ele>170.6</ele>
        <time>2015-05-13T19:13:34Z</time>
      </trkpt>
      <trkpt lat="37.354551" lon="-122.127505">
        <ele>169.9</ele>
        <time>2015-05-13T19:13:35Z</time>
      </trkpt>
      <trkpt lat="37.35457" lon="-122.127409">
        <ele>169.1</ele>
        <time>2015-05-13T19:13:36Z</time>
      </trkpt>
      <trkpt lat="37.35459" lon="-122.127306">
        <ele>168.4</ele>
        <time>2015-05-13T19:13:37Z</time>
      </trkpt>
      <trkpt lat="37.354609" lon="-122.127206">
        <ele>167.7</ele>
        <time>2015-05-13T19:13:38Z</time>
      </trkpt>
      <trkpt lat="37.354636" lon="-122.127109">
        <ele>167.3</ele>
        <time>2015-05-13T19:13:39Z</time>
      </trkpt>
      <trkpt lat="37.354663" lon="-122.127031">
        <ele>167.1</ele>
        <time>2015-05-13T19:13:40Z</time>
      </trkpt>
      <trkpt lat="37.354715" lon="-122.126938">
        <ele>166.9</ele>
        <time>2015-05-13T19:13:41Z</time>
      </trkpt>
      <trkpt lat="37.354764" lon="-122.126853">
        <ele>167.1</ele>
        <time>2015-05-13T19:13:42Z</time>
      </trkpt>
      <trkpt lat="37.354805" lon="-122.126779">
        <ele>167.2</ele>
        <time>2015-05-13T19:13:43Z</time>
      </trkpt>
      <trkpt lat="37.354843" lon="-122.126707">
        <ele>167.4</ele>
        <time>2015-05-13T19:13:44Z</time>
      </trkpt>
      <trkpt lat="37.354879" lon="-122.126639">
        <ele>167.3</ele>
        <time>2015-05-13T19:13:45Z</time>
      </trkpt>
      <trkpt lat="37.354917" lon="-122.126567">
        <ele>166.8</ele>
        <time>2015-05-13T19:13:46Z</time>
      </trkpt>
      <trkpt lat="37.354968" lon="-122.126458">
        <ele>166</ele>
        <time>2015-05-13T19:13:47Z</time>
      </trkpt>
      <trkpt lat="37.35499" lon="-122.126374">
        <ele>165.5</ele>
        <time>2015-05-13T19:13:48Z</time>
      </trkpt>
      <trkpt lat="37.354992" lon="-122.126327">
        <ele>165.3</ele>
        <time>2015-05-13T19:13:49Z</time>
      </trkpt>
      <trkpt lat="37.354984" lon="-122.126237">
        <ele>164.9</ele>
        <time>2015-05-13T19:13:50Z</time>
      </trkpt>
      <trkpt lat="37.354973" lon="-122.126139">
        <ele>164.5</ele>
        <time>2015-05-13T19:13:51Z</time>
      </trkpt>
      <trkpt lat="37.354963" lon="-122.126044">
        <ele>164</ele>
        <time>2015-05-13T19:13:52Z</time>
      </trkpt>
      <trkpt lat="37.354951" lon="-122.125942">
        <ele>163.4</ele>
        <time>2015-05-13T19:13:53Z</time>
      </trkpt>
      <trkpt lat="37.354941" lon="-122.125848">
        <ele>163</ele>
        <time>2015-05-13T19:13:54Z</time>
      </trkpt>
      <trkpt lat="37.354931" lon="-122.125759">
        <ele>162.7</ele>
        <time>2015-05-13T19:13:56Z</time>
      </trkpt>
      <trkpt lat="37.354909" lon="-122.125569">
        <ele>162.1</ele>
        <time>2015-05-13T19:13:57Z</time>
      </trkpt>
      <trkpt lat="37.354898" lon="-122.125467">
        <ele>161.8</ele>
        <time>2015-05-13T19:13:58Z</time>
      </trkpt>
      <trkpt lat="37.354886" lon="-122.125365">
        <ele>161.6</ele>
        <time>2015-05-13T19:13:59Z</time>
      </trkpt>
      <trkpt lat="37.354876" lon="-122.125276">
        <ele>161.4</ele>
        <time>2015-05-13T19:14:00Z</time>
      </trkpt>
      <trkpt lat="37.354867" lon="-122.125205">
        <ele>161.3</ele>
        <time>2015-05-13T19:14:01Z</time>
      </trkpt>
      <trkpt lat="37.354855" lon="-122.125118">
        <ele>161.3</ele>
        <time>2015-05-13T19:14:02Z</time>
      </trkpt>
      <trkpt lat="37.354843" lon="-122.125034">
        <ele>161.2</ele>
        <time>2015-05-13T19:14:03Z</time>
      </trkpt>
      <trkpt lat="37.354829" lon="-122.124947">
        <ele>161.2</ele>
        <time>2015-05-13T19:14:04Z</time>
      </trkpt>
      <trkpt lat="37.354816" lon="-122.124869">
        <ele>161.1</ele>
        <time>2015-05-13T19:14:05Z</time>
      </trkpt>
      <trkpt lat="37.354809" lon="-122.124822">
        <ele>161</ele>
        <time>2015-05-13T19:14:07Z</time>
      </trkpt>
      <trkpt lat="37.354724" lon="-122.12453">
        <ele>160.8</ele>
        <time>2015-05-13T19:14:09Z</time>
      </trkpt>
      <trkpt lat="37.354706" lon="-122.124437">
        <ele>160.4</ele>
        <time>2015-05-13T19:14:10Z</time>
      </trkpt>
      <trkpt lat="37.354689" lon="-122.124359">
        <ele>160.2</ele>
        <time>2015-05-13T19:14:11Z</time>
      </trkpt>
      <trkpt lat="37.354668" lon="-122.124275">
        <ele>159.9</ele>
        <time>2015-05-13T19:14:12Z</time>
      </trkpt>
      <trkpt lat="37.354645" lon="-122.124184">
        <ele>159.3</ele>
        <time>2015-05-13T19:14:13Z</time>
      </trkpt>
      <trkpt lat="37.354618" lon="-122.124083">
        <ele>158.6</ele>
        <time>2015-05-13T19:14:14Z</time>
      </trkpt>
      <trkpt lat="37.354594" lon="-122.123978">
        <ele>158</ele>
        <time>2015-05-13T19:14:15Z</time>
      </trkpt>
      <trkpt lat="37.354514" lon="-122.123882">
        <ele>158.6</ele>
        <time>2015-05-13T19:14:16Z</time>
      </trkpt>
      <trkpt lat="37.354499" lon="-122.123775">
        <ele>157.7</ele>
        <time>2015-05-13T19:14:17Z</time>
      </trkpt>
      <trkpt lat="37.354478" lon="-122.123665">
        <ele>157</ele>
        <time>2015-05-13T19:14:18Z</time>
      </trkpt>
      <trkpt lat="37.35445" lon="-122.123547">
        <ele>156.6</ele>
        <time>2015-05-13T19:14:19Z</time>
      </trkpt>
      <trkpt lat="37.354429" lon="-122.12343">
        <ele>155.3</ele>
        <time>2015-05-13T19:14:20Z</time>
      </trkpt>
      <trkpt lat="37.354396" lon="-122.123329">
        <ele>154.4</ele>
        <time>2015-05-13T19:14:21Z</time>
      </trkpt>
      <trkpt lat="37.354381" lon="-122.123218">
        <ele>154.7</ele>
        <time>2015-05-13T19:14:22Z</time>
      </trkpt>
      <trkpt lat="37.354363" lon="-122.123106">
        <ele>154.1</ele>
        <time>2015-05-13T19:14:23Z</time>
      </trkpt>
      <trkpt lat="37.354339" lon="-122.122979">
        <ele>153.8</ele>
        <time>2015-05-13T19:14:24Z</time>
      </trkpt>
      <trkpt lat="37.354317" lon="-122.122863">
        <ele>153.6</ele>
        <time>2015-05-13T19:14:25Z</time>
      </trkpt>
      <trkpt lat="37.354295" lon="-122.122767">
        <ele>153.5</ele>
        <time>2015-05-13T19:14:26Z</time>
      </trkpt>
      <trkpt lat="37.354264" lon="-122.122656">
        <ele>153.3</ele>
        <time>2015-05-13T19:14:27Z</time>
      </trkpt>
      <trkpt lat="37.354241" lon="-122.122554">
        <ele>152.8</ele>
        <time>2015-05-13T19:14:28Z</time>
      </trkpt>
      <trkpt lat="37.354217" lon="-122.122452">
        <ele>152.5</ele>
        <time>2015-05-13T19:14:29Z</time>
      </trkpt>
      <trkpt lat="37.354194" lon="-122.12235">
        <ele>152.2</ele>
        <time>2015-05-13T19:14:30Z</time>
      </trkpt>
      <trkpt lat="37.35417" lon="-122.122254">
        <ele>151.7</ele>
        <time>2015-05-13T19:14:31Z</time>
      </trkpt>
      <trkpt lat="37.354149" lon="-122.122158">
        <ele>151.3</ele>
        <time>2015-05-13T19:14:32Z</time>
      </trkpt>
      <trkpt lat="37.354135" lon="-122.122088">
        <ele>150.7</ele>
        <time>2015-05-13T19:14:33Z</time>
      </trkpt>
      <trkpt lat="37.354119" lon="-122.122021">
        <ele>150.2</ele>
        <time>2015-05-13T19:14:34Z</time>
      </trkpt>
      <trkpt lat="37.354109" lon="-122.121946">
        <ele>149.8</ele>
        <time>2015-05-13T19:14:35Z</time>
      </trkpt>
      <trkpt lat="37.354093" lon="-122.121897">
        <ele>149.7</ele>
        <time>2015-05-13T19:14:36Z</time>
      </trkpt>
      <trkpt lat="37.354081" lon="-122.121853">
        <ele>149.5</ele>
        <time>2015-05-13T19:14:37Z</time>
      </trkpt>
      <trkpt lat="37.354079" lon="-122.121811">
        <ele>149.4</ele>
        <time>2015-05-13T19:14:38Z</time>
      </trkpt>
      <trkpt lat="37.354102" lon="-122.12177">
        <ele>149.3</ele>
        <time>2015-05-13T19:14:39Z</time>
      </trkpt>
      <trkpt lat="37.354146" lon="-122.121745">
        <ele>149</ele>
        <time>2015-05-13T19:14:40Z</time>
      </trkpt>
      <trkpt lat="37.354203" lon="-122.121724">
        <ele>148.5</ele>
        <time>2015-05-13T19:14:41Z</time>
      </trkpt>
      <trkpt lat="37.354267" lon="-122.121712">
        <ele>148.1</ele>
        <time>2015-05-13T19:14:42Z</time>
      </trkpt>
      <trkpt lat="37.354325" lon="-122.121712">
        <ele>147.6</ele>
        <time>2015-05-13T19:14:43Z</time>
      </trkpt>
      <trkpt lat="37.354389" lon="-122.121711">
        <ele>147.3</ele>
        <time>2015-05-13T19:14:44Z</time>
      </trkpt>
      <trkpt lat="37.354457" lon="-122.121703">
        <ele>146.9</ele>
        <time>2015-05-13T19:14:45Z</time>
      </trkpt>
      <trkpt lat="37.354523" lon="-122.121699">
        <ele>146.6</ele>
        <time>2015-05-13T19:14:46Z</time>
      </trkpt>
      <trkpt lat="37.354585" lon="-122.1217">
        <ele>146.2</ele>
        <time>2015-05-13T19:14:47Z</time>
      </trkpt>
      <trkpt lat="37.35465" lon="-122.121715">
        <ele>145.7</ele>
        <time>2015-05-13T19:14:48Z</time>
      </trkpt>
      <trkpt lat="37.354721" lon="-122.121756">
        <ele>145.4</ele>
        <time>2015-05-13T19:14:49Z</time>
      </trkpt>
      <trkpt lat="37.354785" lon="-122.121796">
        <ele>144.9</ele>
        <time>2015-05-13T19:14:50Z</time>
      </trkpt>
      <trkpt lat="37.354849" lon="-122.121824">
        <ele>144</ele>
        <time>2015-05-13T19:14:51Z</time>
      </trkpt>
      <trkpt lat="37.354898" lon="-122.121865">
        <ele>143.7</ele>
        <time>2015-05-13T19:14:52Z</time>
      </trkpt>
      <trkpt lat="37.354949" lon="-122.12194">
        <ele>143.1</ele>
        <time>2015-05-13T19:14:53Z</time>
      </trkpt>
      <trkpt lat="37.354997" lon="-122.122016">
        <ele>142.2</ele>
        <time>2015-05-13T19:14:54Z</time>
      </trkpt>
      <trkpt lat="37.355043" lon="-122.12209">
        <ele>141.3</ele>
        <time>2015-05-13T19:14:55Z</time>
      </trkpt>
      <trkpt lat="37.355114" lon="-122.12217">
        <ele>140.2</ele>
        <time>2015-05-13T19:14:56Z</time>
      </trkpt>
      <trkpt lat="37.355173" lon="-122.122202">
        <ele>139.6</ele>
        <time>2015-05-13T19:14:57Z</time>
      </trkpt>
      <trkpt lat="37.35527" lon="-122.122227">
        <ele>138.9</ele>
        <time>2015-05-13T19:14:58Z</time>
      </trkpt>
      <trkpt lat="37.355349" lon="-122.122245">
        <ele>138.6</ele>
        <time>2015-05-13T19:14:59Z</time>
      </trkpt>
      <trkpt lat="37.35542" lon="-122.122262">
        <ele>138.3</ele>
        <time>2015-05-13T19:15:00Z</time>
      </trkpt>
      <trkpt lat="37.355492" lon="-122.122282">
        <ele>137.9</ele>
        <time>2015-05-13T19:15:01Z</time>
      </trkpt>
      <trkpt lat="37.35558" lon="-122.122318">
        <ele>136.6</ele>
        <time>2015-05-13T19:15:02Z</time>
      </trkpt>
      <trkpt lat="37.355647" lon="-122.122363">
        <ele>135.5</ele>
        <time>2015-05-13T19:15:03Z</time>
      </trkpt>
      <trkpt lat="37.355727" lon="-122.122451">
        <ele>134.1</ele>
        <time>2015-05-13T19:15:04Z</time>
      </trkpt>
      <trkpt lat="37.355801" lon="-122.122533">
        <ele>132.8</ele>
        <time>2015-05-13T19:15:05Z</time>
      </trkpt>
      <trkpt lat="37.355875" lon="-122.122614">
        <ele>131.7</ele>
        <time>2015-05-13T19:15:06Z</time>
      </trkpt>
      <trkpt lat="37.355959" lon="-122.122698">
        <ele>130.7</ele>
        <time>2015-05-13T19:15:07Z</time>
      </trkpt>
      <trkpt lat="37.356042" lon="-122.122778">
        <ele>130</ele>
        <time>2015-05-13T19:15:08Z</time>
      </trkpt>
      <trkpt lat="37.356122" lon="-122.12284">
        <ele>129.4</ele>
        <time>2015-05-13T19:15:09Z</time>
      </trkpt>
      <trkpt lat="37.356241" lon="-122.1229">
        <ele>127.7</ele>
        <time>2015-05-13T19:15:10Z</time>
      </trkpt>
      <trkpt lat="37.356325" lon="-122.122929">
        <ele>126.8</ele>
        <time>2015-05-13T19:15:11Z</time>
      </trkpt>
      <trkpt lat="37.356417" lon="-122.122925">
        <ele>126</ele>
        <time>2015-05-13T19:15:12Z</time>
      </trkpt>
      <trkpt lat="37.356505" lon="-122.122906">
        <ele>125.2</ele>
        <time>2015-05-13T19:15:13Z</time>
      </trkpt>
      <trkpt lat="37.356593" lon="-122.122881">
        <ele>124.4</ele>
        <time>2015-05-13T19:15:14Z</time>
      </trkpt>
      <trkpt lat="37.356691" lon="-122.12285">
        <ele>123.5</ele>
        <time>2015-05-13T19:15:15Z</time>
      </trkpt>
      <trkpt lat="37.356785" lon="-122.122823">
        <ele>122.2</ele>
        <time>2015-05-13T19:15:16Z</time>
      </trkpt>
      <trkpt lat="37.356891" lon="-122.122805">
        <ele>120.5</ele>
        <time>2015-05-13T19:15:17Z</time>
      </trkpt>
      <trkpt lat="37.357005" lon="-122.122791">
        <ele>119.4</ele>
        <time>2015-05-13T19:15:18Z</time>
      </trkpt>
      <trkpt lat="37.357122" lon="-122.122781">
        <ele>118.1</ele>
        <time>2015-05-13T19:15:19Z</time>
      </trkpt>
      <trkpt lat="37.357237" lon="-122.122775">
        <ele>117</ele>
        <time>2015-05-13T19:15:20Z</time>
      </trkpt>
      <trkpt lat="37.357341" lon="-122.122773">
        <ele>116.4</ele>
        <time>2015-05-13T19:15:21Z</time>
      </trkpt>
      <trkpt lat="37.357437" lon="-122.12277">
        <ele>115.6</ele>
        <time>2015-05-13T19:15:22Z</time>
      </trkpt>
      <trkpt lat="37.35751" lon="-122.122768">
        <ele>115.1</ele>
        <time>2015-05-13T19:15:23Z</time>
      </trkpt>
      <trkpt lat="37.357586" lon="-122.122767">
        <ele>114.5</ele>
        <time>2015-05-13T19:15:24Z</time>
      </trkpt>
      <trkpt lat="37.357664" lon="-122.122765">
        <ele>113.9</ele>
        <time>2015-05-13T19:15:25Z</time>
      </trkpt>
      <trkpt lat="37.357741" lon="-122.122763">
        <ele>113.4</ele>
        <time>2015-05-13T19:15:26Z</time>
      </trkpt>
      <trkpt lat="37.357815" lon="-122.122756">
        <ele>113.1</ele>
        <time>2015-05-13T19:15:27Z</time>
      </trkpt>
      <trkpt lat="37.357923" lon="-122.122733">
        <ele>112.7</ele>
        <time>2015-05-13T19:15:28Z</time>
      </trkpt>
      <trkpt lat="37.357963" lon="-122.122717">
        <ele>112.6</ele>
        <time>2015-05-13T19:15:29Z</time>
      </trkpt>
      <trkpt lat="37.358038" lon="-122.122664">
        <ele>112.3</ele>
        <time>2015-05-13T19:15:30Z</time>
      </trkpt>
      <trkpt lat="37.358096" lon="-122.122597">
        <ele>112.1</ele>
        <time>2015-05-13T19:15:31Z</time>
      </trkpt>
      <trkpt lat="37.358139" lon="-122.122529">
        <ele>112</ele>
        <time>2015-05-13T19:15:32Z</time>
      </trkpt>
      <trkpt lat="37.358184" lon="-122.122433">
        <ele>111.9</ele>
        <time>2015-05-13T19:15:33Z</time>
      </trkpt>
      <trkpt lat="37.358216" lon="-122.122353">
        <ele>111.8</ele>
        <time>2015-05-13T19:15:34Z</time>
      </trkpt>
      <trkpt lat="37.358244" lon="-122.122274">
        <ele>111.6</ele>
        <time>2015-05-13T19:15:35Z</time>
      </trkpt>
      <trkpt lat="37.358273" lon="-122.122193">
        <ele>111.7</ele>
        <time>2015-05-13T19:15:36Z</time>
      </trkpt>
      <trkpt lat="37.3583" lon="-122.122117">
        <ele>111.6</ele>
        <time>2015-05-13T19:15:37Z</time>
      </trkpt>
      <trkpt lat="37.358327" lon="-122.122043">
        <ele>111.6</ele>
        <time>2015-05-13T19:15:38Z</time>
      </trkpt>
      <trkpt lat="37.358356" lon="-122.121967">
        <ele>111.5</ele>
        <time>2015-05-13T19:15:39Z</time>
      </trkpt>
      <trkpt lat="37.358387" lon="-122.121887">
        <ele>111.5</ele>
        <time>2015-05-13T19:15:40Z</time>
      </trkpt>
      <trkpt lat="37.358417" lon="-122.121816">
        <ele>111.5</ele>
        <time>2015-05-13T19:15:41Z</time>
      </trkpt>
      <trkpt lat="37.358447" lon="-122.12175">
        <ele>111.3</ele>
        <time>2015-05-13T19:15:42Z</time>
      </trkpt>
      <trkpt lat="37.358488" lon="-122.121681">
        <ele>111.1</ele>
        <time>2015-05-13T19:15:43Z</time>
      </trkpt>
      <trkpt lat="37.358523" lon="-122.121631">
        <ele>110.8</ele>
        <time>2015-05-13T19:15:44Z</time>
      </trkpt>
      <trkpt lat="37.358577" lon="-122.121579">
        <ele>110.1</ele>
        <time>2015-05-13T19:15:45Z</time>
      </trkpt>
      <trkpt lat="37.358639" lon="-122.121547">
        <ele>109.4</ele>
        <time>2015-05-13T19:15:46Z</time>
      </trkpt>
      <trkpt lat="37.358715" lon="-122.121545">
        <ele>108.7</ele>
        <time>2015-05-13T19:15:47Z</time>
      </trkpt>
      <trkpt lat="37.358785" lon="-122.121563">
        <ele>107.8</ele>
        <time>2015-05-13T19:15:48Z</time>
      </trkpt>
      <trkpt lat="37.358861" lon="-122.121601">
        <ele>107.1</ele>
        <time>2015-05-13T19:15:49Z</time>
      </trkpt>
      <trkpt lat="37.358936" lon="-122.121642">
        <ele>106.3</ele>
        <time>2015-05-13T19:15:50Z</time>
      </trkpt>
      <trkpt lat="37.359015" lon="-122.121688">
        <ele>105.5</ele>
        <time>2015-05-13T19:15:51Z</time>
      </trkpt>
      <trkpt lat="37.359094" lon="-122.121732">
        <ele>104.8</ele>
        <time>2015-05-13T19:15:52Z</time>
      </trkpt>
      <trkpt lat="37.359163" lon="-122.121771">
        <ele>104.2</ele>
        <time>2015-05-13T19:15:53Z</time>
      </trkpt>
      <trkpt lat="37.359229" lon="-122.121808">
        <ele>103.6</ele>
        <time>2015-05-13T19:15:54Z</time>
      </trkpt>
      <trkpt lat="37.359297" lon="-122.121846">
        <ele>103</ele>
        <time>2015-05-13T19:15:55Z</time>
      </trkpt>
      <trkpt lat="37.359359" lon="-122.12188">
        <ele>102.4</ele>
        <time>2015-05-13T19:15:56Z</time>
      </trkpt>
      <trkpt lat="37.359404" lon="-122.121905">
        <ele>101.8</ele>
        <time>2015-05-13T19:15:57Z</time>
      </trkpt>
      <trkpt lat="37.359445" lon="-122.121927">
        <ele>101.4</ele>
        <time>2015-05-13T19:15:58Z</time>
      </trkpt>
      <trkpt lat="37.359489" lon="-122.121952">
        <ele>101.1</ele>
        <time>2015-05-13T19:15:59Z</time>
      </trkpt>
      <trkpt lat="37.359518" lon="-122.121969">
        <ele>100.9</ele>
        <time>2015-05-13T19:16:00Z</time>
      </trkpt>
      <trkpt lat="37.359552" lon="-122.121988">
        <ele>100.6</ele>
        <time>2015-05-13T19:16:01Z</time>
      </trkpt>
      <trkpt lat="37.359584" lon="-122.122006">
        <ele>100.4</ele>
        <time>2015-05-13T19:16:02Z</time>
      </trkpt>
      <trkpt lat="37.359618" lon="-122.122025">
        <ele>100.1</ele>
        <time>2015-05-13T19:16:03Z</time>
      </trkpt>
      <trkpt lat="37.359717" lon="-122.121952">
        <ele>99.4</ele>
        <time>2015-05-13T19:16:04Z</time>
      </trkpt>
      <trkpt lat="37.359741" lon="-122.121909">
        <ele>99.2</ele>
        <time>2015-05-13T19:16:05Z</time>
      </trkpt>
      <trkpt lat="37.359899" lon="-122.121666">
        <ele>98.3</ele>
        <time>2015-05-13T19:16:09Z</time>
      </trkpt>
      <trkpt lat="37.35995" lon="-122.121601">
        <ele>98</ele>
        <time>2015-05-13T19:16:10Z</time>
      </trkpt>
      <trkpt lat="37.36" lon="-122.121543">
        <ele>97.6</ele>
        <time>2015-05-13T19:16:11Z</time>
      </trkpt>
      <trkpt lat="37.360054" lon="-122.121482">
        <ele>97.2</ele>
        <time>2015-05-13T19:16:12Z</time>
      </trkpt>
      <trkpt lat="37.360112" lon="-122.121419">
        <ele>96.9</ele>
        <time>2015-05-13T19:16:13Z</time>
      </trkpt>
      <trkpt lat="37.360175" lon="-122.12135">
        <ele>96.4</ele>
        <time>2015-05-13T19:16:14Z</time>
      </trkpt>
      <trkpt lat="37.360226" lon="-122.121293">
        <ele>96.1</ele>
        <time>2015-05-13T19:16:15Z</time>
      </trkpt>
      <trkpt lat="37.360292" lon="-122.121221">
        <ele>95.8</ele>
        <time>2015-05-13T19:16:16Z</time>
      </trkpt>
      <trkpt lat="37.36035" lon="-122.121158">
        <ele>95.4</ele>
        <time>2015-05-13T19:16:17Z</time>
      </trkpt>
      <trkpt lat="37.36041" lon="-122.12109">
        <ele>95</ele>
        <time>2015-05-13T19:16:18Z</time>
      </trkpt>
      <trkpt lat="37.360473" lon="-122.121015">
        <ele>94.7</ele>
        <time>2015-05-13T19:16:19Z</time>
      </trkpt>
      <trkpt lat="37.360537" lon="-122.12094">
        <ele>94.3</ele>
        <time>2015-05-13T19:16:20Z</time>
      </trkpt>
      <trkpt lat="37.3606" lon="-122.120865">
        <ele>93.9</ele>
        <time>2015-05-13T19:16:21Z</time>
      </trkpt>
      <trkpt lat="37.360665" lon="-122.120789">
        <ele>93.5</ele>
        <time>2015-05-13T19:16:22Z</time>
      </trkpt>
      <trkpt lat="37.360727" lon="-122.120716">
        <ele>93.2</ele>
        <time>2015-05-13T19:16:23Z</time>
      </trkpt>
      <trkpt lat="37.360794" lon="-122.120638">
        <ele>92.9</ele>
        <time>2015-05-13T19:16:24Z</time>
      </trkpt>
      <trkpt lat="37.360854" lon="-122.12055">
        <ele>92.5</ele>
        <time>2015-05-13T19:16:25Z</time>
      </trkpt>
      <trkpt lat="37.360925" lon="-122.120473">
        <ele>92.3</ele>
        <time>2015-05-13T19:16:26Z</time>
      </trkpt>
      <trkpt lat="37.360995" lon="-122.120395">
        <ele>92.2</ele>
        <time>2015-05-13T19:16:27Z</time>
      </trkpt>
      <trkpt lat="37.361056" lon="-122.12033">
        <ele>92</ele>
        <time>2015-05-13T19:16:28Z</time>
      </trkpt>
      <trkpt lat="37.361137" lon="-122.120233">
        <ele>91.8</ele>
        <time>2015-05-13T19:16:29Z</time>
      </trkpt>
      <trkpt lat="37.361214" lon="-122.12014">
        <ele>91.7</ele>
        <time>2015-05-13T19:16:30Z</time>
      </trkpt>
      <trkpt lat="37.361286" lon="-122.120054">
        <ele>91.6</ele>
        <time>2015-05-13T19:16:31Z</time>
      </trkpt>
      <trkpt lat="37.361367" lon="-122.119961">
        <ele>91.5</ele>
        <time>2015-05-13T19:16:32Z</time>
      </trkpt>
      <trkpt lat="37.361443" lon="-122.119863">
        <ele>91.5</ele>
        <time>2015-05-13T19:16:33Z</time>
      </trkpt>
      <trkpt lat="37.361467" lon="-122.119748">
        <ele>91.2</ele>
        <time>2015-05-13T19:16:34Z</time>
      </trkpt>
      <trkpt lat="37.361568" lon="-122.119715">
        <ele>91.3</ele>
        <time>2015-05-13T19:16:35Z</time>
      </trkpt>
      <trkpt lat="37.361644" lon="-122.119608">
        <ele>91.2</ele>
        <time>2015-05-13T19:16:36Z</time>
      </trkpt>
      <trkpt lat="37.361714" lon="-122.119524">
        <ele>91.1</ele>
        <time>2015-05-13T19:16:37Z</time>
      </trkpt>
      <trkpt lat="37.361757" lon="-122.119442">
        <ele>91</ele>
        <time>2015-05-13T19:16:38Z</time>
      </trkpt>
      <trkpt lat="37.361825" lon="-122.119353">
        <ele>90.9</ele>
        <time>2015-05-13T19:16:39Z</time>
      </trkpt>
      <trkpt lat="37.361881" lon="-122.119281">
        <ele>90.8</ele>
        <time>2015-05-13T19:16:40Z</time>
      </trkpt>
      <trkpt lat="37.361946" lon="-122.119203">
        <ele>90.7</ele>
        <time>2015-05-13T19:16:41Z</time>
      </trkpt>
      <trkpt lat="37.362008" lon="-122.119129">
        <ele>90.5</ele>
        <time>2015-05-13T19:16:42Z</time>
      </trkpt>
      <trkpt lat="37.362077" lon="-122.119074">
        <ele>90.3</ele>
        <time>2015-05-13T19:16:43Z</time>
      </trkpt>
      <trkpt lat="37.36214" lon="-122.11899">
        <ele>90</ele>
        <time>2015-05-13T19:16:44Z</time>
      </trkpt>
      <trkpt lat="37.362202" lon="-122.118911">
        <ele>89.7</ele>
        <time>2015-05-13T19:16:45Z</time>
      </trkpt>
      <trkpt lat="37.36227" lon="-122.118834">
        <ele>89.4</ele>
        <time>2015-05-13T19:16:46Z</time>
      </trkpt>
      <trkpt lat="37.362341" lon="-122.118758">
        <ele>89.1</ele>
        <time>2015-05-13T19:16:47Z</time>
      </trkpt>
      <trkpt lat="37.362407" lon="-122.118686">
        <ele>88.8</ele>
        <time>2015-05-13T19:16:48Z</time>
      </trkpt>
      <trkpt lat="37.362475" lon="-122.118604">
        <ele>88.4</ele>
        <time>2015-05-13T19:16:49Z</time>
      </trkpt>
      <trkpt lat="37.362538" lon="-122.118528">
        <ele>88.1</ele>
        <time>2015-05-13T19:16:50Z</time>
      </trkpt>
      <trkpt lat="37.362609" lon="-122.118439">
        <ele>87.8</ele>
        <time>2015-05-13T19:16:51Z</time>
      </trkpt>
      <trkpt lat="37.362673" lon="-122.118357">
        <ele>87.4</ele>
        <time>2015-05-13T19:16:52Z</time>
      </trkpt>
      <trkpt lat="37.362737" lon="-122.118279">
        <ele>87.3</ele>
        <time>2015-05-13T19:16:53Z</time>
      </trkpt>
      <trkpt lat="37.362798" lon="-122.118194">
        <ele>87.1</ele>
        <time>2015-05-13T19:16:54Z</time>
      </trkpt>
      <trkpt lat="37.362869" lon="-122.118105">
        <ele>86.9</ele>
        <time>2015-05-13T19:16:55Z</time>
      </trkpt>
      <trkpt lat="37.362922" lon="-122.118038">
        <ele>86.8</ele>
        <time>2015-05-13T19:16:56Z</time>
      </trkpt>
      <trkpt lat="37.363" lon="-122.11795">
        <ele>86.8</ele>
        <time>2015-05-13T19:16:57Z</time>
      </trkpt>
      <trkpt lat="37.363077" lon="-122.117863">
        <ele>86.8</ele>
        <time>2015-05-13T19:16:58Z</time>
      </trkpt>
      <trkpt lat="37.363147" lon="-122.117784">
        <ele>86.8</ele>
        <time>2015-05-13T19:16:59Z</time>
      </trkpt>
      <trkpt lat="37.363217" lon="-122.117705">
        <ele>86.7</ele>
        <time>2015-05-13T19:17:00Z</time>
      </trkpt>
      <trkpt lat="37.363281" lon="-122.117632">
        <ele>86.7</ele>
        <time>2015-05-13T19:17:01Z</time>
      </trkpt>
      <trkpt lat="37.363344" lon="-122.11756">
        <ele>86.7</ele>
        <time>2015-05-13T19:17:02Z</time>
      </trkpt>
      <trkpt lat="37.36341" lon="-122.117487">
        <ele>86.7</ele>
        <time>2015-05-13T19:17:03Z</time>
      </trkpt>
      <trkpt lat="37.363477" lon="-122.117411">
        <ele>86.6</ele>
        <time>2015-05-13T19:17:04Z</time>
      </trkpt>
      <trkpt lat="37.363537" lon="-122.117344">
        <ele>86.6</ele>
        <time>2015-05-13T19:17:05Z</time>
      </trkpt>
      <trkpt lat="37.363605" lon="-122.117269">
        <ele>86.5</ele>
        <time>2015-05-13T19:17:06Z</time>
      </trkpt>
      <trkpt lat="37.363678" lon="-122.117198">
        <ele>86.4</ele>
        <time>2015-05-13T19:17:07Z</time>
      </trkpt>
      <trkpt lat="37.363756" lon="-122.117126">
        <ele>86.2</ele>
        <time>2015-05-13T19:17:08Z</time>
      </trkpt>
      <trkpt lat="37.363826" lon="-122.117054">
        <ele>86.1</ele>
        <time>2015-05-13T19:17:09Z</time>
      </trkpt>
      <trkpt lat="37.363899" lon="-122.116986">
        <ele>85.9</ele>
        <time>2015-05-13T19:17:10Z</time>
      </trkpt>
      <trkpt lat="37.36398" lon="-122.116917">
        <ele>85.8</ele>
        <time>2015-05-13T19:17:11Z</time>
      </trkpt>
      <trkpt lat="37.36405" lon="-122.116847">
        <ele>85.7</ele>
        <time>2015-05-13T19:17:12Z</time>
      </trkpt>
      <trkpt lat="37.364122" lon="-122.11677">
        <ele>85.5</ele>
        <time>2015-05-13T19:17:13Z</time>
      </trkpt>
      <trkpt lat="37.364198" lon="-122.116691">
        <ele>85.2</ele>
        <time>2015-05-13T19:17:14Z</time>
      </trkpt>
      <trkpt lat="37.364269" lon="-122.116609">
        <ele>85</ele>
        <time>2015-05-13T19:17:15Z</time>
      </trkpt>
      <trkpt lat="37.364345" lon="-122.116536">
        <ele>84.7</ele>
        <time>2015-05-13T19:17:17Z</time>
      </trkpt>
      <trkpt lat="37.364475" lon="-122.116394">
        <ele>84.3</ele>
        <time>2015-05-13T19:17:18Z</time>
      </trkpt>
      <trkpt lat="37.36455" lon="-122.116322">
        <ele>84.1</ele>
        <time>2015-05-13T19:17:19Z</time>
      </trkpt>
      <trkpt lat="37.36462" lon="-122.116247">
        <ele>83.8</ele>
        <time>2015-05-13T19:17:20Z</time>
      </trkpt>
      <trkpt lat="37.364658" lon="-122.116221">
        <ele>83.7</ele>
        <time>2015-05-13T19:17:21Z</time>
      </trkpt>
      <trkpt lat="37.364856" lon="-122.116039">
        <ele>82.9</ele>
        <time>2015-05-13T19:17:23Z</time>
      </trkpt>
      <trkpt lat="37.364937" lon="-122.115973">
        <ele>82.7</ele>
        <time>2015-05-13T19:17:24Z</time>
      </trkpt>
      <trkpt lat="37.365016" lon="-122.115911">
        <ele>82.4</ele>
        <time>2015-05-13T19:17:25Z</time>
      </trkpt>
      <trkpt lat="37.365071" lon="-122.115859">
        <ele>82.3</ele>
        <time>2015-05-13T19:17:26Z</time>
      </trkpt>
      <trkpt lat="37.365132" lon="-122.115813">
        <ele>82.1</ele>
        <time>2015-05-13T19:17:27Z</time>
      </trkpt>
      <trkpt lat="37.365183" lon="-122.115772">
        <ele>82.1</ele>
        <time>2015-05-13T19:17:28Z</time>
      </trkpt>
      <trkpt lat="37.365232" lon="-122.115726">
        <ele>82</ele>
        <time>2015-05-13T19:17:29Z</time>
      </trkpt>
      <trkpt lat="37.365274" lon="-122.115688">
        <ele>81.9</ele>
        <time>2015-05-13T19:17:30Z</time>
      </trkpt>
      <trkpt lat="37.365317" lon="-122.11565">
        <ele>81.9</ele>
        <time>2015-05-13T19:17:31Z</time>
      </trkpt>
      <trkpt lat="37.365358" lon="-122.115615">
        <ele>81.8</ele>
        <time>2015-05-13T19:17:32Z</time>
      </trkpt>
      <trkpt lat="37.365394" lon="-122.115586">
        <ele>81.9</ele>
        <time>2015-05-13T19:17:33Z</time>
      </trkpt>
      <trkpt lat="37.365422" lon="-122.115555">
        <ele>81.9</ele>
        <time>2015-05-13T19:17:34Z</time>
      </trkpt>
      <trkpt lat="37.365453" lon="-122.115536">
        <ele>81.8</ele>
        <time>2015-05-13T19:17:35Z</time>
      </trkpt>
      <trkpt lat="37.365479" lon="-122.115519">
        <ele>81.9</ele>
        <time>2015-05-13T19:17:36Z</time>
      </trkpt>
      <trkpt lat="37.365501" lon="-122.115499">
        <ele>81.8</ele>
        <time>2015-05-13T19:17:37Z</time>
      </trkpt>
      <trkpt lat="37.365531" lon="-122.115472">
        <ele>81.8</ele>
        <time>2015-05-13T19:17:38Z</time>
      </trkpt>
      <trkpt lat="37.365571" lon="-122.115436">
        <ele>81.8</ele>
        <time>2015-05-13T19:17:39Z</time>
      </trkpt>
      <trkpt lat="37.365598" lon="-122.115421">
        <ele>81.8</ele>
        <time>2015-05-13T19:17:40Z</time>
      </trkpt>
      <trkpt lat="37.365779" lon="-122.115258">
        <ele>81.9</ele>
        <time>2015-05-13T19:17:44Z</time>
      </trkpt>
      <trkpt lat="37.365817" lon="-122.115219">
        <ele>81.9</ele>
        <time>2015-05-13T19:17:45Z</time>
      </trkpt>
      <trkpt lat="37.365856" lon="-122.115173">
        <ele>82</ele>
        <time>2015-05-13T19:17:46Z</time>
      </trkpt>
      <trkpt lat="37.365902" lon="-122.115132">
        <ele>82</ele>
        <time>2015-05-13T19:17:47Z</time>
      </trkpt>
      <trkpt lat="37.365951" lon="-122.115092">
        <ele>82</ele>
        <time>2015-05-13T19:17:48Z</time>
      </trkpt>
      <trkpt lat="37.365997" lon="-122.115051">
        <ele>82</ele>
        <time>2015-05-13T19:17:49Z</time>
      </trkpt>
      <trkpt lat="37.366032" lon="-122.115014">
        <ele>82.1</ele>
        <time>2015-05-13T19:17:50Z</time>
      </trkpt>
      <trkpt lat="37.36608" lon="-122.114973">
        <ele>82.1</ele>
        <time>2015-05-13T19:17:51Z</time>
      </trkpt>
      <trkpt lat="37.366123" lon="-122.114936">
        <ele>82.1</ele>
        <time>2015-05-13T19:17:52Z</time>
      </trkpt>
      <trkpt lat="37.366171" lon="-122.114883">
        <ele>82.2</ele>
        <time>2015-05-13T19:17:53Z</time>
      </trkpt>
      <trkpt lat="37.366221" lon="-122.114833">
        <ele>82.3</ele>
        <time>2015-05-13T19:17:54Z</time>
      </trkpt>
      <trkpt lat="37.366264" lon="-122.114792">
        <ele>82.3</ele>
        <time>2015-05-13T19:17:55Z</time>
      </trkpt>
      <trkpt lat="37.36631" lon="-122.114748">
        <ele>82.2</ele>
        <time>2015-05-13T19:17:56Z</time>
      </trkpt>
      <trkpt lat="37.366358" lon="-122.114703">
        <ele>82.2</ele>
        <time>2015-05-13T19:17:57Z</time>
      </trkpt>
      <trkpt lat="37.366401" lon="-122.114654">
        <ele>82.1</ele>
        <time>2015-05-13T19:17:58Z</time>
      </trkpt>
      <trkpt lat="37.366448" lon="-122.1146">
        <ele>82</ele>
        <time>2015-05-13T19:17:59Z</time>
      </trkpt>
      <trkpt lat="37.3665" lon="-122.11455">
        <ele>81.8</ele>
        <time>2015-05-13T19:18:00Z</time>
      </trkpt>
      <trkpt lat="37.366555" lon="-122.114498">
        <ele>81.6</ele>
        <time>2015-05-13T19:18:01Z</time>
      </trkpt>
      <trkpt lat="37.366601" lon="-122.114445">
        <ele>81.5</ele>
        <time>2015-05-13T19:18:03Z</time>
      </trkpt>
      <trkpt lat="37.366666" lon="-122.11439">
        <ele>81.3</ele>
        <time>2015-05-13T19:18:04Z</time>
      </trkpt>
      <trkpt lat="37.366783" lon="-122.114289">
        <ele>81</ele>
        <time>2015-05-13T19:18:05Z</time>
      </trkpt>
      <trkpt lat="37.366834" lon="-122.114246">
        <ele>80.9</ele>
        <time>2015-05-13T19:18:06Z</time>
      </trkpt>
      <trkpt lat="37.366899" lon="-122.114187">
        <ele>80.7</ele>
        <time>2015-05-13T19:18:07Z</time>
      </trkpt>
      <trkpt lat="37.366961" lon="-122.114133">
        <ele>80.5</ele>
        <time>2015-05-13T19:18:08Z</time>
      </trkpt>
      <trkpt lat="37.367025" lon="-122.11408">
        <ele>80.3</ele>
        <time>2015-05-13T19:18:09Z</time>
      </trkpt>
      <trkpt lat="37.367077" lon="-122.114026">
        <ele>80.1</ele>
        <time>2015-05-13T19:18:10Z</time>
      </trkpt>
      <trkpt lat="37.367138" lon="-122.113971">
        <ele>79.9</ele>
        <time>2015-05-13T19:18:11Z</time>
      </trkpt>
      <trkpt lat="37.3672" lon="-122.113917">
        <ele>79.6</ele>
        <time>2015-05-13T19:18:12Z</time>
      </trkpt>
      <trkpt lat="37.367264" lon="-122.11386">
        <ele>79.3</ele>
        <time>2015-05-13T19:18:13Z</time>
      </trkpt>
      <trkpt lat="37.36734" lon="-122.113791">
        <ele>79.1</ele>
        <time>2015-05-13T19:18:14Z</time>
      </trkpt>
      <trkpt lat="37.367406" lon="-122.113739">
        <ele>78.9</ele>
        <time>2015-05-13T19:18:15Z</time>
      </trkpt>
      <trkpt lat="37.367427" lon="-122.113711">
        <ele>78.8</ele>
        <time>2015-05-13T19:18:16Z</time>
      </trkpt>
      <trkpt lat="37.367539" lon="-122.113615">
        <ele>78.3</ele>
        <time>2015-05-13T19:18:17Z</time>
      </trkpt>
      <trkpt lat="37.367604" lon="-122.11355">
        <ele>78.1</ele>
        <time>2015-05-13T19:18:18Z</time>
      </trkpt>
      <trkpt lat="37.367667" lon="-122.113481">
        <ele>77.7</ele>
        <time>2015-05-13T19:18:19Z</time>
      </trkpt>
      <trkpt lat="37.367738" lon="-122.113417">
        <ele>77.5</ele>
        <time>2015-05-13T19:18:20Z</time>
      </trkpt>
      <trkpt lat="37.367802" lon="-122.113342">
        <ele>77.2</ele>
        <time>2015-05-13T19:18:21Z</time>
      </trkpt>
      <trkpt lat="37.36786" lon="-122.113287">
        <ele>77</ele>
        <time>2015-05-13T19:18:22Z</time>
      </trkpt>
      <trkpt lat="37.367914" lon="-122.113227">
        <ele>76.7</ele>
        <time>2015-05-13T19:18:23Z</time>
      </trkpt>
      <trkpt lat="37.367974" lon="-122.113201">
        <ele>76.6</ele>
        <time>2015-05-13T19:18:24Z</time>
      </trkpt>
      <trkpt lat="37.368041" lon="-122.11318">
        <ele>76.4</ele>
        <time>2015-05-13T19:18:25Z</time>
      </trkpt>
      <trkpt lat="37.368106" lon="-122.113152">
        <ele>76.3</ele>
        <time>2015-05-13T19:18:26Z</time>
      </trkpt>
      <trkpt lat="37.368157" lon="-122.11311">
        <ele>76.1</ele>
        <time>2015-05-13T19:18:27Z</time>
      </trkpt>
      <trkpt lat="37.36821" lon="-122.113072">
        <ele>75.9</ele>
        <time>2015-05-13T19:18:28Z</time>
      </trkpt>
      <trkpt lat="37.368268" lon="-122.113019">
        <ele>75.7</ele>
        <time>2015-05-13T19:18:29Z</time>
      </trkpt>
      <trkpt lat="37.368315" lon="-122.112971">
        <ele>75.6</ele>
        <time>2015-05-13T19:18:30Z</time>
      </trkpt>
      <trkpt lat="37.368372" lon="-122.112922">
        <ele>75.3</ele>
        <time>2015-05-13T19:18:31Z</time>
      </trkpt>
      <trkpt lat="37.368433" lon="-122.112878">
        <ele>75.1</ele>
        <time>2015-05-13T19:18:32Z</time>
      </trkpt>
      <trkpt lat="37.368486" lon="-122.112816">
        <ele>75</ele>
        <time>2015-05-13T19:18:33Z</time>
      </trkpt>
      <trkpt lat="37.368533" lon="-122.112775">
        <ele>74.8</ele>
        <time>2015-05-13T19:18:34Z</time>
      </trkpt>
      <trkpt lat="37.368569" lon="-122.112726">
        <ele>74.6</ele>
        <time>2015-05-13T19:18:35Z</time>
      </trkpt>
      <trkpt lat="37.36861" lon="-122.112689">
        <ele>74.5</ele>
        <time>2015-05-13T19:18:36Z</time>
      </trkpt>
      <trkpt lat="37.368647" lon="-122.112653">
        <ele>74.4</ele>
        <time>2015-05-13T19:18:37Z</time>
      </trkpt>
      <trkpt lat="37.368677" lon="-122.112618">
        <ele>74.3</ele>
        <time>2015-05-13T19:18:38Z</time>
      </trkpt>
      <trkpt lat="37.3687" lon="-122.11259">
        <ele>74.3</ele>
        <time>2015-05-13T19:18:39Z</time>
      </trkpt>
      <trkpt lat="37.36872" lon="-122.112565">
        <ele>74.2</ele>
        <time>2015-05-13T19:18:40Z</time>
      </trkpt>
      <trkpt lat="37.368749" lon="-122.11254">
        <ele>74.2</ele>
        <time>2015-05-13T19:18:42Z</time>
      </trkpt>
      <trkpt lat="37.368716" lon="-122.112572">
        <ele>74.2</ele>
        <time>2015-05-13T19:18:54Z</time>
      </trkpt>
      <trkpt lat="37.368744" lon="-122.112548">
        <ele>74.2</ele>
        <time>2015-05-13T19:19:01Z</time>
      </trkpt>
      <trkpt lat="37.368771" lon="-122.112523">
        <ele>74</ele>
        <time>2015-05-13T19:19:10Z</time>
      </trkpt>
      <trkpt lat="37.368791" lon="-122.112497">
        <ele>74</ele>
        <time>2015-05-13T19:19:19Z</time>
      </trkpt>
      <trkpt lat="37.368813" lon="-122.11253">
        <ele>73.9</ele>
        <time>2015-05-13T19:22:13Z</time>
      </trkpt>
      <trkpt lat="37.368819" lon="-122.112568">
        <ele>73.8</ele>
        <time>2015-05-13T19:22:16Z</time>
      </trkpt>
      <trkpt lat="37.36885" lon="-122.11262">
        <ele>74</ele>
        <time>2015-05-13T19:22:18Z</time>
      </trkpt>
      <trkpt lat="37.368876" lon="-122.112659">
        <ele>73.9</ele>
        <time>2015-05-13T19:22:20Z</time>
      </trkpt>
      <trkpt lat="37.368913" lon="-122.112699">
        <ele>73.7</ele>
        <time>2015-05-13T19:22:22Z</time>
      </trkpt>
      <trkpt lat="37.368936" lon="-122.11272">
        <ele>73.6</ele>
        <time>2015-05-13T19:22:23Z</time>
      </trkpt>
      <trkpt lat="37.368961" lon="-122.112741">
        <ele>73.5</ele>
        <time>2015-05-13T19:22:24Z</time>
      </trkpt>
      <trkpt lat="37.368988" lon="-122.112766">
        <ele>73.4</ele>
        <time>2015-05-13T19:22:25Z</time>
      </trkpt>
      <trkpt lat="37.369014" lon="-122.112787">
        <ele>73.4</ele>
        <time>2015-05-13T19:22:26Z</time>
      </trkpt>
      <trkpt lat="37.36904" lon="-122.11281">
        <ele>73.4</ele>
        <time>2015-05-13T19:22:27Z</time>
      </trkpt>
      <trkpt lat="37.369066" lon="-122.112838">
        <ele>73.3</ele>
        <time>2015-05-13T19:22:28Z</time>
      </trkpt>
      <trkpt lat="37.369088" lon="-122.112867">
        <ele>73.3</ele>
        <time>2015-05-13T19:22:29Z</time>
      </trkpt>
      <trkpt lat="37.369112" lon="-122.112906">
        <ele>73.2</ele>
        <time>2015-05-13T19:22:30Z</time>
      </trkpt>
      <trkpt lat="37.369134" lon="-122.112952">
        <ele>73.2</ele>
        <time>2015-05-13T19:22:31Z</time>
      </trkpt>
      <trkpt lat="37.369154" lon="-122.112994">
        <ele>73.2</ele>
        <time>2015-05-13T19:22:32Z</time>
      </trkpt>
      <trkpt lat="37.369171" lon="-122.113045">
        <ele>73.2</ele>
        <time>2015-05-13T19:22:34Z</time>
      </trkpt>
      <trkpt lat="37.369204" lon="-122.113145">
        <ele>73.2</ele>
        <time>2015-05-13T19:22:35Z</time>
      </trkpt>
      <trkpt lat="37.369221" lon="-122.113198">
        <ele>73.2</ele>
        <time>2015-05-13T19:22:36Z</time>
      </trkpt>
      <trkpt lat="37.369241" lon="-122.11324">
        <ele>73.2</ele>
        <time>2015-05-13T19:22:38Z</time>
      </trkpt>
      <trkpt lat="37.369255" lon="-122.113296">
        <ele>73.2</ele>
        <time>2015-05-13T19:22:39Z</time>
      </trkpt>
      <trkpt lat="37.369294" lon="-122.113399">
        <ele>73.2</ele>
        <time>2015-05-13T19:22:40Z</time>
      </trkpt>
      <trkpt lat="37.369306" lon="-122.113442">
        <ele>73.3</ele>
        <time>2015-05-13T19:22:41Z</time>
      </trkpt>
      <trkpt lat="37.369325" lon="-122.11349">
        <ele>73.2</ele>
        <time>2015-05-13T19:22:43Z</time>
      </trkpt>
      <trkpt lat="37.369374" lon="-122.11358">
        <ele>73.2</ele>
        <time>2015-05-13T19:22:44Z</time>
      </trkpt>
      <trkpt lat="37.369396" lon="-122.113637">
        <ele>73.2</ele>
        <time>2015-05-13T19:22:45Z</time>
      </trkpt>
      <trkpt lat="37.369413" lon="-122.113691">
        <ele>73.3</ele>
        <time>2015-05-13T19:22:46Z</time>
      </trkpt>
      <trkpt lat="37.369432" lon="-122.113749">
        <ele>73.3</ele>
        <time>2015-05-13T19:22:47Z</time>
      </trkpt>
      <trkpt lat="37.369451" lon="-122.113806">
        <ele>73.3</ele>
        <time>2015-05-13T19:22:48Z</time>
      </trkpt>
      <trkpt lat="37.369468" lon="-122.113853">
        <ele>73.3</ele>
        <time>2015-05-13T19:22:49Z</time>
      </trkpt>
      <trkpt lat="37.369497" lon="-122.11391">
        <ele>73.3</ele>
        <time>2015-05-13T19:22:50Z</time>
      </trkpt>
      <trkpt lat="37.369514" lon="-122.113965">
        <ele>73.3</ele>
        <time>2015-05-13T19:22:51Z</time>
      </trkpt>
      <trkpt lat="37.369532" lon="-122.114025">
        <ele>73.3</ele>
        <time>2015-05-13T19:22:52Z</time>
      </trkpt>
      <trkpt lat="37.369553" lon="-122.114085">
        <ele>73.3</ele>
        <time>2015-05-13T19:22:53Z</time>
      </trkpt>
      <trkpt lat="37.369568" lon="-122.114135">
        <ele>73.3</ele>
        <time>2015-05-13T19:22:54Z</time>
      </trkpt>
      <trkpt lat="37.369592" lon="-122.114181">
        <ele>73.4</ele>
        <time>2015-05-13T19:22:55Z</time>
      </trkpt>
      <trkpt lat="37.369611" lon="-122.11423">
        <ele>73.5</ele>
        <time>2015-05-13T19:22:56Z</time>
      </trkpt>
      <trkpt lat="37.369626" lon="-122.114278">
        <ele>73.4</ele>
        <time>2015-05-13T19:22:57Z</time>
      </trkpt>
      <trkpt lat="37.369644" lon="-122.11433">
        <ele>73.4</ele>
        <time>2015-05-13T19:22:58Z</time>
      </trkpt>
      <trkpt lat="37.369667" lon="-122.114381">
        <ele>73.4</ele>
        <time>2015-05-13T19:22:59Z</time>
      </trkpt>
      <trkpt lat="37.369681" lon="-122.114433">
        <ele>73.4</ele>
        <time>2015-05-13T19:23:00Z</time>
      </trkpt>
      <trkpt lat="37.3697" lon="-122.114488">
        <ele>73.4</ele>
        <time>2015-05-13T19:23:01Z</time>
      </trkpt>
      <trkpt lat="37.369721" lon="-122.114537">
        <ele>73.5</ele>
        <time>2015-05-13T19:23:02Z</time>
      </trkpt>
      <trkpt lat="37.369748" lon="-122.114585">
        <ele>73.5</ele>
        <time>2015-05-13T19:23:03Z</time>
      </trkpt>
      <trkpt lat="37.369766" lon="-122.114642">
        <ele>73.6</ele>
        <time>2015-05-13T19:23:04Z</time>
      </trkpt>
      <trkpt lat="37.369787" lon="-122.114692">
        <ele>73.6</ele>
        <time>2015-05-13T19:23:05Z</time>
      </trkpt>
      <trkpt lat="37.369801" lon="-122.114751">
        <ele>73.7</ele>
        <time>2015-05-13T19:23:06Z</time>
      </trkpt>
      <trkpt lat="37.369816" lon="-122.114801">
        <ele>73.7</ele>
        <time>2015-05-13T19:23:07Z</time>
      </trkpt>
      <trkpt lat="37.369826" lon="-122.11484">
        <ele>73.8</ele>
        <time>2015-05-13T19:23:08Z</time>
      </trkpt>
      <trkpt lat="37.369847" lon="-122.114892">
        <ele>73.7</ele>
        <time>2015-05-13T19:23:09Z</time>
      </trkpt>
      <trkpt lat="37.369869" lon="-122.114952">
        <ele>73.7</ele>
        <time>2015-05-13T19:23:10Z</time>
      </trkpt>
      <trkpt lat="37.369887" lon="-122.114999">
        <ele>73.7</ele>
        <time>2015-05-13T19:23:11Z</time>
      </trkpt>
      <trkpt lat="37.369918" lon="-122.115063">
        <ele>73.7</ele>
        <time>2015-05-13T19:23:12Z</time>
      </trkpt>
      <trkpt lat="37.369941" lon="-122.115114">
        <ele>73.6</ele>
        <time>2015-05-13T19:23:14Z</time>
      </trkpt>
      <trkpt lat="37.369978" lon="-122.115172">
        <ele>73.6</ele>
        <time>2015-05-13T19:23:15Z</time>
      </trkpt>
      <trkpt lat="37.370044" lon="-122.115281">
        <ele>73.6</ele>
        <time>2015-05-13T19:23:16Z</time>
      </trkpt>
      <trkpt lat="37.370072" lon="-122.115341">
        <ele>73.5</ele>
        <time>2015-05-13T19:23:17Z</time>
      </trkpt>
      <trkpt lat="37.3701" lon="-122.115399">
        <ele>73.5</ele>
        <time>2015-05-13T19:23:18Z</time>
      </trkpt>
      <trkpt lat="37.370127" lon="-122.115475">
        <ele>73.4</ele>
        <time>2015-05-13T19:23:19Z</time>
      </trkpt>
      <trkpt lat="37.370153" lon="-122.115544">
        <ele>73.4</ele>
        <time>2015-05-13T19:23:20Z</time>
      </trkpt>
      <trkpt lat="37.370179" lon="-122.115607">
        <ele>73.4</ele>
        <time>2015-05-13T19:23:21Z</time>
      </trkpt>
      <trkpt lat="37.370202" lon="-122.11566">
        <ele>73.4</ele>
        <time>2015-05-13T19:23:22Z</time>
      </trkpt>
      <trkpt lat="37.370231" lon="-122.115708">
        <ele>73.4</ele>
        <time>2015-05-13T19:23:24Z</time>
      </trkpt>
      <trkpt lat="37.370293" lon="-122.115802">
        <ele>73.3</ele>
        <time>2015-05-13T19:23:25Z</time>
      </trkpt>
      <trkpt lat="37.370321" lon="-122.115857">
        <ele>73.2</ele>
        <time>2015-05-13T19:23:26Z</time>
      </trkpt>
      <trkpt lat="37.370341" lon="-122.115901">
        <ele>73.1</ele>
        <time>2015-05-13T19:23:27Z</time>
      </trkpt>
      <trkpt lat="37.370356" lon="-122.115953">
        <ele>73.1</ele>
        <time>2015-05-13T19:23:28Z</time>
      </trkpt>
      <trkpt lat="37.370389" lon="-122.115995">
        <ele>73</ele>
        <time>2015-05-13T19:23:29Z</time>
      </trkpt>
      <trkpt lat="37.370422" lon="-122.116045">
        <ele>72.9</ele>
        <time>2015-05-13T19:23:30Z</time>
      </trkpt>
      <trkpt lat="37.370451" lon="-122.116092">
        <ele>72.8</ele>
        <time>2015-05-13T19:23:31Z</time>
      </trkpt>
      <trkpt lat="37.370481" lon="-122.116156">
        <ele>72.6</ele>
        <time>2015-05-13T19:23:32Z</time>
      </trkpt>
      <trkpt lat="37.370535" lon="-122.116204">
        <ele>72.4</ele>
        <time>2015-05-13T19:23:33Z</time>
      </trkpt>
      <trkpt lat="37.370568" lon="-122.116264">
        <ele>72.4</ele>
        <time>2015-05-13T19:23:34Z</time>
      </trkpt>
      <trkpt lat="37.370607" lon="-122.116324">
        <ele>72.3</ele>
        <time>2015-05-13T19:23:35Z</time>
      </trkpt>
      <trkpt lat="37.37065" lon="-122.116383">
        <ele>72.2</ele>
        <time>2015-05-13T19:23:36Z</time>
      </trkpt>
      <trkpt lat="37.370685" lon="-122.116433">
        <ele>72.2</ele>
        <time>2015-05-13T19:23:37Z</time>
      </trkpt>
      <trkpt lat="37.370723" lon="-122.116497">
        <ele>72.2</ele>
        <time>2015-05-13T19:23:38Z</time>
      </trkpt>
      <trkpt lat="37.370756" lon="-122.11654">
        <ele>72.2</ele>
        <time>2015-05-13T19:23:39Z</time>
      </trkpt>
      <trkpt lat="37.370801" lon="-122.116586">
        <ele>72.1</ele>
        <time>2015-05-13T19:23:40Z</time>
      </trkpt>
      <trkpt lat="37.370849" lon="-122.116627">
        <ele>72.2</ele>
        <time>2015-05-13T19:23:41Z</time>
      </trkpt>
      <trkpt lat="37.370893" lon="-122.116688">
        <ele>72.2</ele>
        <time>2015-05-13T19:23:42Z</time>
      </trkpt>
      <trkpt lat="37.370936" lon="-122.116732">
        <ele>72.2</ele>
        <time>2015-05-13T19:23:43Z</time>
      </trkpt>
      <trkpt lat="37.370981" lon="-122.116785">
        <ele>72.3</ele>
        <time>2015-05-13T19:23:44Z</time>
      </trkpt>
      <trkpt lat="37.371031" lon="-122.116815">
        <ele>72.3</ele>
        <time>2015-05-13T19:23:45Z</time>
      </trkpt>
      <trkpt lat="37.371072" lon="-122.116865">
        <ele>72.3</ele>
        <time>2015-05-13T19:23:46Z</time>
      </trkpt>
      <trkpt lat="37.371113" lon="-122.116923">
        <ele>72.2</ele>
        <time>2015-05-13T19:23:47Z</time>
      </trkpt>
      <trkpt lat="37.371149" lon="-122.116955">
        <ele>72.3</ele>
        <time>2015-05-13T19:23:48Z</time>
      </trkpt>
      <trkpt lat="37.371194" lon="-122.117">
        <ele>72.2</ele>
        <time>2015-05-13T19:23:49Z</time>
      </trkpt>
      <trkpt lat="37.371226" lon="-122.11704">
        <ele>72.1</ele>
        <time>2015-05-13T19:23:51Z</time>
      </trkpt>
      <trkpt lat="37.371313" lon="-122.117131">
        <ele>72.1</ele>
        <time>2015-05-13T19:23:52Z</time>
      </trkpt>
      <trkpt lat="37.371356" lon="-122.117165">
        <ele>71.9</ele>
        <time>2015-05-13T19:23:53Z</time>
      </trkpt>
      <trkpt lat="37.371402" lon="-122.117202">
        <ele>71.8</ele>
        <time>2015-05-13T19:23:54Z</time>
      </trkpt>
      <trkpt lat="37.371449" lon="-122.117239">
        <ele>71.8</ele>
        <time>2015-05-13T19:23:55Z</time>
      </trkpt>
      <trkpt lat="37.371496" lon="-122.117266">
        <ele>71.7</ele>
        <time>2015-05-13T19:23:56Z</time>
      </trkpt>
      <trkpt lat="37.371552" lon="-122.117283">
        <ele>71.6</ele>
        <time>2015-05-13T19:23:57Z</time>
      </trkpt>
      <trkpt lat="37.371606" lon="-122.117318">
        <ele>71.6</ele>
        <time>2015-05-13T19:23:58Z</time>
      </trkpt>
      <trkpt lat="37.37166" lon="-122.117353">
        <ele>71.6</ele>
        <time>2015-05-13T19:23:59Z</time>
      </trkpt>
      <trkpt lat="37.371708" lon="-122.117382">
        <ele>71.5</ele>
        <time>2015-05-13T19:24:00Z</time>
      </trkpt>
      <trkpt lat="37.371763" lon="-122.117398">
        <ele>71.5</ele>
        <time>2015-05-13T19:24:01Z</time>
      </trkpt>
      <trkpt lat="37.37182" lon="-122.117413">
        <ele>71.4</ele>
        <time>2015-05-13T19:24:02Z</time>
      </trkpt>
      <trkpt lat="37.371875" lon="-122.117434">
        <ele>71.4</ele>
        <time>2015-05-13T19:24:03Z</time>
      </trkpt>
      <trkpt lat="37.371925" lon="-122.117462">
        <ele>71.3</ele>
        <time>2015-05-13T19:24:04Z</time>
      </trkpt>
      <trkpt lat="37.371983" lon="-122.117485">
        <ele>71.1</ele>
        <time>2015-05-13T19:24:05Z</time>
      </trkpt>
      <trkpt lat="37.37204" lon="-122.117503">
        <ele>71.1</ele>
        <time>2015-05-13T19:24:06Z</time>
      </trkpt>
      <trkpt lat="37.372097" lon="-122.117534">
        <ele>71</ele>
        <time>2015-05-13T19:24:07Z</time>
      </trkpt>
      <trkpt lat="37.372147" lon="-122.117554">
        <ele>70.8</ele>
        <time>2015-05-13T19:24:08Z</time>
      </trkpt>
      <trkpt lat="37.37221" lon="-122.117579">
        <ele>70.8</ele>
        <time>2015-05-13T19:24:09Z</time>
      </trkpt>
      <trkpt lat="37.372276" lon="-122.117596">
        <ele>70.6</ele>
        <time>2015-05-13T19:24:10Z</time>
      </trkpt>
      <trkpt lat="37.372342" lon="-122.117616">
        <ele>70.6</ele>
        <time>2015-05-13T19:24:11Z</time>
      </trkpt>
      <trkpt lat="37.372407" lon="-122.117615">
        <ele>70.5</ele>
        <time>2015-05-13T19:24:12Z</time>
      </trkpt>
      <trkpt lat="37.37248" lon="-122.117627">
        <ele>70.2</ele>
        <time>2015-05-13T19:24:13Z</time>
      </trkpt>
      <trkpt lat="37.372543" lon="-122.117635">
        <ele>70</ele>
        <time>2015-05-13T19:24:14Z</time>
      </trkpt>
      <trkpt lat="37.372604" lon="-122.11764">
        <ele>69.8</ele>
        <time>2015-05-13T19:24:15Z</time>
      </trkpt>
      <trkpt lat="37.372673" lon="-122.117648">
        <ele>69.7</ele>
        <time>2015-05-13T19:24:16Z</time>
      </trkpt>
      <trkpt lat="37.372744" lon="-122.117649">
        <ele>69.6</ele>
        <time>2015-05-13T19:24:17Z</time>
      </trkpt>
      <trkpt lat="37.372812" lon="-122.11765">
        <ele>69.4</ele>
        <time>2015-05-13T19:24:18Z</time>
      </trkpt>
      <trkpt lat="37.372879" lon="-122.117661">
        <ele>69.4</ele>
        <time>2015-05-13T19:24:19Z</time>
      </trkpt>
      <trkpt lat="37.372949" lon="-122.117663">
        <ele>69.3</ele>
        <time>2015-05-13T19:24:20Z</time>
      </trkpt>
      <trkpt lat="37.373025" lon="-122.117672">
        <ele>69</ele>
        <time>2015-05-13T19:24:21Z</time>
      </trkpt>
      <trkpt lat="37.373089" lon="-122.117681">
        <ele>69</ele>
        <time>2015-05-13T19:24:22Z</time>
      </trkpt>
      <trkpt lat="37.373152" lon="-122.117698">
        <ele>68.8</ele>
        <time>2015-05-13T19:24:23Z</time>
      </trkpt>
      <trkpt lat="37.373211" lon="-122.117721">
        <ele>68.7</ele>
        <time>2015-05-13T19:24:24Z</time>
      </trkpt>
      <trkpt lat="37.373272" lon="-122.117758">
        <ele>68.7</ele>
        <time>2015-05-13T19:24:25Z</time>
      </trkpt>
      <trkpt lat="37.373333" lon="-122.11779">
        <ele>68.6</ele>
        <time>2015-05-13T19:24:26Z</time>
      </trkpt>
      <trkpt lat="37.373383" lon="-122.117835">
        <ele>68.6</ele>
        <time>2015-05-13T19:24:27Z</time>
      </trkpt>
      <trkpt lat="37.37344" lon="-122.117871">
        <ele>68.5</ele>
        <time>2015-05-13T19:24:28Z</time>
      </trkpt>
      <trkpt lat="37.373497" lon="-122.117912">
        <ele>68.4</ele>
        <time>2015-05-13T19:24:29Z</time>
      </trkpt>
      <trkpt lat="37.373542" lon="-122.117963">
        <ele>68.5</ele>
        <time>2015-05-13T19:24:30Z</time>
      </trkpt>
      <trkpt lat="37.373592" lon="-122.118012">
        <ele>68.5</ele>
        <time>2015-05-13T19:24:31Z</time>
      </trkpt>
      <trkpt lat="37.373648" lon="-122.118057">
        <ele>68.4</ele>
        <time>2015-05-13T19:24:32Z</time>
      </trkpt>
      <trkpt lat="37.373694" lon="-122.118095">
        <ele>68.5</ele>
        <time>2015-05-13T19:24:33Z</time>
      </trkpt>
      <trkpt lat="37.373738" lon="-122.118136">
        <ele>68.4</ele>
        <time>2015-05-13T19:24:34Z</time>
      </trkpt>
      <trkpt lat="37.373787" lon="-122.118181">
        <ele>68.3</ele>
        <time>2015-05-13T19:24:35Z</time>
      </trkpt>
      <trkpt lat="37.373839" lon="-122.118215">
        <ele>68.3</ele>
        <time>2015-05-13T19:24:36Z</time>
      </trkpt>
      <trkpt lat="37.373902" lon="-122.118249">
        <ele>68.2</ele>
        <time>2015-05-13T19:24:37Z</time>
      </trkpt>
      <trkpt lat="37.373955" lon="-122.118279">
        <ele>68.2</ele>
        <time>2015-05-13T19:24:38Z</time>
      </trkpt>
      <trkpt lat="37.374013" lon="-122.118311">
        <ele>68.1</ele>
        <time>2015-05-13T19:24:39Z</time>
      </trkpt>
      <trkpt lat="37.374075" lon="-122.118337">
        <ele>68.1</ele>
        <time>2015-05-13T19:24:40Z</time>
      </trkpt>
      <trkpt lat="37.374134" lon="-122.118364">
        <ele>68</ele>
        <time>2015-05-13T19:24:41Z</time>
      </trkpt>
      <trkpt lat="37.374206" lon="-122.118361">
        <ele>67.9</ele>
        <time>2015-05-13T19:24:42Z</time>
      </trkpt>
      <trkpt lat="37.374268" lon="-122.118369">
        <ele>67.8</ele>
        <time>2015-05-13T19:24:43Z</time>
      </trkpt>
      <trkpt lat="37.374332" lon="-122.118395">
        <ele>67.7</ele>
        <time>2015-05-13T19:24:44Z</time>
      </trkpt>
      <trkpt lat="37.374396" lon="-122.118419">
        <ele>67.6</ele>
        <time>2015-05-13T19:24:45Z</time>
      </trkpt>
      <trkpt lat="37.37446" lon="-122.118423">
        <ele>67.5</ele>
        <time>2015-05-13T19:24:46Z</time>
      </trkpt>
      <trkpt lat="37.37453" lon="-122.118423">
        <ele>67.4</ele>
        <time>2015-05-13T19:24:47Z</time>
      </trkpt>
      <trkpt lat="37.374593" lon="-122.118423">
        <ele>67.3</ele>
        <time>2015-05-13T19:24:48Z</time>
      </trkpt>
      <trkpt lat="37.374664" lon="-122.11842">
        <ele>67.1</ele>
        <time>2015-05-13T19:24:49Z</time>
      </trkpt>
      <trkpt lat="37.374731" lon="-122.118411">
        <ele>67</ele>
        <time>2015-05-13T19:24:50Z</time>
      </trkpt>
      <trkpt lat="37.374797" lon="-122.118391">
        <ele>66.8</ele>
        <time>2015-05-13T19:24:51Z</time>
      </trkpt>
      <trkpt lat="37.37486" lon="-122.11836">
        <ele>66.7</ele>
        <time>2015-05-13T19:24:52Z</time>
      </trkpt>
      <trkpt lat="37.37493" lon="-122.118339">
        <ele>66.5</ele>
        <time>2015-05-13T19:24:53Z</time>
      </trkpt>
      <trkpt lat="37.374994" lon="-122.118311">
        <ele>66.4</ele>
        <time>2015-05-13T19:24:54Z</time>
      </trkpt>
      <trkpt lat="37.375049" lon="-122.118272">
        <ele>66.2</ele>
        <time>2015-05-13T19:24:55Z</time>
      </trkpt>
      <trkpt lat="37.37512" lon="-122.118233">
        <ele>66.2</ele>
        <time>2015-05-13T19:24:56Z</time>
      </trkpt>
      <trkpt lat="37.375184" lon="-122.118208">
        <ele>66</ele>
        <time>2015-05-13T19:24:57Z</time>
      </trkpt>
      <trkpt lat="37.375254" lon="-122.118188">
        <ele>66</ele>
        <time>2015-05-13T19:24:58Z</time>
      </trkpt>
      <trkpt lat="37.375316" lon="-122.118172">
        <ele>65.8</ele>
        <time>2015-05-13T19:24:59Z</time>
      </trkpt>
      <trkpt lat="37.375379" lon="-122.118163">
        <ele>65.7</ele>
        <time>2015-05-13T19:25:00Z</time>
      </trkpt>
      <trkpt lat="37.375445" lon="-122.118152">
        <ele>65.6</ele>
        <time>2015-05-13T19:25:01Z</time>
      </trkpt>
      <trkpt lat="37.375513" lon="-122.118127">
        <ele>65.4</ele>
        <time>2015-05-13T19:25:02Z</time>
      </trkpt>
      <trkpt lat="37.375581" lon="-122.118122">
        <ele>65.3</ele>
        <time>2015-05-13T19:25:03Z</time>
      </trkpt>
      <trkpt lat="37.375642" lon="-122.118109">
        <ele>65.1</ele>
        <time>2015-05-13T19:25:04Z</time>
      </trkpt>
      <trkpt lat="37.375719" lon="-122.11811">
        <ele>65</ele>
        <time>2015-05-13T19:25:05Z</time>
      </trkpt>
      <trkpt lat="37.375785" lon="-122.118114">
        <ele>64.9</ele>
        <time>2015-05-13T19:25:06Z</time>
      </trkpt>
      <trkpt lat="37.375858" lon="-122.118116">
        <ele>64.7</ele>
        <time>2015-05-13T19:25:07Z</time>
      </trkpt>
      <trkpt lat="37.375923" lon="-122.118124">
        <ele>64.6</ele>
        <time>2015-05-13T19:25:08Z</time>
      </trkpt>
      <trkpt lat="37.375987" lon="-122.118132">
        <ele>64.5</ele>
        <time>2015-05-13T19:25:09Z</time>
      </trkpt>
      <trkpt lat="37.376049" lon="-122.118151">
        <ele>64.4</ele>
        <time>2015-05-13T19:25:10Z</time>
      </trkpt>
      <trkpt lat="37.376108" lon="-122.118166">
        <ele>64.3</ele>
        <time>2015-05-13T19:25:11Z</time>
      </trkpt>
      <trkpt lat="37.376165" lon="-122.118179">
        <ele>64.2</ele>
        <time>2015-05-13T19:25:12Z</time>
      </trkpt>
      <trkpt lat="37.376226" lon="-122.118191">
        <ele>64.1</ele>
        <time>2015-05-13T19:25:13Z</time>
      </trkpt>
      <trkpt lat="37.376286" lon="-122.118224">
        <ele>64</ele>
        <time>2015-05-13T19:25:14Z</time>
      </trkpt>
      <trkpt lat="37.376342" lon="-122.118248">
        <ele>63.9</ele>
        <time>2015-05-13T19:25:15Z</time>
      </trkpt>
      <trkpt lat="37.376405" lon="-122.11827">
        <ele>63.8</ele>
        <time>2015-05-13T19:25:16Z</time>
      </trkpt>
      <trkpt lat="37.376469" lon="-122.118285">
        <ele>63.7</ele>
        <time>2015-05-13T19:25:17Z</time>
      </trkpt>
      <trkpt lat="37.376528" lon="-122.118312">
        <ele>63.6</ele>
        <time>2015-05-13T19:25:18Z</time>
      </trkpt>
      <trkpt lat="37.376594" lon="-122.11834">
        <ele>63.5</ele>
        <time>2015-05-13T19:25:19Z</time>
      </trkpt>
      <trkpt lat="37.376654" lon="-122.118365">
        <ele>63.4</ele>
        <time>2015-05-13T19:25:20Z</time>
      </trkpt>
      <trkpt lat="37.376718" lon="-122.1184">
        <ele>63.3</ele>
        <time>2015-05-13T19:25:22Z</time>
      </trkpt>
      <trkpt lat="37.376822" lon="-122.11849">
        <ele>63.2</ele>
        <time>2015-05-13T19:25:23Z</time>
      </trkpt>
      <trkpt lat="37.376871" lon="-122.118523">
        <ele>63.1</ele>
        <time>2015-05-13T19:25:24Z</time>
      </trkpt>
      <trkpt lat="37.376924" lon="-122.118558">
        <ele>63.1</ele>
        <time>2015-05-13T19:25:25Z</time>
      </trkpt>
      <trkpt lat="37.376979" lon="-122.118596">
        <ele>63</ele>
        <time>2015-05-13T19:25:26Z</time>
      </trkpt>
      <trkpt lat="37.377034" lon="-122.11861">
        <ele>62.9</ele>
        <time>2015-05-13T19:25:27Z</time>
      </trkpt>
      <trkpt lat="37.377086" lon="-122.118643">
        <ele>62.8</ele>
        <time>2015-05-13T19:25:28Z</time>
      </trkpt>
      <trkpt lat="37.377128" lon="-122.118665">
        <ele>62.7</ele>
        <time>2015-05-13T19:25:29Z</time>
      </trkpt>
      <trkpt lat="37.377174" lon="-122.1187">
        <ele>62.7</ele>
        <time>2015-05-13T19:25:30Z</time>
      </trkpt>
      <trkpt lat="37.37721" lon="-122.118705">
        <ele>62.6</ele>
        <time>2015-05-13T19:25:32Z</time>
      </trkpt>
      <trkpt lat="37.377252" lon="-122.118734">
        <ele>62.6</ele>
        <time>2015-05-13T19:25:34Z</time>
      </trkpt>
      <trkpt lat="37.37729" lon="-122.118745">
        <ele>62.5</ele>
        <time>2015-05-13T19:25:35Z</time>
      </trkpt>
      <trkpt lat="37.377337" lon="-122.118761">
        <ele>62.5</ele>
        <time>2015-05-13T19:25:36Z</time>
      </trkpt>
      <trkpt lat="37.377381" lon="-122.118784">
        <ele>62.4</ele>
        <time>2015-05-13T19:25:37Z</time>
      </trkpt>
      <trkpt lat="37.377421" lon="-122.118811">
        <ele>62.3</ele>
        <time>2015-05-13T19:25:38Z</time>
      </trkpt>
      <trkpt lat="37.377465" lon="-122.118838">
        <ele>62.3</ele>
        <time>2015-05-13T19:25:39Z</time>
      </trkpt>
      <trkpt lat="37.377505" lon="-122.118866">
        <ele>62.3</ele>
        <time>2015-05-13T19:25:40Z</time>
      </trkpt>
      <trkpt lat="37.377541" lon="-122.118898">
        <ele>62.3</ele>
        <time>2015-05-13T19:25:41Z</time>
      </trkpt>
      <trkpt lat="37.377586" lon="-122.11893">
        <ele>62.3</ele>
        <time>2015-05-13T19:25:42Z</time>
      </trkpt>
      <trkpt lat="37.377634" lon="-122.118958">
        <ele>62.2</ele>
        <time>2015-05-13T19:25:43Z</time>
      </trkpt>
      <trkpt lat="37.377677" lon="-122.118995">
        <ele>62.2</ele>
        <time>2015-05-13T19:25:44Z</time>
      </trkpt>
      <trkpt lat="37.377721" lon="-122.119014">
        <ele>62.1</ele>
        <time>2015-05-13T19:25:45Z</time>
      </trkpt>
      <trkpt lat="37.377767" lon="-122.119037">
        <ele>62</ele>
        <time>2015-05-13T19:25:46Z</time>
      </trkpt>
      <trkpt lat="37.377815" lon="-122.119099">
        <ele>62</ele>
        <time>2015-05-13T19:25:47Z</time>
      </trkpt>
      <trkpt lat="37.377867" lon="-122.119144">
        <ele>62</ele>
        <time>2015-05-13T19:25:48Z</time>
      </trkpt>
      <trkpt lat="37.37792" lon="-122.119176">
        <ele>61.9</ele>
        <time>2015-05-13T19:25:49Z</time>
      </trkpt>
      <trkpt lat="37.377966" lon="-122.119202">
        <ele>61.8</ele>
        <time>2015-05-13T19:25:50Z</time>
      </trkpt>
      <trkpt lat="37.378014" lon="-122.119246">
        <ele>61.7</ele>
        <time>2015-05-13T19:25:51Z</time>
      </trkpt>
      <trkpt lat="37.378068" lon="-122.119282">
        <ele>61.7</ele>
        <time>2015-05-13T19:25:52Z</time>
      </trkpt>
      <trkpt lat="37.378128" lon="-122.119329">
        <ele>61.5</ele>
        <time>2015-05-13T19:25:53Z</time>
      </trkpt>
      <trkpt lat="37.378178" lon="-122.119367">
        <ele>61.4</ele>
        <time>2015-05-13T19:25:54Z</time>
      </trkpt>
      <trkpt lat="37.378236" lon="-122.119415">
        <ele>61.3</ele>
        <time>2015-05-13T19:25:55Z</time>
      </trkpt>
      <trkpt lat="37.37829" lon="-122.119459">
        <ele>61.2</ele>
        <time>2015-05-13T19:25:56Z</time>
      </trkpt>
      <trkpt lat="37.378341" lon="-122.119501">
        <ele>61.1</ele>
        <time>2015-05-13T19:25:57Z</time>
      </trkpt>
      <trkpt lat="37.378406" lon="-122.119543">
        <ele>61</ele>
        <time>2015-05-13T19:25:58Z</time>
      </trkpt>
      <trkpt lat="37.378465" lon="-122.119592">
        <ele>60.9</ele>
        <time>2015-05-13T19:25:59Z</time>
      </trkpt>
      <trkpt lat="37.378519" lon="-122.119644">
        <ele>60.9</ele>
        <time>2015-05-13T19:26:00Z</time>
      </trkpt>
      <trkpt lat="37.378572" lon="-122.119681">
        <ele>60.8</ele>
        <time>2015-05-13T19:26:01Z</time>
      </trkpt>
      <trkpt lat="37.378629" lon="-122.11972">
        <ele>60.8</ele>
        <time>2015-05-13T19:26:02Z</time>
      </trkpt>
      <trkpt lat="37.37868" lon="-122.119769">
        <ele>60.8</ele>
        <time>2015-05-13T19:26:03Z</time>
      </trkpt>
      <trkpt lat="37.378734" lon="-122.119823">
        <ele>60.7</ele>
        <time>2015-05-13T19:26:04Z</time>
      </trkpt>
      <trkpt lat="37.378782" lon="-122.119864">
        <ele>60.7</ele>
        <time>2015-05-13T19:26:05Z</time>
      </trkpt>
      <trkpt lat="37.378834" lon="-122.119902">
        <ele>60.6</ele>
        <time>2015-05-13T19:26:06Z</time>
      </trkpt>
      <trkpt lat="37.378884" lon="-122.119941">
        <ele>60.6</ele>
        <time>2015-05-13T19:26:07Z</time>
      </trkpt>
      <trkpt lat="37.378938" lon="-122.119986">
        <ele>60.6</ele>
        <time>2015-05-13T19:26:08Z</time>
      </trkpt>
      <trkpt lat="37.378986" lon="-122.12004">
        <ele>60.6</ele>
        <time>2015-05-13T19:26:09Z</time>
      </trkpt>
      <trkpt lat="37.379044" lon="-122.120068">
        <ele>60.5</ele>
        <time>2015-05-13T19:26:10Z</time>
      </trkpt>
      <trkpt lat="37.379099" lon="-122.120101">
        <ele>60.4</ele>
        <time>2015-05-13T19:26:11Z</time>
      </trkpt>
      <trkpt lat="37.379153" lon="-122.120144">
        <ele>60.4</ele>
        <time>2015-05-13T19:26:12Z</time>
      </trkpt>
      <trkpt lat="37.379208" lon="-122.120187">
        <ele>60.3</ele>
        <time>2015-05-13T19:26:13Z</time>
      </trkpt>
      <trkpt lat="37.379262" lon="-122.120231">
        <ele>60.3</ele>
        <time>2015-05-13T19:26:14Z</time>
      </trkpt>
      <trkpt lat="37.379314" lon="-122.120274">
        <ele>60.2</ele>
        <time>2015-05-13T19:26:15Z</time>
      </trkpt>
      <trkpt lat="37.379366" lon="-122.120325">
        <ele>60.2</ele>
        <time>2015-05-13T19:26:16Z</time>
      </trkpt>
      <trkpt lat="37.379418" lon="-122.12036">
        <ele>60.2</ele>
        <time>2015-05-13T19:26:17Z</time>
      </trkpt>
      <trkpt lat="37.379467" lon="-122.120392">
        <ele>60.1</ele>
        <time>2015-05-13T19:26:18Z</time>
      </trkpt>
      <trkpt lat="37.379523" lon="-122.120442">
        <ele>60</ele>
        <time>2015-05-13T19:26:19Z</time>
      </trkpt>
      <trkpt lat="37.379575" lon="-122.120485">
        <ele>60.1</ele>
        <time>2015-05-13T19:26:20Z</time>
      </trkpt>
      <trkpt lat="37.379629" lon="-122.12053">
        <ele>60</ele>
        <time>2015-05-13T19:26:21Z</time>
      </trkpt>
      <trkpt lat="37.379685" lon="-122.120561">
        <ele>60</ele>
        <time>2015-05-13T19:26:22Z</time>
      </trkpt>
      <trkpt lat="37.379733" lon="-122.1206">
        <ele>60.1</ele>
        <time>2015-05-13T19:26:23Z</time>
      </trkpt>
      <trkpt lat="37.379788" lon="-122.120644">
        <ele>60</ele>
        <time>2015-05-13T19:26:24Z</time>
      </trkpt>
      <trkpt lat="37.379839" lon="-122.120686">
        <ele>60</ele>
        <time>2015-05-13T19:26:25Z</time>
      </trkpt>
      <trkpt lat="37.379892" lon="-122.120729">
        <ele>60</ele>
        <time>2015-05-13T19:26:26Z</time>
      </trkpt>
      <trkpt lat="37.379949" lon="-122.120776">
        <ele>59.9</ele>
        <time>2015-05-13T19:26:27Z</time>
      </trkpt>
      <trkpt lat="37.380001" lon="-122.120819">
        <ele>59.9</ele>
        <time>2015-05-13T19:26:28Z</time>
      </trkpt>
      <trkpt lat="37.380047" lon="-122.120857">
        <ele>59.9</ele>
        <time>2015-05-13T19:26:29Z</time>
      </trkpt>
      <trkpt lat="37.380099" lon="-122.1209">
        <ele>59.9</ele>
        <time>2015-05-13T19:26:30Z</time>
      </trkpt>
      <trkpt lat="37.380153" lon="-122.120943">
        <ele>59.8</ele>
        <time>2015-05-13T19:26:31Z</time>
      </trkpt>
      <trkpt lat="37.380199" lon="-122.120982">
        <ele>59.7</ele>
        <time>2015-05-13T19:26:32Z</time>
      </trkpt>
      <trkpt lat="37.38025" lon="-122.121024">
        <ele>59.7</ele>
        <time>2015-05-13T19:26:33Z</time>
      </trkpt>
      <trkpt lat="37.380305" lon="-122.121067">
        <ele>59.7</ele>
        <time>2015-05-13T19:26:34Z</time>
      </trkpt>
      <trkpt lat="37.38036" lon="-122.121109">
        <ele>59.6</ele>
        <time>2015-05-13T19:26:35Z</time>
      </trkpt>
      <trkpt lat="37.380414" lon="-122.121151">
        <ele>59.5</ele>
        <time>2015-05-13T19:26:36Z</time>
      </trkpt>
      <trkpt lat="37.380465" lon="-122.121191">
        <ele>59.4</ele>
        <time>2015-05-13T19:26:37Z</time>
      </trkpt>
      <trkpt lat="37.380518" lon="-122.121232">
        <ele>59.3</ele>
        <time>2015-05-13T19:26:38Z</time>
      </trkpt>
      <trkpt lat="37.380574" lon="-122.121275">
        <ele>59.3</ele>
        <time>2015-05-13T19:26:40Z</time>
      </trkpt>
      <trkpt lat="37.380632" lon="-122.12132">
        <ele>59.1</ele>
        <time>2015-05-13T19:26:41Z</time>
      </trkpt>
      <trkpt lat="37.380729" lon="-122.121394">
        <ele>58.9</ele>
        <time>2015-05-13T19:26:42Z</time>
      </trkpt>
      <trkpt lat="37.380782" lon="-122.121435">
        <ele>58.9</ele>
        <time>2015-05-13T19:26:43Z</time>
      </trkpt>
      <trkpt lat="37.380836" lon="-122.121477">
        <ele>58.7</ele>
        <time>2015-05-13T19:26:44Z</time>
      </trkpt>
      <trkpt lat="37.381042" lon="-122.121633">
        <ele>58.3</ele>
        <time>2015-05-13T19:26:48Z</time>
      </trkpt>
      <trkpt lat="37.381086" lon="-122.121669">
        <ele>58.1</ele>
        <time>2015-05-13T19:26:49Z</time>
      </trkpt>
      <trkpt lat="37.381126" lon="-122.121702">
        <ele>58</ele>
        <time>2015-05-13T19:26:50Z</time>
      </trkpt>
      <trkpt lat="37.381155" lon="-122.121725">
        <ele>58</ele>
        <time>2015-05-13T19:26:51Z</time>
      </trkpt>
      <trkpt lat="37.381184" lon="-122.121749">
        <ele>57.9</ele>
        <time>2015-05-13T19:26:52Z</time>
      </trkpt>
      <trkpt lat="37.38121" lon="-122.12177">
        <ele>57.8</ele>
        <time>2015-05-13T19:26:53Z</time>
      </trkpt>
      <trkpt lat="37.38132" lon="-122.121782">
        <ele>57.4</ele>
        <time>2015-05-13T19:26:56Z</time>
      </trkpt>
      <trkpt lat="37.381318" lon="-122.121725">
        <ele>57.4</ele>
        <time>2015-05-13T19:26:57Z</time>
      </trkpt>
      <trkpt lat="37.381318" lon="-122.121586">
        <ele>57.3</ele>
        <time>2015-05-13T19:27:01Z</time>
      </trkpt>
      <trkpt lat="37.381319" lon="-122.12154">
        <ele>57.2</ele>
        <time>2015-05-13T19:27:02Z</time>
      </trkpt>
      <trkpt lat="37.381319" lon="-122.1215">
        <ele>57.2</ele>
        <time>2015-05-13T19:27:03Z</time>
      </trkpt>
      <trkpt lat="37.38132" lon="-122.121448">
        <ele>57.2</ele>
        <time>2015-05-13T19:27:05Z</time>
      </trkpt>
      <trkpt lat="37.381251" lon="-122.121424">
        <ele>57.1</ele>
        <time>2015-05-13T19:27:06Z</time>
      </trkpt>
      <trkpt lat="37.381226" lon="-122.121439">
        <ele>57</ele>
        <time>2015-05-13T19:27:15Z</time>
      </trkpt>
      <trkpt lat="37.381219" lon="-122.121389">
        <ele>57.2</ele>
        <time>2015-05-13T19:27:21Z</time>
      </trkpt>
      <trkpt lat="37.381212" lon="-122.121355">
        <ele>57.2</ele>
        <time>2015-05-13T19:27:22Z</time>
      </trkpt>
      <trkpt lat="37.381322" lon="-122.121342">
        <ele>57.3</ele>
        <time>2015-05-13T19:27:23Z</time>
      </trkpt>
      <trkpt lat="37.38133" lon="-122.121221">
        <ele>57.4</ele>
        <time>2015-05-13T19:27:25Z</time>
      </trkpt>
      <trkpt lat="37.381332" lon="-122.121187">
        <ele>57.3</ele>
        <time>2015-05-13T19:27:26Z</time>
      </trkpt>
      <trkpt lat="37.381337" lon="-122.121058">
        <ele>57.2</ele>
        <time>2015-05-13T19:27:29Z</time>
      </trkpt>
      <trkpt lat="37.381339" lon="-122.121016">
        <ele>57.1</ele>
        <time>2015-05-13T19:27:30Z</time>
      </trkpt>
      <trkpt lat="37.381342" lon="-122.120936">
        <ele>57.1</ele>
        <time>2015-05-13T19:27:32Z</time>
      </trkpt>
      <trkpt lat="37.381346" lon="-122.120816">
        <ele>57</ele>
        <time>2015-05-13T19:27:35Z</time>
      </trkpt>
      <trkpt lat="37.381348" lon="-122.120781">
        <ele>56.9</ele>
        <time>2015-05-13T19:27:36Z</time>
      </trkpt>
      <trkpt lat="37.381351" lon="-122.120729">
        <ele>57</ele>
        <time>2015-05-13T19:27:37Z</time>
      </trkpt>
      <trkpt lat="37.381354" lon="-122.120653">
        <ele>57</ele>
        <time>2015-05-13T19:27:39Z</time>
      </trkpt>
      <trkpt lat="37.381356" lon="-122.120599">
        <ele>57</ele>
        <time>2015-05-13T19:27:40Z</time>
      </trkpt>
      <trkpt lat="37.381407" lon="-122.12052">
        <ele>56.8</ele>
        <time>2015-05-13T19:27:42Z</time>
      </trkpt>
      <trkpt lat="37.381448" lon="-122.120545">
        <ele>56.8</ele>
        <time>2015-05-13T19:27:43Z</time>
      </trkpt>
      <trkpt lat="37.381497" lon="-122.120575">
        <ele>56.6</ele>
        <time>2015-05-13T19:27:44Z</time>
      </trkpt>
      <trkpt lat="37.381556" lon="-122.120612">
        <ele>56.4</ele>
        <time>2015-05-13T19:27:45Z</time>
      </trkpt>
      <trkpt lat="37.381609" lon="-122.120645">
        <ele>56.3</ele>
        <time>2015-05-13T19:27:46Z</time>
      </trkpt>
      <trkpt lat="37.381654" lon="-122.120673">
        <ele>56.2</ele>
        <time>2015-05-13T19:27:47Z</time>
      </trkpt>
      <trkpt lat="37.38187" lon="-122.120758">
        <ele>55.7</ele>
        <time>2015-05-13T19:27:51Z</time>
      </trkpt>
      <trkpt lat="37.381931" lon="-122.120773">
        <ele>55.5</ele>
        <time>2015-05-13T19:27:52Z</time>
      </trkpt>
      <trkpt lat="37.382009" lon="-122.12078">
        <ele>55.4</ele>
        <time>2015-05-13T19:27:53Z</time>
      </trkpt>
      <trkpt lat="37.382071" lon="-122.120781">
        <ele>55.2</ele>
        <time>2015-05-13T19:27:54Z</time>
      </trkpt>
      <trkpt lat="37.382137" lon="-122.120783">
        <ele>55</ele>
        <time>2015-05-13T19:27:55Z</time>
      </trkpt>
      <trkpt lat="37.382203" lon="-122.120784">
        <ele>54.8</ele>
        <time>2015-05-13T19:27:56Z</time>
      </trkpt>
      <trkpt lat="37.382271" lon="-122.120785">
        <ele>54.6</ele>
        <time>2015-05-13T19:27:57Z</time>
      </trkpt>
      <trkpt lat="37.382332" lon="-122.120787">
        <ele>54.4</ele>
        <time>2015-05-13T19:27:58Z</time>
      </trkpt>
      <trkpt lat="37.382403" lon="-122.120788">
        <ele>54.2</ele>
        <time>2015-05-13T19:27:59Z</time>
      </trkpt>
      <trkpt lat="37.382473" lon="-122.120789">
        <ele>54.2</ele>
        <time>2015-05-13T19:28:00Z</time>
      </trkpt>
      <trkpt lat="37.382726" lon="-122.120791">
        <ele>53.7</ele>
        <time>2015-05-13T19:28:04Z</time>
      </trkpt>
      <trkpt lat="37.382792" lon="-122.120792">
        <ele>53.6</ele>
        <time>2015-05-13T19:28:05Z</time>
      </trkpt>
      <trkpt lat="37.382855" lon="-122.120792">
        <ele>53.5</ele>
        <time>2015-05-13T19:28:06Z</time>
      </trkpt>
      <trkpt lat="37.382927" lon="-122.120793">
        <ele>53.2</ele>
        <time>2015-05-13T19:28:07Z</time>
      </trkpt>
      <trkpt lat="37.383001" lon="-122.120793">
        <ele>53</ele>
        <time>2015-05-13T19:28:08Z</time>
      </trkpt>
      <trkpt lat="37.383072" lon="-122.120794">
        <ele>52.8</ele>
        <time>2015-05-13T19:28:09Z</time>
      </trkpt>
      <trkpt lat="37.383144" lon="-122.120794">
        <ele>52.7</ele>
        <time>2015-05-13T19:28:10Z</time>
      </trkpt>
      <trkpt lat="37.383216" lon="-122.120795">
        <ele>52.5</ele>
        <time>2015-05-13T19:28:11Z</time>
      </trkpt>
      <trkpt lat="37.383286" lon="-122.120795">
        <ele>52.3</ele>
        <time>2015-05-13T19:28:12Z</time>
      </trkpt>
      <trkpt lat="37.383359" lon="-122.120795">
        <ele>52.1</ele>
        <time>2015-05-13T19:28:13Z</time>
      </trkpt>
      <trkpt lat="37.38344" lon="-122.120795">
        <ele>52</ele>
        <time>2015-05-13T19:28:14Z</time>
      </trkpt>
      <trkpt lat="37.383508" lon="-122.120795">
        <ele>51.8</ele>
        <time>2015-05-13T19:28:15Z</time>
      </trkpt>
      <trkpt lat="37.383582" lon="-122.120796">
        <ele>51.5</ele>
        <time>2015-05-13T19:28:16Z</time>
      </trkpt>
      <trkpt lat="37.383654" lon="-122.120796">
        <ele>51.4</ele>
        <time>2015-05-13T19:28:17Z</time>
      </trkpt>
      <trkpt lat="37.383727" lon="-122.120796">
        <ele>51.2</ele>
        <time>2015-05-13T19:28:18Z</time>
      </trkpt>
      <trkpt lat="37.383808" lon="-122.120796">
        <ele>51</ele>
        <time>2015-05-13T19:28:19Z</time>
      </trkpt>
      <trkpt lat="37.38388" lon="-122.120796">
        <ele>50.9</ele>
        <time>2015-05-13T19:28:20Z</time>
      </trkpt>
      <trkpt lat="37.383963" lon="-122.120796">
        <ele>50.6</ele>
        <time>2015-05-13T19:28:21Z</time>
      </trkpt>
      <trkpt lat="37.384038" lon="-122.120797">
        <ele>50.5</ele>
        <time>2015-05-13T19:28:22Z</time>
      </trkpt>
      <trkpt lat="37.384111" lon="-122.120797">
        <ele>50.3</ele>
        <time>2015-05-13T19:28:23Z</time>
      </trkpt>
      <trkpt lat="37.384186" lon="-122.120797">
        <ele>50.1</ele>
        <time>2015-05-13T19:28:24Z</time>
      </trkpt>
      <trkpt lat="37.384261" lon="-122.120797">
        <ele>50</ele>
        <time>2015-05-13T19:28:25Z</time>
      </trkpt>
      <trkpt lat="37.384334" lon="-122.120797">
        <ele>49.8</ele>
        <time>2015-05-13T19:28:26Z</time>
      </trkpt>
      <trkpt lat="37.384411" lon="-122.120797">
        <ele>49.5</ele>
        <time>2015-05-13T19:28:27Z</time>
      </trkpt>
      <trkpt lat="37.384493" lon="-122.120798">
        <ele>49.2</ele>
        <time>2015-05-13T19:28:28Z</time>
      </trkpt>
      <trkpt lat="37.384563" lon="-122.120798">
        <ele>49</ele>
        <time>2015-05-13T19:28:29Z</time>
      </trkpt>
      <trkpt lat="37.384656" lon="-122.120798">
        <ele>48.8</ele>
        <time>2015-05-13T19:28:30Z</time>
      </trkpt>
      <trkpt lat="37.384739" lon="-122.120798">
        <ele>48.5</ele>
        <time>2015-05-13T19:28:31Z</time>
      </trkpt>
      <trkpt lat="37.38482" lon="-122.120798">
        <ele>48.4</ele>
        <time>2015-05-13T19:28:32Z</time>
      </trkpt>
      <trkpt lat="37.384908" lon="-122.120798">
        <ele>48.1</ele>
        <time>2015-05-13T19:28:33Z</time>
      </trkpt>
      <trkpt lat="37.384996" lon="-122.120798">
        <ele>47.8</ele>
        <time>2015-05-13T19:28:34Z</time>
      </trkpt>
      <trkpt lat="37.385074" lon="-122.120798">
        <ele>47.6</ele>
        <time>2015-05-13T19:28:35Z</time>
      </trkpt>
      <trkpt lat="37.385151" lon="-122.120799">
        <ele>47.3</ele>
        <time>2015-05-13T19:28:36Z</time>
      </trkpt>
      <trkpt lat="37.385238" lon="-122.120799">
        <ele>47.1</ele>
        <time>2015-05-13T19:28:37Z</time>
      </trkpt>
      <trkpt lat="37.385329" lon="-122.1208">
        <ele>46.8</ele>
        <time>2015-05-13T19:28:38Z</time>
      </trkpt>
      <trkpt lat="37.385409" lon="-122.120802">
        <ele>46.7</ele>
        <time>2015-05-13T19:28:39Z</time>
      </trkpt>
      <trkpt lat="37.385493" lon="-122.120803">
        <ele>46.4</ele>
        <time>2015-05-13T19:28:40Z</time>
      </trkpt>
      <trkpt lat="37.38558" lon="-122.120805">
        <ele>46.2</ele>
        <time>2015-05-13T19:28:41Z</time>
      </trkpt>
      <trkpt lat="37.38566" lon="-122.120806">
        <ele>46</ele>
        <time>2015-05-13T19:28:42Z</time>
      </trkpt>
      <trkpt lat="37.385745" lon="-122.120807">
        <ele>45.9</ele>
        <time>2015-05-13T19:28:44Z</time>
      </trkpt>
      <trkpt lat="37.385891" lon="-122.12081">
        <ele>45.6</ele>
        <time>2015-05-13T19:28:45Z</time>
      </trkpt>
      <trkpt lat="37.385986" lon="-122.12081">
        <ele>45.4</ele>
        <time>2015-05-13T19:28:46Z</time>
      </trkpt>
      <trkpt lat="37.386059" lon="-122.12081">
        <ele>45.3</ele>
        <time>2015-05-13T19:28:47Z</time>
      </trkpt>
      <trkpt lat="37.386103" lon="-122.12081">
        <ele>45.2</ele>
        <time>2015-05-13T19:28:48Z</time>
      </trkpt>
      <trkpt lat="37.386202" lon="-122.120807">
        <ele>45.1</ele>
        <time>2015-05-13T19:28:49Z</time>
      </trkpt>
      <trkpt lat="37.386292" lon="-122.120807">
        <ele>44.9</ele>
        <time>2015-05-13T19:28:50Z</time>
      </trkpt>
      <trkpt lat="37.386371" lon="-122.120807">
        <ele>44.7</ele>
        <time>2015-05-13T19:28:51Z</time>
      </trkpt>
      <trkpt lat="37.386467" lon="-122.120808">
        <ele>44.6</ele>
        <time>2015-05-13T19:28:52Z</time>
      </trkpt>
      <trkpt lat="37.386536" lon="-122.120808">
        <ele>44.5</ele>
        <time>2015-05-13T19:28:53Z</time>
      </trkpt>
      <trkpt lat="37.386613" lon="-122.120808">
        <ele>44.4</ele>
        <time>2015-05-13T19:28:54Z</time>
      </trkpt>
      <trkpt lat="37.386697" lon="-122.120808">
        <ele>44.3</ele>
        <time>2015-05-13T19:28:55Z</time>
      </trkpt>
      <trkpt lat="37.386769" lon="-122.120808">
        <ele>44.1</ele>
        <time>2015-05-13T19:28:56Z</time>
      </trkpt>
      <trkpt lat="37.386843" lon="-122.120808">
        <ele>44</ele>
        <time>2015-05-13T19:28:57Z</time>
      </trkpt>
      <trkpt lat="37.387132" lon="-122.120807">
        <ele>43.9</ele>
        <time>2015-05-13T19:29:01Z</time>
      </trkpt>
      <trkpt lat="37.387203" lon="-122.120806">
        <ele>43.9</ele>
        <time>2015-05-13T19:29:02Z</time>
      </trkpt>
      <trkpt lat="37.387274" lon="-122.120806">
        <ele>43.8</ele>
        <time>2015-05-13T19:29:03Z</time>
      </trkpt>
      <trkpt lat="37.387353" lon="-122.120805">
        <ele>43.7</ele>
        <time>2015-05-13T19:29:04Z</time>
      </trkpt>
      <trkpt lat="37.387426" lon="-122.120804">
        <ele>43.6</ele>
        <time>2015-05-13T19:29:05Z</time>
      </trkpt>
      <trkpt lat="37.387496" lon="-122.120804">
        <ele>43.5</ele>
        <time>2015-05-13T19:29:06Z</time>
      </trkpt>
      <trkpt lat="37.387568" lon="-122.120803">
        <ele>43.4</ele>
        <time>2015-05-13T19:29:07Z</time>
      </trkpt>
      <trkpt lat="37.387642" lon="-122.120803">
        <ele>43.4</ele>
        <time>2015-05-13T19:29:08Z</time>
      </trkpt>
      <trkpt lat="37.38769" lon="-122.120802">
        <ele>43.3</ele>
        <time>2015-05-13T19:29:09Z</time>
      </trkpt>
      <trkpt lat="37.387783" lon="-122.120801">
        <ele>43.2</ele>
        <time>2015-05-13T19:29:10Z</time>
      </trkpt>
      <trkpt lat="37.387853" lon="-122.1208">
        <ele>43.1</ele>
        <time>2015-05-13T19:29:11Z</time>
      </trkpt>
      <trkpt lat="37.387909" lon="-122.120799">
        <ele>43</ele>
        <time>2015-05-13T19:29:12Z</time>
      </trkpt>
      <trkpt lat="37.387999" lon="-122.120799">
        <ele>42.9</ele>
        <time>2015-05-13T19:29:13Z</time>
      </trkpt>
      <trkpt lat="37.388079" lon="-122.120799">
        <ele>42.8</ele>
        <time>2015-05-13T19:29:14Z</time>
      </trkpt>
      <trkpt lat="37.388152" lon="-122.120799">
        <ele>42.7</ele>
        <time>2015-05-13T19:29:15Z</time>
      </trkpt>
      <trkpt lat="37.388218" lon="-122.120799">
        <ele>42.6</ele>
        <time>2015-05-13T19:29:16Z</time>
      </trkpt>
      <trkpt lat="37.388283" lon="-122.120799">
        <ele>42.5</ele>
        <time>2015-05-13T19:29:17Z</time>
      </trkpt>
      <trkpt lat="37.388361" lon="-122.120799">
        <ele>42.4</ele>
        <time>2015-05-13T19:29:19Z</time>
      </trkpt>
      <trkpt lat="37.388512" lon="-122.120799">
        <ele>42.3</ele>
        <time>2015-05-13T19:29:20Z</time>
      </trkpt>
      <trkpt lat="37.388562" lon="-122.120799">
        <ele>42.3</ele>
        <time>2015-05-13T19:29:21Z</time>
      </trkpt>
      <trkpt lat="37.388662" lon="-122.120798">
        <ele>42.1</ele>
        <time>2015-05-13T19:29:22Z</time>
      </trkpt>
      <trkpt lat="37.388741" lon="-122.120797">
        <ele>42</ele>
        <time>2015-05-13T19:29:23Z</time>
      </trkpt>
      <trkpt lat="37.388827" lon="-122.120796">
        <ele>42</ele>
        <time>2015-05-13T19:29:24Z</time>
      </trkpt>
      <trkpt lat="37.388901" lon="-122.120795">
        <ele>41.9</ele>
        <time>2015-05-13T19:29:25Z</time>
      </trkpt>
      <trkpt lat="37.388975" lon="-122.120794">
        <ele>41.8</ele>
        <time>2015-05-13T19:29:26Z</time>
      </trkpt>
      <trkpt lat="37.389047" lon="-122.120793">
        <ele>41.7</ele>
        <time>2015-05-13T19:29:27Z</time>
      </trkpt>
      <trkpt lat="37.389107" lon="-122.120792">
        <ele>41.7</ele>
        <time>2015-05-13T19:29:28Z</time>
      </trkpt>
      <trkpt lat="37.38919" lon="-122.120791">
        <ele>41.6</ele>
        <time>2015-05-13T19:29:29Z</time>
      </trkpt>
      <trkpt lat="37.389263" lon="-122.12079">
        <ele>41.5</ele>
        <time>2015-05-13T19:29:30Z</time>
      </trkpt>
      <trkpt lat="37.389331" lon="-122.120789">
        <ele>41.5</ele>
        <time>2015-05-13T19:29:31Z</time>
      </trkpt>
      <trkpt lat="37.389381" lon="-122.120788">
        <ele>41.4</ele>
        <time>2015-05-13T19:29:32Z</time>
      </trkpt>
      <trkpt lat="37.389479" lon="-122.120788">
        <ele>41.3</ele>
        <time>2015-05-13T19:29:33Z</time>
      </trkpt>
      <trkpt lat="37.389559" lon="-122.120788">
        <ele>41.2</ele>
        <time>2015-05-13T19:29:34Z</time>
      </trkpt>
      <trkpt lat="37.389632" lon="-122.120788">
        <ele>41.1</ele>
        <time>2015-05-13T19:29:35Z</time>
      </trkpt>
      <trkpt lat="37.389706" lon="-122.120788">
        <ele>41</ele>
        <time>2015-05-13T19:29:36Z</time>
      </trkpt>
      <trkpt lat="37.389774" lon="-122.120788">
        <ele>41</ele>
        <time>2015-05-13T19:29:37Z</time>
      </trkpt>
      <trkpt lat="37.389842" lon="-122.120788">
        <ele>41</ele>
        <time>2015-05-13T19:29:38Z</time>
      </trkpt>
      <trkpt lat="37.389908" lon="-122.120788">
        <ele>40.9</ele>
        <time>2015-05-13T19:29:39Z</time>
      </trkpt>
      <trkpt lat="37.389973" lon="-122.120788">
        <ele>40.8</ele>
        <time>2015-05-13T19:29:40Z</time>
      </trkpt>
      <trkpt lat="37.390046" lon="-122.120788">
        <ele>40.8</ele>
        <time>2015-05-13T19:29:41Z</time>
      </trkpt>
      <trkpt lat="37.390108" lon="-122.120788">
        <ele>40.7</ele>
        <time>2015-05-13T19:29:42Z</time>
      </trkpt>
      <trkpt lat="37.390168" lon="-122.120788">
        <ele>40.6</ele>
        <time>2015-05-13T19:29:43Z</time>
      </trkpt>
      <trkpt lat="37.390231" lon="-122.120788">
        <ele>40.4</ele>
        <time>2015-05-13T19:29:44Z</time>
      </trkpt>
      <trkpt lat="37.390296" lon="-122.120788">
        <ele>40.4</ele>
        <time>2015-05-13T19:29:45Z</time>
      </trkpt>
      <trkpt lat="37.39036" lon="-122.120788">
        <ele>40.3</ele>
        <time>2015-05-13T19:29:46Z</time>
      </trkpt>
      <trkpt lat="37.390422" lon="-122.120788">
        <ele>40.2</ele>
        <time>2015-05-13T19:29:47Z</time>
      </trkpt>
      <trkpt lat="37.390488" lon="-122.120907">
        <ele>40.1</ele>
        <time>2015-05-13T19:29:48Z</time>
      </trkpt>
      <trkpt lat="37.390487" lon="-122.120966">
        <ele>40.1</ele>
        <time>2015-05-13T19:29:49Z</time>
      </trkpt>
      <trkpt lat="37.390485" lon="-122.121036">
        <ele>40.2</ele>
        <time>2015-05-13T19:29:50Z</time>
      </trkpt>
      <trkpt lat="37.390483" lon="-122.121109">
        <ele>40.3</ele>
        <time>2015-05-13T19:29:51Z</time>
      </trkpt>
      <trkpt lat="37.39048" lon="-122.121181">
        <ele>40.2</ele>
        <time>2015-05-13T19:29:52Z</time>
      </trkpt>
      <trkpt lat="37.390478" lon="-122.121255">
        <ele>40.2</ele>
        <time>2015-05-13T19:29:53Z</time>
      </trkpt>
      <trkpt lat="37.390476" lon="-122.121323">
        <ele>40.2</ele>
        <time>2015-05-13T19:29:54Z</time>
      </trkpt>
      <trkpt lat="37.390475" lon="-122.12139">
        <ele>40.2</ele>
        <time>2015-05-13T19:29:55Z</time>
      </trkpt>
      <trkpt lat="37.390473" lon="-122.121459">
        <ele>40.1</ele>
        <time>2015-05-13T19:29:56Z</time>
      </trkpt>
      <trkpt lat="37.390471" lon="-122.121531">
        <ele>40.1</ele>
        <time>2015-05-13T19:29:57Z</time>
      </trkpt>
      <trkpt lat="37.390468" lon="-122.121604">
        <ele>40.1</ele>
        <time>2015-05-13T19:29:58Z</time>
      </trkpt>
      <trkpt lat="37.390466" lon="-122.121679">
        <ele>40.1</ele>
        <time>2015-05-13T19:29:59Z</time>
      </trkpt>
      <trkpt lat="37.390464" lon="-122.121751">
        <ele>40.2</ele>
        <time>2015-05-13T19:30:00Z</time>
      </trkpt>
      <trkpt lat="37.390463" lon="-122.1218">
        <ele>40.2</ele>
        <time>2015-05-13T19:30:01Z</time>
      </trkpt>
      <trkpt lat="37.390449" lon="-122.122038">
        <ele>40.3</ele>
        <time>2015-05-13T19:30:04Z</time>
      </trkpt>
      <trkpt lat="37.390445" lon="-122.122104">
        <ele>40.4</ele>
        <time>2015-05-13T19:30:05Z</time>
      </trkpt>
      <trkpt lat="37.390438" lon="-122.122211">
        <ele>40.6</ele>
        <time>2015-05-13T19:30:06Z</time>
      </trkpt>
      <trkpt lat="37.390423" lon="-122.122266">
        <ele>40.7</ele>
        <time>2015-05-13T19:30:08Z</time>
      </trkpt>
      <trkpt lat="37.390388" lon="-122.122324">
        <ele>40.8</ele>
        <time>2015-05-13T19:30:09Z</time>
      </trkpt>
      <trkpt lat="37.390357" lon="-122.122373">
        <ele>40.9</ele>
        <time>2015-05-13T19:30:10Z</time>
      </trkpt>
      <trkpt lat="37.390326" lon="-122.122421">
        <ele>41</ele>
        <time>2015-05-13T19:30:11Z</time>
      </trkpt>
      <trkpt lat="37.390297" lon="-122.122466">
        <ele>41.1</ele>
        <time>2015-05-13T19:30:12Z</time>
      </trkpt>
      <trkpt lat="37.390261" lon="-122.122523">
        <ele>41.2</ele>
        <time>2015-05-13T19:30:13Z</time>
      </trkpt>
      <trkpt lat="37.390234" lon="-122.122567">
        <ele>41.3</ele>
        <time>2015-05-13T19:30:14Z</time>
      </trkpt>
      <trkpt lat="37.390204" lon="-122.12262">
        <ele>41.4</ele>
        <time>2015-05-13T19:30:15Z</time>
      </trkpt>
      <trkpt lat="37.390179" lon="-122.122672">
        <ele>41.5</ele>
        <time>2015-05-13T19:30:16Z</time>
      </trkpt>
      <trkpt lat="37.390152" lon="-122.122733">
        <ele>41.6</ele>
        <time>2015-05-13T19:30:17Z</time>
      </trkpt>
      <trkpt lat="37.390131" lon="-122.122789">
        <ele>41.7</ele>
        <time>2015-05-13T19:30:19Z</time>
      </trkpt>
      <trkpt lat="37.390116" lon="-122.122829">
        <ele>41.8</ele>
        <time>2015-05-13T19:30:20Z</time>
      </trkpt>
      <trkpt lat="37.3901" lon="-122.122876">
        <ele>41.8</ele>
        <time>2015-05-13T19:30:21Z</time>
      </trkpt>
      <trkpt lat="37.390023" lon="-122.123181">
        <ele>42.2</ele>
        <time>2015-05-13T19:30:26Z</time>
      </trkpt>
      <trkpt lat="37.390013" lon="-122.123224">
        <ele>42.2</ele>
        <time>2015-05-13T19:30:28Z</time>
      </trkpt>
      <trkpt lat="37.389999" lon="-122.123288">
        <ele>42.3</ele>
        <time>2015-05-13T19:30:29Z</time>
      </trkpt>
      <trkpt lat="37.38999" lon="-122.123325">
        <ele>42.3</ele>
        <time>2015-05-13T19:30:30Z</time>
      </trkpt>
      <trkpt lat="37.389978" lon="-122.123374">
        <ele>42.4</ele>
        <time>2015-05-13T19:30:32Z</time>
      </trkpt>
      <trkpt lat="37.39015" lon="-122.123427">
        <ele>42.7</ele>
        <time>2015-05-13T19:30:37Z</time>
      </trkpt>
      <trkpt lat="37.390154" lon="-122.123391">
        <ele>42.6</ele>
        <time>2015-05-13T19:31:07Z</time>
      </trkpt>
      <trkpt lat="37.390114" lon="-122.123397">
        <ele>42.7</ele>
        <time>2015-05-13T19:31:12Z</time>
      </trkpt>
      <trkpt lat="37.390086" lon="-122.123413">
        <ele>42.6</ele>
        <time>2015-05-13T19:31:14Z</time>
      </trkpt>
      <trkpt lat="37.390114" lon="-122.123406">
        <ele>42.7</ele>
        <time>2015-05-13T19:31:20Z</time>
      </trkpt>
      <trkpt lat="37.390139" lon="-122.123388">
        <ele>42.6</ele>
        <time>2015-05-13T19:31:21Z</time>
      </trkpt>
      <trkpt lat="37.39017" lon="-122.123412">
        <ele>42.6</ele>
        <time>2015-05-13T19:31:35Z</time>
      </trkpt>
      <trkpt lat="37.390196" lon="-122.123429">
        <ele>42.6</ele>
        <time>2015-05-13T19:31:38Z</time>
      </trkpt>
      <trkpt lat="37.390176" lon="-122.123464">
        <ele>42.7</ele>
        <time>2015-05-13T19:31:48Z</time>
      </trkpt>
      <trkpt lat="37.390206" lon="-122.123453">
        <ele>42.6</ele>
        <time>2015-05-13T19:31:52Z</time>
      </trkpt>
    </trkseg>
  </trk>
</gpx>